<?xml version="1.0" encoding="UTF-8" standalone="no" ?>
<gpx xmlns="http://www.topografix.com/GPX/1/1" xmlns:xsi="http://www.w3.org/2001/XMLSchema-instance" xsi:schemaLocation="http://www.topografix.com/GPX/1/1 http://www.topografix.com/GPX/1/1/gpx.xsd" version="1.1" creator="VisuGPX - https://www.visugpx.com">
  <metadata>
    <name>Champagnat Cyclisme sur route</name>
  </metadata>
  <trk>
    <name><![CDATA[Champagnat Cyclisme sur route]]></name>
    <trkseg>
      <trkpt lat="46.48273" lon="5.36839">
        <ele>263.60000610352</ele>
        <time>2021-10-21T12:13:04.000Z</time>
      </trkpt>
      <trkpt lat="46.48264" lon="5.36826">
        <ele>262.79998779297</ele>
        <time>2021-10-21T12:13:05.000Z</time>
      </trkpt>
      <trkpt lat="46.48255" lon="5.36816">
        <ele>262.20001220703</ele>
        <time>2021-10-21T12:13:06.000Z</time>
      </trkpt>
      <trkpt lat="46.48245" lon="5.36807">
        <ele>261.60000610352</ele>
        <time>2021-10-21T12:13:07.000Z</time>
      </trkpt>
      <trkpt lat="46.48225" lon="5.36792">
        <ele>260.20001220703</ele>
        <time>2021-10-21T12:13:09.000Z</time>
      </trkpt>
      <trkpt lat="46.48206" lon="5.36775">
        <ele>258.79998779297</ele>
        <time>2021-10-21T12:13:11.000Z</time>
      </trkpt>
      <trkpt lat="46.48197" lon="5.36768">
        <ele>257.79998779297</ele>
        <time>2021-10-21T12:13:12.000Z</time>
      </trkpt>
      <trkpt lat="46.48188" lon="5.3676">
        <ele>257.20001220703</ele>
        <time>2021-10-21T12:13:13.000Z</time>
      </trkpt>
      <trkpt lat="46.48178" lon="5.36753">
        <ele>256.20001220703</ele>
        <time>2021-10-21T12:13:14.000Z</time>
      </trkpt>
      <trkpt lat="46.48161" lon="5.36738">
        <ele>255</ele>
        <time>2021-10-21T12:13:16.000Z</time>
      </trkpt>
      <trkpt lat="46.48143" lon="5.36725">
        <ele>253.80000305176</ele>
        <time>2021-10-21T12:13:18.000Z</time>
      </trkpt>
      <trkpt lat="46.48126" lon="5.36711">
        <ele>252.19999694824</ele>
        <time>2021-10-21T12:13:20.000Z</time>
      </trkpt>
      <trkpt lat="46.48112" lon="5.367">
        <ele>251</ele>
        <time>2021-10-21T12:13:22.000Z</time>
      </trkpt>
      <trkpt lat="46.48109" lon="5.36693">
        <ele>250</ele>
        <time>2021-10-21T12:13:23.000Z</time>
      </trkpt>
      <trkpt lat="46.48107" lon="5.36687">
        <ele>249.60000610352</ele>
        <time>2021-10-21T12:13:24.000Z</time>
      </trkpt>
      <trkpt lat="46.48108" lon="5.36681">
        <ele>249.19999694824</ele>
        <time>2021-10-21T12:13:25.000Z</time>
      </trkpt>
      <trkpt lat="46.48112" lon="5.36674">
        <ele>248.80000305176</ele>
        <time>2021-10-21T12:13:26.000Z</time>
      </trkpt>
      <trkpt lat="46.48117" lon="5.36669">
        <ele>248.19999694824</ele>
        <time>2021-10-21T12:13:27.000Z</time>
      </trkpt>
      <trkpt lat="46.48136" lon="5.36654">
        <ele>246.80000305176</ele>
        <time>2021-10-21T12:13:30.000Z</time>
      </trkpt>
      <trkpt lat="46.48148" lon="5.36643">
        <ele>246</ele>
        <time>2021-10-21T12:13:32.000Z</time>
      </trkpt>
      <trkpt lat="46.4816" lon="5.36633">
        <ele>245.60000610352</ele>
        <time>2021-10-21T12:13:34.000Z</time>
      </trkpt>
      <trkpt lat="46.48167" lon="5.36626">
        <ele>245.19999694824</ele>
        <time>2021-10-21T12:13:35.000Z</time>
      </trkpt>
      <trkpt lat="46.48179" lon="5.36616">
        <ele>245</ele>
        <time>2021-10-21T12:13:37.000Z</time>
      </trkpt>
      <trkpt lat="46.48186" lon="5.36612">
        <ele>245</ele>
        <time>2021-10-21T12:13:38.000Z</time>
      </trkpt>
      <trkpt lat="46.48193" lon="5.3661">
        <ele>244.80000305176</ele>
        <time>2021-10-21T12:13:39.000Z</time>
      </trkpt>
      <trkpt lat="46.48206" lon="5.36604">
        <ele>244.60000610352</ele>
        <time>2021-10-21T12:13:41.000Z</time>
      </trkpt>
      <trkpt lat="46.48211" lon="5.36599">
        <ele>244.60000610352</ele>
        <time>2021-10-21T12:13:42.000Z</time>
      </trkpt>
      <trkpt lat="46.48215" lon="5.36592">
        <ele>244.39999389648</ele>
        <time>2021-10-21T12:13:43.000Z</time>
      </trkpt>
      <trkpt lat="46.48224" lon="5.36567">
        <ele>244.19999694824</ele>
        <time>2021-10-21T12:13:46.000Z</time>
      </trkpt>
      <trkpt lat="46.48228" lon="5.3656">
        <ele>244</ele>
        <time>2021-10-21T12:13:47.000Z</time>
      </trkpt>
      <trkpt lat="46.48233" lon="5.36553">
        <ele>243.80000305176</ele>
        <time>2021-10-21T12:13:48.000Z</time>
      </trkpt>
      <trkpt lat="46.48244" lon="5.36542">
        <ele>243.19999694824</ele>
        <time>2021-10-21T12:13:50.000Z</time>
      </trkpt>
      <trkpt lat="46.48255" lon="5.36529">
        <ele>242.60000610352</ele>
        <time>2021-10-21T12:13:52.000Z</time>
      </trkpt>
      <trkpt lat="46.48285" lon="5.36496">
        <ele>242.19999694824</ele>
        <time>2021-10-21T12:13:57.000Z</time>
      </trkpt>
      <trkpt lat="46.48303" lon="5.36476">
        <ele>241.80000305176</ele>
        <time>2021-10-21T12:14:00.000Z</time>
      </trkpt>
      <trkpt lat="46.48327" lon="5.3645">
        <ele>241.19999694824</ele>
        <time>2021-10-21T12:14:04.000Z</time>
      </trkpt>
      <trkpt lat="46.48346" lon="5.36428">
        <ele>240</ele>
        <time>2021-10-21T12:14:07.000Z</time>
      </trkpt>
      <trkpt lat="46.48353" lon="5.36421">
        <ele>239.80000305176</ele>
        <time>2021-10-21T12:14:08.000Z</time>
      </trkpt>
      <trkpt lat="46.48385" lon="5.36387">
        <ele>239</ele>
        <time>2021-10-21T12:14:13.000Z</time>
      </trkpt>
      <trkpt lat="46.48399" lon="5.36373">
        <ele>238.39999389648</ele>
        <time>2021-10-21T12:14:15.000Z</time>
      </trkpt>
      <trkpt lat="46.48414" lon="5.36361">
        <ele>238</ele>
        <time>2021-10-21T12:14:17.000Z</time>
      </trkpt>
      <trkpt lat="46.48422" lon="5.36357">
        <ele>238</ele>
        <time>2021-10-21T12:14:18.000Z</time>
      </trkpt>
      <trkpt lat="46.48428" lon="5.36354">
        <ele>237.80000305176</ele>
        <time>2021-10-21T12:14:19.000Z</time>
      </trkpt>
      <trkpt lat="46.48476" lon="5.36344">
        <ele>237.19999694824</ele>
        <time>2021-10-21T12:14:25.000Z</time>
      </trkpt>
      <trkpt lat="46.48528" lon="5.36336">
        <ele>236.80000305176</ele>
        <time>2021-10-21T12:14:32.000Z</time>
      </trkpt>
      <trkpt lat="46.4855" lon="5.36333">
        <ele>236.80000305176</ele>
        <time>2021-10-21T12:14:35.000Z</time>
      </trkpt>
      <trkpt lat="46.48604" lon="5.36323">
        <ele>235.80000305176</ele>
        <time>2021-10-21T12:14:42.000Z</time>
      </trkpt>
      <trkpt lat="46.48613" lon="5.3632">
        <ele>235.60000610352</ele>
        <time>2021-10-21T12:14:43.000Z</time>
      </trkpt>
      <trkpt lat="46.48626" lon="5.36305">
        <ele>235.19999694824</ele>
        <time>2021-10-21T12:14:45.000Z</time>
      </trkpt>
      <trkpt lat="46.48634" lon="5.36281">
        <ele>234.19999694824</ele>
        <time>2021-10-21T12:14:47.000Z</time>
      </trkpt>
      <trkpt lat="46.48636" lon="5.36268">
        <ele>233.80000305176</ele>
        <time>2021-10-21T12:14:48.000Z</time>
      </trkpt>
      <trkpt lat="46.48638" lon="5.36241">
        <ele>233</ele>
        <time>2021-10-21T12:14:50.000Z</time>
      </trkpt>
      <trkpt lat="46.48642" lon="5.36201">
        <ele>231.60000610352</ele>
        <time>2021-10-21T12:14:53.000Z</time>
      </trkpt>
      <trkpt lat="46.48644" lon="5.36175">
        <ele>231.19999694824</ele>
        <time>2021-10-21T12:14:55.000Z</time>
      </trkpt>
      <trkpt lat="46.48648" lon="5.36138">
        <ele>230.60000610352</ele>
        <time>2021-10-21T12:14:58.000Z</time>
      </trkpt>
      <trkpt lat="46.48653" lon="5.36113">
        <ele>230.19999694824</ele>
        <time>2021-10-21T12:15:00.000Z</time>
      </trkpt>
      <trkpt lat="46.48668" lon="5.36047">
        <ele>229.80000305176</ele>
        <time>2021-10-21T12:15:06.000Z</time>
      </trkpt>
      <trkpt lat="46.48678" lon="5.35994">
        <ele>230.39999389648</ele>
        <time>2021-10-21T12:15:12.000Z</time>
      </trkpt>
      <trkpt lat="46.48686" lon="5.35937">
        <ele>231.39999389648</ele>
        <time>2021-10-21T12:15:18.000Z</time>
      </trkpt>
      <trkpt lat="46.48689" lon="5.35916">
        <ele>231.60000610352</ele>
        <time>2021-10-21T12:15:20.000Z</time>
      </trkpt>
      <trkpt lat="46.48699" lon="5.35888">
        <ele>231.80000305176</ele>
        <time>2021-10-21T12:15:23.000Z</time>
      </trkpt>
      <trkpt lat="46.48727" lon="5.3582">
        <ele>231</ele>
        <time>2021-10-21T12:15:30.000Z</time>
      </trkpt>
      <trkpt lat="46.48735" lon="5.358">
        <ele>230.39999389648</ele>
        <time>2021-10-21T12:15:32.000Z</time>
      </trkpt>
      <trkpt lat="46.48751" lon="5.35764">
        <ele>230</ele>
        <time>2021-10-21T12:15:36.000Z</time>
      </trkpt>
      <trkpt lat="46.48763" lon="5.35736">
        <ele>229.60000610352</ele>
        <time>2021-10-21T12:15:39.000Z</time>
      </trkpt>
      <trkpt lat="46.48771" lon="5.35718">
        <ele>229.39999389648</ele>
        <time>2021-10-21T12:15:41.000Z</time>
      </trkpt>
      <trkpt lat="46.48794" lon="5.35666">
        <ele>229</ele>
        <time>2021-10-21T12:15:47.000Z</time>
      </trkpt>
      <trkpt lat="46.48823" lon="5.35599">
        <ele>229.19999694824</ele>
        <time>2021-10-21T12:15:55.000Z</time>
      </trkpt>
      <trkpt lat="46.48827" lon="5.3559">
        <ele>229.19999694824</ele>
        <time>2021-10-21T12:15:56.000Z</time>
      </trkpt>
      <trkpt lat="46.48839" lon="5.35569">
        <ele>229.19999694824</ele>
        <time>2021-10-21T12:15:59.000Z</time>
      </trkpt>
      <trkpt lat="46.48844" lon="5.35564">
        <ele>229.39999389648</ele>
        <time>2021-10-21T12:16:00.000Z</time>
      </trkpt>
      <trkpt lat="46.48851" lon="5.35561">
        <ele>229.39999389648</ele>
        <time>2021-10-21T12:16:01.000Z</time>
      </trkpt>
      <trkpt lat="46.48873" lon="5.35559">
        <ele>229.39999389648</ele>
        <time>2021-10-21T12:16:04.000Z</time>
      </trkpt>
      <trkpt lat="46.48928" lon="5.35556">
        <ele>228.60000610352</ele>
        <time>2021-10-21T12:16:11.000Z</time>
      </trkpt>
      <trkpt lat="46.48936" lon="5.35555">
        <ele>228.60000610352</ele>
        <time>2021-10-21T12:16:12.000Z</time>
      </trkpt>
      <trkpt lat="46.48953" lon="5.35555">
        <ele>228.19999694824</ele>
        <time>2021-10-21T12:16:14.000Z</time>
      </trkpt>
      <trkpt lat="46.49003" lon="5.35553">
        <ele>227.19999694824</ele>
        <time>2021-10-21T12:16:20.000Z</time>
      </trkpt>
      <trkpt lat="46.49019" lon="5.35552">
        <ele>227</ele>
        <time>2021-10-21T12:16:22.000Z</time>
      </trkpt>
      <trkpt lat="46.49049" lon="5.3555">
        <ele>226.60000610352</ele>
        <time>2021-10-21T12:16:26.000Z</time>
      </trkpt>
      <trkpt lat="46.49086" lon="5.35549">
        <ele>226.60000610352</ele>
        <time>2021-10-21T12:16:32.000Z</time>
      </trkpt>
      <trkpt lat="46.49115" lon="5.35547">
        <ele>227</ele>
        <time>2021-10-21T12:16:37.000Z</time>
      </trkpt>
      <trkpt lat="46.49121" lon="5.35547">
        <ele>227.39999389648</ele>
        <time>2021-10-21T12:16:38.000Z</time>
      </trkpt>
      <trkpt lat="46.49156" lon="5.35546">
        <ele>228</ele>
        <time>2021-10-21T12:16:44.000Z</time>
      </trkpt>
      <trkpt lat="46.49162" lon="5.35545">
        <ele>228.19999694824</ele>
        <time>2021-10-21T12:16:45.000Z</time>
      </trkpt>
      <trkpt lat="46.49187" lon="5.35544">
        <ele>229</ele>
        <time>2021-10-21T12:16:50.000Z</time>
      </trkpt>
      <trkpt lat="46.49191" lon="5.35544">
        <ele>229.19999694824</ele>
        <time>2021-10-21T12:16:51.000Z</time>
      </trkpt>
      <trkpt lat="46.49196" lon="5.35544">
        <ele>229.39999389648</ele>
        <time>2021-10-21T12:16:52.000Z</time>
      </trkpt>
      <trkpt lat="46.49214" lon="5.35541">
        <ele>229.80000305176</ele>
        <time>2021-10-21T12:16:55.000Z</time>
      </trkpt>
      <trkpt lat="46.49256" lon="5.35538">
        <ele>230.19999694824</ele>
        <time>2021-10-21T12:17:00.000Z</time>
      </trkpt>
      <trkpt lat="46.49306" lon="5.35533">
        <ele>230.19999694824</ele>
        <time>2021-10-21T12:17:06.000Z</time>
      </trkpt>
      <trkpt lat="46.49347" lon="5.35535">
        <ele>230</ele>
        <time>2021-10-21T12:17:11.000Z</time>
      </trkpt>
      <trkpt lat="46.4939" lon="5.3554">
        <ele>229.60000610352</ele>
        <time>2021-10-21T12:17:16.000Z</time>
      </trkpt>
      <trkpt lat="46.49444" lon="5.35559">
        <ele>229</ele>
        <time>2021-10-21T12:17:23.000Z</time>
      </trkpt>
      <trkpt lat="46.49494" lon="5.3558">
        <ele>228.80000305176</ele>
        <time>2021-10-21T12:17:30.000Z</time>
      </trkpt>
      <trkpt lat="46.49538" lon="5.35601">
        <ele>228.19999694824</ele>
        <time>2021-10-21T12:17:36.000Z</time>
      </trkpt>
      <trkpt lat="46.49591" lon="5.35619">
        <ele>227</ele>
        <time>2021-10-21T12:17:43.000Z</time>
      </trkpt>
      <trkpt lat="46.49598" lon="5.35621">
        <ele>227</ele>
        <time>2021-10-21T12:17:44.000Z</time>
      </trkpt>
      <trkpt lat="46.49636" lon="5.35632">
        <ele>226</ele>
        <time>2021-10-21T12:17:49.000Z</time>
      </trkpt>
      <trkpt lat="46.49658" lon="5.35638">
        <ele>225.60000610352</ele>
        <time>2021-10-21T12:17:52.000Z</time>
      </trkpt>
      <trkpt lat="46.49689" lon="5.35649">
        <ele>224.80000305176</ele>
        <time>2021-10-21T12:17:57.000Z</time>
      </trkpt>
      <trkpt lat="46.49692" lon="5.35648">
        <ele>224.60000610352</ele>
        <time>2021-10-21T12:17:58.000Z</time>
      </trkpt>
      <trkpt lat="46.497" lon="5.35636">
        <ele>223.60000610352</ele>
        <time>2021-10-21T12:18:01.000Z</time>
      </trkpt>
      <trkpt lat="46.49702" lon="5.35629">
        <ele>223.60000610352</ele>
        <time>2021-10-21T12:18:02.000Z</time>
      </trkpt>
      <trkpt lat="46.49704" lon="5.35621">
        <ele>223.39999389648</ele>
        <time>2021-10-21T12:18:03.000Z</time>
      </trkpt>
      <trkpt lat="46.49708" lon="5.35593">
        <ele>223.19999694824</ele>
        <time>2021-10-21T12:18:06.000Z</time>
      </trkpt>
      <trkpt lat="46.49714" lon="5.35543">
        <ele>222.60000610352</ele>
        <time>2021-10-21T12:18:11.000Z</time>
      </trkpt>
      <trkpt lat="46.49717" lon="5.35522">
        <ele>222.60000610352</ele>
        <time>2021-10-21T12:18:13.000Z</time>
      </trkpt>
      <trkpt lat="46.49726" lon="5.35456">
        <ele>222.39999389648</ele>
        <time>2021-10-21T12:18:19.000Z</time>
      </trkpt>
      <trkpt lat="46.49734" lon="5.35378">
        <ele>222</ele>
        <time>2021-10-21T12:18:26.000Z</time>
      </trkpt>
      <trkpt lat="46.49734" lon="5.35355">
        <ele>221.60000610352</ele>
        <time>2021-10-21T12:18:28.000Z</time>
      </trkpt>
      <trkpt lat="46.49728" lon="5.35303">
        <ele>221.39999389648</ele>
        <time>2021-10-21T12:18:33.000Z</time>
      </trkpt>
      <trkpt lat="46.49718" lon="5.3526">
        <ele>221.39999389648</ele>
        <time>2021-10-21T12:18:38.000Z</time>
      </trkpt>
      <trkpt lat="46.49707" lon="5.3521">
        <ele>222.60000610352</ele>
        <time>2021-10-21T12:18:44.000Z</time>
      </trkpt>
      <trkpt lat="46.49704" lon="5.35192">
        <ele>222.80000305176</ele>
        <time>2021-10-21T12:18:46.000Z</time>
      </trkpt>
      <trkpt lat="46.49689" lon="5.35115">
        <ele>223</ele>
        <time>2021-10-21T12:18:54.000Z</time>
      </trkpt>
      <trkpt lat="46.49688" lon="5.35105">
        <ele>222.80000305176</ele>
        <time>2021-10-21T12:18:55.000Z</time>
      </trkpt>
      <trkpt lat="46.49672" lon="5.35024">
        <ele>222.19999694824</ele>
        <time>2021-10-21T12:19:04.000Z</time>
      </trkpt>
      <trkpt lat="46.4967" lon="5.35016">
        <ele>222.39999389648</ele>
        <time>2021-10-21T12:19:05.000Z</time>
      </trkpt>
      <trkpt lat="46.4966" lon="5.34962">
        <ele>223.19999694824</ele>
        <time>2021-10-21T12:19:12.000Z</time>
      </trkpt>
      <trkpt lat="46.49656" lon="5.34932">
        <ele>223.60000610352</ele>
        <time>2021-10-21T12:19:16.000Z</time>
      </trkpt>
      <trkpt lat="46.49654" lon="5.34924">
        <ele>223.80000305176</ele>
        <time>2021-10-21T12:19:17.000Z</time>
      </trkpt>
      <trkpt lat="46.49653" lon="5.34915">
        <ele>223.80000305176</ele>
        <time>2021-10-21T12:19:18.000Z</time>
      </trkpt>
      <trkpt lat="46.49639" lon="5.34847">
        <ele>224</ele>
        <time>2021-10-21T12:19:26.000Z</time>
      </trkpt>
      <trkpt lat="46.49628" lon="5.34779">
        <ele>223.80000305176</ele>
        <time>2021-10-21T12:19:33.000Z</time>
      </trkpt>
      <trkpt lat="46.49628" lon="5.34721">
        <ele>222.80000305176</ele>
        <time>2021-10-21T12:19:38.000Z</time>
      </trkpt>
      <trkpt lat="46.4963" lon="5.34697">
        <ele>222</ele>
        <time>2021-10-21T12:19:40.000Z</time>
      </trkpt>
      <trkpt lat="46.49635" lon="5.34648">
        <ele>221</ele>
        <time>2021-10-21T12:19:44.000Z</time>
      </trkpt>
      <trkpt lat="46.49636" lon="5.34635">
        <ele>220.60000610352</ele>
        <time>2021-10-21T12:19:45.000Z</time>
      </trkpt>
      <trkpt lat="46.49639" lon="5.34609">
        <ele>220</ele>
        <time>2021-10-21T12:19:47.000Z</time>
      </trkpt>
      <trkpt lat="46.49645" lon="5.34569">
        <ele>218.80000305176</ele>
        <time>2021-10-21T12:19:50.000Z</time>
      </trkpt>
      <trkpt lat="46.4965" lon="5.34544">
        <ele>217.80000305176</ele>
        <time>2021-10-21T12:19:52.000Z</time>
      </trkpt>
      <trkpt lat="46.49662" lon="5.34489">
        <ele>216.80000305176</ele>
        <time>2021-10-21T12:19:57.000Z</time>
      </trkpt>
      <trkpt lat="46.49679" lon="5.34429">
        <ele>218</ele>
        <time>2021-10-21T12:20:04.000Z</time>
      </trkpt>
      <trkpt lat="46.49691" lon="5.3439">
        <ele>218.80000305176</ele>
        <time>2021-10-21T12:20:09.000Z</time>
      </trkpt>
      <trkpt lat="46.49693" lon="5.34383">
        <ele>218.80000305176</ele>
        <time>2021-10-21T12:20:10.000Z</time>
      </trkpt>
      <trkpt lat="46.49695" lon="5.34376">
        <ele>219</ele>
        <time>2021-10-21T12:20:11.000Z</time>
      </trkpt>
      <trkpt lat="46.49699" lon="5.34362">
        <ele>219.39999389648</ele>
        <time>2021-10-21T12:20:13.000Z</time>
      </trkpt>
      <trkpt lat="46.49703" lon="5.34348">
        <ele>219.80000305176</ele>
        <time>2021-10-21T12:20:15.000Z</time>
      </trkpt>
      <trkpt lat="46.49712" lon="5.34322">
        <ele>221</ele>
        <time>2021-10-21T12:20:19.000Z</time>
      </trkpt>
      <trkpt lat="46.49721" lon="5.343">
        <ele>221.19999694824</ele>
        <time>2021-10-21T12:20:22.000Z</time>
      </trkpt>
      <trkpt lat="46.49753" lon="5.3424">
        <ele>221.80000305176</ele>
        <time>2021-10-21T12:20:30.000Z</time>
      </trkpt>
      <trkpt lat="46.49788" lon="5.34183">
        <ele>222</ele>
        <time>2021-10-21T12:20:38.000Z</time>
      </trkpt>
      <trkpt lat="46.49796" lon="5.34169">
        <ele>222</ele>
        <time>2021-10-21T12:20:40.000Z</time>
      </trkpt>
      <trkpt lat="46.49825" lon="5.34121">
        <ele>222.60000610352</ele>
        <time>2021-10-21T12:20:47.000Z</time>
      </trkpt>
      <trkpt lat="46.49866" lon="5.34059">
        <ele>222.19999694824</ele>
        <time>2021-10-21T12:20:56.000Z</time>
      </trkpt>
      <trkpt lat="46.49876" lon="5.34046">
        <ele>222.19999694824</ele>
        <time>2021-10-21T12:20:58.000Z</time>
      </trkpt>
      <trkpt lat="46.4991" lon="5.34009">
        <ele>222</ele>
        <time>2021-10-21T12:21:05.000Z</time>
      </trkpt>
      <trkpt lat="46.49935" lon="5.3398">
        <ele>222.39999389648</ele>
        <time>2021-10-21T12:21:11.000Z</time>
      </trkpt>
      <trkpt lat="46.4994" lon="5.33975">
        <ele>222.60000610352</ele>
        <time>2021-10-21T12:21:12.000Z</time>
      </trkpt>
      <trkpt lat="46.4995" lon="5.33966">
        <ele>223</ele>
        <time>2021-10-21T12:21:14.000Z</time>
      </trkpt>
      <trkpt lat="46.49964" lon="5.33951">
        <ele>223.39999389648</ele>
        <time>2021-10-21T12:21:17.000Z</time>
      </trkpt>
      <trkpt lat="46.49969" lon="5.33947">
        <ele>223.60000610352</ele>
        <time>2021-10-21T12:21:18.000Z</time>
      </trkpt>
      <trkpt lat="46.49973" lon="5.33942">
        <ele>223.80000305176</ele>
        <time>2021-10-21T12:21:19.000Z</time>
      </trkpt>
      <trkpt lat="46.49978" lon="5.33937">
        <ele>224</ele>
        <time>2021-10-21T12:21:20.000Z</time>
      </trkpt>
      <trkpt lat="46.49998" lon="5.33917">
        <ele>224.60000610352</ele>
        <time>2021-10-21T12:21:24.000Z</time>
      </trkpt>
      <trkpt lat="46.50035" lon="5.33876">
        <ele>224.80000305176</ele>
        <time>2021-10-21T12:21:31.000Z</time>
      </trkpt>
      <trkpt lat="46.50083" lon="5.33822">
        <ele>224.19999694824</ele>
        <time>2021-10-21T12:21:39.000Z</time>
      </trkpt>
      <trkpt lat="46.50126" lon="5.33774">
        <ele>223.39999389648</ele>
        <time>2021-10-21T12:21:46.000Z</time>
      </trkpt>
      <trkpt lat="46.50137" lon="5.33761">
        <ele>222.80000305176</ele>
        <time>2021-10-21T12:21:48.000Z</time>
      </trkpt>
      <trkpt lat="46.50154" lon="5.33743">
        <ele>222.39999389648</ele>
        <time>2021-10-21T12:21:51.000Z</time>
      </trkpt>
      <trkpt lat="46.50159" lon="5.33737">
        <ele>222.19999694824</ele>
        <time>2021-10-21T12:21:52.000Z</time>
      </trkpt>
      <trkpt lat="46.50182" lon="5.33715">
        <ele>222.19999694824</ele>
        <time>2021-10-21T12:21:56.000Z</time>
      </trkpt>
      <trkpt lat="46.50203" lon="5.33691">
        <ele>222.39999389648</ele>
        <time>2021-10-21T12:22:00.000Z</time>
      </trkpt>
      <trkpt lat="46.50249" lon="5.33642">
        <ele>222.80000305176</ele>
        <time>2021-10-21T12:22:08.000Z</time>
      </trkpt>
      <trkpt lat="46.50294" lon="5.33593">
        <ele>222.19999694824</ele>
        <time>2021-10-21T12:22:16.000Z</time>
      </trkpt>
      <trkpt lat="46.50305" lon="5.3358">
        <ele>222.19999694824</ele>
        <time>2021-10-21T12:22:18.000Z</time>
      </trkpt>
      <trkpt lat="46.50333" lon="5.3355">
        <ele>221.80000305176</ele>
        <time>2021-10-21T12:22:23.000Z</time>
      </trkpt>
      <trkpt lat="46.50345" lon="5.33537">
        <ele>221.60000610352</ele>
        <time>2021-10-21T12:22:25.000Z</time>
      </trkpt>
      <trkpt lat="46.50391" lon="5.33489">
        <ele>221</ele>
        <time>2021-10-21T12:22:33.000Z</time>
      </trkpt>
      <trkpt lat="46.50414" lon="5.33464">
        <ele>220.39999389648</ele>
        <time>2021-10-21T12:22:37.000Z</time>
      </trkpt>
      <trkpt lat="46.50437" lon="5.33437">
        <ele>220</ele>
        <time>2021-10-21T12:22:41.000Z</time>
      </trkpt>
      <trkpt lat="46.50447" lon="5.33421">
        <ele>219.60000610352</ele>
        <time>2021-10-21T12:22:43.000Z</time>
      </trkpt>
      <trkpt lat="46.50451" lon="5.33412">
        <ele>219.39999389648</ele>
        <time>2021-10-21T12:22:44.000Z</time>
      </trkpt>
      <trkpt lat="46.50459" lon="5.33392">
        <ele>219.19999694824</ele>
        <time>2021-10-21T12:22:46.000Z</time>
      </trkpt>
      <trkpt lat="46.50461" lon="5.33382">
        <ele>219</ele>
        <time>2021-10-21T12:22:47.000Z</time>
      </trkpt>
      <trkpt lat="46.50465" lon="5.33361">
        <ele>218.80000305176</ele>
        <time>2021-10-21T12:22:49.000Z</time>
      </trkpt>
      <trkpt lat="46.50466" lon="5.3335">
        <ele>218.80000305176</ele>
        <time>2021-10-21T12:22:51.000Z</time>
      </trkpt>
      <trkpt lat="46.50467" lon="5.33298">
        <ele>218.39999389648</ele>
        <time>2021-10-21T12:22:56.000Z</time>
      </trkpt>
      <trkpt lat="46.50468" lon="5.33278">
        <ele>218.39999389648</ele>
        <time>2021-10-21T12:22:58.000Z</time>
      </trkpt>
      <trkpt lat="46.5047" lon="5.33255">
        <ele>218.60000610352</ele>
        <time>2021-10-21T12:23:01.000Z</time>
      </trkpt>
      <trkpt lat="46.5047" lon="5.33235">
        <ele>218.80000305176</ele>
        <time>2021-10-21T12:23:03.000Z</time>
      </trkpt>
      <trkpt lat="46.50469" lon="5.33214">
        <ele>219</ele>
        <time>2021-10-21T12:23:05.000Z</time>
      </trkpt>
      <trkpt lat="46.50469" lon="5.33204">
        <ele>219.19999694824</ele>
        <time>2021-10-21T12:23:06.000Z</time>
      </trkpt>
      <trkpt lat="46.50472" lon="5.33155">
        <ele>219.39999389648</ele>
        <time>2021-10-21T12:23:11.000Z</time>
      </trkpt>
      <trkpt lat="46.50472" lon="5.33085">
        <ele>218.19999694824</ele>
        <time>2021-10-21T12:23:17.000Z</time>
      </trkpt>
      <trkpt lat="46.50472" lon="5.33031">
        <ele>216.60000610352</ele>
        <time>2021-10-21T12:23:21.000Z</time>
      </trkpt>
      <trkpt lat="46.50472" lon="5.33003">
        <ele>216</ele>
        <time>2021-10-21T12:23:23.000Z</time>
      </trkpt>
      <trkpt lat="46.50473" lon="5.32988">
        <ele>215.19999694824</ele>
        <time>2021-10-21T12:23:24.000Z</time>
      </trkpt>
      <trkpt lat="46.50473" lon="5.32948">
        <ele>214</ele>
        <time>2021-10-21T12:23:27.000Z</time>
      </trkpt>
      <trkpt lat="46.50473" lon="5.32921">
        <ele>212.39999389648</ele>
        <time>2021-10-21T12:23:29.000Z</time>
      </trkpt>
      <trkpt lat="46.50473" lon="5.32908">
        <ele>212.19999694824</ele>
        <time>2021-10-21T12:23:30.000Z</time>
      </trkpt>
      <trkpt lat="46.50473" lon="5.32895">
        <ele>211.39999389648</ele>
        <time>2021-10-21T12:23:31.000Z</time>
      </trkpt>
      <trkpt lat="46.50474" lon="5.3284">
        <ele>210.39999389648</ele>
        <time>2021-10-21T12:23:35.000Z</time>
      </trkpt>
      <trkpt lat="46.50475" lon="5.328">
        <ele>209.19999694824</ele>
        <time>2021-10-21T12:23:38.000Z</time>
      </trkpt>
      <trkpt lat="46.50475" lon="5.32774">
        <ele>208.39999389648</ele>
        <time>2021-10-21T12:23:40.000Z</time>
      </trkpt>
      <trkpt lat="46.50475" lon="5.32762">
        <ele>208</ele>
        <time>2021-10-21T12:23:41.000Z</time>
      </trkpt>
      <trkpt lat="46.50476" lon="5.32725">
        <ele>206.80000305176</ele>
        <time>2021-10-21T12:23:44.000Z</time>
      </trkpt>
      <trkpt lat="46.50477" lon="5.32665">
        <ele>206.19999694824</ele>
        <time>2021-10-21T12:23:49.000Z</time>
      </trkpt>
      <trkpt lat="46.50476" lon="5.32585">
        <ele>205.80000305176</ele>
        <time>2021-10-21T12:23:56.000Z</time>
      </trkpt>
      <trkpt lat="46.50476" lon="5.32573">
        <ele>205.60000610352</ele>
        <time>2021-10-21T12:23:57.000Z</time>
      </trkpt>
      <trkpt lat="46.50474" lon="5.32528">
        <ele>204.80000305176</ele>
        <time>2021-10-21T12:24:01.000Z</time>
      </trkpt>
      <trkpt lat="46.50469" lon="5.32461">
        <ele>203.80000305176</ele>
        <time>2021-10-21T12:24:07.000Z</time>
      </trkpt>
      <trkpt lat="46.50467" lon="5.3245">
        <ele>203.60000610352</ele>
        <time>2021-10-21T12:24:08.000Z</time>
      </trkpt>
      <trkpt lat="46.50456" lon="5.32385">
        <ele>202.60000610352</ele>
        <time>2021-10-21T12:24:14.000Z</time>
      </trkpt>
      <trkpt lat="46.50454" lon="5.32375">
        <ele>202.39999389648</ele>
        <time>2021-10-21T12:24:15.000Z</time>
      </trkpt>
      <trkpt lat="46.50437" lon="5.32298">
        <ele>202.39999389648</ele>
        <time>2021-10-21T12:24:23.000Z</time>
      </trkpt>
      <trkpt lat="46.50435" lon="5.32289">
        <ele>202.39999389648</ele>
        <time>2021-10-21T12:24:24.000Z</time>
      </trkpt>
      <trkpt lat="46.50432" lon="5.32238">
        <ele>202.60000610352</ele>
        <time>2021-10-21T12:24:29.000Z</time>
      </trkpt>
      <trkpt lat="46.50433" lon="5.32153">
        <ele>202.19999694824</ele>
        <time>2021-10-21T12:24:37.000Z</time>
      </trkpt>
      <trkpt lat="46.50433" lon="5.32142">
        <ele>202</ele>
        <time>2021-10-21T12:24:38.000Z</time>
      </trkpt>
      <trkpt lat="46.50434" lon="5.32076">
        <ele>201.60000610352</ele>
        <time>2021-10-21T12:24:44.000Z</time>
      </trkpt>
      <trkpt lat="46.50435" lon="5.32042">
        <ele>201</ele>
        <time>2021-10-21T12:24:47.000Z</time>
      </trkpt>
      <trkpt lat="46.50436" lon="5.31998">
        <ele>200.39999389648</ele>
        <time>2021-10-21T12:24:51.000Z</time>
      </trkpt>
      <trkpt lat="46.50437" lon="5.31977">
        <ele>200.39999389648</ele>
        <time>2021-10-21T12:24:53.000Z</time>
      </trkpt>
      <trkpt lat="46.50438" lon="5.31947">
        <ele>200</ele>
        <time>2021-10-21T12:24:56.000Z</time>
      </trkpt>
      <trkpt lat="46.50438" lon="5.31876">
        <ele>199.60000610352</ele>
        <time>2021-10-21T12:25:03.000Z</time>
      </trkpt>
      <trkpt lat="46.50428" lon="5.31819">
        <ele>199.80000305176</ele>
        <time>2021-10-21T12:25:09.000Z</time>
      </trkpt>
      <trkpt lat="46.50412" lon="5.31756">
        <ele>199.39999389648</ele>
        <time>2021-10-21T12:25:16.000Z</time>
      </trkpt>
      <trkpt lat="46.50409" lon="5.31747">
        <ele>199.39999389648</ele>
        <time>2021-10-21T12:25:17.000Z</time>
      </trkpt>
      <trkpt lat="46.50386" lon="5.31698">
        <ele>199</ele>
        <time>2021-10-21T12:25:23.000Z</time>
      </trkpt>
      <trkpt lat="46.50357" lon="5.31657">
        <ele>198.80000305176</ele>
        <time>2021-10-21T12:25:29.000Z</time>
      </trkpt>
      <trkpt lat="46.50351" lon="5.31652">
        <ele>198.80000305176</ele>
        <time>2021-10-21T12:25:30.000Z</time>
      </trkpt>
      <trkpt lat="46.50328" lon="5.31634">
        <ele>198.60000610352</ele>
        <time>2021-10-21T12:25:34.000Z</time>
      </trkpt>
      <trkpt lat="46.50316" lon="5.31625">
        <ele>198.39999389648</ele>
        <time>2021-10-21T12:25:36.000Z</time>
      </trkpt>
      <trkpt lat="46.5031" lon="5.31621">
        <ele>198.19999694824</ele>
        <time>2021-10-21T12:25:37.000Z</time>
      </trkpt>
      <trkpt lat="46.50265" lon="5.31584">
        <ele>197.60000610352</ele>
        <time>2021-10-21T12:25:45.000Z</time>
      </trkpt>
      <trkpt lat="46.50233" lon="5.31545">
        <ele>197.60000610352</ele>
        <time>2021-10-21T12:25:52.000Z</time>
      </trkpt>
      <trkpt lat="46.50216" lon="5.31515">
        <ele>198</ele>
        <time>2021-10-21T12:25:57.000Z</time>
      </trkpt>
      <trkpt lat="46.50202" lon="5.31476">
        <ele>199.19999694824</ele>
        <time>2021-10-21T12:26:03.000Z</time>
      </trkpt>
      <trkpt lat="46.50198" lon="5.31464">
        <ele>199.60000610352</ele>
        <time>2021-10-21T12:26:05.000Z</time>
      </trkpt>
      <trkpt lat="46.50186" lon="5.31429">
        <ele>200.60000610352</ele>
        <time>2021-10-21T12:26:11.000Z</time>
      </trkpt>
      <trkpt lat="46.50178" lon="5.31407">
        <ele>201.80000305176</ele>
        <time>2021-10-21T12:26:15.000Z</time>
      </trkpt>
      <trkpt lat="46.50172" lon="5.3139">
        <ele>203</ele>
        <time>2021-10-21T12:26:18.000Z</time>
      </trkpt>
      <trkpt lat="46.50169" lon="5.31378">
        <ele>203.60000610352</ele>
        <time>2021-10-21T12:26:20.000Z</time>
      </trkpt>
      <trkpt lat="46.50163" lon="5.3136">
        <ele>204</ele>
        <time>2021-10-21T12:26:23.000Z</time>
      </trkpt>
      <trkpt lat="46.50154" lon="5.31337">
        <ele>204.39999389648</ele>
        <time>2021-10-21T12:26:27.000Z</time>
      </trkpt>
      <trkpt lat="46.50141" lon="5.31298">
        <ele>205</ele>
        <time>2021-10-21T12:26:33.000Z</time>
      </trkpt>
      <trkpt lat="46.50139" lon="5.31292">
        <ele>205</ele>
        <time>2021-10-21T12:26:34.000Z</time>
      </trkpt>
      <trkpt lat="46.50121" lon="5.31235">
        <ele>205.60000610352</ele>
        <time>2021-10-21T12:26:42.000Z</time>
      </trkpt>
      <trkpt lat="46.501" lon="5.31176">
        <ele>204.80000305176</ele>
        <time>2021-10-21T12:26:49.000Z</time>
      </trkpt>
      <trkpt lat="46.50081" lon="5.31121">
        <ele>204</ele>
        <time>2021-10-21T12:26:55.000Z</time>
      </trkpt>
      <trkpt lat="46.50073" lon="5.31096">
        <ele>203.39999389648</ele>
        <time>2021-10-21T12:26:58.000Z</time>
      </trkpt>
      <trkpt lat="46.50061" lon="5.3106">
        <ele>203.19999694824</ele>
        <time>2021-10-21T12:27:03.000Z</time>
      </trkpt>
      <trkpt lat="46.50047" lon="5.31019">
        <ele>205</ele>
        <time>2021-10-21T12:27:10.000Z</time>
      </trkpt>
      <trkpt lat="46.50045" lon="5.31014">
        <ele>205.19999694824</ele>
        <time>2021-10-21T12:27:11.000Z</time>
      </trkpt>
      <trkpt lat="46.5004" lon="5.30998">
        <ele>206.39999389648</ele>
        <time>2021-10-21T12:27:14.000Z</time>
      </trkpt>
      <trkpt lat="46.50035" lon="5.30984">
        <ele>207</ele>
        <time>2021-10-21T12:27:17.000Z</time>
      </trkpt>
      <trkpt lat="46.50029" lon="5.30968">
        <ele>207.39999389648</ele>
        <time>2021-10-21T12:27:20.000Z</time>
      </trkpt>
      <trkpt lat="46.50021" lon="5.30942">
        <ele>208.60000610352</ele>
        <time>2021-10-21T12:27:25.000Z</time>
      </trkpt>
      <trkpt lat="46.50013" lon="5.30922">
        <ele>209.60000610352</ele>
        <time>2021-10-21T12:27:29.000Z</time>
      </trkpt>
      <trkpt lat="46.50008" lon="5.30907">
        <ele>210.39999389648</ele>
        <time>2021-10-21T12:27:32.000Z</time>
      </trkpt>
      <trkpt lat="46.50004" lon="5.30897">
        <ele>210.80000305176</ele>
        <time>2021-10-21T12:27:34.000Z</time>
      </trkpt>
      <trkpt lat="46.49992" lon="5.30867">
        <ele>212</ele>
        <time>2021-10-21T12:27:40.000Z</time>
      </trkpt>
      <trkpt lat="46.49988" lon="5.30857">
        <ele>212.39999389648</ele>
        <time>2021-10-21T12:27:42.000Z</time>
      </trkpt>
      <trkpt lat="46.49982" lon="5.30841">
        <ele>213</ele>
        <time>2021-10-21T12:27:45.000Z</time>
      </trkpt>
      <trkpt lat="46.49975" lon="5.30817">
        <ele>214.19999694824</ele>
        <time>2021-10-21T12:27:49.000Z</time>
      </trkpt>
      <trkpt lat="46.49972" lon="5.30805">
        <ele>214.39999389648</ele>
        <time>2021-10-21T12:27:51.000Z</time>
      </trkpt>
      <trkpt lat="46.49963" lon="5.30767">
        <ele>215.39999389648</ele>
        <time>2021-10-21T12:27:57.000Z</time>
      </trkpt>
      <trkpt lat="46.49961" lon="5.30755">
        <ele>215.80000305176</ele>
        <time>2021-10-21T12:27:59.000Z</time>
      </trkpt>
      <trkpt lat="46.49954" lon="5.30716">
        <ele>216.39999389648</ele>
        <time>2021-10-21T12:28:05.000Z</time>
      </trkpt>
      <trkpt lat="46.49951" lon="5.30701">
        <ele>216.39999389648</ele>
        <time>2021-10-21T12:28:07.000Z</time>
      </trkpt>
      <trkpt lat="46.4994" lon="5.30644">
        <ele>216</ele>
        <time>2021-10-21T12:28:14.000Z</time>
      </trkpt>
      <trkpt lat="46.49935" lon="5.30617">
        <ele>215.19999694824</ele>
        <time>2021-10-21T12:28:17.000Z</time>
      </trkpt>
      <trkpt lat="46.49932" lon="5.30588">
        <ele>214.39999389648</ele>
        <time>2021-10-21T12:28:20.000Z</time>
      </trkpt>
      <trkpt lat="46.49932" lon="5.30578">
        <ele>214</ele>
        <time>2021-10-21T12:28:21.000Z</time>
      </trkpt>
      <trkpt lat="46.49932" lon="5.30547">
        <ele>213.60000610352</ele>
        <time>2021-10-21T12:28:24.000Z</time>
      </trkpt>
      <trkpt lat="46.49934" lon="5.30535">
        <ele>213.60000610352</ele>
        <time>2021-10-21T12:28:25.000Z</time>
      </trkpt>
      <trkpt lat="46.49941" lon="5.30507">
        <ele>212.80000305176</ele>
        <time>2021-10-21T12:28:28.000Z</time>
      </trkpt>
      <trkpt lat="46.49944" lon="5.30496">
        <ele>212.60000610352</ele>
        <time>2021-10-21T12:28:29.000Z</time>
      </trkpt>
      <trkpt lat="46.49948" lon="5.30487">
        <ele>212.39999389648</ele>
        <time>2021-10-21T12:28:30.000Z</time>
      </trkpt>
      <trkpt lat="46.49952" lon="5.30477">
        <ele>212.19999694824</ele>
        <time>2021-10-21T12:28:31.000Z</time>
      </trkpt>
      <trkpt lat="46.49963" lon="5.3046">
        <ele>211.39999389648</ele>
        <time>2021-10-21T12:28:33.000Z</time>
      </trkpt>
      <trkpt lat="46.49971" lon="5.3045">
        <ele>211.39999389648</ele>
        <time>2021-10-21T12:28:34.000Z</time>
      </trkpt>
      <trkpt lat="46.50006" lon="5.30419">
        <ele>210.39999389648</ele>
        <time>2021-10-21T12:28:39.000Z</time>
      </trkpt>
      <trkpt lat="46.5003" lon="5.30401">
        <ele>209.19999694824</ele>
        <time>2021-10-21T12:28:42.000Z</time>
      </trkpt>
      <trkpt lat="46.5005" lon="5.3038">
        <ele>208.60000610352</ele>
        <time>2021-10-21T12:28:45.000Z</time>
      </trkpt>
      <trkpt lat="46.50061" lon="5.30363">
        <ele>208.39999389648</ele>
        <time>2021-10-21T12:28:47.000Z</time>
      </trkpt>
      <trkpt lat="46.50066" lon="5.30354">
        <ele>208.19999694824</ele>
        <time>2021-10-21T12:28:48.000Z</time>
      </trkpt>
      <trkpt lat="46.5007" lon="5.30345">
        <ele>208</ele>
        <time>2021-10-21T12:28:49.000Z</time>
      </trkpt>
      <trkpt lat="46.50084" lon="5.30299">
        <ele>208.19999694824</ele>
        <time>2021-10-21T12:28:54.000Z</time>
      </trkpt>
      <trkpt lat="46.50087" lon="5.30264">
        <ele>209.19999694824</ele>
        <time>2021-10-21T12:28:58.000Z</time>
      </trkpt>
      <trkpt lat="46.50088" lon="5.30246">
        <ele>209.39999389648</ele>
        <time>2021-10-21T12:29:00.000Z</time>
      </trkpt>
      <trkpt lat="46.50089" lon="5.30205">
        <ele>210</ele>
        <time>2021-10-21T12:29:05.000Z</time>
      </trkpt>
      <trkpt lat="46.50089" lon="5.30197">
        <ele>210</ele>
        <time>2021-10-21T12:29:06.000Z</time>
      </trkpt>
      <trkpt lat="46.50089" lon="5.30186">
        <ele>210.19999694824</ele>
        <time>2021-10-21T12:29:07.000Z</time>
      </trkpt>
      <trkpt lat="46.50089" lon="5.30144">
        <ele>210.39999389648</ele>
        <time>2021-10-21T12:29:12.000Z</time>
      </trkpt>
      <trkpt lat="46.50089" lon="5.30069">
        <ele>211</ele>
        <time>2021-10-21T12:29:21.000Z</time>
      </trkpt>
      <trkpt lat="46.50088" lon="5.30044">
        <ele>211.39999389648</ele>
        <time>2021-10-21T12:29:24.000Z</time>
      </trkpt>
      <trkpt lat="46.50084" lon="5.29994">
        <ele>211.60000610352</ele>
        <time>2021-10-21T12:29:30.000Z</time>
      </trkpt>
      <trkpt lat="46.50072" lon="5.29945">
        <ele>211.80000305176</ele>
        <time>2021-10-21T12:29:36.000Z</time>
      </trkpt>
      <trkpt lat="46.50049" lon="5.29901">
        <ele>211.19999694824</ele>
        <time>2021-10-21T12:29:42.000Z</time>
      </trkpt>
      <trkpt lat="46.50019" lon="5.29866">
        <ele>210.80000305176</ele>
        <time>2021-10-21T12:29:48.000Z</time>
      </trkpt>
      <trkpt lat="46.50014" lon="5.29862">
        <ele>210.60000610352</ele>
        <time>2021-10-21T12:29:49.000Z</time>
      </trkpt>
      <trkpt lat="46.49996" lon="5.29852">
        <ele>210.39999389648</ele>
        <time>2021-10-21T12:29:52.000Z</time>
      </trkpt>
      <trkpt lat="46.4999" lon="5.29851">
        <ele>210.39999389648</ele>
        <time>2021-10-21T12:29:53.000Z</time>
      </trkpt>
      <trkpt lat="46.4996" lon="5.29849">
        <ele>210.19999694824</ele>
        <time>2021-10-21T12:29:58.000Z</time>
      </trkpt>
      <trkpt lat="46.49954" lon="5.29848">
        <ele>210.19999694824</ele>
        <time>2021-10-21T12:29:59.000Z</time>
      </trkpt>
      <trkpt lat="46.49932" lon="5.29841">
        <ele>210.19999694824</ele>
        <time>2021-10-21T12:30:03.000Z</time>
      </trkpt>
      <trkpt lat="46.49891" lon="5.29825">
        <ele>210.80000305176</ele>
        <time>2021-10-21T12:30:11.000Z</time>
      </trkpt>
      <trkpt lat="46.49877" lon="5.29818">
        <ele>211.39999389648</ele>
        <time>2021-10-21T12:30:14.000Z</time>
      </trkpt>
      <trkpt lat="46.49861" lon="5.29813">
        <ele>211.60000610352</ele>
        <time>2021-10-21T12:30:17.000Z</time>
      </trkpt>
      <trkpt lat="46.49822" lon="5.29799">
        <ele>212.39999389648</ele>
        <time>2021-10-21T12:30:25.000Z</time>
      </trkpt>
      <trkpt lat="46.49808" lon="5.29794">
        <ele>212.80000305176</ele>
        <time>2021-10-21T12:30:28.000Z</time>
      </trkpt>
      <trkpt lat="46.49787" lon="5.29789">
        <ele>213.39999389648</ele>
        <time>2021-10-21T12:30:32.000Z</time>
      </trkpt>
      <trkpt lat="46.49782" lon="5.29788">
        <ele>213.39999389648</ele>
        <time>2021-10-21T12:30:33.000Z</time>
      </trkpt>
      <trkpt lat="46.49772" lon="5.29787">
        <ele>213.60000610352</ele>
        <time>2021-10-21T12:30:35.000Z</time>
      </trkpt>
      <trkpt lat="46.49756" lon="5.29784">
        <ele>213.39999389648</ele>
        <time>2021-10-21T12:30:38.000Z</time>
      </trkpt>
      <trkpt lat="46.49747" lon="5.29777">
        <ele>213.39999389648</ele>
        <time>2021-10-21T12:30:40.000Z</time>
      </trkpt>
      <trkpt lat="46.4974" lon="5.29763">
        <ele>213.19999694824</ele>
        <time>2021-10-21T12:30:42.000Z</time>
      </trkpt>
      <trkpt lat="46.49731" lon="5.2974">
        <ele>213.19999694824</ele>
        <time>2021-10-21T12:30:45.000Z</time>
      </trkpt>
      <trkpt lat="46.49727" lon="5.29732">
        <ele>213.19999694824</ele>
        <time>2021-10-21T12:30:46.000Z</time>
      </trkpt>
      <trkpt lat="46.49707" lon="5.29697">
        <ele>213</ele>
        <time>2021-10-21T12:30:51.000Z</time>
      </trkpt>
      <trkpt lat="46.49681" lon="5.2965">
        <ele>213.19999694824</ele>
        <time>2021-10-21T12:30:58.000Z</time>
      </trkpt>
      <trkpt lat="46.49657" lon="5.29607">
        <ele>213.19999694824</ele>
        <time>2021-10-21T12:31:05.000Z</time>
      </trkpt>
      <trkpt lat="46.49631" lon="5.29561">
        <ele>214</ele>
        <time>2021-10-21T12:31:13.000Z</time>
      </trkpt>
      <trkpt lat="46.49596" lon="5.29499">
        <ele>214.19999694824</ele>
        <time>2021-10-21T12:31:23.000Z</time>
      </trkpt>
      <trkpt lat="46.49593" lon="5.29493">
        <ele>214.19999694824</ele>
        <time>2021-10-21T12:31:24.000Z</time>
      </trkpt>
      <trkpt lat="46.49556" lon="5.29427">
        <ele>213.60000610352</ele>
        <time>2021-10-21T12:31:34.000Z</time>
      </trkpt>
      <trkpt lat="46.49553" lon="5.2942">
        <ele>213.60000610352</ele>
        <time>2021-10-21T12:31:35.000Z</time>
      </trkpt>
      <trkpt lat="46.49525" lon="5.29367">
        <ele>213.19999694824</ele>
        <time>2021-10-21T12:31:42.000Z</time>
      </trkpt>
      <trkpt lat="46.49515" lon="5.29325">
        <ele>212</ele>
        <time>2021-10-21T12:31:46.000Z</time>
      </trkpt>
      <trkpt lat="46.49512" lon="5.29301">
        <ele>211.80000305176</ele>
        <time>2021-10-21T12:31:48.000Z</time>
      </trkpt>
      <trkpt lat="46.49512" lon="5.29289">
        <ele>211.19999694824</ele>
        <time>2021-10-21T12:31:49.000Z</time>
      </trkpt>
      <trkpt lat="46.49513" lon="5.29277">
        <ele>211</ele>
        <time>2021-10-21T12:31:50.000Z</time>
      </trkpt>
      <trkpt lat="46.49515" lon="5.29264">
        <ele>210.19999694824</ele>
        <time>2021-10-21T12:31:51.000Z</time>
      </trkpt>
      <trkpt lat="46.49517" lon="5.29252">
        <ele>209.80000305176</ele>
        <time>2021-10-21T12:31:52.000Z</time>
      </trkpt>
      <trkpt lat="46.49524" lon="5.29227">
        <ele>208.80000305176</ele>
        <time>2021-10-21T12:31:54.000Z</time>
      </trkpt>
      <trkpt lat="46.49541" lon="5.29191">
        <ele>207.19999694824</ele>
        <time>2021-10-21T12:31:57.000Z</time>
      </trkpt>
      <trkpt lat="46.49552" lon="5.29168">
        <ele>206.19999694824</ele>
        <time>2021-10-21T12:31:59.000Z</time>
      </trkpt>
      <trkpt lat="46.49565" lon="5.29128">
        <ele>204.80000305176</ele>
        <time>2021-10-21T12:32:02.000Z</time>
      </trkpt>
      <trkpt lat="46.49568" lon="5.29114">
        <ele>204.39999389648</ele>
        <time>2021-10-21T12:32:03.000Z</time>
      </trkpt>
      <trkpt lat="46.4957" lon="5.29099">
        <ele>203.19999694824</ele>
        <time>2021-10-21T12:32:04.000Z</time>
      </trkpt>
      <trkpt lat="46.49576" lon="5.29069">
        <ele>202</ele>
        <time>2021-10-21T12:32:06.000Z</time>
      </trkpt>
      <trkpt lat="46.49581" lon="5.29038">
        <ele>200.60000610352</ele>
        <time>2021-10-21T12:32:08.000Z</time>
      </trkpt>
      <trkpt lat="46.49584" lon="5.29023">
        <ele>199.80000305176</ele>
        <time>2021-10-21T12:32:09.000Z</time>
      </trkpt>
      <trkpt lat="46.49586" lon="5.29007">
        <ele>199.39999389648</ele>
        <time>2021-10-21T12:32:10.000Z</time>
      </trkpt>
      <trkpt lat="46.49592" lon="5.28976">
        <ele>197.80000305176</ele>
        <time>2021-10-21T12:32:12.000Z</time>
      </trkpt>
      <trkpt lat="46.49598" lon="5.28946">
        <ele>196.80000305176</ele>
        <time>2021-10-21T12:32:14.000Z</time>
      </trkpt>
      <trkpt lat="46.49603" lon="5.28916">
        <ele>195.39999389648</ele>
        <time>2021-10-21T12:32:16.000Z</time>
      </trkpt>
      <trkpt lat="46.49608" lon="5.28887">
        <ele>194.80000305176</ele>
        <time>2021-10-21T12:32:18.000Z</time>
      </trkpt>
      <trkpt lat="46.49613" lon="5.28859">
        <ele>194.19999694824</ele>
        <time>2021-10-21T12:32:20.000Z</time>
      </trkpt>
      <trkpt lat="46.49618" lon="5.28832">
        <ele>193.19999694824</ele>
        <time>2021-10-21T12:32:22.000Z</time>
      </trkpt>
      <trkpt lat="46.49625" lon="5.28793">
        <ele>192</ele>
        <time>2021-10-21T12:32:25.000Z</time>
      </trkpt>
      <trkpt lat="46.49637" lon="5.28734">
        <ele>191.60000610352</ele>
        <time>2021-10-21T12:32:30.000Z</time>
      </trkpt>
      <trkpt lat="46.49655" lon="5.2866">
        <ele>191.39999389648</ele>
        <time>2021-10-21T12:32:37.000Z</time>
      </trkpt>
      <trkpt lat="46.49672" lon="5.2859">
        <ele>191.60000610352</ele>
        <time>2021-10-21T12:32:44.000Z</time>
      </trkpt>
      <trkpt lat="46.49686" lon="5.28516">
        <ele>192.80000305176</ele>
        <time>2021-10-21T12:32:52.000Z</time>
      </trkpt>
      <trkpt lat="46.49688" lon="5.28506">
        <ele>193</ele>
        <time>2021-10-21T12:32:53.000Z</time>
      </trkpt>
      <trkpt lat="46.49697" lon="5.28433">
        <ele>193.19999694824</ele>
        <time>2021-10-21T12:33:00.000Z</time>
      </trkpt>
      <trkpt lat="46.49711" lon="5.28362">
        <ele>192.39999389648</ele>
        <time>2021-10-21T12:33:07.000Z</time>
      </trkpt>
      <trkpt lat="46.4973" lon="5.28297">
        <ele>192.60000610352</ele>
        <time>2021-10-21T12:33:14.000Z</time>
      </trkpt>
      <trkpt lat="46.49746" lon="5.28222">
        <ele>192.60000610352</ele>
        <time>2021-10-21T12:33:22.000Z</time>
      </trkpt>
      <trkpt lat="46.49754" lon="5.28175">
        <ele>191.80000305176</ele>
        <time>2021-10-21T12:33:27.000Z</time>
      </trkpt>
      <trkpt lat="46.49759" lon="5.28138">
        <ele>191.80000305176</ele>
        <time>2021-10-21T12:33:31.000Z</time>
      </trkpt>
      <trkpt lat="46.49767" lon="5.28066">
        <ele>191.60000610352</ele>
        <time>2021-10-21T12:33:39.000Z</time>
      </trkpt>
      <trkpt lat="46.49767" lon="5.28004">
        <ele>191.80000305176</ele>
        <time>2021-10-21T12:33:46.000Z</time>
      </trkpt>
      <trkpt lat="46.49765" lon="5.27938">
        <ele>192.80000305176</ele>
        <time>2021-10-21T12:33:54.000Z</time>
      </trkpt>
      <trkpt lat="46.49764" lon="5.2789">
        <ele>193.19999694824</ele>
        <time>2021-10-21T12:34:00.000Z</time>
      </trkpt>
      <trkpt lat="46.49763" lon="5.27866">
        <ele>193.39999389648</ele>
        <time>2021-10-21T12:34:03.000Z</time>
      </trkpt>
      <trkpt lat="46.49754" lon="5.27797">
        <ele>194</ele>
        <time>2021-10-21T12:34:12.000Z</time>
      </trkpt>
      <trkpt lat="46.49752" lon="5.27789">
        <ele>194.39999389648</ele>
        <time>2021-10-21T12:34:13.000Z</time>
      </trkpt>
      <trkpt lat="46.49745" lon="5.27746">
        <ele>195.19999694824</ele>
        <time>2021-10-21T12:34:19.000Z</time>
      </trkpt>
      <trkpt lat="46.49743" lon="5.27733">
        <ele>195.39999389648</ele>
        <time>2021-10-21T12:34:21.000Z</time>
      </trkpt>
      <trkpt lat="46.49738" lon="5.27708">
        <ele>195.80000305176</ele>
        <time>2021-10-21T12:34:25.000Z</time>
      </trkpt>
      <trkpt lat="46.49734" lon="5.27684">
        <ele>196.39999389648</ele>
        <time>2021-10-21T12:34:29.000Z</time>
      </trkpt>
      <trkpt lat="46.49728" lon="5.27647">
        <ele>197.60000610352</ele>
        <time>2021-10-21T12:34:35.000Z</time>
      </trkpt>
      <trkpt lat="46.49725" lon="5.27617">
        <ele>198.19999694824</ele>
        <time>2021-10-21T12:34:40.000Z</time>
      </trkpt>
      <trkpt lat="46.49724" lon="5.27606">
        <ele>198.39999389648</ele>
        <time>2021-10-21T12:34:42.000Z</time>
      </trkpt>
      <trkpt lat="46.49725" lon="5.27593">
        <ele>198.80000305176</ele>
        <time>2021-10-21T12:34:44.000Z</time>
      </trkpt>
      <trkpt lat="46.49725" lon="5.27577">
        <ele>199.39999389648</ele>
        <time>2021-10-21T12:34:47.000Z</time>
      </trkpt>
      <trkpt lat="46.49726" lon="5.2756">
        <ele>199.80000305176</ele>
        <time>2021-10-21T12:34:50.000Z</time>
      </trkpt>
      <trkpt lat="46.49726" lon="5.2752">
        <ele>201.19999694824</ele>
        <time>2021-10-21T12:34:57.000Z</time>
      </trkpt>
      <trkpt lat="46.49726" lon="5.27513">
        <ele>201.39999389648</ele>
        <time>2021-10-21T12:34:58.000Z</time>
      </trkpt>
      <trkpt lat="46.49726" lon="5.2748">
        <ele>202.19999694824</ele>
        <time>2021-10-21T12:35:04.000Z</time>
      </trkpt>
      <trkpt lat="46.49726" lon="5.2747">
        <ele>202.60000610352</ele>
        <time>2021-10-21T12:35:06.000Z</time>
      </trkpt>
      <trkpt lat="46.49725" lon="5.27459">
        <ele>203.39999389648</ele>
        <time>2021-10-21T12:35:08.000Z</time>
      </trkpt>
      <trkpt lat="46.49722" lon="5.27443">
        <ele>204.60000610352</ele>
        <time>2021-10-21T12:35:11.000Z</time>
      </trkpt>
      <trkpt lat="46.49719" lon="5.27426">
        <ele>205.19999694824</ele>
        <time>2021-10-21T12:35:14.000Z</time>
      </trkpt>
      <trkpt lat="46.49715" lon="5.27411">
        <ele>205.60000610352</ele>
        <time>2021-10-21T12:35:17.000Z</time>
      </trkpt>
      <trkpt lat="46.49708" lon="5.27392">
        <ele>206.80000305176</ele>
        <time>2021-10-21T12:35:21.000Z</time>
      </trkpt>
      <trkpt lat="46.49704" lon="5.27383">
        <ele>207.39999389648</ele>
        <time>2021-10-21T12:35:23.000Z</time>
      </trkpt>
      <trkpt lat="46.497" lon="5.27374">
        <ele>208</ele>
        <time>2021-10-21T12:35:25.000Z</time>
      </trkpt>
      <trkpt lat="46.4969" lon="5.27354">
        <ele>209.19999694824</ele>
        <time>2021-10-21T12:35:30.000Z</time>
      </trkpt>
      <trkpt lat="46.49677" lon="5.27328">
        <ele>210.39999389648</ele>
        <time>2021-10-21T12:35:36.000Z</time>
      </trkpt>
      <trkpt lat="46.49669" lon="5.27312">
        <ele>211</ele>
        <time>2021-10-21T12:35:40.000Z</time>
      </trkpt>
      <trkpt lat="46.49665" lon="5.27303">
        <ele>211.39999389648</ele>
        <time>2021-10-21T12:35:42.000Z</time>
      </trkpt>
      <trkpt lat="46.49654" lon="5.27277">
        <ele>212.60000610352</ele>
        <time>2021-10-21T12:35:48.000Z</time>
      </trkpt>
      <trkpt lat="46.49652" lon="5.27272">
        <ele>212.60000610352</ele>
        <time>2021-10-21T12:35:49.000Z</time>
      </trkpt>
      <trkpt lat="46.49644" lon="5.27245">
        <ele>213.39999389648</ele>
        <time>2021-10-21T12:35:55.000Z</time>
      </trkpt>
      <trkpt lat="46.49642" lon="5.27235">
        <ele>213.80000305176</ele>
        <time>2021-10-21T12:35:57.000Z</time>
      </trkpt>
      <trkpt lat="46.49638" lon="5.27204">
        <ele>214.80000305176</ele>
        <time>2021-10-21T12:36:03.000Z</time>
      </trkpt>
      <trkpt lat="46.49638" lon="5.272">
        <ele>214.80000305176</ele>
        <time>2021-10-21T12:36:04.000Z</time>
      </trkpt>
      <trkpt lat="46.49637" lon="5.27172">
        <ele>215.60000610352</ele>
        <time>2021-10-21T12:36:09.000Z</time>
      </trkpt>
      <trkpt lat="46.49639" lon="5.2715">
        <ele>216</ele>
        <time>2021-10-21T12:36:13.000Z</time>
      </trkpt>
      <trkpt lat="46.49645" lon="5.27121">
        <ele>216.60000610352</ele>
        <time>2021-10-21T12:36:18.000Z</time>
      </trkpt>
      <trkpt lat="46.4965" lon="5.27103">
        <ele>216.80000305176</ele>
        <time>2021-10-21T12:36:21.000Z</time>
      </trkpt>
      <trkpt lat="46.49666" lon="5.27051">
        <ele>217.39999389648</ele>
        <time>2021-10-21T12:36:29.000Z</time>
      </trkpt>
      <trkpt lat="46.49678" lon="5.27013">
        <ele>217.39999389648</ele>
        <time>2021-10-21T12:36:34.000Z</time>
      </trkpt>
      <trkpt lat="46.49681" lon="5.27003">
        <ele>217.39999389648</ele>
        <time>2021-10-21T12:36:35.000Z</time>
      </trkpt>
      <trkpt lat="46.49694" lon="5.26966">
        <ele>217.19999694824</ele>
        <time>2021-10-21T12:36:39.000Z</time>
      </trkpt>
      <trkpt lat="46.49714" lon="5.26904">
        <ele>216.39999389648</ele>
        <time>2021-10-21T12:36:45.000Z</time>
      </trkpt>
      <trkpt lat="46.49732" lon="5.2684">
        <ele>215.60000610352</ele>
        <time>2021-10-21T12:36:51.000Z</time>
      </trkpt>
      <trkpt lat="46.49734" lon="5.26831">
        <ele>215.60000610352</ele>
        <time>2021-10-21T12:36:52.000Z</time>
      </trkpt>
      <trkpt lat="46.49741" lon="5.26782">
        <ele>215.60000610352</ele>
        <time>2021-10-21T12:36:57.000Z</time>
      </trkpt>
      <trkpt lat="46.4974" lon="5.26711">
        <ele>216</ele>
        <time>2021-10-21T12:37:04.000Z</time>
      </trkpt>
      <trkpt lat="46.49729" lon="5.26653">
        <ele>216.19999694824</ele>
        <time>2021-10-21T12:37:10.000Z</time>
      </trkpt>
      <trkpt lat="46.49704" lon="5.26587">
        <ele>215.60000610352</ele>
        <time>2021-10-21T12:37:17.000Z</time>
      </trkpt>
      <trkpt lat="46.49686" lon="5.26546">
        <ele>214.19999694824</ele>
        <time>2021-10-21T12:37:21.000Z</time>
      </trkpt>
      <trkpt lat="46.49672" lon="5.2651">
        <ele>213</ele>
        <time>2021-10-21T12:37:24.000Z</time>
      </trkpt>
      <trkpt lat="46.49658" lon="5.26476">
        <ele>211.80000305176</ele>
        <time>2021-10-21T12:37:27.000Z</time>
      </trkpt>
      <trkpt lat="46.49646" lon="5.26436">
        <ele>210.80000305176</ele>
        <time>2021-10-21T12:37:30.000Z</time>
      </trkpt>
      <trkpt lat="46.49643" lon="5.26422">
        <ele>210.60000610352</ele>
        <time>2021-10-21T12:37:31.000Z</time>
      </trkpt>
      <trkpt lat="46.49638" lon="5.26391">
        <ele>209.60000610352</ele>
        <time>2021-10-21T12:37:33.000Z</time>
      </trkpt>
      <trkpt lat="46.49635" lon="5.26362">
        <ele>208.80000305176</ele>
        <time>2021-10-21T12:37:35.000Z</time>
      </trkpt>
      <trkpt lat="46.49634" lon="5.2635">
        <ele>208.19999694824</ele>
        <time>2021-10-21T12:37:36.000Z</time>
      </trkpt>
      <trkpt lat="46.49631" lon="5.2632">
        <ele>206.80000305176</ele>
        <time>2021-10-21T12:37:38.000Z</time>
      </trkpt>
      <trkpt lat="46.49629" lon="5.26289">
        <ele>205.39999389648</ele>
        <time>2021-10-21T12:37:40.000Z</time>
      </trkpt>
      <trkpt lat="46.49627" lon="5.26258">
        <ele>204</ele>
        <time>2021-10-21T12:37:42.000Z</time>
      </trkpt>
      <trkpt lat="46.49627" lon="5.26243">
        <ele>203.39999389648</ele>
        <time>2021-10-21T12:37:43.000Z</time>
      </trkpt>
      <trkpt lat="46.49626" lon="5.26229">
        <ele>202.60000610352</ele>
        <time>2021-10-21T12:37:44.000Z</time>
      </trkpt>
      <trkpt lat="46.49622" lon="5.26184">
        <ele>201.39999389648</ele>
        <time>2021-10-21T12:37:47.000Z</time>
      </trkpt>
      <trkpt lat="46.49618" lon="5.26159">
        <ele>201</ele>
        <time>2021-10-21T12:37:49.000Z</time>
      </trkpt>
      <trkpt lat="46.49605" lon="5.26106">
        <ele>200.80000305176</ele>
        <time>2021-10-21T12:37:54.000Z</time>
      </trkpt>
      <trkpt lat="46.49583" lon="5.26058">
        <ele>201.19999694824</ele>
        <time>2021-10-21T12:37:59.000Z</time>
      </trkpt>
      <trkpt lat="46.49555" lon="5.26018">
        <ele>201.39999389648</ele>
        <time>2021-10-21T12:38:05.000Z</time>
      </trkpt>
      <trkpt lat="46.49515" lon="5.25977">
        <ele>201</ele>
        <time>2021-10-21T12:38:12.000Z</time>
      </trkpt>
      <trkpt lat="46.49479" lon="5.2594">
        <ele>201</ele>
        <time>2021-10-21T12:38:18.000Z</time>
      </trkpt>
      <trkpt lat="46.49433" lon="5.25894">
        <ele>200.80000305176</ele>
        <time>2021-10-21T12:38:26.000Z</time>
      </trkpt>
      <trkpt lat="46.49388" lon="5.2585">
        <ele>200.60000610352</ele>
        <time>2021-10-21T12:38:34.000Z</time>
      </trkpt>
      <trkpt lat="46.49382" lon="5.25845">
        <ele>200.39999389648</ele>
        <time>2021-10-21T12:38:35.000Z</time>
      </trkpt>
      <trkpt lat="46.49364" lon="5.25826">
        <ele>200.39999389648</ele>
        <time>2021-10-21T12:38:38.000Z</time>
      </trkpt>
      <trkpt lat="46.49342" lon="5.25805">
        <ele>200.19999694824</ele>
        <time>2021-10-21T12:38:42.000Z</time>
      </trkpt>
      <trkpt lat="46.49297" lon="5.2576">
        <ele>200</ele>
        <time>2021-10-21T12:38:50.000Z</time>
      </trkpt>
      <trkpt lat="46.49255" lon="5.25719">
        <ele>199.80000305176</ele>
        <time>2021-10-21T12:38:58.000Z</time>
      </trkpt>
      <trkpt lat="46.49225" lon="5.25689">
        <ele>199.80000305176</ele>
        <time>2021-10-21T12:39:04.000Z</time>
      </trkpt>
      <trkpt lat="46.49178" lon="5.25644">
        <ele>200</ele>
        <time>2021-10-21T12:39:13.000Z</time>
      </trkpt>
      <trkpt lat="46.49173" lon="5.25639">
        <ele>200</ele>
        <time>2021-10-21T12:39:14.000Z</time>
      </trkpt>
      <trkpt lat="46.49153" lon="5.2562">
        <ele>200</ele>
        <time>2021-10-21T12:39:18.000Z</time>
      </trkpt>
      <trkpt lat="46.49119" lon="5.25584">
        <ele>200.19999694824</ele>
        <time>2021-10-21T12:39:25.000Z</time>
      </trkpt>
      <trkpt lat="46.49114" lon="5.25579">
        <ele>200.39999389648</ele>
        <time>2021-10-21T12:39:26.000Z</time>
      </trkpt>
      <trkpt lat="46.49087" lon="5.25546">
        <ele>201</ele>
        <time>2021-10-21T12:39:32.000Z</time>
      </trkpt>
      <trkpt lat="46.49083" lon="5.2554">
        <ele>201</ele>
        <time>2021-10-21T12:39:33.000Z</time>
      </trkpt>
      <trkpt lat="46.49074" lon="5.25519">
        <ele>201.39999389648</ele>
        <time>2021-10-21T12:39:36.000Z</time>
      </trkpt>
      <trkpt lat="46.4907" lon="5.25506">
        <ele>201.60000610352</ele>
        <time>2021-10-21T12:39:38.000Z</time>
      </trkpt>
      <trkpt lat="46.49066" lon="5.25487">
        <ele>202.39999389648</ele>
        <time>2021-10-21T12:39:41.000Z</time>
      </trkpt>
      <trkpt lat="46.49064" lon="5.25473">
        <ele>203</ele>
        <time>2021-10-21T12:39:43.000Z</time>
      </trkpt>
      <trkpt lat="46.49063" lon="5.25465">
        <ele>203.39999389648</ele>
        <time>2021-10-21T12:39:44.000Z</time>
      </trkpt>
      <trkpt lat="46.49062" lon="5.25458">
        <ele>203.39999389648</ele>
        <time>2021-10-21T12:39:45.000Z</time>
      </trkpt>
      <trkpt lat="46.49059" lon="5.25432">
        <ele>204.60000610352</ele>
        <time>2021-10-21T12:39:49.000Z</time>
      </trkpt>
      <trkpt lat="46.49058" lon="5.25419">
        <ele>205</ele>
        <time>2021-10-21T12:39:51.000Z</time>
      </trkpt>
      <trkpt lat="46.49056" lon="5.25398">
        <ele>205.60000610352</ele>
        <time>2021-10-21T12:39:54.000Z</time>
      </trkpt>
      <trkpt lat="46.49055" lon="5.25385">
        <ele>206</ele>
        <time>2021-10-21T12:39:56.000Z</time>
      </trkpt>
      <trkpt lat="46.49052" lon="5.25369">
        <ele>206.80000305176</ele>
        <time>2021-10-21T12:39:58.000Z</time>
      </trkpt>
      <trkpt lat="46.49045" lon="5.25314">
        <ele>207.80000305176</ele>
        <time>2021-10-21T12:40:05.000Z</time>
      </trkpt>
      <trkpt lat="46.49044" lon="5.25307">
        <ele>207.80000305176</ele>
        <time>2021-10-21T12:40:06.000Z</time>
      </trkpt>
      <trkpt lat="46.49037" lon="5.25261">
        <ele>208</ele>
        <time>2021-10-21T12:40:11.000Z</time>
      </trkpt>
      <trkpt lat="46.49034" lon="5.25232">
        <ele>207.60000610352</ele>
        <time>2021-10-21T12:40:14.000Z</time>
      </trkpt>
      <trkpt lat="46.49031" lon="5.25212">
        <ele>207.39999389648</ele>
        <time>2021-10-21T12:40:16.000Z</time>
      </trkpt>
      <trkpt lat="46.49026" lon="5.25181">
        <ele>206.80000305176</ele>
        <time>2021-10-21T12:40:19.000Z</time>
      </trkpt>
      <trkpt lat="46.4902" lon="5.25132">
        <ele>205.80000305176</ele>
        <time>2021-10-21T12:40:24.000Z</time>
      </trkpt>
      <trkpt lat="46.4901" lon="5.25054">
        <ele>206</ele>
        <time>2021-10-21T12:40:33.000Z</time>
      </trkpt>
      <trkpt lat="46.49006" lon="5.25022">
        <ele>206.80000305176</ele>
        <time>2021-10-21T12:40:37.000Z</time>
      </trkpt>
      <trkpt lat="46.49004" lon="5.25004">
        <ele>207.19999694824</ele>
        <time>2021-10-21T12:40:40.000Z</time>
      </trkpt>
      <trkpt lat="46.49" lon="5.24977">
        <ele>207.80000305176</ele>
        <time>2021-10-21T12:40:44.000Z</time>
      </trkpt>
      <trkpt lat="46.48999" lon="5.24971">
        <ele>208</ele>
        <time>2021-10-21T12:40:45.000Z</time>
      </trkpt>
      <trkpt lat="46.48996" lon="5.24957">
        <ele>208.39999389648</ele>
        <time>2021-10-21T12:40:47.000Z</time>
      </trkpt>
      <trkpt lat="46.48994" lon="5.24946">
        <ele>208.60000610352</ele>
        <time>2021-10-21T12:40:49.000Z</time>
      </trkpt>
      <trkpt lat="46.48988" lon="5.24929">
        <ele>208.80000305176</ele>
        <time>2021-10-21T12:40:52.000Z</time>
      </trkpt>
      <trkpt lat="46.48985" lon="5.24919">
        <ele>209.19999694824</ele>
        <time>2021-10-21T12:40:54.000Z</time>
      </trkpt>
      <trkpt lat="46.48976" lon="5.24897">
        <ele>210</ele>
        <time>2021-10-21T12:40:58.000Z</time>
      </trkpt>
      <trkpt lat="46.48964" lon="5.24875">
        <ele>210.60000610352</ele>
        <time>2021-10-21T12:41:03.000Z</time>
      </trkpt>
      <trkpt lat="46.48961" lon="5.2487">
        <ele>211</ele>
        <time>2021-10-21T12:41:04.000Z</time>
      </trkpt>
      <trkpt lat="46.48947" lon="5.24854">
        <ele>212</ele>
        <time>2021-10-21T12:41:08.000Z</time>
      </trkpt>
      <trkpt lat="46.48936" lon="5.24841">
        <ele>212.60000610352</ele>
        <time>2021-10-21T12:41:11.000Z</time>
      </trkpt>
      <trkpt lat="46.48926" lon="5.24829">
        <ele>213</ele>
        <time>2021-10-21T12:41:14.000Z</time>
      </trkpt>
      <trkpt lat="46.48903" lon="5.24802">
        <ele>213.80000305176</ele>
        <time>2021-10-21T12:41:20.000Z</time>
      </trkpt>
      <trkpt lat="46.48899" lon="5.24798">
        <ele>213.80000305176</ele>
        <time>2021-10-21T12:41:21.000Z</time>
      </trkpt>
      <trkpt lat="46.48879" lon="5.24773">
        <ele>214</ele>
        <time>2021-10-21T12:41:26.000Z</time>
      </trkpt>
      <trkpt lat="46.48875" lon="5.24768">
        <ele>214.19999694824</ele>
        <time>2021-10-21T12:41:27.000Z</time>
      </trkpt>
      <trkpt lat="46.48831" lon="5.24721">
        <ele>214.60000610352</ele>
        <time>2021-10-21T12:41:37.000Z</time>
      </trkpt>
      <trkpt lat="46.48803" lon="5.24695">
        <ele>215.19999694824</ele>
        <time>2021-10-21T12:41:43.000Z</time>
      </trkpt>
      <trkpt lat="46.48799" lon="5.2469">
        <ele>215.19999694824</ele>
        <time>2021-10-21T12:41:44.000Z</time>
      </trkpt>
      <trkpt lat="46.48767" lon="5.24656">
        <ele>215.19999694824</ele>
        <time>2021-10-21T12:41:51.000Z</time>
      </trkpt>
      <trkpt lat="46.48765" lon="5.2465">
        <ele>215.39999389648</ele>
        <time>2021-10-21T12:41:52.000Z</time>
      </trkpt>
      <trkpt lat="46.48765" lon="5.24643">
        <ele>215.39999389648</ele>
        <time>2021-10-21T12:41:53.000Z</time>
      </trkpt>
      <trkpt lat="46.48766" lon="5.24633">
        <ele>215.39999389648</ele>
        <time>2021-10-21T12:41:55.000Z</time>
      </trkpt>
      <trkpt lat="46.4876" lon="5.24627">
        <ele>215.39999389648</ele>
        <time>2021-10-21T12:41:57.000Z</time>
      </trkpt>
      <trkpt lat="46.48755" lon="5.24627">
        <ele>215.39999389648</ele>
        <time>2021-10-21T12:41:58.000Z</time>
      </trkpt>
      <trkpt lat="46.48728" lon="5.24626">
        <ele>215.39999389648</ele>
        <time>2021-10-21T12:42:02.000Z</time>
      </trkpt>
      <trkpt lat="46.48687" lon="5.24609">
        <ele>215</ele>
        <time>2021-10-21T12:42:08.000Z</time>
      </trkpt>
      <trkpt lat="46.4863" lon="5.24579">
        <ele>215</ele>
        <time>2021-10-21T12:42:17.000Z</time>
      </trkpt>
      <trkpt lat="46.48602" lon="5.24563">
        <ele>215.39999389648</ele>
        <time>2021-10-21T12:42:22.000Z</time>
      </trkpt>
      <trkpt lat="46.4859" lon="5.24556">
        <ele>215.60000610352</ele>
        <time>2021-10-21T12:42:24.000Z</time>
      </trkpt>
      <trkpt lat="46.48559" lon="5.24527">
        <ele>215.80000305176</ele>
        <time>2021-10-21T12:42:30.000Z</time>
      </trkpt>
      <trkpt lat="46.48524" lon="5.24484">
        <ele>215.19999694824</ele>
        <time>2021-10-21T12:42:37.000Z</time>
      </trkpt>
      <trkpt lat="46.4849" lon="5.2444">
        <ele>214.39999389648</ele>
        <time>2021-10-21T12:42:43.000Z</time>
      </trkpt>
      <trkpt lat="46.48484" lon="5.24433">
        <ele>214.19999694824</ele>
        <time>2021-10-21T12:42:44.000Z</time>
      </trkpt>
      <trkpt lat="46.48447" lon="5.2439">
        <ele>213.19999694824</ele>
        <time>2021-10-21T12:42:50.000Z</time>
      </trkpt>
      <trkpt lat="46.48436" lon="5.24377">
        <ele>213</ele>
        <time>2021-10-21T12:42:52.000Z</time>
      </trkpt>
      <trkpt lat="46.48406" lon="5.24353">
        <ele>212.60000610352</ele>
        <time>2021-10-21T12:42:57.000Z</time>
      </trkpt>
      <trkpt lat="46.48377" lon="5.24339">
        <ele>212.60000610352</ele>
        <time>2021-10-21T12:43:02.000Z</time>
      </trkpt>
      <trkpt lat="46.48356" lon="5.24331">
        <ele>213.19999694824</ele>
        <time>2021-10-21T12:43:06.000Z</time>
      </trkpt>
      <trkpt lat="46.48348" lon="5.24325">
        <ele>213.39999389648</ele>
        <time>2021-10-21T12:43:08.000Z</time>
      </trkpt>
      <trkpt lat="46.48337" lon="5.24312">
        <ele>214.60000610352</ele>
        <time>2021-10-21T12:43:11.000Z</time>
      </trkpt>
      <trkpt lat="46.4833" lon="5.24303">
        <ele>215</ele>
        <time>2021-10-21T12:43:13.000Z</time>
      </trkpt>
      <trkpt lat="46.48313" lon="5.24282">
        <ele>216</ele>
        <time>2021-10-21T12:43:17.000Z</time>
      </trkpt>
      <trkpt lat="46.48303" lon="5.24276">
        <ele>216.39999389648</ele>
        <time>2021-10-21T12:43:19.000Z</time>
      </trkpt>
      <trkpt lat="46.48288" lon="5.24272">
        <ele>217</ele>
        <time>2021-10-21T12:43:22.000Z</time>
      </trkpt>
      <trkpt lat="46.48273" lon="5.24268">
        <ele>217.19999694824</ele>
        <time>2021-10-21T12:43:25.000Z</time>
      </trkpt>
      <trkpt lat="46.48242" lon="5.24259">
        <ele>217.60000610352</ele>
        <time>2021-10-21T12:43:31.000Z</time>
      </trkpt>
      <trkpt lat="46.48209" lon="5.24253">
        <ele>217.80000305176</ele>
        <time>2021-10-21T12:43:37.000Z</time>
      </trkpt>
      <trkpt lat="46.48204" lon="5.24254">
        <ele>217.80000305176</ele>
        <time>2021-10-21T12:43:38.000Z</time>
      </trkpt>
      <trkpt lat="46.48199" lon="5.24256">
        <ele>217.80000305176</ele>
        <time>2021-10-21T12:43:39.000Z</time>
      </trkpt>
      <trkpt lat="46.48189" lon="5.24262">
        <ele>217.80000305176</ele>
        <time>2021-10-21T12:43:41.000Z</time>
      </trkpt>
      <trkpt lat="46.48184" lon="5.24267">
        <ele>217.80000305176</ele>
        <time>2021-10-21T12:43:42.000Z</time>
      </trkpt>
      <trkpt lat="46.48161" lon="5.24297">
        <ele>218</ele>
        <time>2021-10-21T12:43:47.000Z</time>
      </trkpt>
      <trkpt lat="46.48156" lon="5.24304">
        <ele>218</ele>
        <time>2021-10-21T12:43:48.000Z</time>
      </trkpt>
      <trkpt lat="46.48151" lon="5.2431">
        <ele>218</ele>
        <time>2021-10-21T12:43:49.000Z</time>
      </trkpt>
      <trkpt lat="46.48135" lon="5.24327">
        <ele>218</ele>
        <time>2021-10-21T12:43:52.000Z</time>
      </trkpt>
      <trkpt lat="46.48129" lon="5.24331">
        <ele>218</ele>
        <time>2021-10-21T12:43:53.000Z</time>
      </trkpt>
      <trkpt lat="46.48122" lon="5.24333">
        <ele>217.80000305176</ele>
        <time>2021-10-21T12:43:54.000Z</time>
      </trkpt>
      <trkpt lat="46.48107" lon="5.24332">
        <ele>217.39999389648</ele>
        <time>2021-10-21T12:43:56.000Z</time>
      </trkpt>
      <trkpt lat="46.48093" lon="5.24322">
        <ele>216.80000305176</ele>
        <time>2021-10-21T12:43:58.000Z</time>
      </trkpt>
      <trkpt lat="46.48087" lon="5.24314">
        <ele>216.39999389648</ele>
        <time>2021-10-21T12:43:59.000Z</time>
      </trkpt>
      <trkpt lat="46.48081" lon="5.24305">
        <ele>216</ele>
        <time>2021-10-21T12:44:00.000Z</time>
      </trkpt>
      <trkpt lat="46.48077" lon="5.24294">
        <ele>215.39999389648</ele>
        <time>2021-10-21T12:44:01.000Z</time>
      </trkpt>
      <trkpt lat="46.48074" lon="5.24281">
        <ele>215.19999694824</ele>
        <time>2021-10-21T12:44:02.000Z</time>
      </trkpt>
      <trkpt lat="46.48074" lon="5.24254">
        <ele>214</ele>
        <time>2021-10-21T12:44:04.000Z</time>
      </trkpt>
      <trkpt lat="46.48077" lon="5.2424">
        <ele>213.80000305176</ele>
        <time>2021-10-21T12:44:05.000Z</time>
      </trkpt>
      <trkpt lat="46.48081" lon="5.24226">
        <ele>213.19999694824</ele>
        <time>2021-10-21T12:44:06.000Z</time>
      </trkpt>
      <trkpt lat="46.4809" lon="5.242">
        <ele>212.19999694824</ele>
        <time>2021-10-21T12:44:08.000Z</time>
      </trkpt>
      <trkpt lat="46.48095" lon="5.24187">
        <ele>212</ele>
        <time>2021-10-21T12:44:09.000Z</time>
      </trkpt>
      <trkpt lat="46.48105" lon="5.24162">
        <ele>210.60000610352</ele>
        <time>2021-10-21T12:44:11.000Z</time>
      </trkpt>
      <trkpt lat="46.48116" lon="5.24135">
        <ele>209.60000610352</ele>
        <time>2021-10-21T12:44:13.000Z</time>
      </trkpt>
      <trkpt lat="46.48127" lon="5.24109">
        <ele>208.39999389648</ele>
        <time>2021-10-21T12:44:15.000Z</time>
      </trkpt>
      <trkpt lat="46.48132" lon="5.24096">
        <ele>208</ele>
        <time>2021-10-21T12:44:16.000Z</time>
      </trkpt>
      <trkpt lat="46.48142" lon="5.24069">
        <ele>206.60000610352</ele>
        <time>2021-10-21T12:44:18.000Z</time>
      </trkpt>
      <trkpt lat="46.48158" lon="5.24029">
        <ele>204.80000305176</ele>
        <time>2021-10-21T12:44:21.000Z</time>
      </trkpt>
      <trkpt lat="46.48164" lon="5.24015">
        <ele>204</ele>
        <time>2021-10-21T12:44:22.000Z</time>
      </trkpt>
      <trkpt lat="46.48169" lon="5.24002">
        <ele>203.60000610352</ele>
        <time>2021-10-21T12:44:23.000Z</time>
      </trkpt>
      <trkpt lat="46.48184" lon="5.23957">
        <ele>201.80000305176</ele>
        <time>2021-10-21T12:44:26.000Z</time>
      </trkpt>
      <trkpt lat="46.4819" lon="5.23931">
        <ele>200.60000610352</ele>
        <time>2021-10-21T12:44:28.000Z</time>
      </trkpt>
      <trkpt lat="46.48191" lon="5.23901">
        <ele>199.39999389648</ele>
        <time>2021-10-21T12:44:30.000Z</time>
      </trkpt>
      <trkpt lat="46.48189" lon="5.23887">
        <ele>198.80000305176</ele>
        <time>2021-10-21T12:44:31.000Z</time>
      </trkpt>
      <trkpt lat="46.48183" lon="5.23861">
        <ele>198</ele>
        <time>2021-10-21T12:44:33.000Z</time>
      </trkpt>
      <trkpt lat="46.48179" lon="5.2385">
        <ele>197.39999389648</ele>
        <time>2021-10-21T12:44:34.000Z</time>
      </trkpt>
      <trkpt lat="46.48173" lon="5.23841">
        <ele>197</ele>
        <time>2021-10-21T12:44:35.000Z</time>
      </trkpt>
      <trkpt lat="46.48154" lon="5.23815">
        <ele>196</ele>
        <time>2021-10-21T12:44:38.000Z</time>
      </trkpt>
      <trkpt lat="46.48148" lon="5.23807">
        <ele>195.80000305176</ele>
        <time>2021-10-21T12:44:39.000Z</time>
      </trkpt>
      <trkpt lat="46.48112" lon="5.23762">
        <ele>195.39999389648</ele>
        <time>2021-10-21T12:44:45.000Z</time>
      </trkpt>
      <trkpt lat="46.48093" lon="5.23727">
        <ele>195</ele>
        <time>2021-10-21T12:44:49.000Z</time>
      </trkpt>
      <trkpt lat="46.48088" lon="5.23718">
        <ele>194.80000305176</ele>
        <time>2021-10-21T12:44:50.000Z</time>
      </trkpt>
      <trkpt lat="46.4807" lon="5.23659">
        <ele>194.39999389648</ele>
        <time>2021-10-21T12:44:56.000Z</time>
      </trkpt>
      <trkpt lat="46.48062" lon="5.23597">
        <ele>194</ele>
        <time>2021-10-21T12:45:02.000Z</time>
      </trkpt>
      <trkpt lat="46.4806" lon="5.23516">
        <ele>193.60000610352</ele>
        <time>2021-10-21T12:45:10.000Z</time>
      </trkpt>
      <trkpt lat="46.4806" lon="5.23507">
        <ele>193.60000610352</ele>
        <time>2021-10-21T12:45:11.000Z</time>
      </trkpt>
      <trkpt lat="46.48058" lon="5.23422">
        <ele>193.60000610352</ele>
        <time>2021-10-21T12:45:20.000Z</time>
      </trkpt>
      <trkpt lat="46.48056" lon="5.23339">
        <ele>193.80000305176</ele>
        <time>2021-10-21T12:45:29.000Z</time>
      </trkpt>
      <trkpt lat="46.48054" lon="5.23257">
        <ele>194.19999694824</ele>
        <time>2021-10-21T12:45:38.000Z</time>
      </trkpt>
      <trkpt lat="46.48052" lon="5.23188">
        <ele>194.80000305176</ele>
        <time>2021-10-21T12:45:46.000Z</time>
      </trkpt>
      <trkpt lat="46.48051" lon="5.23157">
        <ele>195.19999694824</ele>
        <time>2021-10-21T12:45:50.000Z</time>
      </trkpt>
      <trkpt lat="46.48051" lon="5.23142">
        <ele>195.39999389648</ele>
        <time>2021-10-21T12:45:52.000Z</time>
      </trkpt>
      <trkpt lat="46.4805" lon="5.23076">
        <ele>196.39999389648</ele>
        <time>2021-10-21T12:46:01.000Z</time>
      </trkpt>
      <trkpt lat="46.48049" lon="5.23041">
        <ele>197.39999389648</ele>
        <time>2021-10-21T12:46:06.000Z</time>
      </trkpt>
      <trkpt lat="46.48049" lon="5.23013">
        <ele>198</ele>
        <time>2021-10-21T12:46:10.000Z</time>
      </trkpt>
      <trkpt lat="46.48048" lon="5.22999">
        <ele>198.60000610352</ele>
        <time>2021-10-21T12:46:12.000Z</time>
      </trkpt>
      <trkpt lat="46.48046" lon="5.22963">
        <ele>199.80000305176</ele>
        <time>2021-10-21T12:46:17.000Z</time>
      </trkpt>
      <trkpt lat="46.48044" lon="5.22942">
        <ele>200</ele>
        <time>2021-10-21T12:46:20.000Z</time>
      </trkpt>
      <trkpt lat="46.48037" lon="5.22916">
        <ele>200.60000610352</ele>
        <time>2021-10-21T12:46:24.000Z</time>
      </trkpt>
      <trkpt lat="46.48034" lon="5.22904">
        <ele>201</ele>
        <time>2021-10-21T12:46:26.000Z</time>
      </trkpt>
      <trkpt lat="46.48032" lon="5.22898">
        <ele>201</ele>
        <time>2021-10-21T12:46:27.000Z</time>
      </trkpt>
      <trkpt lat="46.48021" lon="5.22868">
        <ele>202</ele>
        <time>2021-10-21T12:46:32.000Z</time>
      </trkpt>
      <trkpt lat="46.48019" lon="5.22862">
        <ele>202.19999694824</ele>
        <time>2021-10-21T12:46:33.000Z</time>
      </trkpt>
      <trkpt lat="46.47999" lon="5.22807">
        <ele>203</ele>
        <time>2021-10-21T12:46:42.000Z</time>
      </trkpt>
      <trkpt lat="46.47997" lon="5.22801">
        <ele>203.19999694824</ele>
        <time>2021-10-21T12:46:43.000Z</time>
      </trkpt>
      <trkpt lat="46.47976" lon="5.22748">
        <ele>204.19999694824</ele>
        <time>2021-10-21T12:46:52.000Z</time>
      </trkpt>
      <trkpt lat="46.47973" lon="5.22743">
        <ele>204.19999694824</ele>
        <time>2021-10-21T12:46:53.000Z</time>
      </trkpt>
      <trkpt lat="46.4795" lon="5.22711">
        <ele>205.19999694824</ele>
        <time>2021-10-21T12:47:00.000Z</time>
      </trkpt>
      <trkpt lat="46.47946" lon="5.22707">
        <ele>205.39999389648</ele>
        <time>2021-10-21T12:47:01.000Z</time>
      </trkpt>
      <trkpt lat="46.47932" lon="5.22692">
        <ele>206</ele>
        <time>2021-10-21T12:47:05.000Z</time>
      </trkpt>
      <trkpt lat="46.47921" lon="5.22681">
        <ele>206.60000610352</ele>
        <time>2021-10-21T12:47:08.000Z</time>
      </trkpt>
      <trkpt lat="46.47913" lon="5.22674">
        <ele>206.80000305176</ele>
        <time>2021-10-21T12:47:10.000Z</time>
      </trkpt>
      <trkpt lat="46.47896" lon="5.22657">
        <ele>207.80000305176</ele>
        <time>2021-10-21T12:47:15.000Z</time>
      </trkpt>
      <trkpt lat="46.47878" lon="5.22639">
        <ele>208.39999389648</ele>
        <time>2021-10-21T12:47:20.000Z</time>
      </trkpt>
      <trkpt lat="46.47875" lon="5.22635">
        <ele>209</ele>
        <time>2021-10-21T12:47:21.000Z</time>
      </trkpt>
      <trkpt lat="46.47855" lon="5.22613">
        <ele>210</ele>
        <time>2021-10-21T12:47:27.000Z</time>
      </trkpt>
      <trkpt lat="46.47842" lon="5.22599">
        <ele>210.60000610352</ele>
        <time>2021-10-21T12:47:31.000Z</time>
      </trkpt>
      <trkpt lat="46.47836" lon="5.22591">
        <ele>211.39999389648</ele>
        <time>2021-10-21T12:47:33.000Z</time>
      </trkpt>
      <trkpt lat="46.47821" lon="5.22571">
        <ele>212.39999389648</ele>
        <time>2021-10-21T12:47:38.000Z</time>
      </trkpt>
      <trkpt lat="46.4781" lon="5.22552">
        <ele>213.19999694824</ele>
        <time>2021-10-21T12:47:42.000Z</time>
      </trkpt>
      <trkpt lat="46.47808" lon="5.22546">
        <ele>213.19999694824</ele>
        <time>2021-10-21T12:47:43.000Z</time>
      </trkpt>
      <trkpt lat="46.47804" lon="5.22533">
        <ele>213.60000610352</ele>
        <time>2021-10-21T12:47:45.000Z</time>
      </trkpt>
      <trkpt lat="46.478" lon="5.22513">
        <ele>214</ele>
        <time>2021-10-21T12:47:48.000Z</time>
      </trkpt>
      <trkpt lat="46.47794" lon="5.22485">
        <ele>214.60000610352</ele>
        <time>2021-10-21T12:47:52.000Z</time>
      </trkpt>
      <trkpt lat="46.4779" lon="5.22464">
        <ele>214.80000305176</ele>
        <time>2021-10-21T12:47:55.000Z</time>
      </trkpt>
      <trkpt lat="46.47777" lon="5.22406">
        <ele>215.19999694824</ele>
        <time>2021-10-21T12:48:03.000Z</time>
      </trkpt>
      <trkpt lat="46.47768" lon="5.22398">
        <ele>215.19999694824</ele>
        <time>2021-10-21T12:48:05.000Z</time>
      </trkpt>
      <trkpt lat="46.47763" lon="5.22398">
        <ele>215.39999389648</ele>
        <time>2021-10-21T12:48:06.000Z</time>
      </trkpt>
      <trkpt lat="46.47708" lon="5.22394">
        <ele>215.60000610352</ele>
        <time>2021-10-21T12:48:16.000Z</time>
      </trkpt>
      <trkpt lat="46.47686" lon="5.22394">
        <ele>215.60000610352</ele>
        <time>2021-10-21T12:48:20.000Z</time>
      </trkpt>
      <trkpt lat="46.47667" lon="5.22391">
        <ele>215.60000610352</ele>
        <time>2021-10-21T12:48:23.000Z</time>
      </trkpt>
      <trkpt lat="46.47617" lon="5.22375">
        <ele>215</ele>
        <time>2021-10-21T12:48:31.000Z</time>
      </trkpt>
      <trkpt lat="46.47592" lon="5.22366">
        <ele>214.60000610352</ele>
        <time>2021-10-21T12:48:35.000Z</time>
      </trkpt>
      <trkpt lat="46.47566" lon="5.22356">
        <ele>213.80000305176</ele>
        <time>2021-10-21T12:48:39.000Z</time>
      </trkpt>
      <trkpt lat="46.47522" lon="5.22332">
        <ele>213.39999389648</ele>
        <time>2021-10-21T12:48:46.000Z</time>
      </trkpt>
      <trkpt lat="46.47516" lon="5.22329">
        <ele>213.39999389648</ele>
        <time>2021-10-21T12:48:47.000Z</time>
      </trkpt>
      <trkpt lat="46.47469" lon="5.22302">
        <ele>212.80000305176</ele>
        <time>2021-10-21T12:48:55.000Z</time>
      </trkpt>
      <trkpt lat="46.47429" lon="5.2228">
        <ele>213.19999694824</ele>
        <time>2021-10-21T12:49:02.000Z</time>
      </trkpt>
      <trkpt lat="46.47378" lon="5.22253">
        <ele>213.19999694824</ele>
        <time>2021-10-21T12:49:11.000Z</time>
      </trkpt>
      <trkpt lat="46.47327" lon="5.2223">
        <ele>212.80000305176</ele>
        <time>2021-10-21T12:49:19.000Z</time>
      </trkpt>
      <trkpt lat="46.47312" lon="5.22224">
        <ele>212.39999389648</ele>
        <time>2021-10-21T12:49:21.000Z</time>
      </trkpt>
      <trkpt lat="46.47275" lon="5.22212">
        <ele>212</ele>
        <time>2021-10-21T12:49:26.000Z</time>
      </trkpt>
      <trkpt lat="46.47253" lon="5.22203">
        <ele>211.19999694824</ele>
        <time>2021-10-21T12:49:29.000Z</time>
      </trkpt>
      <trkpt lat="46.47214" lon="5.22189">
        <ele>210.39999389648</ele>
        <time>2021-10-21T12:49:34.000Z</time>
      </trkpt>
      <trkpt lat="46.47207" lon="5.22186">
        <ele>210.19999694824</ele>
        <time>2021-10-21T12:49:35.000Z</time>
      </trkpt>
      <trkpt lat="46.47153" lon="5.22167">
        <ele>209.19999694824</ele>
        <time>2021-10-21T12:49:42.000Z</time>
      </trkpt>
      <trkpt lat="46.47145" lon="5.22163">
        <ele>209.19999694824</ele>
        <time>2021-10-21T12:49:43.000Z</time>
      </trkpt>
      <trkpt lat="46.47115" lon="5.22152">
        <ele>208.19999694824</ele>
        <time>2021-10-21T12:49:47.000Z</time>
      </trkpt>
      <trkpt lat="46.47063" lon="5.22133">
        <ele>207</ele>
        <time>2021-10-21T12:49:54.000Z</time>
      </trkpt>
      <trkpt lat="46.47056" lon="5.22132">
        <ele>207</ele>
        <time>2021-10-21T12:49:55.000Z</time>
      </trkpt>
      <trkpt lat="46.47017" lon="5.22127">
        <ele>206.39999389648</ele>
        <time>2021-10-21T12:50:00.000Z</time>
      </trkpt>
      <trkpt lat="46.46992" lon="5.22128">
        <ele>205.60000610352</ele>
        <time>2021-10-21T12:50:03.000Z</time>
      </trkpt>
      <trkpt lat="46.46965" lon="5.2213">
        <ele>204.60000610352</ele>
        <time>2021-10-21T12:50:06.000Z</time>
      </trkpt>
      <trkpt lat="46.46956" lon="5.2213">
        <ele>204</ele>
        <time>2021-10-21T12:50:07.000Z</time>
      </trkpt>
      <trkpt lat="46.46928" lon="5.22132">
        <ele>202.19999694824</ele>
        <time>2021-10-21T12:50:10.000Z</time>
      </trkpt>
      <trkpt lat="46.46902" lon="5.22128">
        <ele>201.19999694824</ele>
        <time>2021-10-21T12:50:13.000Z</time>
      </trkpt>
      <trkpt lat="46.46893" lon="5.22125">
        <ele>201</ele>
        <time>2021-10-21T12:50:14.000Z</time>
      </trkpt>
      <trkpt lat="46.46886" lon="5.2212">
        <ele>200.60000610352</ele>
        <time>2021-10-21T12:50:15.000Z</time>
      </trkpt>
      <trkpt lat="46.4688" lon="5.22114">
        <ele>200.39999389648</ele>
        <time>2021-10-21T12:50:16.000Z</time>
      </trkpt>
      <trkpt lat="46.46874" lon="5.22106">
        <ele>200.39999389648</ele>
        <time>2021-10-21T12:50:17.000Z</time>
      </trkpt>
      <trkpt lat="46.46867" lon="5.22094">
        <ele>200.39999389648</ele>
        <time>2021-10-21T12:50:19.000Z</time>
      </trkpt>
      <trkpt lat="46.46848" lon="5.22049">
        <ele>202.39999389648</ele>
        <time>2021-10-21T12:50:26.000Z</time>
      </trkpt>
      <trkpt lat="46.46834" lon="5.22022">
        <ele>203.60000610352</ele>
        <time>2021-10-21T12:50:31.000Z</time>
      </trkpt>
      <trkpt lat="46.46827" lon="5.22011">
        <ele>204</ele>
        <time>2021-10-21T12:50:33.000Z</time>
      </trkpt>
      <trkpt lat="46.4682" lon="5.22004">
        <ele>204.39999389648</ele>
        <time>2021-10-21T12:50:35.000Z</time>
      </trkpt>
      <trkpt lat="46.46811" lon="5.21999">
        <ele>204.80000305176</ele>
        <time>2021-10-21T12:50:37.000Z</time>
      </trkpt>
      <trkpt lat="46.46808" lon="5.21997">
        <ele>205.39999389648</ele>
        <time>2021-10-21T12:50:38.000Z</time>
      </trkpt>
      <trkpt lat="46.46803" lon="5.21996">
        <ele>205.39999389648</ele>
        <time>2021-10-21T12:50:39.000Z</time>
      </trkpt>
      <trkpt lat="46.46793" lon="5.21996">
        <ele>206</ele>
        <time>2021-10-21T12:50:41.000Z</time>
      </trkpt>
      <trkpt lat="46.46784" lon="5.21998">
        <ele>206.60000610352</ele>
        <time>2021-10-21T12:50:43.000Z</time>
      </trkpt>
      <trkpt lat="46.46775" lon="5.22003">
        <ele>207.39999389648</ele>
        <time>2021-10-21T12:50:45.000Z</time>
      </trkpt>
      <trkpt lat="46.46757" lon="5.22011">
        <ele>208.39999389648</ele>
        <time>2021-10-21T12:50:49.000Z</time>
      </trkpt>
      <trkpt lat="46.46753" lon="5.22012">
        <ele>208.60000610352</ele>
        <time>2021-10-21T12:50:50.000Z</time>
      </trkpt>
      <trkpt lat="46.46747" lon="5.22012">
        <ele>209.19999694824</ele>
        <time>2021-10-21T12:50:52.000Z</time>
      </trkpt>
      <trkpt lat="46.46744" lon="5.22012">
        <ele>209.39999389648</ele>
        <time>2021-10-21T12:50:54.000Z</time>
      </trkpt>
      <trkpt lat="46.46743" lon="5.22011">
        <ele>209.60000610352</ele>
        <time>2021-10-21T12:50:57.000Z</time>
      </trkpt>
      <trkpt lat="46.46739" lon="5.22014">
        <ele>210</ele>
        <time>2021-10-21T12:51:10.000Z</time>
      </trkpt>
      <trkpt lat="46.46723" lon="5.22015">
        <ele>210</ele>
        <time>2021-10-21T12:51:15.000Z</time>
      </trkpt>
      <trkpt lat="46.46696" lon="5.22015">
        <ele>210</ele>
        <time>2021-10-21T12:51:20.000Z</time>
      </trkpt>
      <trkpt lat="46.4669" lon="5.22015">
        <ele>210.19999694824</ele>
        <time>2021-10-21T12:51:21.000Z</time>
      </trkpt>
      <trkpt lat="46.46663" lon="5.22015">
        <ele>210.80000305176</ele>
        <time>2021-10-21T12:51:26.000Z</time>
      </trkpt>
      <trkpt lat="46.46647" lon="5.22017">
        <ele>211.80000305176</ele>
        <time>2021-10-21T12:51:29.000Z</time>
      </trkpt>
      <trkpt lat="46.46622" lon="5.2202">
        <ele>213</ele>
        <time>2021-10-21T12:51:34.000Z</time>
      </trkpt>
      <trkpt lat="46.46611" lon="5.22023">
        <ele>213.19999694824</ele>
        <time>2021-10-21T12:51:36.000Z</time>
      </trkpt>
      <trkpt lat="46.4659" lon="5.22028">
        <ele>214</ele>
        <time>2021-10-21T12:51:40.000Z</time>
      </trkpt>
      <trkpt lat="46.46573" lon="5.22032">
        <ele>214.19999694824</ele>
        <time>2021-10-21T12:51:43.000Z</time>
      </trkpt>
      <trkpt lat="46.46568" lon="5.22032">
        <ele>214.19999694824</ele>
        <time>2021-10-21T12:51:44.000Z</time>
      </trkpt>
      <trkpt lat="46.46557" lon="5.22031">
        <ele>214.39999389648</ele>
        <time>2021-10-21T12:51:46.000Z</time>
      </trkpt>
      <trkpt lat="46.46548" lon="5.22028">
        <ele>214.60000610352</ele>
        <time>2021-10-21T12:51:48.000Z</time>
      </trkpt>
      <trkpt lat="46.46533" lon="5.22023">
        <ele>215</ele>
        <time>2021-10-21T12:51:51.000Z</time>
      </trkpt>
      <trkpt lat="46.46511" lon="5.22016">
        <ele>215.39999389648</ele>
        <time>2021-10-21T12:51:55.000Z</time>
      </trkpt>
      <trkpt lat="46.46479" lon="5.22005">
        <ele>216.19999694824</ele>
        <time>2021-10-21T12:52:01.000Z</time>
      </trkpt>
      <trkpt lat="46.46461" lon="5.22">
        <ele>216.19999694824</ele>
        <time>2021-10-21T12:52:04.000Z</time>
      </trkpt>
      <trkpt lat="46.46416" lon="5.21993">
        <ele>216.19999694824</ele>
        <time>2021-10-21T12:52:11.000Z</time>
      </trkpt>
      <trkpt lat="46.4638" lon="5.21984">
        <ele>215.39999389648</ele>
        <time>2021-10-21T12:52:16.000Z</time>
      </trkpt>
      <trkpt lat="46.46373" lon="5.21981">
        <ele>215</ele>
        <time>2021-10-21T12:52:17.000Z</time>
      </trkpt>
      <trkpt lat="46.4633" lon="5.21959">
        <ele>214</ele>
        <time>2021-10-21T12:52:23.000Z</time>
      </trkpt>
      <trkpt lat="46.46285" lon="5.21931">
        <ele>212.80000305176</ele>
        <time>2021-10-21T12:52:29.000Z</time>
      </trkpt>
      <trkpt lat="46.46278" lon="5.21925">
        <ele>212.60000610352</ele>
        <time>2021-10-21T12:52:30.000Z</time>
      </trkpt>
      <trkpt lat="46.46259" lon="5.21902">
        <ele>212</ele>
        <time>2021-10-21T12:52:33.000Z</time>
      </trkpt>
      <trkpt lat="46.46254" lon="5.21894">
        <ele>212</ele>
        <time>2021-10-21T12:52:34.000Z</time>
      </trkpt>
      <trkpt lat="46.46248" lon="5.21885">
        <ele>211.80000305176</ele>
        <time>2021-10-21T12:52:35.000Z</time>
      </trkpt>
      <trkpt lat="46.46223" lon="5.21847">
        <ele>210.80000305176</ele>
        <time>2021-10-21T12:52:40.000Z</time>
      </trkpt>
      <trkpt lat="46.46197" lon="5.21808">
        <ele>211</ele>
        <time>2021-10-21T12:52:46.000Z</time>
      </trkpt>
      <trkpt lat="46.46162" lon="5.21749">
        <ele>212.19999694824</ele>
        <time>2021-10-21T12:52:56.000Z</time>
      </trkpt>
      <trkpt lat="46.46148" lon="5.21725">
        <ele>213.19999694824</ele>
        <time>2021-10-21T12:53:00.000Z</time>
      </trkpt>
      <trkpt lat="46.46138" lon="5.21707">
        <ele>214.19999694824</ele>
        <time>2021-10-21T12:53:03.000Z</time>
      </trkpt>
      <trkpt lat="46.46132" lon="5.21696">
        <ele>214.60000610352</ele>
        <time>2021-10-21T12:53:05.000Z</time>
      </trkpt>
      <trkpt lat="46.46124" lon="5.21684">
        <ele>215</ele>
        <time>2021-10-21T12:53:07.000Z</time>
      </trkpt>
      <trkpt lat="46.46115" lon="5.21672">
        <ele>215.39999389648</ele>
        <time>2021-10-21T12:53:09.000Z</time>
      </trkpt>
      <trkpt lat="46.46109" lon="5.21666">
        <ele>215.39999389648</ele>
        <time>2021-10-21T12:53:10.000Z</time>
      </trkpt>
      <trkpt lat="46.4607" lon="5.21618">
        <ele>215.60000610352</ele>
        <time>2021-10-21T12:53:18.000Z</time>
      </trkpt>
      <trkpt lat="46.4603" lon="5.21574">
        <ele>215.80000305176</ele>
        <time>2021-10-21T12:53:26.000Z</time>
      </trkpt>
      <trkpt lat="46.45987" lon="5.21542">
        <ele>216.39999389648</ele>
        <time>2021-10-21T12:53:34.000Z</time>
      </trkpt>
      <trkpt lat="46.45945" lon="5.21522">
        <ele>217</ele>
        <time>2021-10-21T12:53:42.000Z</time>
      </trkpt>
      <trkpt lat="46.4593" lon="5.21516">
        <ele>217.39999389648</ele>
        <time>2021-10-21T12:53:45.000Z</time>
      </trkpt>
      <trkpt lat="46.45893" lon="5.21506">
        <ele>218.39999389648</ele>
        <time>2021-10-21T12:53:52.000Z</time>
      </trkpt>
      <trkpt lat="46.45881" lon="5.21503">
        <ele>218.60000610352</ele>
        <time>2021-10-21T12:53:54.000Z</time>
      </trkpt>
      <trkpt lat="46.45843" lon="5.21494">
        <ele>219</ele>
        <time>2021-10-21T12:54:01.000Z</time>
      </trkpt>
      <trkpt lat="46.45805" lon="5.21493">
        <ele>219.80000305176</ele>
        <time>2021-10-21T12:54:08.000Z</time>
      </trkpt>
      <trkpt lat="46.45783" lon="5.21499">
        <ele>220.19999694824</ele>
        <time>2021-10-21T12:54:12.000Z</time>
      </trkpt>
      <trkpt lat="46.45772" lon="5.21504">
        <ele>220.39999389648</ele>
        <time>2021-10-21T12:54:14.000Z</time>
      </trkpt>
      <trkpt lat="46.4575" lon="5.21514">
        <ele>220.60000610352</ele>
        <time>2021-10-21T12:54:18.000Z</time>
      </trkpt>
      <trkpt lat="46.4574" lon="5.2152">
        <ele>220.60000610352</ele>
        <time>2021-10-21T12:54:20.000Z</time>
      </trkpt>
      <trkpt lat="46.45705" lon="5.21548">
        <ele>221</ele>
        <time>2021-10-21T12:54:27.000Z</time>
      </trkpt>
      <trkpt lat="46.45691" lon="5.21565">
        <ele>221</ele>
        <time>2021-10-21T12:54:30.000Z</time>
      </trkpt>
      <trkpt lat="46.45677" lon="5.21586">
        <ele>220.80000305176</ele>
        <time>2021-10-21T12:54:33.000Z</time>
      </trkpt>
      <trkpt lat="46.45642" lon="5.21648">
        <ele>220</ele>
        <time>2021-10-21T12:54:41.000Z</time>
      </trkpt>
      <trkpt lat="46.4561" lon="5.2171">
        <ele>219.19999694824</ele>
        <time>2021-10-21T12:54:49.000Z</time>
      </trkpt>
      <trkpt lat="46.4558" lon="5.21782">
        <ele>219.80000305176</ele>
        <time>2021-10-21T12:54:58.000Z</time>
      </trkpt>
      <trkpt lat="46.4555" lon="5.21854">
        <ele>220.39999389648</ele>
        <time>2021-10-21T12:55:07.000Z</time>
      </trkpt>
      <trkpt lat="46.45543" lon="5.2187">
        <ele>220.39999389648</ele>
        <time>2021-10-21T12:55:09.000Z</time>
      </trkpt>
      <trkpt lat="46.4554" lon="5.21877">
        <ele>220.39999389648</ele>
        <time>2021-10-21T12:55:10.000Z</time>
      </trkpt>
      <trkpt lat="46.45515" lon="5.21933">
        <ele>220.60000610352</ele>
        <time>2021-10-21T12:55:17.000Z</time>
      </trkpt>
      <trkpt lat="46.45497" lon="5.21981">
        <ele>220.39999389648</ele>
        <time>2021-10-21T12:55:22.000Z</time>
      </trkpt>
      <trkpt lat="46.45472" lon="5.22049">
        <ele>219.80000305176</ele>
        <time>2021-10-21T12:55:29.000Z</time>
      </trkpt>
      <trkpt lat="46.45454" lon="5.22107">
        <ele>219.60000610352</ele>
        <time>2021-10-21T12:55:35.000Z</time>
      </trkpt>
      <trkpt lat="46.45433" lon="5.22157">
        <ele>219.60000610352</ele>
        <time>2021-10-21T12:55:41.000Z</time>
      </trkpt>
      <trkpt lat="46.45419" lon="5.22186">
        <ele>219.80000305176</ele>
        <time>2021-10-21T12:55:45.000Z</time>
      </trkpt>
      <trkpt lat="46.45409" lon="5.22198">
        <ele>219.80000305176</ele>
        <time>2021-10-21T12:55:47.000Z</time>
      </trkpt>
      <trkpt lat="46.45368" lon="5.22228">
        <ele>220.60000610352</ele>
        <time>2021-10-21T12:55:54.000Z</time>
      </trkpt>
      <trkpt lat="46.45344" lon="5.22242">
        <ele>221</ele>
        <time>2021-10-21T12:55:58.000Z</time>
      </trkpt>
      <trkpt lat="46.4532" lon="5.22255">
        <ele>221.19999694824</ele>
        <time>2021-10-21T12:56:02.000Z</time>
      </trkpt>
      <trkpt lat="46.45268" lon="5.22288">
        <ele>221.39999389648</ele>
        <time>2021-10-21T12:56:11.000Z</time>
      </trkpt>
      <trkpt lat="46.45262" lon="5.22292">
        <ele>221.39999389648</ele>
        <time>2021-10-21T12:56:12.000Z</time>
      </trkpt>
      <trkpt lat="46.45224" lon="5.22324">
        <ele>221.60000610352</ele>
        <time>2021-10-21T12:56:19.000Z</time>
      </trkpt>
      <trkpt lat="46.45216" lon="5.22338">
        <ele>221.60000610352</ele>
        <time>2021-10-21T12:56:21.000Z</time>
      </trkpt>
      <trkpt lat="46.4521" lon="5.22355">
        <ele>221.80000305176</ele>
        <time>2021-10-21T12:56:23.000Z</time>
      </trkpt>
      <trkpt lat="46.45201" lon="5.22379">
        <ele>222</ele>
        <time>2021-10-21T12:56:26.000Z</time>
      </trkpt>
      <trkpt lat="46.45189" lon="5.22412">
        <ele>222.19999694824</ele>
        <time>2021-10-21T12:56:30.000Z</time>
      </trkpt>
      <trkpt lat="46.45169" lon="5.22465">
        <ele>221.60000610352</ele>
        <time>2021-10-21T12:56:36.000Z</time>
      </trkpt>
      <trkpt lat="46.45152" lon="5.22528">
        <ele>221.60000610352</ele>
        <time>2021-10-21T12:56:43.000Z</time>
      </trkpt>
      <trkpt lat="46.45131" lon="5.22607">
        <ele>222.19999694824</ele>
        <time>2021-10-21T12:56:52.000Z</time>
      </trkpt>
      <trkpt lat="46.45129" lon="5.22615">
        <ele>222.19999694824</ele>
        <time>2021-10-21T12:56:53.000Z</time>
      </trkpt>
      <trkpt lat="46.45109" lon="5.22674">
        <ele>222.39999389648</ele>
        <time>2021-10-21T12:57:00.000Z</time>
      </trkpt>
      <trkpt lat="46.45087" lon="5.22741">
        <ele>222.39999389648</ele>
        <time>2021-10-21T12:57:08.000Z</time>
      </trkpt>
      <trkpt lat="46.45081" lon="5.22778">
        <ele>222.19999694824</ele>
        <time>2021-10-21T12:57:12.000Z</time>
      </trkpt>
      <trkpt lat="46.45075" lon="5.22814">
        <ele>222</ele>
        <time>2021-10-21T12:57:16.000Z</time>
      </trkpt>
      <trkpt lat="46.45073" lon="5.22823">
        <ele>222</ele>
        <time>2021-10-21T12:57:17.000Z</time>
      </trkpt>
      <trkpt lat="46.45064" lon="5.22838">
        <ele>222</ele>
        <time>2021-10-21T12:57:19.000Z</time>
      </trkpt>
      <trkpt lat="46.45039" lon="5.22854">
        <ele>222</ele>
        <time>2021-10-21T12:57:23.000Z</time>
      </trkpt>
      <trkpt lat="46.45002" lon="5.22883">
        <ele>221.60000610352</ele>
        <time>2021-10-21T12:57:29.000Z</time>
      </trkpt>
      <trkpt lat="46.44991" lon="5.22896">
        <ele>221.39999389648</ele>
        <time>2021-10-21T12:57:31.000Z</time>
      </trkpt>
      <trkpt lat="46.44983" lon="5.22913">
        <ele>221.19999694824</ele>
        <time>2021-10-21T12:57:33.000Z</time>
      </trkpt>
      <trkpt lat="46.4498" lon="5.22922">
        <ele>221.19999694824</ele>
        <time>2021-10-21T12:57:34.000Z</time>
      </trkpt>
      <trkpt lat="46.44974" lon="5.22952">
        <ele>221.19999694824</ele>
        <time>2021-10-21T12:57:37.000Z</time>
      </trkpt>
      <trkpt lat="46.44961" lon="5.23028">
        <ele>221.19999694824</ele>
        <time>2021-10-21T12:57:45.000Z</time>
      </trkpt>
      <trkpt lat="46.44952" lon="5.23078">
        <ele>221.60000610352</ele>
        <time>2021-10-21T12:57:51.000Z</time>
      </trkpt>
      <trkpt lat="46.44939" lon="5.23111">
        <ele>222</ele>
        <time>2021-10-21T12:57:56.000Z</time>
      </trkpt>
      <trkpt lat="46.44935" lon="5.23116">
        <ele>222.19999694824</ele>
        <time>2021-10-21T12:57:57.000Z</time>
      </trkpt>
      <trkpt lat="46.44931" lon="5.23119">
        <ele>222.39999389648</ele>
        <time>2021-10-21T12:57:58.000Z</time>
      </trkpt>
      <trkpt lat="46.44926" lon="5.23119">
        <ele>222.39999389648</ele>
        <time>2021-10-21T12:57:59.000Z</time>
      </trkpt>
      <trkpt lat="46.44922" lon="5.23116">
        <ele>222.39999389648</ele>
        <time>2021-10-21T12:58:00.000Z</time>
      </trkpt>
      <trkpt lat="46.44911" lon="5.23106">
        <ele>222.60000610352</ele>
        <time>2021-10-21T12:58:02.000Z</time>
      </trkpt>
      <trkpt lat="46.44906" lon="5.231">
        <ele>222.60000610352</ele>
        <time>2021-10-21T12:58:03.000Z</time>
      </trkpt>
      <trkpt lat="46.44887" lon="5.2307">
        <ele>222</ele>
        <time>2021-10-21T12:58:07.000Z</time>
      </trkpt>
      <trkpt lat="46.44883" lon="5.23061">
        <ele>222</ele>
        <time>2021-10-21T12:58:08.000Z</time>
      </trkpt>
      <trkpt lat="46.4488" lon="5.23052">
        <ele>222</ele>
        <time>2021-10-21T12:58:09.000Z</time>
      </trkpt>
      <trkpt lat="46.4486" lon="5.22999">
        <ele>221.80000305176</ele>
        <time>2021-10-21T12:58:15.000Z</time>
      </trkpt>
      <trkpt lat="46.4485" lon="5.22973">
        <ele>221.60000610352</ele>
        <time>2021-10-21T12:58:18.000Z</time>
      </trkpt>
      <trkpt lat="46.44841" lon="5.22958">
        <ele>221.39999389648</ele>
        <time>2021-10-21T12:58:20.000Z</time>
      </trkpt>
      <trkpt lat="46.44829" lon="5.22947">
        <ele>221.39999389648</ele>
        <time>2021-10-21T12:58:22.000Z</time>
      </trkpt>
      <trkpt lat="46.44817" lon="5.22939">
        <ele>221.39999389648</ele>
        <time>2021-10-21T12:58:24.000Z</time>
      </trkpt>
      <trkpt lat="46.44776" lon="5.22912">
        <ele>221.19999694824</ele>
        <time>2021-10-21T12:58:31.000Z</time>
      </trkpt>
      <trkpt lat="46.44727" lon="5.22869">
        <ele>220.60000610352</ele>
        <time>2021-10-21T12:58:40.000Z</time>
      </trkpt>
      <trkpt lat="46.44716" lon="5.22861">
        <ele>220.60000610352</ele>
        <time>2021-10-21T12:58:42.000Z</time>
      </trkpt>
      <trkpt lat="46.44695" lon="5.22848">
        <ele>220.60000610352</ele>
        <time>2021-10-21T12:58:46.000Z</time>
      </trkpt>
      <trkpt lat="46.44688" lon="5.2284">
        <ele>220.60000610352</ele>
        <time>2021-10-21T12:58:48.000Z</time>
      </trkpt>
      <trkpt lat="46.44684" lon="5.22828">
        <ele>220.60000610352</ele>
        <time>2021-10-21T12:58:50.000Z</time>
      </trkpt>
      <trkpt lat="46.44683" lon="5.2282">
        <ele>220.60000610352</ele>
        <time>2021-10-21T12:58:51.000Z</time>
      </trkpt>
      <trkpt lat="46.44681" lon="5.22765">
        <ele>220.80000305176</ele>
        <time>2021-10-21T12:58:57.000Z</time>
      </trkpt>
      <trkpt lat="46.44678" lon="5.22678">
        <ele>221</ele>
        <time>2021-10-21T12:59:06.000Z</time>
      </trkpt>
      <trkpt lat="46.44677" lon="5.22659">
        <ele>221</ele>
        <time>2021-10-21T12:59:08.000Z</time>
      </trkpt>
      <trkpt lat="46.44675" lon="5.2264">
        <ele>221</ele>
        <time>2021-10-21T12:59:10.000Z</time>
      </trkpt>
      <trkpt lat="46.44673" lon="5.22613">
        <ele>221</ele>
        <time>2021-10-21T12:59:13.000Z</time>
      </trkpt>
      <trkpt lat="46.4467" lon="5.22595">
        <ele>221</ele>
        <time>2021-10-21T12:59:15.000Z</time>
      </trkpt>
      <trkpt lat="46.44666" lon="5.22589">
        <ele>221</ele>
        <time>2021-10-21T12:59:16.000Z</time>
      </trkpt>
      <trkpt lat="46.44661" lon="5.22584">
        <ele>221</ele>
        <time>2021-10-21T12:59:17.000Z</time>
      </trkpt>
      <trkpt lat="46.44649" lon="5.22578">
        <ele>220.80000305176</ele>
        <time>2021-10-21T12:59:19.000Z</time>
      </trkpt>
      <trkpt lat="46.44612" lon="5.22566">
        <ele>221</ele>
        <time>2021-10-21T12:59:25.000Z</time>
      </trkpt>
      <trkpt lat="46.44576" lon="5.22541">
        <ele>221</ele>
        <time>2021-10-21T12:59:31.000Z</time>
      </trkpt>
      <trkpt lat="46.44522" lon="5.22511">
        <ele>221</ele>
        <time>2021-10-21T12:59:40.000Z</time>
      </trkpt>
      <trkpt lat="46.44467" lon="5.22487">
        <ele>221.19999694824</ele>
        <time>2021-10-21T12:59:49.000Z</time>
      </trkpt>
      <trkpt lat="46.44461" lon="5.22485">
        <ele>221.39999389648</ele>
        <time>2021-10-21T12:59:50.000Z</time>
      </trkpt>
      <trkpt lat="46.44415" lon="5.22461">
        <ele>222</ele>
        <time>2021-10-21T12:59:58.000Z</time>
      </trkpt>
      <trkpt lat="46.44383" lon="5.22431">
        <ele>222.60000610352</ele>
        <time>2021-10-21T13:00:04.000Z</time>
      </trkpt>
      <trkpt lat="46.44371" lon="5.22422">
        <ele>222.60000610352</ele>
        <time>2021-10-21T13:00:06.000Z</time>
      </trkpt>
      <trkpt lat="46.44367" lon="5.2242">
        <ele>222.80000305176</ele>
        <time>2021-10-21T13:00:07.000Z</time>
      </trkpt>
      <trkpt lat="46.44349" lon="5.22415">
        <ele>222.80000305176</ele>
        <time>2021-10-21T13:00:10.000Z</time>
      </trkpt>
      <trkpt lat="46.44308" lon="5.22404">
        <ele>223</ele>
        <time>2021-10-21T13:00:17.000Z</time>
      </trkpt>
      <trkpt lat="46.44264" lon="5.22394">
        <ele>223.19999694824</ele>
        <time>2021-10-21T13:00:24.000Z</time>
      </trkpt>
      <trkpt lat="46.44212" lon="5.22384">
        <ele>223</ele>
        <time>2021-10-21T13:00:32.000Z</time>
      </trkpt>
      <trkpt lat="46.4418" lon="5.22375">
        <ele>223</ele>
        <time>2021-10-21T13:00:37.000Z</time>
      </trkpt>
      <trkpt lat="46.44167" lon="5.22378">
        <ele>222.80000305176</ele>
        <time>2021-10-21T13:00:39.000Z</time>
      </trkpt>
      <trkpt lat="46.44154" lon="5.22386">
        <ele>222.80000305176</ele>
        <time>2021-10-21T13:00:41.000Z</time>
      </trkpt>
      <trkpt lat="46.44149" lon="5.22392">
        <ele>222.80000305176</ele>
        <time>2021-10-21T13:00:42.000Z</time>
      </trkpt>
      <trkpt lat="46.44145" lon="5.224">
        <ele>222.60000610352</ele>
        <time>2021-10-21T13:00:43.000Z</time>
      </trkpt>
      <trkpt lat="46.44139" lon="5.22417">
        <ele>222.60000610352</ele>
        <time>2021-10-21T13:00:45.000Z</time>
      </trkpt>
      <trkpt lat="46.44126" lon="5.22462">
        <ele>222.39999389648</ele>
        <time>2021-10-21T13:00:50.000Z</time>
      </trkpt>
      <trkpt lat="46.44122" lon="5.2247">
        <ele>222.39999389648</ele>
        <time>2021-10-21T13:00:51.000Z</time>
      </trkpt>
      <trkpt lat="46.44117" lon="5.22478">
        <ele>222.39999389648</ele>
        <time>2021-10-21T13:00:52.000Z</time>
      </trkpt>
      <trkpt lat="46.44106" lon="5.22489">
        <ele>222.39999389648</ele>
        <time>2021-10-21T13:00:54.000Z</time>
      </trkpt>
      <trkpt lat="46.441" lon="5.22492">
        <ele>222.39999389648</ele>
        <time>2021-10-21T13:00:55.000Z</time>
      </trkpt>
      <trkpt lat="46.44094" lon="5.22495">
        <ele>222.39999389648</ele>
        <time>2021-10-21T13:00:56.000Z</time>
      </trkpt>
      <trkpt lat="46.44074" lon="5.22495">
        <ele>222.39999389648</ele>
        <time>2021-10-21T13:00:59.000Z</time>
      </trkpt>
      <trkpt lat="46.4403" lon="5.2249">
        <ele>223</ele>
        <time>2021-10-21T13:01:06.000Z</time>
      </trkpt>
      <trkpt lat="46.43972" lon="5.2249">
        <ele>223.60000610352</ele>
        <time>2021-10-21T13:01:15.000Z</time>
      </trkpt>
      <trkpt lat="46.4396" lon="5.22489">
        <ele>223.80000305176</ele>
        <time>2021-10-21T13:01:17.000Z</time>
      </trkpt>
      <trkpt lat="46.4393" lon="5.22487">
        <ele>224.19999694824</ele>
        <time>2021-10-21T13:01:22.000Z</time>
      </trkpt>
      <trkpt lat="46.43879" lon="5.22474">
        <ele>224.60000610352</ele>
        <time>2021-10-21T13:01:30.000Z</time>
      </trkpt>
      <trkpt lat="46.43839" lon="5.22445">
        <ele>224.60000610352</ele>
        <time>2021-10-21T13:01:37.000Z</time>
      </trkpt>
      <trkpt lat="46.43827" lon="5.22436">
        <ele>224.80000305176</ele>
        <time>2021-10-21T13:01:39.000Z</time>
      </trkpt>
      <trkpt lat="46.43797" lon="5.2241">
        <ele>225.19999694824</ele>
        <time>2021-10-21T13:01:45.000Z</time>
      </trkpt>
      <trkpt lat="46.43756" lon="5.22369">
        <ele>225.80000305176</ele>
        <time>2021-10-21T13:01:53.000Z</time>
      </trkpt>
      <trkpt lat="46.43746" lon="5.2236">
        <ele>226</ele>
        <time>2021-10-21T13:01:55.000Z</time>
      </trkpt>
      <trkpt lat="46.43711" lon="5.22325">
        <ele>226.39999389648</ele>
        <time>2021-10-21T13:02:02.000Z</time>
      </trkpt>
      <trkpt lat="46.43664" lon="5.22279">
        <ele>226.39999389648</ele>
        <time>2021-10-21T13:02:11.000Z</time>
      </trkpt>
      <trkpt lat="46.43618" lon="5.22234">
        <ele>225.19999694824</ele>
        <time>2021-10-21T13:02:19.000Z</time>
      </trkpt>
      <trkpt lat="46.43593" lon="5.22216">
        <ele>225</ele>
        <time>2021-10-21T13:02:23.000Z</time>
      </trkpt>
      <trkpt lat="46.43575" lon="5.22203">
        <ele>224.80000305176</ele>
        <time>2021-10-21T13:02:26.000Z</time>
      </trkpt>
      <trkpt lat="46.43549" lon="5.22191">
        <ele>224.19999694824</ele>
        <time>2021-10-21T13:02:30.000Z</time>
      </trkpt>
      <trkpt lat="46.43535" lon="5.22188">
        <ele>224</ele>
        <time>2021-10-21T13:02:32.000Z</time>
      </trkpt>
      <trkpt lat="46.43508" lon="5.22185">
        <ele>223.80000305176</ele>
        <time>2021-10-21T13:02:36.000Z</time>
      </trkpt>
      <trkpt lat="46.43473" lon="5.2218">
        <ele>223.19999694824</ele>
        <time>2021-10-21T13:02:41.000Z</time>
      </trkpt>
      <trkpt lat="46.4346" lon="5.22175">
        <ele>223.19999694824</ele>
        <time>2021-10-21T13:02:43.000Z</time>
      </trkpt>
      <trkpt lat="46.43441" lon="5.22165">
        <ele>223</ele>
        <time>2021-10-21T13:02:46.000Z</time>
      </trkpt>
      <trkpt lat="46.43408" lon="5.22135">
        <ele>223</ele>
        <time>2021-10-21T13:02:52.000Z</time>
      </trkpt>
      <trkpt lat="46.43368" lon="5.22094">
        <ele>223.39999389648</ele>
        <time>2021-10-21T13:03:00.000Z</time>
      </trkpt>
      <trkpt lat="46.43344" lon="5.22059">
        <ele>223.80000305176</ele>
        <time>2021-10-21T13:03:06.000Z</time>
      </trkpt>
      <trkpt lat="46.43324" lon="5.22022">
        <ele>224.60000610352</ele>
        <time>2021-10-21T13:03:12.000Z</time>
      </trkpt>
      <trkpt lat="46.43311" lon="5.21995">
        <ele>225</ele>
        <time>2021-10-21T13:03:17.000Z</time>
      </trkpt>
      <trkpt lat="46.43308" lon="5.2199">
        <ele>225.19999694824</ele>
        <time>2021-10-21T13:03:18.000Z</time>
      </trkpt>
      <trkpt lat="46.43291" lon="5.21957">
        <ele>225.80000305176</ele>
        <time>2021-10-21T13:03:23.000Z</time>
      </trkpt>
      <trkpt lat="46.43283" lon="5.21943">
        <ele>226.19999694824</ele>
        <time>2021-10-21T13:03:25.000Z</time>
      </trkpt>
      <trkpt lat="46.43274" lon="5.21929">
        <ele>226.60000610352</ele>
        <time>2021-10-21T13:03:27.000Z</time>
      </trkpt>
      <trkpt lat="46.43268" lon="5.21923">
        <ele>226.60000610352</ele>
        <time>2021-10-21T13:03:28.000Z</time>
      </trkpt>
      <trkpt lat="46.43257" lon="5.21911">
        <ele>226.80000305176</ele>
        <time>2021-10-21T13:03:30.000Z</time>
      </trkpt>
      <trkpt lat="46.43239" lon="5.21899">
        <ele>226.80000305176</ele>
        <time>2021-10-21T13:03:33.000Z</time>
      </trkpt>
      <trkpt lat="46.4321" lon="5.21877">
        <ele>226.80000305176</ele>
        <time>2021-10-21T13:03:38.000Z</time>
      </trkpt>
      <trkpt lat="46.432" lon="5.21865">
        <ele>226.80000305176</ele>
        <time>2021-10-21T13:03:40.000Z</time>
      </trkpt>
      <trkpt lat="46.43191" lon="5.21853">
        <ele>226.80000305176</ele>
        <time>2021-10-21T13:03:42.000Z</time>
      </trkpt>
      <trkpt lat="46.43181" lon="5.21842">
        <ele>226.60000610352</ele>
        <time>2021-10-21T13:03:44.000Z</time>
      </trkpt>
      <trkpt lat="46.43165" lon="5.21831">
        <ele>226.80000305176</ele>
        <time>2021-10-21T13:03:47.000Z</time>
      </trkpt>
      <trkpt lat="46.43155" lon="5.21826">
        <ele>226.80000305176</ele>
        <time>2021-10-21T13:03:49.000Z</time>
      </trkpt>
      <trkpt lat="46.43146" lon="5.21825">
        <ele>226.80000305176</ele>
        <time>2021-10-21T13:03:51.000Z</time>
      </trkpt>
      <trkpt lat="46.43142" lon="5.21826">
        <ele>226.80000305176</ele>
        <time>2021-10-21T13:03:52.000Z</time>
      </trkpt>
      <trkpt lat="46.43137" lon="5.21827">
        <ele>226.80000305176</ele>
        <time>2021-10-21T13:03:53.000Z</time>
      </trkpt>
      <trkpt lat="46.4313" lon="5.21834">
        <ele>226.80000305176</ele>
        <time>2021-10-21T13:03:55.000Z</time>
      </trkpt>
      <trkpt lat="46.43128" lon="5.2184">
        <ele>226.80000305176</ele>
        <time>2021-10-21T13:03:56.000Z</time>
      </trkpt>
      <trkpt lat="46.43124" lon="5.21858">
        <ele>226.19999694824</ele>
        <time>2021-10-21T13:04:01.000Z</time>
      </trkpt>
      <trkpt lat="46.43124" lon="5.21858">
        <ele>226</ele>
        <time>2021-10-21T13:04:03.000Z</time>
      </trkpt>
      <trkpt lat="46.43127" lon="5.2185">
        <ele>225.80000305176</ele>
        <time>2021-10-21T13:06:07.000Z</time>
      </trkpt>
      <trkpt lat="46.43128" lon="5.21848">
        <ele>225.80000305176</ele>
        <time>2021-10-21T13:06:08.000Z</time>
      </trkpt>
      <trkpt lat="46.4313" lon="5.21836">
        <ele>225.80000305176</ele>
        <time>2021-10-21T13:06:12.000Z</time>
      </trkpt>
      <trkpt lat="46.4313" lon="5.21832">
        <ele>225.80000305176</ele>
        <time>2021-10-21T13:06:13.000Z</time>
      </trkpt>
      <trkpt lat="46.4312" lon="5.2182">
        <ele>226</ele>
        <time>2021-10-21T13:06:17.000Z</time>
      </trkpt>
      <trkpt lat="46.43108" lon="5.21817">
        <ele>226</ele>
        <time>2021-10-21T13:06:20.000Z</time>
      </trkpt>
      <trkpt lat="46.43099" lon="5.21816">
        <ele>226.19999694824</ele>
        <time>2021-10-21T13:06:22.000Z</time>
      </trkpt>
      <trkpt lat="46.43092" lon="5.21817">
        <ele>226.19999694824</ele>
        <time>2021-10-21T13:06:23.000Z</time>
      </trkpt>
      <trkpt lat="46.43077" lon="5.2182">
        <ele>226</ele>
        <time>2021-10-21T13:06:26.000Z</time>
      </trkpt>
      <trkpt lat="46.43072" lon="5.21822">
        <ele>226.19999694824</ele>
        <time>2021-10-21T13:06:27.000Z</time>
      </trkpt>
      <trkpt lat="46.4304" lon="5.21832">
        <ele>226.60000610352</ele>
        <time>2021-10-21T13:06:33.000Z</time>
      </trkpt>
      <trkpt lat="46.43002" lon="5.21841">
        <ele>226.80000305176</ele>
        <time>2021-10-21T13:06:40.000Z</time>
      </trkpt>
      <trkpt lat="46.42991" lon="5.2184">
        <ele>226.60000610352</ele>
        <time>2021-10-21T13:06:42.000Z</time>
      </trkpt>
      <trkpt lat="46.42937" lon="5.21824">
        <ele>226.60000610352</ele>
        <time>2021-10-21T13:06:51.000Z</time>
      </trkpt>
      <trkpt lat="46.42931" lon="5.21823">
        <ele>226.60000610352</ele>
        <time>2021-10-21T13:06:52.000Z</time>
      </trkpt>
      <trkpt lat="46.42885" lon="5.21817">
        <ele>226.60000610352</ele>
        <time>2021-10-21T13:06:59.000Z</time>
      </trkpt>
      <trkpt lat="46.4284" lon="5.2182">
        <ele>226.60000610352</ele>
        <time>2021-10-21T13:07:06.000Z</time>
      </trkpt>
      <trkpt lat="46.42782" lon="5.21832">
        <ele>226.60000610352</ele>
        <time>2021-10-21T13:07:15.000Z</time>
      </trkpt>
      <trkpt lat="46.42744" lon="5.21828">
        <ele>227</ele>
        <time>2021-10-21T13:07:21.000Z</time>
      </trkpt>
      <trkpt lat="46.42707" lon="5.21824">
        <ele>227.19999694824</ele>
        <time>2021-10-21T13:07:27.000Z</time>
      </trkpt>
      <trkpt lat="46.42653" lon="5.21818">
        <ele>227.60000610352</ele>
        <time>2021-10-21T13:07:36.000Z</time>
      </trkpt>
      <trkpt lat="46.42614" lon="5.21808">
        <ele>227.39999389648</ele>
        <time>2021-10-21T13:07:42.000Z</time>
      </trkpt>
      <trkpt lat="46.42607" lon="5.21805">
        <ele>227.60000610352</ele>
        <time>2021-10-21T13:07:43.000Z</time>
      </trkpt>
      <trkpt lat="46.42551" lon="5.21788">
        <ele>227.19999694824</ele>
        <time>2021-10-21T13:07:52.000Z</time>
      </trkpt>
      <trkpt lat="46.42513" lon="5.21775">
        <ele>226.39999389648</ele>
        <time>2021-10-21T13:07:58.000Z</time>
      </trkpt>
      <trkpt lat="46.42488" lon="5.21765">
        <ele>226</ele>
        <time>2021-10-21T13:08:02.000Z</time>
      </trkpt>
      <trkpt lat="46.42463" lon="5.21757">
        <ele>225.80000305176</ele>
        <time>2021-10-21T13:08:06.000Z</time>
      </trkpt>
      <trkpt lat="46.42438" lon="5.21755">
        <ele>225.39999389648</ele>
        <time>2021-10-21T13:08:10.000Z</time>
      </trkpt>
      <trkpt lat="46.42389" lon="5.21754">
        <ele>224.80000305176</ele>
        <time>2021-10-21T13:08:18.000Z</time>
      </trkpt>
      <trkpt lat="46.42351" lon="5.21752">
        <ele>224.19999694824</ele>
        <time>2021-10-21T13:08:24.000Z</time>
      </trkpt>
      <trkpt lat="46.42338" lon="5.21749">
        <ele>224.19999694824</ele>
        <time>2021-10-21T13:08:26.000Z</time>
      </trkpt>
      <trkpt lat="46.42295" lon="5.21732">
        <ele>223.80000305176</ele>
        <time>2021-10-21T13:08:33.000Z</time>
      </trkpt>
      <trkpt lat="46.42263" lon="5.21719">
        <ele>223.39999389648</ele>
        <time>2021-10-21T13:08:38.000Z</time>
      </trkpt>
      <trkpt lat="46.4223" lon="5.21705">
        <ele>223</ele>
        <time>2021-10-21T13:08:43.000Z</time>
      </trkpt>
      <trkpt lat="46.42186" lon="5.21675">
        <ele>222.39999389648</ele>
        <time>2021-10-21T13:08:50.000Z</time>
      </trkpt>
      <trkpt lat="46.42139" lon="5.21634">
        <ele>222.19999694824</ele>
        <time>2021-10-21T13:08:58.000Z</time>
      </trkpt>
      <trkpt lat="46.42088" lon="5.216">
        <ele>221.60000610352</ele>
        <time>2021-10-21T13:09:06.000Z</time>
      </trkpt>
      <trkpt lat="46.42082" lon="5.21596">
        <ele>221.60000610352</ele>
        <time>2021-10-21T13:09:07.000Z</time>
      </trkpt>
      <trkpt lat="46.42031" lon="5.21561">
        <ele>221.60000610352</ele>
        <time>2021-10-21T13:09:16.000Z</time>
      </trkpt>
      <trkpt lat="46.41983" lon="5.21528">
        <ele>222.39999389648</ele>
        <time>2021-10-21T13:09:25.000Z</time>
      </trkpt>
      <trkpt lat="46.41965" lon="5.21517">
        <ele>222.80000305176</ele>
        <time>2021-10-21T13:09:28.000Z</time>
      </trkpt>
      <trkpt lat="46.41951" lon="5.21508">
        <ele>222.80000305176</ele>
        <time>2021-10-21T13:09:31.000Z</time>
      </trkpt>
      <trkpt lat="46.41906" lon="5.21486">
        <ele>223.39999389648</ele>
        <time>2021-10-21T13:09:39.000Z</time>
      </trkpt>
      <trkpt lat="46.41895" lon="5.21481">
        <ele>223.60000610352</ele>
        <time>2021-10-21T13:09:41.000Z</time>
      </trkpt>
      <trkpt lat="46.41878" lon="5.21474">
        <ele>223.60000610352</ele>
        <time>2021-10-21T13:09:44.000Z</time>
      </trkpt>
      <trkpt lat="46.4186" lon="5.21466">
        <ele>223.60000610352</ele>
        <time>2021-10-21T13:09:47.000Z</time>
      </trkpt>
      <trkpt lat="46.41812" lon="5.21437">
        <ele>223.80000305176</ele>
        <time>2021-10-21T13:09:55.000Z</time>
      </trkpt>
      <trkpt lat="46.41765" lon="5.21402">
        <ele>223.80000305176</ele>
        <time>2021-10-21T13:10:03.000Z</time>
      </trkpt>
      <trkpt lat="46.41719" lon="5.2136">
        <ele>223.39999389648</ele>
        <time>2021-10-21T13:10:11.000Z</time>
      </trkpt>
      <trkpt lat="46.41695" lon="5.21339">
        <ele>223.19999694824</ele>
        <time>2021-10-21T13:10:15.000Z</time>
      </trkpt>
      <trkpt lat="46.41657" lon="5.21307">
        <ele>222.39999389648</ele>
        <time>2021-10-21T13:10:21.000Z</time>
      </trkpt>
      <trkpt lat="46.41651" lon="5.21302">
        <ele>222.39999389648</ele>
        <time>2021-10-21T13:10:22.000Z</time>
      </trkpt>
      <trkpt lat="46.41614" lon="5.21267">
        <ele>221.19999694824</ele>
        <time>2021-10-21T13:10:28.000Z</time>
      </trkpt>
      <trkpt lat="46.41573" lon="5.21224">
        <ele>220.39999389648</ele>
        <time>2021-10-21T13:10:35.000Z</time>
      </trkpt>
      <trkpt lat="46.41558" lon="5.21202">
        <ele>220</ele>
        <time>2021-10-21T13:10:38.000Z</time>
      </trkpt>
      <trkpt lat="46.4155" lon="5.21185">
        <ele>219.60000610352</ele>
        <time>2021-10-21T13:10:40.000Z</time>
      </trkpt>
      <trkpt lat="46.41519" lon="5.21131">
        <ele>219</ele>
        <time>2021-10-21T13:10:47.000Z</time>
      </trkpt>
      <trkpt lat="46.41506" lon="5.21112">
        <ele>219</ele>
        <time>2021-10-21T13:10:50.000Z</time>
      </trkpt>
      <trkpt lat="46.41493" lon="5.21096">
        <ele>219.39999389648</ele>
        <time>2021-10-21T13:10:53.000Z</time>
      </trkpt>
      <trkpt lat="46.41472" lon="5.21074">
        <ele>220.39999389648</ele>
        <time>2021-10-21T13:10:58.000Z</time>
      </trkpt>
      <trkpt lat="46.41465" lon="5.21066">
        <ele>220.80000305176</ele>
        <time>2021-10-21T13:11:00.000Z</time>
      </trkpt>
      <trkpt lat="46.41453" lon="5.21051">
        <ele>221.39999389648</ele>
        <time>2021-10-21T13:11:03.000Z</time>
      </trkpt>
      <trkpt lat="46.41445" lon="5.2104">
        <ele>221.60000610352</ele>
        <time>2021-10-21T13:11:05.000Z</time>
      </trkpt>
      <trkpt lat="46.41439" lon="5.21023">
        <ele>221.80000305176</ele>
        <time>2021-10-21T13:11:07.000Z</time>
      </trkpt>
      <trkpt lat="46.41432" lon="5.20982">
        <ele>221.19999694824</ele>
        <time>2021-10-21T13:11:11.000Z</time>
      </trkpt>
      <trkpt lat="46.41426" lon="5.20937">
        <ele>220.19999694824</ele>
        <time>2021-10-21T13:11:15.000Z</time>
      </trkpt>
      <trkpt lat="46.41422" lon="5.20915">
        <ele>219.39999389648</ele>
        <time>2021-10-21T13:11:17.000Z</time>
      </trkpt>
      <trkpt lat="46.41419" lon="5.20905">
        <ele>219.19999694824</ele>
        <time>2021-10-21T13:11:18.000Z</time>
      </trkpt>
      <trkpt lat="46.41415" lon="5.20894">
        <ele>218.80000305176</ele>
        <time>2021-10-21T13:11:19.000Z</time>
      </trkpt>
      <trkpt lat="46.41407" lon="5.20874">
        <ele>218.19999694824</ele>
        <time>2021-10-21T13:11:21.000Z</time>
      </trkpt>
      <trkpt lat="46.41398" lon="5.20855">
        <ele>217.39999389648</ele>
        <time>2021-10-21T13:11:23.000Z</time>
      </trkpt>
      <trkpt lat="46.41392" lon="5.20846">
        <ele>217.19999694824</ele>
        <time>2021-10-21T13:11:24.000Z</time>
      </trkpt>
      <trkpt lat="46.4138" lon="5.20834">
        <ele>216.60000610352</ele>
        <time>2021-10-21T13:11:26.000Z</time>
      </trkpt>
      <trkpt lat="46.41366" lon="5.20833">
        <ele>216</ele>
        <time>2021-10-21T13:11:28.000Z</time>
      </trkpt>
      <trkpt lat="46.41359" lon="5.20835">
        <ele>215.80000305176</ele>
        <time>2021-10-21T13:11:29.000Z</time>
      </trkpt>
      <trkpt lat="46.41324" lon="5.20847">
        <ele>215</ele>
        <time>2021-10-21T13:11:34.000Z</time>
      </trkpt>
      <trkpt lat="46.41296" lon="5.20855">
        <ele>214.80000305176</ele>
        <time>2021-10-21T13:11:38.000Z</time>
      </trkpt>
      <trkpt lat="46.41239" lon="5.20872">
        <ele>215.19999694824</ele>
        <time>2021-10-21T13:11:47.000Z</time>
      </trkpt>
      <trkpt lat="46.41227" lon="5.20876">
        <ele>215.19999694824</ele>
        <time>2021-10-21T13:11:49.000Z</time>
      </trkpt>
      <trkpt lat="46.41172" lon="5.20892">
        <ele>215.39999389648</ele>
        <time>2021-10-21T13:11:58.000Z</time>
      </trkpt>
      <trkpt lat="46.41166" lon="5.20894">
        <ele>215.39999389648</ele>
        <time>2021-10-21T13:11:59.000Z</time>
      </trkpt>
      <trkpt lat="46.41112" lon="5.20912">
        <ele>215.60000610352</ele>
        <time>2021-10-21T13:12:08.000Z</time>
      </trkpt>
      <trkpt lat="46.411" lon="5.20916">
        <ele>215.39999389648</ele>
        <time>2021-10-21T13:12:10.000Z</time>
      </trkpt>
      <trkpt lat="46.41044" lon="5.20934">
        <ele>215</ele>
        <time>2021-10-21T13:12:19.000Z</time>
      </trkpt>
      <trkpt lat="46.4103" lon="5.2094">
        <ele>214.80000305176</ele>
        <time>2021-10-21T13:12:21.000Z</time>
      </trkpt>
      <trkpt lat="46.41" lon="5.20951">
        <ele>214.19999694824</ele>
        <time>2021-10-21T13:12:26.000Z</time>
      </trkpt>
      <trkpt lat="46.40975" lon="5.20962">
        <ele>214</ele>
        <time>2021-10-21T13:12:30.000Z</time>
      </trkpt>
      <trkpt lat="46.40921" lon="5.20987">
        <ele>214</ele>
        <time>2021-10-21T13:12:39.000Z</time>
      </trkpt>
      <trkpt lat="46.40914" lon="5.2099">
        <ele>213.80000305176</ele>
        <time>2021-10-21T13:12:40.000Z</time>
      </trkpt>
      <trkpt lat="46.40873" lon="5.21008">
        <ele>213</ele>
        <time>2021-10-21T13:12:46.000Z</time>
      </trkpt>
      <trkpt lat="46.40852" lon="5.21017">
        <ele>212.39999389648</ele>
        <time>2021-10-21T13:12:49.000Z</time>
      </trkpt>
      <trkpt lat="46.40823" lon="5.21029">
        <ele>212</ele>
        <time>2021-10-21T13:12:53.000Z</time>
      </trkpt>
      <trkpt lat="46.40817" lon="5.21032">
        <ele>211.80000305176</ele>
        <time>2021-10-21T13:12:54.000Z</time>
      </trkpt>
      <trkpt lat="46.40797" lon="5.2104">
        <ele>211.60000610352</ele>
        <time>2021-10-21T13:12:57.000Z</time>
      </trkpt>
      <trkpt lat="46.40757" lon="5.21057">
        <ele>210.60000610352</ele>
        <time>2021-10-21T13:13:03.000Z</time>
      </trkpt>
      <trkpt lat="46.4073" lon="5.21069">
        <ele>209.80000305176</ele>
        <time>2021-10-21T13:13:07.000Z</time>
      </trkpt>
      <trkpt lat="46.40724" lon="5.21073">
        <ele>209.80000305176</ele>
        <time>2021-10-21T13:13:08.000Z</time>
      </trkpt>
      <trkpt lat="46.40684" lon="5.21091">
        <ele>208.80000305176</ele>
        <time>2021-10-21T13:13:14.000Z</time>
      </trkpt>
      <trkpt lat="46.40664" lon="5.211">
        <ele>208.39999389648</ele>
        <time>2021-10-21T13:13:17.000Z</time>
      </trkpt>
      <trkpt lat="46.40638" lon="5.21112">
        <ele>207.39999389648</ele>
        <time>2021-10-21T13:13:21.000Z</time>
      </trkpt>
      <trkpt lat="46.40595" lon="5.21132">
        <ele>206.80000305176</ele>
        <time>2021-10-21T13:13:28.000Z</time>
      </trkpt>
      <trkpt lat="46.40582" lon="5.21137">
        <ele>206.80000305176</ele>
        <time>2021-10-21T13:13:30.000Z</time>
      </trkpt>
      <trkpt lat="46.40568" lon="5.21137">
        <ele>206.80000305176</ele>
        <time>2021-10-21T13:13:32.000Z</time>
      </trkpt>
      <trkpt lat="46.40562" lon="5.21135">
        <ele>207</ele>
        <time>2021-10-21T13:13:33.000Z</time>
      </trkpt>
      <trkpt lat="46.40549" lon="5.21128">
        <ele>207</ele>
        <time>2021-10-21T13:13:35.000Z</time>
      </trkpt>
      <trkpt lat="46.40531" lon="5.21114">
        <ele>206.80000305176</ele>
        <time>2021-10-21T13:13:38.000Z</time>
      </trkpt>
      <trkpt lat="46.40515" lon="5.21101">
        <ele>206.80000305176</ele>
        <time>2021-10-21T13:13:41.000Z</time>
      </trkpt>
      <trkpt lat="46.40505" lon="5.21093">
        <ele>206.80000305176</ele>
        <time>2021-10-21T13:13:43.000Z</time>
      </trkpt>
      <trkpt lat="46.40497" lon="5.21086">
        <ele>206.60000610352</ele>
        <time>2021-10-21T13:13:45.000Z</time>
      </trkpt>
      <trkpt lat="46.40492" lon="5.21079">
        <ele>206.60000610352</ele>
        <time>2021-10-21T13:13:47.000Z</time>
      </trkpt>
      <trkpt lat="46.40489" lon="5.21083">
        <ele>207</ele>
        <time>2021-10-21T13:13:49.000Z</time>
      </trkpt>
      <trkpt lat="46.40488" lon="5.21088">
        <ele>207</ele>
        <time>2021-10-21T13:13:50.000Z</time>
      </trkpt>
      <trkpt lat="46.40487" lon="5.21101">
        <ele>207.19999694824</ele>
        <time>2021-10-21T13:13:52.000Z</time>
      </trkpt>
      <trkpt lat="46.40485" lon="5.21143">
        <ele>207.39999389648</ele>
        <time>2021-10-21T13:13:57.000Z</time>
      </trkpt>
      <trkpt lat="46.4048" lon="5.2122">
        <ele>208</ele>
        <time>2021-10-21T13:14:06.000Z</time>
      </trkpt>
      <trkpt lat="46.40474" lon="5.21298">
        <ele>208.39999389648</ele>
        <time>2021-10-21T13:14:15.000Z</time>
      </trkpt>
      <trkpt lat="46.40474" lon="5.21307">
        <ele>208.39999389648</ele>
        <time>2021-10-21T13:14:16.000Z</time>
      </trkpt>
      <trkpt lat="46.40468" lon="5.21385">
        <ele>208.19999694824</ele>
        <time>2021-10-21T13:14:24.000Z</time>
      </trkpt>
      <trkpt lat="46.40467" lon="5.21396">
        <ele>208</ele>
        <time>2021-10-21T13:14:25.000Z</time>
      </trkpt>
      <trkpt lat="46.40461" lon="5.21472">
        <ele>207.60000610352</ele>
        <time>2021-10-21T13:14:32.000Z</time>
      </trkpt>
      <trkpt lat="46.40457" lon="5.21527">
        <ele>207.39999389648</ele>
        <time>2021-10-21T13:14:37.000Z</time>
      </trkpt>
      <trkpt lat="46.40455" lon="5.2156">
        <ele>207.19999694824</ele>
        <time>2021-10-21T13:14:40.000Z</time>
      </trkpt>
      <trkpt lat="46.40449" lon="5.21647">
        <ele>206.80000305176</ele>
        <time>2021-10-21T13:14:48.000Z</time>
      </trkpt>
      <trkpt lat="46.40444" lon="5.21731">
        <ele>206.60000610352</ele>
        <time>2021-10-21T13:14:56.000Z</time>
      </trkpt>
      <trkpt lat="46.40442" lon="5.21763">
        <ele>206.60000610352</ele>
        <time>2021-10-21T13:14:59.000Z</time>
      </trkpt>
      <trkpt lat="46.40438" lon="5.21805">
        <ele>206.39999389648</ele>
        <time>2021-10-21T13:15:03.000Z</time>
      </trkpt>
      <trkpt lat="46.40434" lon="5.21869">
        <ele>206.39999389648</ele>
        <time>2021-10-21T13:15:09.000Z</time>
      </trkpt>
      <trkpt lat="46.40429" lon="5.21935">
        <ele>206.80000305176</ele>
        <time>2021-10-21T13:15:16.000Z</time>
      </trkpt>
      <trkpt lat="46.40424" lon="5.22001">
        <ele>207.19999694824</ele>
        <time>2021-10-21T13:15:23.000Z</time>
      </trkpt>
      <trkpt lat="46.40423" lon="5.22011">
        <ele>207.39999389648</ele>
        <time>2021-10-21T13:15:24.000Z</time>
      </trkpt>
      <trkpt lat="46.40422" lon="5.22029">
        <ele>207.60000610352</ele>
        <time>2021-10-21T13:15:26.000Z</time>
      </trkpt>
      <trkpt lat="46.40419" lon="5.22063">
        <ele>208</ele>
        <time>2021-10-21T13:15:30.000Z</time>
      </trkpt>
      <trkpt lat="46.40415" lon="5.22115">
        <ele>208.60000610352</ele>
        <time>2021-10-21T13:15:36.000Z</time>
      </trkpt>
      <trkpt lat="46.40414" lon="5.22132">
        <ele>208.80000305176</ele>
        <time>2021-10-21T13:15:38.000Z</time>
      </trkpt>
      <trkpt lat="46.40412" lon="5.22155">
        <ele>209.19999694824</ele>
        <time>2021-10-21T13:15:41.000Z</time>
      </trkpt>
      <trkpt lat="46.40408" lon="5.22166">
        <ele>209.80000305176</ele>
        <time>2021-10-21T13:15:43.000Z</time>
      </trkpt>
      <trkpt lat="46.404" lon="5.22168">
        <ele>210</ele>
        <time>2021-10-21T13:15:45.000Z</time>
      </trkpt>
      <trkpt lat="46.4039" lon="5.22152">
        <ele>210.19999694824</ele>
        <time>2021-10-21T13:15:48.000Z</time>
      </trkpt>
      <trkpt lat="46.40373" lon="5.22123">
        <ele>210.19999694824</ele>
        <time>2021-10-21T13:15:52.000Z</time>
      </trkpt>
      <trkpt lat="46.40336" lon="5.22066">
        <ele>209.80000305176</ele>
        <time>2021-10-21T13:16:00.000Z</time>
      </trkpt>
      <trkpt lat="46.40331" lon="5.22059">
        <ele>209.60000610352</ele>
        <time>2021-10-21T13:16:01.000Z</time>
      </trkpt>
      <trkpt lat="46.40303" lon="5.22016">
        <ele>208.80000305176</ele>
        <time>2021-10-21T13:16:07.000Z</time>
      </trkpt>
      <trkpt lat="46.40293" lon="5.22001">
        <ele>208.60000610352</ele>
        <time>2021-10-21T13:16:09.000Z</time>
      </trkpt>
      <trkpt lat="46.40252" lon="5.2194">
        <ele>207.80000305176</ele>
        <time>2021-10-21T13:16:17.000Z</time>
      </trkpt>
      <trkpt lat="46.40247" lon="5.21932">
        <ele>207.60000610352</ele>
        <time>2021-10-21T13:16:18.000Z</time>
      </trkpt>
      <trkpt lat="46.40206" lon="5.21869">
        <ele>207</ele>
        <time>2021-10-21T13:16:26.000Z</time>
      </trkpt>
      <trkpt lat="46.40201" lon="5.21861">
        <ele>207</ele>
        <time>2021-10-21T13:16:27.000Z</time>
      </trkpt>
      <trkpt lat="46.40164" lon="5.21804">
        <ele>207.39999389648</ele>
        <time>2021-10-21T13:16:35.000Z</time>
      </trkpt>
      <trkpt lat="46.40155" lon="5.21791">
        <ele>207.60000610352</ele>
        <time>2021-10-21T13:16:37.000Z</time>
      </trkpt>
      <trkpt lat="46.40123" lon="5.21743">
        <ele>208</ele>
        <time>2021-10-21T13:16:45.000Z</time>
      </trkpt>
      <trkpt lat="46.40097" lon="5.21704">
        <ele>208.80000305176</ele>
        <time>2021-10-21T13:16:52.000Z</time>
      </trkpt>
      <trkpt lat="46.40093" lon="5.21699">
        <ele>209</ele>
        <time>2021-10-21T13:16:53.000Z</time>
      </trkpt>
      <trkpt lat="46.40069" lon="5.21661">
        <ele>209.80000305176</ele>
        <time>2021-10-21T13:17:00.000Z</time>
      </trkpt>
      <trkpt lat="46.40066" lon="5.21656">
        <ele>210</ele>
        <time>2021-10-21T13:17:01.000Z</time>
      </trkpt>
      <trkpt lat="46.40036" lon="5.21611">
        <ele>210.60000610352</ele>
        <time>2021-10-21T13:17:10.000Z</time>
      </trkpt>
      <trkpt lat="46.40022" lon="5.21591">
        <ele>210.80000305176</ele>
        <time>2021-10-21T13:17:14.000Z</time>
      </trkpt>
      <trkpt lat="46.39995" lon="5.21551">
        <ele>211.39999389648</ele>
        <time>2021-10-21T13:17:22.000Z</time>
      </trkpt>
      <trkpt lat="46.39958" lon="5.21494">
        <ele>211.80000305176</ele>
        <time>2021-10-21T13:17:33.000Z</time>
      </trkpt>
      <trkpt lat="46.39922" lon="5.21441">
        <ele>212</ele>
        <time>2021-10-21T13:17:43.000Z</time>
      </trkpt>
      <trkpt lat="46.39915" lon="5.21431">
        <ele>212.19999694824</ele>
        <time>2021-10-21T13:17:45.000Z</time>
      </trkpt>
      <trkpt lat="46.39895" lon="5.214">
        <ele>212.80000305176</ele>
        <time>2021-10-21T13:17:51.000Z</time>
      </trkpt>
      <trkpt lat="46.39874" lon="5.21371">
        <ele>213.19999694824</ele>
        <time>2021-10-21T13:17:57.000Z</time>
      </trkpt>
      <trkpt lat="46.39868" lon="5.21362">
        <ele>213.60000610352</ele>
        <time>2021-10-21T13:17:59.000Z</time>
      </trkpt>
      <trkpt lat="46.39846" lon="5.21329">
        <ele>214.39999389648</ele>
        <time>2021-10-21T13:18:06.000Z</time>
      </trkpt>
      <trkpt lat="46.39832" lon="5.21306">
        <ele>215.39999389648</ele>
        <time>2021-10-21T13:18:11.000Z</time>
      </trkpt>
      <trkpt lat="46.39829" lon="5.21302">
        <ele>215.39999389648</ele>
        <time>2021-10-21T13:18:12.000Z</time>
      </trkpt>
      <trkpt lat="46.3981" lon="5.21273">
        <ele>216.60000610352</ele>
        <time>2021-10-21T13:18:19.000Z</time>
      </trkpt>
      <trkpt lat="46.39808" lon="5.21269">
        <ele>217.19999694824</ele>
        <time>2021-10-21T13:18:20.000Z</time>
      </trkpt>
      <trkpt lat="46.398" lon="5.21257">
        <ele>217.80000305176</ele>
        <time>2021-10-21T13:18:23.000Z</time>
      </trkpt>
      <trkpt lat="46.39788" lon="5.21238">
        <ele>218.39999389648</ele>
        <time>2021-10-21T13:18:28.000Z</time>
      </trkpt>
      <trkpt lat="46.39785" lon="5.21235">
        <ele>218.80000305176</ele>
        <time>2021-10-21T13:18:29.000Z</time>
      </trkpt>
      <trkpt lat="46.39773" lon="5.21216">
        <ele>220</ele>
        <time>2021-10-21T13:18:34.000Z</time>
      </trkpt>
      <trkpt lat="46.39769" lon="5.21208">
        <ele>220.39999389648</ele>
        <time>2021-10-21T13:18:36.000Z</time>
      </trkpt>
      <trkpt lat="46.39759" lon="5.21194">
        <ele>221</ele>
        <time>2021-10-21T13:18:40.000Z</time>
      </trkpt>
      <trkpt lat="46.3975" lon="5.2118">
        <ele>221.80000305176</ele>
        <time>2021-10-21T13:18:44.000Z</time>
      </trkpt>
      <trkpt lat="46.39748" lon="5.21177">
        <ele>222.19999694824</ele>
        <time>2021-10-21T13:18:45.000Z</time>
      </trkpt>
      <trkpt lat="46.39736" lon="5.21159">
        <ele>223.19999694824</ele>
        <time>2021-10-21T13:18:50.000Z</time>
      </trkpt>
      <trkpt lat="46.39731" lon="5.21151">
        <ele>224</ele>
        <time>2021-10-21T13:18:52.000Z</time>
      </trkpt>
      <trkpt lat="46.3972" lon="5.21136">
        <ele>224.39999389648</ele>
        <time>2021-10-21T13:18:56.000Z</time>
      </trkpt>
      <trkpt lat="46.39707" lon="5.21117">
        <ele>225.60000610352</ele>
        <time>2021-10-21T13:19:01.000Z</time>
      </trkpt>
      <trkpt lat="46.39688" lon="5.21088">
        <ele>226.80000305176</ele>
        <time>2021-10-21T13:19:08.000Z</time>
      </trkpt>
      <trkpt lat="46.39682" lon="5.21081">
        <ele>227.19999694824</ele>
        <time>2021-10-21T13:19:10.000Z</time>
      </trkpt>
      <trkpt lat="46.3967" lon="5.21063">
        <ele>228</ele>
        <time>2021-10-21T13:19:14.000Z</time>
      </trkpt>
      <trkpt lat="46.39657" lon="5.21045">
        <ele>228.80000305176</ele>
        <time>2021-10-21T13:19:18.000Z</time>
      </trkpt>
      <trkpt lat="46.39646" lon="5.21031">
        <ele>229.19999694824</ele>
        <time>2021-10-21T13:19:21.000Z</time>
      </trkpt>
      <trkpt lat="46.39628" lon="5.21007">
        <ele>229.60000610352</ele>
        <time>2021-10-21T13:19:26.000Z</time>
      </trkpt>
      <trkpt lat="46.39591" lon="5.20962">
        <ele>229.60000610352</ele>
        <time>2021-10-21T13:19:35.000Z</time>
      </trkpt>
      <trkpt lat="46.39587" lon="5.20957">
        <ele>229.60000610352</ele>
        <time>2021-10-21T13:19:36.000Z</time>
      </trkpt>
      <trkpt lat="46.39564" lon="5.20927">
        <ele>229.80000305176</ele>
        <time>2021-10-21T13:19:41.000Z</time>
      </trkpt>
      <trkpt lat="46.39521" lon="5.20872">
        <ele>229.80000305176</ele>
        <time>2021-10-21T13:19:50.000Z</time>
      </trkpt>
      <trkpt lat="46.39517" lon="5.20866">
        <ele>229.80000305176</ele>
        <time>2021-10-21T13:19:51.000Z</time>
      </trkpt>
      <trkpt lat="46.39492" lon="5.20834">
        <ele>229.60000610352</ele>
        <time>2021-10-21T13:19:56.000Z</time>
      </trkpt>
      <trkpt lat="46.39476" lon="5.20814">
        <ele>229.39999389648</ele>
        <time>2021-10-21T13:19:59.000Z</time>
      </trkpt>
      <trkpt lat="46.39434" lon="5.2076">
        <ele>228.39999389648</ele>
        <time>2021-10-21T13:20:07.000Z</time>
      </trkpt>
      <trkpt lat="46.39423" lon="5.20746">
        <ele>228.39999389648</ele>
        <time>2021-10-21T13:20:09.000Z</time>
      </trkpt>
      <trkpt lat="46.3938" lon="5.2069">
        <ele>228.19999694824</ele>
        <time>2021-10-21T13:20:17.000Z</time>
      </trkpt>
      <trkpt lat="46.39364" lon="5.20669">
        <ele>228.19999694824</ele>
        <time>2021-10-21T13:20:20.000Z</time>
      </trkpt>
      <trkpt lat="46.39337" lon="5.20634">
        <ele>228</ele>
        <time>2021-10-21T13:20:25.000Z</time>
      </trkpt>
      <trkpt lat="46.39294" lon="5.20578">
        <ele>227.80000305176</ele>
        <time>2021-10-21T13:20:33.000Z</time>
      </trkpt>
      <trkpt lat="46.39272" lon="5.20551">
        <ele>227.80000305176</ele>
        <time>2021-10-21T13:20:37.000Z</time>
      </trkpt>
      <trkpt lat="46.39228" lon="5.20494">
        <ele>227.19999694824</ele>
        <time>2021-10-21T13:20:45.000Z</time>
      </trkpt>
      <trkpt lat="46.39222" lon="5.20486">
        <ele>227.19999694824</ele>
        <time>2021-10-21T13:20:46.000Z</time>
      </trkpt>
      <trkpt lat="46.39217" lon="5.20479">
        <ele>227</ele>
        <time>2021-10-21T13:20:47.000Z</time>
      </trkpt>
      <trkpt lat="46.39171" lon="5.2042">
        <ele>226.39999389648</ele>
        <time>2021-10-21T13:20:55.000Z</time>
      </trkpt>
      <trkpt lat="46.3916" lon="5.20405">
        <ele>226.19999694824</ele>
        <time>2021-10-21T13:20:57.000Z</time>
      </trkpt>
      <trkpt lat="46.39154" lon="5.20398">
        <ele>226</ele>
        <time>2021-10-21T13:20:58.000Z</time>
      </trkpt>
      <trkpt lat="46.39112" lon="5.20343">
        <ele>225.80000305176</ele>
        <time>2021-10-21T13:21:06.000Z</time>
      </trkpt>
      <trkpt lat="46.39077" lon="5.203">
        <ele>225.19999694824</ele>
        <time>2021-10-21T13:21:12.000Z</time>
      </trkpt>
      <trkpt lat="46.39071" lon="5.20292">
        <ele>225</ele>
        <time>2021-10-21T13:21:13.000Z</time>
      </trkpt>
      <trkpt lat="46.39054" lon="5.2027">
        <ele>223.80000305176</ele>
        <time>2021-10-21T13:21:16.000Z</time>
      </trkpt>
      <trkpt lat="46.39028" lon="5.20237">
        <ele>222.80000305176</ele>
        <time>2021-10-21T13:21:20.000Z</time>
      </trkpt>
      <trkpt lat="46.39009" lon="5.20213">
        <ele>221.60000610352</ele>
        <time>2021-10-21T13:21:23.000Z</time>
      </trkpt>
      <trkpt lat="46.38978" lon="5.20173">
        <ele>220.60000610352</ele>
        <time>2021-10-21T13:21:28.000Z</time>
      </trkpt>
      <trkpt lat="46.38947" lon="5.20133">
        <ele>219.39999389648</ele>
        <time>2021-10-21T13:21:33.000Z</time>
      </trkpt>
      <trkpt lat="46.38921" lon="5.20101">
        <ele>218.80000305176</ele>
        <time>2021-10-21T13:21:37.000Z</time>
      </trkpt>
      <trkpt lat="46.38908" lon="5.20084">
        <ele>218.19999694824</ele>
        <time>2021-10-21T13:21:39.000Z</time>
      </trkpt>
      <trkpt lat="46.38889" lon="5.20059">
        <ele>217.19999694824</ele>
        <time>2021-10-21T13:21:42.000Z</time>
      </trkpt>
      <trkpt lat="46.38858" lon="5.2002">
        <ele>216.60000610352</ele>
        <time>2021-10-21T13:21:47.000Z</time>
      </trkpt>
      <trkpt lat="46.38841" lon="5.19999">
        <ele>216.19999694824</ele>
        <time>2021-10-21T13:21:50.000Z</time>
      </trkpt>
      <trkpt lat="46.3883" lon="5.19986">
        <ele>216.19999694824</ele>
        <time>2021-10-21T13:21:52.000Z</time>
      </trkpt>
      <trkpt lat="46.38798" lon="5.19945">
        <ele>217</ele>
        <time>2021-10-21T13:21:59.000Z</time>
      </trkpt>
      <trkpt lat="46.3879" lon="5.19934">
        <ele>217.19999694824</ele>
        <time>2021-10-21T13:22:01.000Z</time>
      </trkpt>
      <trkpt lat="46.38774" lon="5.19913">
        <ele>217.80000305176</ele>
        <time>2021-10-21T13:22:05.000Z</time>
      </trkpt>
      <trkpt lat="46.38766" lon="5.19904">
        <ele>218.39999389648</ele>
        <time>2021-10-21T13:22:07.000Z</time>
      </trkpt>
      <trkpt lat="46.38747" lon="5.1988">
        <ele>219.60000610352</ele>
        <time>2021-10-21T13:22:12.000Z</time>
      </trkpt>
      <trkpt lat="46.38743" lon="5.19875">
        <ele>219.80000305176</ele>
        <time>2021-10-21T13:22:13.000Z</time>
      </trkpt>
      <trkpt lat="46.3874" lon="5.19871">
        <ele>220.19999694824</ele>
        <time>2021-10-21T13:22:14.000Z</time>
      </trkpt>
      <trkpt lat="46.38726" lon="5.19852">
        <ele>220.80000305176</ele>
        <time>2021-10-21T13:22:18.000Z</time>
      </trkpt>
      <trkpt lat="46.38715" lon="5.19838">
        <ele>221.80000305176</ele>
        <time>2021-10-21T13:22:21.000Z</time>
      </trkpt>
      <trkpt lat="46.38705" lon="5.19825">
        <ele>222.60000610352</ele>
        <time>2021-10-21T13:22:24.000Z</time>
      </trkpt>
      <trkpt lat="46.38701" lon="5.1982">
        <ele>222.80000305176</ele>
        <time>2021-10-21T13:22:25.000Z</time>
      </trkpt>
      <trkpt lat="46.38694" lon="5.19811">
        <ele>223</ele>
        <time>2021-10-21T13:22:27.000Z</time>
      </trkpt>
      <trkpt lat="46.38676" lon="5.19789">
        <ele>223.80000305176</ele>
        <time>2021-10-21T13:22:32.000Z</time>
      </trkpt>
      <trkpt lat="46.38668" lon="5.1978">
        <ele>224.19999694824</ele>
        <time>2021-10-21T13:22:34.000Z</time>
      </trkpt>
      <trkpt lat="46.38645" lon="5.1975">
        <ele>225.19999694824</ele>
        <time>2021-10-21T13:22:40.000Z</time>
      </trkpt>
      <trkpt lat="46.38637" lon="5.1974">
        <ele>225.60000610352</ele>
        <time>2021-10-21T13:22:42.000Z</time>
      </trkpt>
      <trkpt lat="46.38616" lon="5.19713">
        <ele>226.39999389648</ele>
        <time>2021-10-21T13:22:47.000Z</time>
      </trkpt>
      <trkpt lat="46.386" lon="5.19693">
        <ele>226.60000610352</ele>
        <time>2021-10-21T13:22:51.000Z</time>
      </trkpt>
      <trkpt lat="46.38561" lon="5.19646">
        <ele>226.80000305176</ele>
        <time>2021-10-21T13:23:00.000Z</time>
      </trkpt>
      <trkpt lat="46.38553" lon="5.19635">
        <ele>226.80000305176</ele>
        <time>2021-10-21T13:23:02.000Z</time>
      </trkpt>
      <trkpt lat="46.38519" lon="5.19593">
        <ele>226.80000305176</ele>
        <time>2021-10-21T13:23:10.000Z</time>
      </trkpt>
      <trkpt lat="46.38482" lon="5.19545">
        <ele>226.80000305176</ele>
        <time>2021-10-21T13:23:19.000Z</time>
      </trkpt>
      <trkpt lat="46.38441" lon="5.19494">
        <ele>227</ele>
        <time>2021-10-21T13:23:29.000Z</time>
      </trkpt>
      <trkpt lat="46.38396" lon="5.19439">
        <ele>227</ele>
        <time>2021-10-21T13:23:39.000Z</time>
      </trkpt>
      <trkpt lat="46.38387" lon="5.19428">
        <ele>227</ele>
        <time>2021-10-21T13:23:41.000Z</time>
      </trkpt>
      <trkpt lat="46.38364" lon="5.19399">
        <ele>226.80000305176</ele>
        <time>2021-10-21T13:23:46.000Z</time>
      </trkpt>
      <trkpt lat="46.38342" lon="5.19371">
        <ele>226.60000610352</ele>
        <time>2021-10-21T13:23:51.000Z</time>
      </trkpt>
      <trkpt lat="46.38298" lon="5.19315">
        <ele>226.80000305176</ele>
        <time>2021-10-21T13:24:01.000Z</time>
      </trkpt>
      <trkpt lat="46.38257" lon="5.19263">
        <ele>226.80000305176</ele>
        <time>2021-10-21T13:24:11.000Z</time>
      </trkpt>
      <trkpt lat="46.38252" lon="5.19258">
        <ele>226.80000305176</ele>
        <time>2021-10-21T13:24:12.000Z</time>
      </trkpt>
      <trkpt lat="46.38236" lon="5.19237">
        <ele>227.60000610352</ele>
        <time>2021-10-21T13:24:16.000Z</time>
      </trkpt>
      <trkpt lat="46.38216" lon="5.19212">
        <ele>228</ele>
        <time>2021-10-21T13:24:21.000Z</time>
      </trkpt>
      <trkpt lat="46.38195" lon="5.19185">
        <ele>228.60000610352</ele>
        <time>2021-10-21T13:24:26.000Z</time>
      </trkpt>
      <trkpt lat="46.38161" lon="5.19143">
        <ele>229.19999694824</ele>
        <time>2021-10-21T13:24:34.000Z</time>
      </trkpt>
      <trkpt lat="46.38118" lon="5.19089">
        <ele>228.80000305176</ele>
        <time>2021-10-21T13:24:44.000Z</time>
      </trkpt>
      <trkpt lat="46.38105" lon="5.19072">
        <ele>228.80000305176</ele>
        <time>2021-10-21T13:24:47.000Z</time>
      </trkpt>
      <trkpt lat="46.38064" lon="5.1902">
        <ele>228.60000610352</ele>
        <time>2021-10-21T13:24:56.000Z</time>
      </trkpt>
      <trkpt lat="46.38054" lon="5.19006">
        <ele>228.39999389648</ele>
        <time>2021-10-21T13:24:58.000Z</time>
      </trkpt>
      <trkpt lat="46.38029" lon="5.18975">
        <ele>227.80000305176</ele>
        <time>2021-10-21T13:25:03.000Z</time>
      </trkpt>
      <trkpt lat="46.38019" lon="5.18962">
        <ele>227.39999389648</ele>
        <time>2021-10-21T13:25:05.000Z</time>
      </trkpt>
      <trkpt lat="46.37998" lon="5.18937">
        <ele>227</ele>
        <time>2021-10-21T13:25:09.000Z</time>
      </trkpt>
      <trkpt lat="46.37972" lon="5.18904">
        <ele>226.39999389648</ele>
        <time>2021-10-21T13:25:14.000Z</time>
      </trkpt>
      <trkpt lat="46.37946" lon="5.1887">
        <ele>225.80000305176</ele>
        <time>2021-10-21T13:25:19.000Z</time>
      </trkpt>
      <trkpt lat="46.3793" lon="5.18849">
        <ele>225.39999389648</ele>
        <time>2021-10-21T13:25:22.000Z</time>
      </trkpt>
      <trkpt lat="46.37892" lon="5.18801">
        <ele>225.19999694824</ele>
        <time>2021-10-21T13:25:29.000Z</time>
      </trkpt>
      <trkpt lat="46.37848" lon="5.18745">
        <ele>224.60000610352</ele>
        <time>2021-10-21T13:25:37.000Z</time>
      </trkpt>
      <trkpt lat="46.37825" lon="5.18716">
        <ele>223.80000305176</ele>
        <time>2021-10-21T13:25:41.000Z</time>
      </trkpt>
      <trkpt lat="46.37819" lon="5.18709">
        <ele>223.39999389648</ele>
        <time>2021-10-21T13:25:42.000Z</time>
      </trkpt>
      <trkpt lat="46.37797" lon="5.18681">
        <ele>222.39999389648</ele>
        <time>2021-10-21T13:25:46.000Z</time>
      </trkpt>
      <trkpt lat="46.3776" lon="5.18634">
        <ele>221.39999389648</ele>
        <time>2021-10-21T13:25:53.000Z</time>
      </trkpt>
      <trkpt lat="46.37723" lon="5.18586">
        <ele>221.39999389648</ele>
        <time>2021-10-21T13:26:01.000Z</time>
      </trkpt>
      <trkpt lat="46.37696" lon="5.18554">
        <ele>222.19999694824</ele>
        <time>2021-10-21T13:26:08.000Z</time>
      </trkpt>
      <trkpt lat="46.37689" lon="5.18545">
        <ele>222.60000610352</ele>
        <time>2021-10-21T13:26:10.000Z</time>
      </trkpt>
      <trkpt lat="46.3767" lon="5.18522">
        <ele>223.60000610352</ele>
        <time>2021-10-21T13:26:15.000Z</time>
      </trkpt>
      <trkpt lat="46.37647" lon="5.18491">
        <ele>224.60000610352</ele>
        <time>2021-10-21T13:26:21.000Z</time>
      </trkpt>
      <trkpt lat="46.37636" lon="5.18477">
        <ele>225.19999694824</ele>
        <time>2021-10-21T13:26:24.000Z</time>
      </trkpt>
      <trkpt lat="46.37622" lon="5.18458">
        <ele>225.80000305176</ele>
        <time>2021-10-21T13:26:28.000Z</time>
      </trkpt>
      <trkpt lat="46.37596" lon="5.18425">
        <ele>226.60000610352</ele>
        <time>2021-10-21T13:26:35.000Z</time>
      </trkpt>
      <trkpt lat="46.37588" lon="5.18414">
        <ele>226.80000305176</ele>
        <time>2021-10-21T13:26:37.000Z</time>
      </trkpt>
      <trkpt lat="46.37559" lon="5.18378">
        <ele>227.19999694824</ele>
        <time>2021-10-21T13:26:44.000Z</time>
      </trkpt>
      <trkpt lat="46.37518" lon="5.18327">
        <ele>228</ele>
        <time>2021-10-21T13:26:54.000Z</time>
      </trkpt>
      <trkpt lat="46.37514" lon="5.18322">
        <ele>227.80000305176</ele>
        <time>2021-10-21T13:26:55.000Z</time>
      </trkpt>
      <trkpt lat="46.3751" lon="5.18316">
        <ele>227.80000305176</ele>
        <time>2021-10-21T13:26:56.000Z</time>
      </trkpt>
      <trkpt lat="46.37471" lon="5.18265">
        <ele>228.19999694824</ele>
        <time>2021-10-21T13:27:05.000Z</time>
      </trkpt>
      <trkpt lat="46.37432" lon="5.182">
        <ele>227.60000610352</ele>
        <time>2021-10-21T13:27:14.000Z</time>
      </trkpt>
      <trkpt lat="46.37427" lon="5.18192">
        <ele>227.60000610352</ele>
        <time>2021-10-21T13:27:15.000Z</time>
      </trkpt>
      <trkpt lat="46.374" lon="5.18145">
        <ele>226.80000305176</ele>
        <time>2021-10-21T13:27:21.000Z</time>
      </trkpt>
      <trkpt lat="46.37396" lon="5.18137">
        <ele>226.80000305176</ele>
        <time>2021-10-21T13:27:22.000Z</time>
      </trkpt>
      <trkpt lat="46.37362" lon="5.18076">
        <ele>226.60000610352</ele>
        <time>2021-10-21T13:27:30.000Z</time>
      </trkpt>
      <trkpt lat="46.37353" lon="5.18061">
        <ele>226.60000610352</ele>
        <time>2021-10-21T13:27:32.000Z</time>
      </trkpt>
      <trkpt lat="46.37315" lon="5.17995">
        <ele>226.60000610352</ele>
        <time>2021-10-21T13:27:41.000Z</time>
      </trkpt>
      <trkpt lat="46.3731" lon="5.17987">
        <ele>226.60000610352</ele>
        <time>2021-10-21T13:27:42.000Z</time>
      </trkpt>
      <trkpt lat="46.37274" lon="5.17925">
        <ele>226.39999389648</ele>
        <time>2021-10-21T13:27:50.000Z</time>
      </trkpt>
      <trkpt lat="46.37265" lon="5.17907">
        <ele>226.19999694824</ele>
        <time>2021-10-21T13:27:52.000Z</time>
      </trkpt>
      <trkpt lat="46.37251" lon="5.17879">
        <ele>225.80000305176</ele>
        <time>2021-10-21T13:27:55.000Z</time>
      </trkpt>
      <trkpt lat="46.37236" lon="5.17851">
        <ele>224.60000610352</ele>
        <time>2021-10-21T13:27:58.000Z</time>
      </trkpt>
      <trkpt lat="46.37231" lon="5.17841">
        <ele>224.39999389648</ele>
        <time>2021-10-21T13:27:59.000Z</time>
      </trkpt>
      <trkpt lat="46.37215" lon="5.17812">
        <ele>223.60000610352</ele>
        <time>2021-10-21T13:28:02.000Z</time>
      </trkpt>
      <trkpt lat="46.3719" lon="5.17764">
        <ele>222</ele>
        <time>2021-10-21T13:28:07.000Z</time>
      </trkpt>
      <trkpt lat="46.3718" lon="5.17746">
        <ele>221.60000610352</ele>
        <time>2021-10-21T13:28:09.000Z</time>
      </trkpt>
      <trkpt lat="46.37171" lon="5.17729">
        <ele>221.19999694824</ele>
        <time>2021-10-21T13:28:11.000Z</time>
      </trkpt>
      <trkpt lat="46.37157" lon="5.17706">
        <ele>221.19999694824</ele>
        <time>2021-10-21T13:28:14.000Z</time>
      </trkpt>
      <trkpt lat="46.37133" lon="5.1767">
        <ele>221.60000610352</ele>
        <time>2021-10-21T13:28:20.000Z</time>
      </trkpt>
      <trkpt lat="46.37126" lon="5.17661">
        <ele>222</ele>
        <time>2021-10-21T13:28:22.000Z</time>
      </trkpt>
      <trkpt lat="46.37114" lon="5.1765">
        <ele>222.60000610352</ele>
        <time>2021-10-21T13:28:25.000Z</time>
      </trkpt>
      <trkpt lat="46.3711" lon="5.17648">
        <ele>222.80000305176</ele>
        <time>2021-10-21T13:28:26.000Z</time>
      </trkpt>
      <trkpt lat="46.37101" lon="5.17644">
        <ele>223.19999694824</ele>
        <time>2021-10-21T13:28:28.000Z</time>
      </trkpt>
      <trkpt lat="46.37096" lon="5.17644">
        <ele>223.39999389648</ele>
        <time>2021-10-21T13:28:29.000Z</time>
      </trkpt>
      <trkpt lat="46.37091" lon="5.17644">
        <ele>223.80000305176</ele>
        <time>2021-10-21T13:28:30.000Z</time>
      </trkpt>
      <trkpt lat="46.37086" lon="5.17646">
        <ele>224</ele>
        <time>2021-10-21T13:28:31.000Z</time>
      </trkpt>
      <trkpt lat="46.37081" lon="5.17647">
        <ele>224.39999389648</ele>
        <time>2021-10-21T13:28:32.000Z</time>
      </trkpt>
      <trkpt lat="46.37071" lon="5.17649">
        <ele>224.60000610352</ele>
        <time>2021-10-21T13:28:34.000Z</time>
      </trkpt>
      <trkpt lat="46.37066" lon="5.17649">
        <ele>225</ele>
        <time>2021-10-21T13:28:35.000Z</time>
      </trkpt>
      <trkpt lat="46.37062" lon="5.1765">
        <ele>225</ele>
        <time>2021-10-21T13:28:36.000Z</time>
      </trkpt>
      <trkpt lat="46.37048" lon="5.17656">
        <ele>225.19999694824</ele>
        <time>2021-10-21T13:28:39.000Z</time>
      </trkpt>
      <trkpt lat="46.37044" lon="5.17658">
        <ele>225.39999389648</ele>
        <time>2021-10-21T13:28:40.000Z</time>
      </trkpt>
      <trkpt lat="46.37039" lon="5.17659">
        <ele>225.39999389648</ele>
        <time>2021-10-21T13:28:41.000Z</time>
      </trkpt>
      <trkpt lat="46.3703" lon="5.17658">
        <ele>225.60000610352</ele>
        <time>2021-10-21T13:28:43.000Z</time>
      </trkpt>
      <trkpt lat="46.37024" lon="5.17658">
        <ele>225.39999389648</ele>
        <time>2021-10-21T13:28:46.000Z</time>
      </trkpt>
      <trkpt lat="46.3702" lon="5.1766">
        <ele>225.39999389648</ele>
        <time>2021-10-21T13:28:48.000Z</time>
      </trkpt>
      <trkpt lat="46.37019" lon="5.17669">
        <ele>225.39999389648</ele>
        <time>2021-10-21T13:28:50.000Z</time>
      </trkpt>
      <trkpt lat="46.3702" lon="5.17692">
        <ele>225.39999389648</ele>
        <time>2021-10-21T13:28:53.000Z</time>
      </trkpt>
      <trkpt lat="46.37028" lon="5.17735">
        <ele>224.39999389648</ele>
        <time>2021-10-21T13:28:57.000Z</time>
      </trkpt>
      <trkpt lat="46.3703" lon="5.17747">
        <ele>224</ele>
        <time>2021-10-21T13:28:58.000Z</time>
      </trkpt>
      <trkpt lat="46.3704" lon="5.17782">
        <ele>223</ele>
        <time>2021-10-21T13:29:01.000Z</time>
      </trkpt>
      <trkpt lat="46.37047" lon="5.17807">
        <ele>221.80000305176</ele>
        <time>2021-10-21T13:29:03.000Z</time>
      </trkpt>
      <trkpt lat="46.37056" lon="5.17847">
        <ele>220.80000305176</ele>
        <time>2021-10-21T13:29:06.000Z</time>
      </trkpt>
      <trkpt lat="46.37063" lon="5.17874">
        <ele>219.39999389648</ele>
        <time>2021-10-21T13:29:08.000Z</time>
      </trkpt>
      <trkpt lat="46.37065" lon="5.17888">
        <ele>218.60000610352</ele>
        <time>2021-10-21T13:29:09.000Z</time>
      </trkpt>
      <trkpt lat="46.37068" lon="5.17902">
        <ele>218</ele>
        <time>2021-10-21T13:29:10.000Z</time>
      </trkpt>
      <trkpt lat="46.3708" lon="5.17955">
        <ele>216.80000305176</ele>
        <time>2021-10-21T13:29:14.000Z</time>
      </trkpt>
      <trkpt lat="46.37083" lon="5.17968">
        <ele>216.80000305176</ele>
        <time>2021-10-21T13:29:15.000Z</time>
      </trkpt>
      <trkpt lat="46.37095" lon="5.18004">
        <ele>215.60000610352</ele>
        <time>2021-10-21T13:29:18.000Z</time>
      </trkpt>
      <trkpt lat="46.37099" lon="5.18016">
        <ele>215.19999694824</ele>
        <time>2021-10-21T13:29:19.000Z</time>
      </trkpt>
      <trkpt lat="46.37104" lon="5.18026">
        <ele>215</ele>
        <time>2021-10-21T13:29:20.000Z</time>
      </trkpt>
      <trkpt lat="46.3711" lon="5.18035">
        <ele>214.80000305176</ele>
        <time>2021-10-21T13:29:21.000Z</time>
      </trkpt>
      <trkpt lat="46.37124" lon="5.18051">
        <ele>214.60000610352</ele>
        <time>2021-10-21T13:29:23.000Z</time>
      </trkpt>
      <trkpt lat="46.37131" lon="5.18057">
        <ele>214.60000610352</ele>
        <time>2021-10-21T13:29:24.000Z</time>
      </trkpt>
      <trkpt lat="46.3717" lon="5.18095">
        <ele>214.60000610352</ele>
        <time>2021-10-21T13:29:30.000Z</time>
      </trkpt>
      <trkpt lat="46.37187" lon="5.18112">
        <ele>214.80000305176</ele>
        <time>2021-10-21T13:29:33.000Z</time>
      </trkpt>
      <trkpt lat="46.37196" lon="5.18127">
        <ele>214.80000305176</ele>
        <time>2021-10-21T13:29:35.000Z</time>
      </trkpt>
      <trkpt lat="46.37205" lon="5.18167">
        <ele>215</ele>
        <time>2021-10-21T13:29:39.000Z</time>
      </trkpt>
      <trkpt lat="46.37206" lon="5.18232">
        <ele>215.19999694824</ele>
        <time>2021-10-21T13:29:45.000Z</time>
      </trkpt>
      <trkpt lat="46.37216" lon="5.18304">
        <ele>215.39999389648</ele>
        <time>2021-10-21T13:29:52.000Z</time>
      </trkpt>
      <trkpt lat="46.37219" lon="5.18323">
        <ele>215.60000610352</ele>
        <time>2021-10-21T13:29:54.000Z</time>
      </trkpt>
      <trkpt lat="46.3722" lon="5.18349">
        <ele>215.80000305176</ele>
        <time>2021-10-21T13:29:57.000Z</time>
      </trkpt>
      <trkpt lat="46.37221" lon="5.18399">
        <ele>216.60000610352</ele>
        <time>2021-10-21T13:30:03.000Z</time>
      </trkpt>
      <trkpt lat="46.37222" lon="5.18407">
        <ele>216.80000305176</ele>
        <time>2021-10-21T13:30:04.000Z</time>
      </trkpt>
      <trkpt lat="46.37223" lon="5.18444">
        <ele>218.19999694824</ele>
        <time>2021-10-21T13:30:09.000Z</time>
      </trkpt>
      <trkpt lat="46.37222" lon="5.18458">
        <ele>218.80000305176</ele>
        <time>2021-10-21T13:30:11.000Z</time>
      </trkpt>
      <trkpt lat="46.37222" lon="5.18465">
        <ele>219.19999694824</ele>
        <time>2021-10-21T13:30:12.000Z</time>
      </trkpt>
      <trkpt lat="46.37221" lon="5.18471">
        <ele>219.60000610352</ele>
        <time>2021-10-21T13:30:13.000Z</time>
      </trkpt>
      <trkpt lat="46.37219" lon="5.18484">
        <ele>220.39999389648</ele>
        <time>2021-10-21T13:30:15.000Z</time>
      </trkpt>
      <trkpt lat="46.37216" lon="5.1849">
        <ele>221</ele>
        <time>2021-10-21T13:30:16.000Z</time>
      </trkpt>
      <trkpt lat="46.37211" lon="5.18502">
        <ele>221.39999389648</ele>
        <time>2021-10-21T13:30:18.000Z</time>
      </trkpt>
      <trkpt lat="46.37196" lon="5.18532">
        <ele>222.39999389648</ele>
        <time>2021-10-21T13:30:23.000Z</time>
      </trkpt>
      <trkpt lat="46.37194" lon="5.18539">
        <ele>222.39999389648</ele>
        <time>2021-10-21T13:30:24.000Z</time>
      </trkpt>
      <trkpt lat="46.37189" lon="5.18561">
        <ele>222.80000305176</ele>
        <time>2021-10-21T13:30:27.000Z</time>
      </trkpt>
      <trkpt lat="46.37189" lon="5.18568">
        <ele>223</ele>
        <time>2021-10-21T13:30:28.000Z</time>
      </trkpt>
      <trkpt lat="46.37191" lon="5.18618">
        <ele>223.39999389648</ele>
        <time>2021-10-21T13:30:34.000Z</time>
      </trkpt>
      <trkpt lat="46.37193" lon="5.18645">
        <ele>223.39999389648</ele>
        <time>2021-10-21T13:30:37.000Z</time>
      </trkpt>
      <trkpt lat="46.37198" lon="5.18693">
        <ele>223.39999389648</ele>
        <time>2021-10-21T13:30:42.000Z</time>
      </trkpt>
      <trkpt lat="46.37211" lon="5.18757">
        <ele>223.39999389648</ele>
        <time>2021-10-21T13:30:49.000Z</time>
      </trkpt>
      <trkpt lat="46.37214" lon="5.18796">
        <ele>223.19999694824</ele>
        <time>2021-10-21T13:30:53.000Z</time>
      </trkpt>
      <trkpt lat="46.37214" lon="5.18806">
        <ele>223.19999694824</ele>
        <time>2021-10-21T13:30:54.000Z</time>
      </trkpt>
      <trkpt lat="46.37206" lon="5.18841">
        <ele>223.60000610352</ele>
        <time>2021-10-21T13:30:58.000Z</time>
      </trkpt>
      <trkpt lat="46.37202" lon="5.18858">
        <ele>224</ele>
        <time>2021-10-21T13:31:00.000Z</time>
      </trkpt>
      <trkpt lat="46.37192" lon="5.18918">
        <ele>224.80000305176</ele>
        <time>2021-10-21T13:31:07.000Z</time>
      </trkpt>
      <trkpt lat="46.37183" lon="5.18977">
        <ele>225.19999694824</ele>
        <time>2021-10-21T13:31:14.000Z</time>
      </trkpt>
      <trkpt lat="46.37173" lon="5.19041">
        <ele>226</ele>
        <time>2021-10-21T13:31:22.000Z</time>
      </trkpt>
      <trkpt lat="46.37172" lon="5.19048">
        <ele>226.19999694824</ele>
        <time>2021-10-21T13:31:23.000Z</time>
      </trkpt>
      <trkpt lat="46.37167" lon="5.19069">
        <ele>227.19999694824</ele>
        <time>2021-10-21T13:31:26.000Z</time>
      </trkpt>
      <trkpt lat="46.37162" lon="5.19091">
        <ele>228.39999389648</ele>
        <time>2021-10-21T13:31:29.000Z</time>
      </trkpt>
      <trkpt lat="46.37151" lon="5.19142">
        <ele>229.19999694824</ele>
        <time>2021-10-21T13:31:35.000Z</time>
      </trkpt>
      <trkpt lat="46.37135" lon="5.19217">
        <ele>229.19999694824</ele>
        <time>2021-10-21T13:31:43.000Z</time>
      </trkpt>
      <trkpt lat="46.37116" lon="5.19299">
        <ele>227.80000305176</ele>
        <time>2021-10-21T13:31:51.000Z</time>
      </trkpt>
      <trkpt lat="46.37106" lon="5.1935">
        <ele>227.19999694824</ele>
        <time>2021-10-21T13:31:56.000Z</time>
      </trkpt>
      <trkpt lat="46.37101" lon="5.1938">
        <ele>227.19999694824</ele>
        <time>2021-10-21T13:31:59.000Z</time>
      </trkpt>
      <trkpt lat="46.37099" lon="5.19441">
        <ele>227</ele>
        <time>2021-10-21T13:32:05.000Z</time>
      </trkpt>
      <trkpt lat="46.37105" lon="5.19509">
        <ele>226.60000610352</ele>
        <time>2021-10-21T13:32:11.000Z</time>
      </trkpt>
      <trkpt lat="46.37106" lon="5.19545">
        <ele>226</ele>
        <time>2021-10-21T13:32:14.000Z</time>
      </trkpt>
      <trkpt lat="46.37104" lon="5.19568">
        <ele>225.60000610352</ele>
        <time>2021-10-21T13:32:16.000Z</time>
      </trkpt>
      <trkpt lat="46.371" lon="5.19591">
        <ele>225</ele>
        <time>2021-10-21T13:32:18.000Z</time>
      </trkpt>
      <trkpt lat="46.37091" lon="5.19635">
        <ele>224.39999389648</ele>
        <time>2021-10-21T13:32:22.000Z</time>
      </trkpt>
      <trkpt lat="46.37085" lon="5.1967">
        <ele>224.19999694824</ele>
        <time>2021-10-21T13:32:25.000Z</time>
      </trkpt>
      <trkpt lat="46.37078" lon="5.19719">
        <ele>223.80000305176</ele>
        <time>2021-10-21T13:32:29.000Z</time>
      </trkpt>
      <trkpt lat="46.37074" lon="5.19757">
        <ele>223</ele>
        <time>2021-10-21T13:32:32.000Z</time>
      </trkpt>
      <trkpt lat="46.37067" lon="5.19798">
        <ele>222.60000610352</ele>
        <time>2021-10-21T13:32:35.000Z</time>
      </trkpt>
      <trkpt lat="46.37064" lon="5.19811">
        <ele>222</ele>
        <time>2021-10-21T13:32:36.000Z</time>
      </trkpt>
      <trkpt lat="46.37052" lon="5.19835">
        <ele>221.19999694824</ele>
        <time>2021-10-21T13:32:38.000Z</time>
      </trkpt>
      <trkpt lat="46.37045" lon="5.19845">
        <ele>221</ele>
        <time>2021-10-21T13:32:39.000Z</time>
      </trkpt>
      <trkpt lat="46.37031" lon="5.19862">
        <ele>219.80000305176</ele>
        <time>2021-10-21T13:32:41.000Z</time>
      </trkpt>
      <trkpt lat="46.37024" lon="5.19871">
        <ele>219</ele>
        <time>2021-10-21T13:32:42.000Z</time>
      </trkpt>
      <trkpt lat="46.37018" lon="5.19881">
        <ele>218.80000305176</ele>
        <time>2021-10-21T13:32:43.000Z</time>
      </trkpt>
      <trkpt lat="46.37012" lon="5.19891">
        <ele>218.39999389648</ele>
        <time>2021-10-21T13:32:44.000Z</time>
      </trkpt>
      <trkpt lat="46.37003" lon="5.19914">
        <ele>218</ele>
        <time>2021-10-21T13:32:46.000Z</time>
      </trkpt>
      <trkpt lat="46.36995" lon="5.19964">
        <ele>217.80000305176</ele>
        <time>2021-10-21T13:32:50.000Z</time>
      </trkpt>
      <trkpt lat="46.36993" lon="5.19976">
        <ele>217.60000610352</ele>
        <time>2021-10-21T13:32:51.000Z</time>
      </trkpt>
      <trkpt lat="46.36983" lon="5.20023">
        <ele>217.19999694824</ele>
        <time>2021-10-21T13:32:55.000Z</time>
      </trkpt>
      <trkpt lat="46.36965" lon="5.20098">
        <ele>217</ele>
        <time>2021-10-21T13:33:02.000Z</time>
      </trkpt>
      <trkpt lat="46.36955" lon="5.20141">
        <ele>217.19999694824</ele>
        <time>2021-10-21T13:33:07.000Z</time>
      </trkpt>
      <trkpt lat="46.36954" lon="5.20149">
        <ele>217.39999389648</ele>
        <time>2021-10-21T13:33:08.000Z</time>
      </trkpt>
      <trkpt lat="46.36953" lon="5.20176">
        <ele>218</ele>
        <time>2021-10-21T13:33:11.000Z</time>
      </trkpt>
      <trkpt lat="46.36953" lon="5.20201">
        <ele>218.60000610352</ele>
        <time>2021-10-21T13:33:14.000Z</time>
      </trkpt>
      <trkpt lat="46.36952" lon="5.20231">
        <ele>219.60000610352</ele>
        <time>2021-10-21T13:33:18.000Z</time>
      </trkpt>
      <trkpt lat="46.36952" lon="5.20238">
        <ele>220</ele>
        <time>2021-10-21T13:33:19.000Z</time>
      </trkpt>
      <trkpt lat="46.36952" lon="5.20266">
        <ele>221.19999694824</ele>
        <time>2021-10-21T13:33:23.000Z</time>
      </trkpt>
      <trkpt lat="46.36952" lon="5.20274">
        <ele>221.39999389648</ele>
        <time>2021-10-21T13:33:24.000Z</time>
      </trkpt>
      <trkpt lat="46.36952" lon="5.20279">
        <ele>221.60000610352</ele>
        <time>2021-10-21T13:33:25.000Z</time>
      </trkpt>
      <trkpt lat="46.36951" lon="5.20301">
        <ele>222.60000610352</ele>
        <time>2021-10-21T13:33:28.000Z</time>
      </trkpt>
      <trkpt lat="46.3695" lon="5.20314">
        <ele>223.19999694824</ele>
        <time>2021-10-21T13:33:30.000Z</time>
      </trkpt>
      <trkpt lat="46.36949" lon="5.2032">
        <ele>223.39999389648</ele>
        <time>2021-10-21T13:33:31.000Z</time>
      </trkpt>
      <trkpt lat="46.36949" lon="5.20327">
        <ele>223.80000305176</ele>
        <time>2021-10-21T13:33:32.000Z</time>
      </trkpt>
      <trkpt lat="46.36948" lon="5.2034">
        <ele>224.39999389648</ele>
        <time>2021-10-21T13:33:34.000Z</time>
      </trkpt>
      <trkpt lat="46.36947" lon="5.20348">
        <ele>224.80000305176</ele>
        <time>2021-10-21T13:33:35.000Z</time>
      </trkpt>
      <trkpt lat="46.36945" lon="5.20385">
        <ele>225.60000610352</ele>
        <time>2021-10-21T13:33:40.000Z</time>
      </trkpt>
      <trkpt lat="46.36945" lon="5.20392">
        <ele>225.80000305176</ele>
        <time>2021-10-21T13:33:41.000Z</time>
      </trkpt>
      <trkpt lat="46.36945" lon="5.204">
        <ele>226</ele>
        <time>2021-10-21T13:33:42.000Z</time>
      </trkpt>
      <trkpt lat="46.36946" lon="5.20429">
        <ele>226.80000305176</ele>
        <time>2021-10-21T13:33:46.000Z</time>
      </trkpt>
      <trkpt lat="46.36947" lon="5.20443">
        <ele>227</ele>
        <time>2021-10-21T13:33:47.000Z</time>
      </trkpt>
      <trkpt lat="46.36945" lon="5.20458">
        <ele>227.19999694824</ele>
        <time>2021-10-21T13:33:49.000Z</time>
      </trkpt>
      <trkpt lat="46.36937" lon="5.205">
        <ele>228</ele>
        <time>2021-10-21T13:33:55.000Z</time>
      </trkpt>
      <trkpt lat="46.36933" lon="5.20514">
        <ele>228.19999694824</ele>
        <time>2021-10-21T13:33:57.000Z</time>
      </trkpt>
      <trkpt lat="46.36929" lon="5.20528">
        <ele>228.19999694824</ele>
        <time>2021-10-21T13:33:59.000Z</time>
      </trkpt>
      <trkpt lat="46.36918" lon="5.20552">
        <ele>228.39999389648</ele>
        <time>2021-10-21T13:34:03.000Z</time>
      </trkpt>
      <trkpt lat="46.36906" lon="5.20585">
        <ele>228.60000610352</ele>
        <time>2021-10-21T13:34:08.000Z</time>
      </trkpt>
      <trkpt lat="46.36901" lon="5.20598">
        <ele>228.80000305176</ele>
        <time>2021-10-21T13:34:10.000Z</time>
      </trkpt>
      <trkpt lat="46.369" lon="5.20605">
        <ele>229</ele>
        <time>2021-10-21T13:34:11.000Z</time>
      </trkpt>
      <trkpt lat="46.36894" lon="5.2062">
        <ele>228.80000305176</ele>
        <time>2021-10-21T13:34:13.000Z</time>
      </trkpt>
      <trkpt lat="46.36885" lon="5.20646">
        <ele>228.60000610352</ele>
        <time>2021-10-21T13:34:16.000Z</time>
      </trkpt>
      <trkpt lat="46.36875" lon="5.20666">
        <ele>228.39999389648</ele>
        <time>2021-10-21T13:34:18.000Z</time>
      </trkpt>
      <trkpt lat="46.36844" lon="5.2071">
        <ele>228.19999694824</ele>
        <time>2021-10-21T13:34:23.000Z</time>
      </trkpt>
      <trkpt lat="46.36824" lon="5.20732">
        <ele>227.80000305176</ele>
        <time>2021-10-21T13:34:27.000Z</time>
      </trkpt>
      <trkpt lat="46.36814" lon="5.20747">
        <ele>227.80000305176</ele>
        <time>2021-10-21T13:34:29.000Z</time>
      </trkpt>
      <trkpt lat="46.3681" lon="5.20755">
        <ele>227.80000305176</ele>
        <time>2021-10-21T13:34:30.000Z</time>
      </trkpt>
      <trkpt lat="46.36801" lon="5.20779">
        <ele>227.60000610352</ele>
        <time>2021-10-21T13:34:33.000Z</time>
      </trkpt>
      <trkpt lat="46.36798" lon="5.20796">
        <ele>227.80000305176</ele>
        <time>2021-10-21T13:34:35.000Z</time>
      </trkpt>
      <trkpt lat="46.36796" lon="5.20837">
        <ele>227.80000305176</ele>
        <time>2021-10-21T13:34:39.000Z</time>
      </trkpt>
      <trkpt lat="46.36796" lon="5.2086">
        <ele>227.60000610352</ele>
        <time>2021-10-21T13:34:41.000Z</time>
      </trkpt>
      <trkpt lat="46.36797" lon="5.20934">
        <ele>226.80000305176</ele>
        <time>2021-10-21T13:34:47.000Z</time>
      </trkpt>
      <trkpt lat="46.36797" lon="5.20978">
        <ele>225.19999694824</ele>
        <time>2021-10-21T13:34:50.000Z</time>
      </trkpt>
      <trkpt lat="46.36798" lon="5.21016">
        <ele>224.19999694824</ele>
        <time>2021-10-21T13:34:53.000Z</time>
      </trkpt>
      <trkpt lat="46.36798" lon="5.21045">
        <ele>223.39999389648</ele>
        <time>2021-10-21T13:34:55.000Z</time>
      </trkpt>
      <trkpt lat="46.36799" lon="5.21067">
        <ele>223.19999694824</ele>
        <time>2021-10-21T13:34:57.000Z</time>
      </trkpt>
      <trkpt lat="46.368" lon="5.21127">
        <ele>222.39999389648</ele>
        <time>2021-10-21T13:35:02.000Z</time>
      </trkpt>
      <trkpt lat="46.368" lon="5.212">
        <ele>222.19999694824</ele>
        <time>2021-10-21T13:35:09.000Z</time>
      </trkpt>
      <trkpt lat="46.36798" lon="5.21263">
        <ele>224.19999694824</ele>
        <time>2021-10-21T13:35:16.000Z</time>
      </trkpt>
      <trkpt lat="46.36797" lon="5.21296">
        <ele>225.19999694824</ele>
        <time>2021-10-21T13:35:20.000Z</time>
      </trkpt>
      <trkpt lat="46.36796" lon="5.2131">
        <ele>225.60000610352</ele>
        <time>2021-10-21T13:35:22.000Z</time>
      </trkpt>
      <trkpt lat="46.36795" lon="5.21326">
        <ele>226.19999694824</ele>
        <time>2021-10-21T13:35:24.000Z</time>
      </trkpt>
      <trkpt lat="46.36794" lon="5.21336">
        <ele>226.60000610352</ele>
        <time>2021-10-21T13:35:25.000Z</time>
      </trkpt>
      <trkpt lat="46.36791" lon="5.21351">
        <ele>227</ele>
        <time>2021-10-21T13:35:27.000Z</time>
      </trkpt>
      <trkpt lat="46.36788" lon="5.21357">
        <ele>227.39999389648</ele>
        <time>2021-10-21T13:35:28.000Z</time>
      </trkpt>
      <trkpt lat="46.36781" lon="5.21371">
        <ele>227.80000305176</ele>
        <time>2021-10-21T13:35:30.000Z</time>
      </trkpt>
      <trkpt lat="46.36767" lon="5.21394">
        <ele>228.39999389648</ele>
        <time>2021-10-21T13:35:34.000Z</time>
      </trkpt>
      <trkpt lat="46.3676" lon="5.21409">
        <ele>228.60000610352</ele>
        <time>2021-10-21T13:35:36.000Z</time>
      </trkpt>
      <trkpt lat="46.36754" lon="5.21428">
        <ele>229.19999694824</ele>
        <time>2021-10-21T13:35:39.000Z</time>
      </trkpt>
      <trkpt lat="46.3675" lon="5.21444">
        <ele>229.39999389648</ele>
        <time>2021-10-21T13:35:41.000Z</time>
      </trkpt>
      <trkpt lat="46.36739" lon="5.21483">
        <ele>230</ele>
        <time>2021-10-21T13:35:46.000Z</time>
      </trkpt>
      <trkpt lat="46.36737" lon="5.21491">
        <ele>230.19999694824</ele>
        <time>2021-10-21T13:35:47.000Z</time>
      </trkpt>
      <trkpt lat="46.36735" lon="5.21498">
        <ele>230.19999694824</ele>
        <time>2021-10-21T13:35:48.000Z</time>
      </trkpt>
      <trkpt lat="46.36731" lon="5.21515">
        <ele>230.60000610352</ele>
        <time>2021-10-21T13:35:50.000Z</time>
      </trkpt>
      <trkpt lat="46.36725" lon="5.21534">
        <ele>231</ele>
        <time>2021-10-21T13:35:52.000Z</time>
      </trkpt>
      <trkpt lat="46.36707" lon="5.21591">
        <ele>231.19999694824</ele>
        <time>2021-10-21T13:35:59.000Z</time>
      </trkpt>
      <trkpt lat="46.36687" lon="5.21626">
        <ele>231.19999694824</ele>
        <time>2021-10-21T13:36:04.000Z</time>
      </trkpt>
      <trkpt lat="46.36652" lon="5.21663">
        <ele>231.19999694824</ele>
        <time>2021-10-21T13:36:11.000Z</time>
      </trkpt>
      <trkpt lat="46.36642" lon="5.21684">
        <ele>231.39999389648</ele>
        <time>2021-10-21T13:36:14.000Z</time>
      </trkpt>
      <trkpt lat="46.36637" lon="5.217">
        <ele>231.19999694824</ele>
        <time>2021-10-21T13:36:16.000Z</time>
      </trkpt>
      <trkpt lat="46.36624" lon="5.21751">
        <ele>231</ele>
        <time>2021-10-21T13:36:22.000Z</time>
      </trkpt>
      <trkpt lat="46.36613" lon="5.21824">
        <ele>230.39999389648</ele>
        <time>2021-10-21T13:36:30.000Z</time>
      </trkpt>
      <trkpt lat="46.36609" lon="5.21863">
        <ele>230</ele>
        <time>2021-10-21T13:36:34.000Z</time>
      </trkpt>
      <trkpt lat="46.36605" lon="5.21882">
        <ele>230</ele>
        <time>2021-10-21T13:36:36.000Z</time>
      </trkpt>
      <trkpt lat="46.36601" lon="5.2191">
        <ele>229.60000610352</ele>
        <time>2021-10-21T13:36:39.000Z</time>
      </trkpt>
      <trkpt lat="46.36593" lon="5.21964">
        <ele>229.19999694824</ele>
        <time>2021-10-21T13:36:45.000Z</time>
      </trkpt>
      <trkpt lat="46.36591" lon="5.21978">
        <ele>229</ele>
        <time>2021-10-21T13:36:47.000Z</time>
      </trkpt>
      <trkpt lat="46.3659" lon="5.2199">
        <ele>228.60000610352</ele>
        <time>2021-10-21T13:36:49.000Z</time>
      </trkpt>
      <trkpt lat="46.36589" lon="5.21993">
        <ele>228.39999389648</ele>
        <time>2021-10-21T13:36:50.000Z</time>
      </trkpt>
      <trkpt lat="46.36588" lon="5.21998">
        <ele>227.60000610352</ele>
        <time>2021-10-21T13:36:53.000Z</time>
      </trkpt>
      <trkpt lat="46.36588" lon="5.21998">
        <ele>227.60000610352</ele>
        <time>2021-10-21T13:36:54.000Z</time>
      </trkpt>
      <trkpt lat="46.36586" lon="5.22002">
        <ele>226.39999389648</ele>
        <time>2021-10-21T13:37:48.000Z</time>
      </trkpt>
      <trkpt lat="46.36581" lon="5.22013">
        <ele>226.39999389648</ele>
        <time>2021-10-21T13:37:50.000Z</time>
      </trkpt>
      <trkpt lat="46.36579" lon="5.22019">
        <ele>226.39999389648</ele>
        <time>2021-10-21T13:37:51.000Z</time>
      </trkpt>
      <trkpt lat="46.36571" lon="5.22047">
        <ele>226.39999389648</ele>
        <time>2021-10-21T13:37:54.000Z</time>
      </trkpt>
      <trkpt lat="46.36554" lon="5.22112">
        <ele>225</ele>
        <time>2021-10-21T13:38:00.000Z</time>
      </trkpt>
      <trkpt lat="46.36549" lon="5.22123">
        <ele>224.80000305176</ele>
        <time>2021-10-21T13:38:01.000Z</time>
      </trkpt>
      <trkpt lat="46.36539" lon="5.22142">
        <ele>224.39999389648</ele>
        <time>2021-10-21T13:38:03.000Z</time>
      </trkpt>
      <trkpt lat="46.36532" lon="5.22151">
        <ele>223.80000305176</ele>
        <time>2021-10-21T13:38:04.000Z</time>
      </trkpt>
      <trkpt lat="46.3649" lon="5.2219">
        <ele>222.19999694824</ele>
        <time>2021-10-21T13:38:09.000Z</time>
      </trkpt>
      <trkpt lat="46.36474" lon="5.22204">
        <ele>221</ele>
        <time>2021-10-21T13:38:11.000Z</time>
      </trkpt>
      <trkpt lat="46.3646" lon="5.22217">
        <ele>219.60000610352</ele>
        <time>2021-10-21T13:38:13.000Z</time>
      </trkpt>
      <trkpt lat="46.36439" lon="5.22237">
        <ele>218.60000610352</ele>
        <time>2021-10-21T13:38:16.000Z</time>
      </trkpt>
      <trkpt lat="46.3642" lon="5.22257">
        <ele>217.39999389648</ele>
        <time>2021-10-21T13:38:19.000Z</time>
      </trkpt>
      <trkpt lat="46.36391" lon="5.22285">
        <ele>216.39999389648</ele>
        <time>2021-10-21T13:38:23.000Z</time>
      </trkpt>
      <trkpt lat="46.36374" lon="5.22298">
        <ele>216.19999694824</ele>
        <time>2021-10-21T13:38:25.000Z</time>
      </trkpt>
      <trkpt lat="46.36366" lon="5.22303">
        <ele>216</ele>
        <time>2021-10-21T13:38:26.000Z</time>
      </trkpt>
      <trkpt lat="46.36352" lon="5.22308">
        <ele>215.39999389648</ele>
        <time>2021-10-21T13:38:28.000Z</time>
      </trkpt>
      <trkpt lat="46.36344" lon="5.22309">
        <ele>215.19999694824</ele>
        <time>2021-10-21T13:38:29.000Z</time>
      </trkpt>
      <trkpt lat="46.36313" lon="5.22311">
        <ele>214.80000305176</ele>
        <time>2021-10-21T13:38:33.000Z</time>
      </trkpt>
      <trkpt lat="46.36299" lon="5.22318">
        <ele>214.80000305176</ele>
        <time>2021-10-21T13:38:35.000Z</time>
      </trkpt>
      <trkpt lat="46.36293" lon="5.22323">
        <ele>214.80000305176</ele>
        <time>2021-10-21T13:38:36.000Z</time>
      </trkpt>
      <trkpt lat="46.36289" lon="5.2233">
        <ele>215</ele>
        <time>2021-10-21T13:38:37.000Z</time>
      </trkpt>
      <trkpt lat="46.36282" lon="5.22344">
        <ele>215.19999694824</ele>
        <time>2021-10-21T13:38:39.000Z</time>
      </trkpt>
      <trkpt lat="46.36279" lon="5.22352">
        <ele>215.19999694824</ele>
        <time>2021-10-21T13:38:40.000Z</time>
      </trkpt>
      <trkpt lat="46.36276" lon="5.22363">
        <ele>215.39999389648</ele>
        <time>2021-10-21T13:38:41.000Z</time>
      </trkpt>
      <trkpt lat="46.36273" lon="5.2239">
        <ele>215.60000610352</ele>
        <time>2021-10-21T13:38:44.000Z</time>
      </trkpt>
      <trkpt lat="46.36267" lon="5.22441">
        <ele>216.39999389648</ele>
        <time>2021-10-21T13:38:50.000Z</time>
      </trkpt>
      <trkpt lat="46.36262" lon="5.22473">
        <ele>216.80000305176</ele>
        <time>2021-10-21T13:38:54.000Z</time>
      </trkpt>
      <trkpt lat="46.3626" lon="5.22479">
        <ele>217.39999389648</ele>
        <time>2021-10-21T13:38:55.000Z</time>
      </trkpt>
      <trkpt lat="46.36257" lon="5.22487">
        <ele>217.60000610352</ele>
        <time>2021-10-21T13:38:56.000Z</time>
      </trkpt>
      <trkpt lat="46.36247" lon="5.22507">
        <ele>218.60000610352</ele>
        <time>2021-10-21T13:38:59.000Z</time>
      </trkpt>
      <trkpt lat="46.3622" lon="5.22542">
        <ele>218.80000305176</ele>
        <time>2021-10-21T13:39:04.000Z</time>
      </trkpt>
      <trkpt lat="46.36179" lon="5.22594">
        <ele>217.19999694824</ele>
        <time>2021-10-21T13:39:10.000Z</time>
      </trkpt>
      <trkpt lat="46.36173" lon="5.22605">
        <ele>216</ele>
        <time>2021-10-21T13:39:11.000Z</time>
      </trkpt>
      <trkpt lat="46.36168" lon="5.22618">
        <ele>215.39999389648</ele>
        <time>2021-10-21T13:39:12.000Z</time>
      </trkpt>
      <trkpt lat="46.36165" lon="5.22631">
        <ele>214.60000610352</ele>
        <time>2021-10-21T13:39:13.000Z</time>
      </trkpt>
      <trkpt lat="46.36155" lon="5.22666">
        <ele>213.60000610352</ele>
        <time>2021-10-21T13:39:16.000Z</time>
      </trkpt>
      <trkpt lat="46.3615" lon="5.2268">
        <ele>213.19999694824</ele>
        <time>2021-10-21T13:39:17.000Z</time>
      </trkpt>
      <trkpt lat="46.36144" lon="5.22691">
        <ele>213</ele>
        <time>2021-10-21T13:39:18.000Z</time>
      </trkpt>
      <trkpt lat="46.36133" lon="5.22707">
        <ele>212.39999389648</ele>
        <time>2021-10-21T13:39:20.000Z</time>
      </trkpt>
      <trkpt lat="46.36115" lon="5.22737">
        <ele>212</ele>
        <time>2021-10-21T13:39:23.000Z</time>
      </trkpt>
      <trkpt lat="46.36093" lon="5.22785">
        <ele>211.80000305176</ele>
        <time>2021-10-21T13:39:28.000Z</time>
      </trkpt>
      <trkpt lat="46.36074" lon="5.22831">
        <ele>211.80000305176</ele>
        <time>2021-10-21T13:39:33.000Z</time>
      </trkpt>
      <trkpt lat="46.36061" lon="5.22851">
        <ele>211.80000305176</ele>
        <time>2021-10-21T13:39:36.000Z</time>
      </trkpt>
      <trkpt lat="46.36053" lon="5.2286">
        <ele>212</ele>
        <time>2021-10-21T13:39:38.000Z</time>
      </trkpt>
      <trkpt lat="46.36031" lon="5.22884">
        <ele>213.60000610352</ele>
        <time>2021-10-21T13:39:44.000Z</time>
      </trkpt>
      <trkpt lat="46.36013" lon="5.22899">
        <ele>214.80000305176</ele>
        <time>2021-10-21T13:39:49.000Z</time>
      </trkpt>
      <trkpt lat="46.36006" lon="5.22903">
        <ele>215.19999694824</ele>
        <time>2021-10-21T13:39:51.000Z</time>
      </trkpt>
      <trkpt lat="46.36001" lon="5.22905">
        <ele>215.80000305176</ele>
        <time>2021-10-21T13:39:52.000Z</time>
      </trkpt>
      <trkpt lat="46.3599" lon="5.22912">
        <ele>216.80000305176</ele>
        <time>2021-10-21T13:39:55.000Z</time>
      </trkpt>
      <trkpt lat="46.35984" lon="5.22916">
        <ele>217.39999389648</ele>
        <time>2021-10-21T13:39:57.000Z</time>
      </trkpt>
      <trkpt lat="46.3598" lon="5.22918">
        <ele>217.60000610352</ele>
        <time>2021-10-21T13:39:58.000Z</time>
      </trkpt>
      <trkpt lat="46.35976" lon="5.2292">
        <ele>218</ele>
        <time>2021-10-21T13:39:59.000Z</time>
      </trkpt>
      <trkpt lat="46.35967" lon="5.22924">
        <ele>219.19999694824</ele>
        <time>2021-10-21T13:40:02.000Z</time>
      </trkpt>
      <trkpt lat="46.35953" lon="5.22929">
        <ele>220.19999694824</ele>
        <time>2021-10-21T13:40:06.000Z</time>
      </trkpt>
      <trkpt lat="46.35937" lon="5.22938">
        <ele>221.19999694824</ele>
        <time>2021-10-21T13:40:11.000Z</time>
      </trkpt>
      <trkpt lat="46.35931" lon="5.22944">
        <ele>222</ele>
        <time>2021-10-21T13:40:13.000Z</time>
      </trkpt>
      <trkpt lat="46.35929" lon="5.22947">
        <ele>222.39999389648</ele>
        <time>2021-10-21T13:40:14.000Z</time>
      </trkpt>
      <trkpt lat="46.35917" lon="5.22961">
        <ele>223.60000610352</ele>
        <time>2021-10-21T13:40:18.000Z</time>
      </trkpt>
      <trkpt lat="46.3591" lon="5.22974">
        <ele>224</ele>
        <time>2021-10-21T13:40:21.000Z</time>
      </trkpt>
      <trkpt lat="46.35903" lon="5.22986">
        <ele>225</ele>
        <time>2021-10-21T13:40:24.000Z</time>
      </trkpt>
      <trkpt lat="46.35896" lon="5.22999">
        <ele>225.80000305176</ele>
        <time>2021-10-21T13:40:27.000Z</time>
      </trkpt>
      <trkpt lat="46.35894" lon="5.23004">
        <ele>226</ele>
        <time>2021-10-21T13:40:28.000Z</time>
      </trkpt>
      <trkpt lat="46.35882" lon="5.23025">
        <ele>227.19999694824</ele>
        <time>2021-10-21T13:40:33.000Z</time>
      </trkpt>
      <trkpt lat="46.35874" lon="5.23037">
        <ele>227.60000610352</ele>
        <time>2021-10-21T13:40:36.000Z</time>
      </trkpt>
      <trkpt lat="46.35864" lon="5.23057">
        <ele>228.39999389648</ele>
        <time>2021-10-21T13:40:40.000Z</time>
      </trkpt>
      <trkpt lat="46.35855" lon="5.23072">
        <ele>229</ele>
        <time>2021-10-21T13:40:43.000Z</time>
      </trkpt>
      <trkpt lat="46.35841" lon="5.23094">
        <ele>229.60000610352</ele>
        <time>2021-10-21T13:40:47.000Z</time>
      </trkpt>
      <trkpt lat="46.35821" lon="5.23119">
        <ele>229.60000610352</ele>
        <time>2021-10-21T13:40:52.000Z</time>
      </trkpt>
      <trkpt lat="46.35786" lon="5.23155">
        <ele>230.39999389648</ele>
        <time>2021-10-21T13:41:00.000Z</time>
      </trkpt>
      <trkpt lat="46.35783" lon="5.23161">
        <ele>230.60000610352</ele>
        <time>2021-10-21T13:41:01.000Z</time>
      </trkpt>
      <trkpt lat="46.35771" lon="5.23188">
        <ele>230.80000305176</ele>
        <time>2021-10-21T13:41:05.000Z</time>
      </trkpt>
      <trkpt lat="46.35757" lon="5.23232">
        <ele>231.60000610352</ele>
        <time>2021-10-21T13:41:11.000Z</time>
      </trkpt>
      <trkpt lat="46.35749" lon="5.23259">
        <ele>232</ele>
        <time>2021-10-21T13:41:15.000Z</time>
      </trkpt>
      <trkpt lat="46.35739" lon="5.23289">
        <ele>232.80000305176</ele>
        <time>2021-10-21T13:41:19.000Z</time>
      </trkpt>
      <trkpt lat="46.35728" lon="5.23329">
        <ele>233.39999389648</ele>
        <time>2021-10-21T13:41:24.000Z</time>
      </trkpt>
      <trkpt lat="46.35706" lon="5.23385">
        <ele>233.39999389648</ele>
        <time>2021-10-21T13:41:31.000Z</time>
      </trkpt>
      <trkpt lat="46.35702" lon="5.23393">
        <ele>233.39999389648</ele>
        <time>2021-10-21T13:41:32.000Z</time>
      </trkpt>
      <trkpt lat="46.35683" lon="5.2342">
        <ele>234</ele>
        <time>2021-10-21T13:41:36.000Z</time>
      </trkpt>
      <trkpt lat="46.35675" lon="5.23432">
        <ele>234.19999694824</ele>
        <time>2021-10-21T13:41:38.000Z</time>
      </trkpt>
      <trkpt lat="46.35665" lon="5.23454">
        <ele>234.60000610352</ele>
        <time>2021-10-21T13:41:41.000Z</time>
      </trkpt>
      <trkpt lat="46.35654" lon="5.23509">
        <ele>235</ele>
        <time>2021-10-21T13:41:47.000Z</time>
      </trkpt>
      <trkpt lat="46.35647" lon="5.23546">
        <ele>235.19999694824</ele>
        <time>2021-10-21T13:41:51.000Z</time>
      </trkpt>
      <trkpt lat="46.35644" lon="5.23554">
        <ele>235.19999694824</ele>
        <time>2021-10-21T13:41:52.000Z</time>
      </trkpt>
      <trkpt lat="46.35641" lon="5.23561">
        <ele>235.19999694824</ele>
        <time>2021-10-21T13:41:53.000Z</time>
      </trkpt>
      <trkpt lat="46.35631" lon="5.23573">
        <ele>235.19999694824</ele>
        <time>2021-10-21T13:41:55.000Z</time>
      </trkpt>
      <trkpt lat="46.35614" lon="5.23585">
        <ele>235.60000610352</ele>
        <time>2021-10-21T13:41:58.000Z</time>
      </trkpt>
      <trkpt lat="46.35602" lon="5.2359">
        <ele>236.19999694824</ele>
        <time>2021-10-21T13:42:00.000Z</time>
      </trkpt>
      <trkpt lat="46.35577" lon="5.23599">
        <ele>237.19999694824</ele>
        <time>2021-10-21T13:42:04.000Z</time>
      </trkpt>
      <trkpt lat="46.35547" lon="5.23605">
        <ele>237.39999389648</ele>
        <time>2021-10-21T13:42:09.000Z</time>
      </trkpt>
      <trkpt lat="46.35504" lon="5.2361">
        <ele>237.39999389648</ele>
        <time>2021-10-21T13:42:16.000Z</time>
      </trkpt>
      <trkpt lat="46.3546" lon="5.23606">
        <ele>237.19999694824</ele>
        <time>2021-10-21T13:42:23.000Z</time>
      </trkpt>
      <trkpt lat="46.35425" lon="5.23594">
        <ele>237.19999694824</ele>
        <time>2021-10-21T13:42:29.000Z</time>
      </trkpt>
      <trkpt lat="46.35381" lon="5.23595">
        <ele>238</ele>
        <time>2021-10-21T13:42:36.000Z</time>
      </trkpt>
      <trkpt lat="46.35362" lon="5.23598">
        <ele>238</ele>
        <time>2021-10-21T13:42:39.000Z</time>
      </trkpt>
      <trkpt lat="46.3535" lon="5.23604">
        <ele>238</ele>
        <time>2021-10-21T13:42:41.000Z</time>
      </trkpt>
      <trkpt lat="46.35344" lon="5.23608">
        <ele>238</ele>
        <time>2021-10-21T13:42:42.000Z</time>
      </trkpt>
      <trkpt lat="46.35339" lon="5.23614">
        <ele>237.80000305176</ele>
        <time>2021-10-21T13:42:43.000Z</time>
      </trkpt>
      <trkpt lat="46.35331" lon="5.23628">
        <ele>237.60000610352</ele>
        <time>2021-10-21T13:42:45.000Z</time>
      </trkpt>
      <trkpt lat="46.35327" lon="5.23637">
        <ele>237.60000610352</ele>
        <time>2021-10-21T13:42:46.000Z</time>
      </trkpt>
      <trkpt lat="46.35309" lon="5.23699">
        <ele>237.60000610352</ele>
        <time>2021-10-21T13:42:53.000Z</time>
      </trkpt>
      <trkpt lat="46.35287" lon="5.23772">
        <ele>237.19999694824</ele>
        <time>2021-10-21T13:43:01.000Z</time>
      </trkpt>
      <trkpt lat="46.35279" lon="5.23801">
        <ele>237</ele>
        <time>2021-10-21T13:43:04.000Z</time>
      </trkpt>
      <trkpt lat="46.35255" lon="5.23876">
        <ele>237</ele>
        <time>2021-10-21T13:43:12.000Z</time>
      </trkpt>
      <trkpt lat="46.35249" lon="5.23895">
        <ele>237</ele>
        <time>2021-10-21T13:43:14.000Z</time>
      </trkpt>
      <trkpt lat="46.35224" lon="5.23967">
        <ele>236.80000305176</ele>
        <time>2021-10-21T13:43:22.000Z</time>
      </trkpt>
      <trkpt lat="46.35195" lon="5.24027">
        <ele>237.19999694824</ele>
        <time>2021-10-21T13:43:29.000Z</time>
      </trkpt>
      <trkpt lat="46.3516" lon="5.24093">
        <ele>237.39999389648</ele>
        <time>2021-10-21T13:43:37.000Z</time>
      </trkpt>
      <trkpt lat="46.35147" lon="5.24118">
        <ele>237.80000305176</ele>
        <time>2021-10-21T13:43:40.000Z</time>
      </trkpt>
      <trkpt lat="46.35114" lon="5.24189">
        <ele>238</ele>
        <time>2021-10-21T13:43:48.000Z</time>
      </trkpt>
      <trkpt lat="46.35109" lon="5.24197">
        <ele>238</ele>
        <time>2021-10-21T13:43:49.000Z</time>
      </trkpt>
      <trkpt lat="46.35095" lon="5.24221">
        <ele>238</ele>
        <time>2021-10-21T13:43:52.000Z</time>
      </trkpt>
      <trkpt lat="46.35084" lon="5.24235">
        <ele>238</ele>
        <time>2021-10-21T13:43:54.000Z</time>
      </trkpt>
      <trkpt lat="46.35041" lon="5.24272">
        <ele>238</ele>
        <time>2021-10-21T13:44:01.000Z</time>
      </trkpt>
      <trkpt lat="46.35009" lon="5.24311">
        <ele>238</ele>
        <time>2021-10-21T13:44:07.000Z</time>
      </trkpt>
      <trkpt lat="46.34971" lon="5.24376">
        <ele>237.80000305176</ele>
        <time>2021-10-21T13:44:15.000Z</time>
      </trkpt>
      <trkpt lat="46.34963" lon="5.24393">
        <ele>237.60000610352</ele>
        <time>2021-10-21T13:44:17.000Z</time>
      </trkpt>
      <trkpt lat="46.34934" lon="5.24458">
        <ele>237.60000610352</ele>
        <time>2021-10-21T13:44:24.000Z</time>
      </trkpt>
      <trkpt lat="46.34897" lon="5.24526">
        <ele>236.19999694824</ele>
        <time>2021-10-21T13:44:31.000Z</time>
      </trkpt>
      <trkpt lat="46.34877" lon="5.24568">
        <ele>235.19999694824</ele>
        <time>2021-10-21T13:44:35.000Z</time>
      </trkpt>
      <trkpt lat="46.34873" lon="5.2458">
        <ele>235</ele>
        <time>2021-10-21T13:44:36.000Z</time>
      </trkpt>
      <trkpt lat="46.34865" lon="5.24623">
        <ele>234</ele>
        <time>2021-10-21T13:44:39.000Z</time>
      </trkpt>
      <trkpt lat="46.34863" lon="5.24639">
        <ele>233.39999389648</ele>
        <time>2021-10-21T13:44:40.000Z</time>
      </trkpt>
      <trkpt lat="46.34861" lon="5.24671">
        <ele>232.39999389648</ele>
        <time>2021-10-21T13:44:42.000Z</time>
      </trkpt>
      <trkpt lat="46.34858" lon="5.24702">
        <ele>231</ele>
        <time>2021-10-21T13:44:44.000Z</time>
      </trkpt>
      <trkpt lat="46.34856" lon="5.24718">
        <ele>229.80000305176</ele>
        <time>2021-10-21T13:44:45.000Z</time>
      </trkpt>
      <trkpt lat="46.34853" lon="5.24733">
        <ele>229.19999694824</ele>
        <time>2021-10-21T13:44:46.000Z</time>
      </trkpt>
      <trkpt lat="46.34849" lon="5.24747">
        <ele>228.60000610352</ele>
        <time>2021-10-21T13:44:47.000Z</time>
      </trkpt>
      <trkpt lat="46.34836" lon="5.24785">
        <ele>228</ele>
        <time>2021-10-21T13:44:50.000Z</time>
      </trkpt>
      <trkpt lat="46.34825" lon="5.24806">
        <ele>227.19999694824</ele>
        <time>2021-10-21T13:44:52.000Z</time>
      </trkpt>
      <trkpt lat="46.34815" lon="5.24825">
        <ele>226.80000305176</ele>
        <time>2021-10-21T13:44:54.000Z</time>
      </trkpt>
      <trkpt lat="46.34792" lon="5.24867">
        <ele>227</ele>
        <time>2021-10-21T13:44:59.000Z</time>
      </trkpt>
      <trkpt lat="46.34774" lon="5.24909">
        <ele>228.39999389648</ele>
        <time>2021-10-21T13:45:04.000Z</time>
      </trkpt>
      <trkpt lat="46.34752" lon="5.24965">
        <ele>229.39999389648</ele>
        <time>2021-10-21T13:45:10.000Z</time>
      </trkpt>
      <trkpt lat="46.34745" lon="5.24982">
        <ele>229.60000610352</ele>
        <time>2021-10-21T13:45:12.000Z</time>
      </trkpt>
      <trkpt lat="46.3473" lon="5.25023">
        <ele>230.60000610352</ele>
        <time>2021-10-21T13:45:17.000Z</time>
      </trkpt>
      <trkpt lat="46.34728" lon="5.25031">
        <ele>230.60000610352</ele>
        <time>2021-10-21T13:45:18.000Z</time>
      </trkpt>
      <trkpt lat="46.34719" lon="5.25057">
        <ele>231.19999694824</ele>
        <time>2021-10-21T13:45:21.000Z</time>
      </trkpt>
      <trkpt lat="46.34703" lon="5.25095">
        <ele>231.19999694824</ele>
        <time>2021-10-21T13:45:25.000Z</time>
      </trkpt>
      <trkpt lat="46.34686" lon="5.25145">
        <ele>230.39999389648</ele>
        <time>2021-10-21T13:45:29.000Z</time>
      </trkpt>
      <trkpt lat="46.34679" lon="5.25173">
        <ele>229</ele>
        <time>2021-10-21T13:45:31.000Z</time>
      </trkpt>
      <trkpt lat="46.34673" lon="5.25201">
        <ele>227.80000305176</ele>
        <time>2021-10-21T13:45:33.000Z</time>
      </trkpt>
      <trkpt lat="46.34664" lon="5.25243">
        <ele>226.80000305176</ele>
        <time>2021-10-21T13:45:36.000Z</time>
      </trkpt>
      <trkpt lat="46.34656" lon="5.25272">
        <ele>225.60000610352</ele>
        <time>2021-10-21T13:45:38.000Z</time>
      </trkpt>
      <trkpt lat="46.3464" lon="5.25336">
        <ele>224.60000610352</ele>
        <time>2021-10-21T13:45:43.000Z</time>
      </trkpt>
      <trkpt lat="46.34629" lon="5.25393">
        <ele>224</ele>
        <time>2021-10-21T13:45:48.000Z</time>
      </trkpt>
      <trkpt lat="46.34623" lon="5.25442">
        <ele>224</ele>
        <time>2021-10-21T13:45:53.000Z</time>
      </trkpt>
      <trkpt lat="46.34621" lon="5.25451">
        <ele>224</ele>
        <time>2021-10-21T13:45:54.000Z</time>
      </trkpt>
      <trkpt lat="46.3461" lon="5.25498">
        <ele>225.80000305176</ele>
        <time>2021-10-21T13:46:00.000Z</time>
      </trkpt>
      <trkpt lat="46.34605" lon="5.25533">
        <ele>227.19999694824</ele>
        <time>2021-10-21T13:46:05.000Z</time>
      </trkpt>
      <trkpt lat="46.34604" lon="5.25546">
        <ele>228</ele>
        <time>2021-10-21T13:46:07.000Z</time>
      </trkpt>
      <trkpt lat="46.34603" lon="5.25553">
        <ele>228.39999389648</ele>
        <time>2021-10-21T13:46:08.000Z</time>
      </trkpt>
      <trkpt lat="46.34601" lon="5.25567">
        <ele>229.19999694824</ele>
        <time>2021-10-21T13:46:10.000Z</time>
      </trkpt>
      <trkpt lat="46.346" lon="5.25573">
        <ele>229.39999389648</ele>
        <time>2021-10-21T13:46:11.000Z</time>
      </trkpt>
      <trkpt lat="46.34595" lon="5.25585">
        <ele>229.80000305176</ele>
        <time>2021-10-21T13:46:13.000Z</time>
      </trkpt>
      <trkpt lat="46.34589" lon="5.25595">
        <ele>230.19999694824</ele>
        <time>2021-10-21T13:46:15.000Z</time>
      </trkpt>
      <trkpt lat="46.34585" lon="5.25599">
        <ele>230.80000305176</ele>
        <time>2021-10-21T13:46:16.000Z</time>
      </trkpt>
      <trkpt lat="46.3458" lon="5.25603">
        <ele>231.19999694824</ele>
        <time>2021-10-21T13:46:17.000Z</time>
      </trkpt>
      <trkpt lat="46.34566" lon="5.25614">
        <ele>231.80000305176</ele>
        <time>2021-10-21T13:46:20.000Z</time>
      </trkpt>
      <trkpt lat="46.34552" lon="5.25621">
        <ele>232.80000305176</ele>
        <time>2021-10-21T13:46:23.000Z</time>
      </trkpt>
      <trkpt lat="46.34547" lon="5.25623">
        <ele>233</ele>
        <time>2021-10-21T13:46:24.000Z</time>
      </trkpt>
      <trkpt lat="46.34517" lon="5.25633">
        <ele>234.39999389648</ele>
        <time>2021-10-21T13:46:30.000Z</time>
      </trkpt>
      <trkpt lat="46.34507" lon="5.25636">
        <ele>235</ele>
        <time>2021-10-21T13:46:32.000Z</time>
      </trkpt>
      <trkpt lat="46.34485" lon="5.25643">
        <ele>235.19999694824</ele>
        <time>2021-10-21T13:46:36.000Z</time>
      </trkpt>
      <trkpt lat="46.34479" lon="5.25645">
        <ele>235.19999694824</ele>
        <time>2021-10-21T13:46:37.000Z</time>
      </trkpt>
      <trkpt lat="46.34473" lon="5.25646">
        <ele>235.19999694824</ele>
        <time>2021-10-21T13:46:38.000Z</time>
      </trkpt>
      <trkpt lat="46.34447" lon="5.25646">
        <ele>234.80000305176</ele>
        <time>2021-10-21T13:46:42.000Z</time>
      </trkpt>
      <trkpt lat="46.34429" lon="5.25642">
        <ele>234.19999694824</ele>
        <time>2021-10-21T13:46:45.000Z</time>
      </trkpt>
      <trkpt lat="46.3442" lon="5.2564">
        <ele>233.80000305176</ele>
        <time>2021-10-21T13:46:47.000Z</time>
      </trkpt>
      <trkpt lat="46.34413" lon="5.25647">
        <ele>233.60000610352</ele>
        <time>2021-10-21T13:46:49.000Z</time>
      </trkpt>
      <trkpt lat="46.34411" lon="5.25654">
        <ele>233.60000610352</ele>
        <time>2021-10-21T13:46:50.000Z</time>
      </trkpt>
      <trkpt lat="46.34408" lon="5.2567">
        <ele>233.19999694824</ele>
        <time>2021-10-21T13:46:52.000Z</time>
      </trkpt>
      <trkpt lat="46.344" lon="5.257">
        <ele>232.39999389648</ele>
        <time>2021-10-21T13:46:55.000Z</time>
      </trkpt>
      <trkpt lat="46.34398" lon="5.2571">
        <ele>232</ele>
        <time>2021-10-21T13:46:56.000Z</time>
      </trkpt>
      <trkpt lat="46.34391" lon="5.25728">
        <ele>231.39999389648</ele>
        <time>2021-10-21T13:46:58.000Z</time>
      </trkpt>
      <trkpt lat="46.34388" lon="5.25735">
        <ele>231.39999389648</ele>
        <time>2021-10-21T13:46:59.000Z</time>
      </trkpt>
      <trkpt lat="46.34385" lon="5.25742">
        <ele>230.80000305176</ele>
        <time>2021-10-21T13:47:00.000Z</time>
      </trkpt>
      <trkpt lat="46.34382" lon="5.25748">
        <ele>230.39999389648</ele>
        <time>2021-10-21T13:47:01.000Z</time>
      </trkpt>
      <trkpt lat="46.34378" lon="5.25753">
        <ele>229.60000610352</ele>
        <time>2021-10-21T13:47:02.000Z</time>
      </trkpt>
      <trkpt lat="46.34374" lon="5.25758">
        <ele>228.60000610352</ele>
        <time>2021-10-21T13:47:03.000Z</time>
      </trkpt>
      <trkpt lat="46.34371" lon="5.25764">
        <ele>228.19999694824</ele>
        <time>2021-10-21T13:47:04.000Z</time>
      </trkpt>
      <trkpt lat="46.34366" lon="5.25778">
        <ele>227.80000305176</ele>
        <time>2021-10-21T13:47:06.000Z</time>
      </trkpt>
      <trkpt lat="46.34363" lon="5.25785">
        <ele>227.60000610352</ele>
        <time>2021-10-21T13:47:07.000Z</time>
      </trkpt>
      <trkpt lat="46.34353" lon="5.25796">
        <ele>227.60000610352</ele>
        <time>2021-10-21T13:47:09.000Z</time>
      </trkpt>
      <trkpt lat="46.3433" lon="5.25823">
        <ele>227.60000610352</ele>
        <time>2021-10-21T13:47:14.000Z</time>
      </trkpt>
      <trkpt lat="46.34323" lon="5.25833">
        <ele>227.60000610352</ele>
        <time>2021-10-21T13:47:16.000Z</time>
      </trkpt>
      <trkpt lat="46.34319" lon="5.25836">
        <ele>227.80000305176</ele>
        <time>2021-10-21T13:47:17.000Z</time>
      </trkpt>
      <trkpt lat="46.34309" lon="5.25835">
        <ele>228</ele>
        <time>2021-10-21T13:47:19.000Z</time>
      </trkpt>
      <trkpt lat="46.34299" lon="5.25831">
        <ele>228.39999389648</ele>
        <time>2021-10-21T13:47:21.000Z</time>
      </trkpt>
      <trkpt lat="46.34291" lon="5.2583">
        <ele>228.39999389648</ele>
        <time>2021-10-21T13:47:23.000Z</time>
      </trkpt>
      <trkpt lat="46.3429" lon="5.25831">
        <ele>228.60000610352</ele>
        <time>2021-10-21T13:47:24.000Z</time>
      </trkpt>
      <trkpt lat="46.34284" lon="5.25851">
        <ele>229</ele>
        <time>2021-10-21T13:47:28.000Z</time>
      </trkpt>
      <trkpt lat="46.34282" lon="5.25858">
        <ele>229</ele>
        <time>2021-10-21T13:47:29.000Z</time>
      </trkpt>
      <trkpt lat="46.34275" lon="5.25879">
        <ele>229</ele>
        <time>2021-10-21T13:47:32.000Z</time>
      </trkpt>
      <trkpt lat="46.34271" lon="5.25884">
        <ele>229.19999694824</ele>
        <time>2021-10-21T13:47:33.000Z</time>
      </trkpt>
      <trkpt lat="46.34265" lon="5.25888">
        <ele>229.19999694824</ele>
        <time>2021-10-21T13:47:34.000Z</time>
      </trkpt>
      <trkpt lat="46.3426" lon="5.25891">
        <ele>229.39999389648</ele>
        <time>2021-10-21T13:47:35.000Z</time>
      </trkpt>
      <trkpt lat="46.34243" lon="5.25902">
        <ele>229.80000305176</ele>
        <time>2021-10-21T13:47:38.000Z</time>
      </trkpt>
      <trkpt lat="46.34231" lon="5.25916">
        <ele>230</ele>
        <time>2021-10-21T13:47:41.000Z</time>
      </trkpt>
      <trkpt lat="46.34228" lon="5.25922">
        <ele>230.19999694824</ele>
        <time>2021-10-21T13:47:42.000Z</time>
      </trkpt>
      <trkpt lat="46.34223" lon="5.25929">
        <ele>230.60000610352</ele>
        <time>2021-10-21T13:47:44.000Z</time>
      </trkpt>
      <trkpt lat="46.34217" lon="5.25944">
        <ele>231.60000610352</ele>
        <time>2021-10-21T13:47:47.000Z</time>
      </trkpt>
      <trkpt lat="46.34211" lon="5.25956">
        <ele>232.19999694824</ele>
        <time>2021-10-21T13:47:49.000Z</time>
      </trkpt>
      <trkpt lat="46.34206" lon="5.25968">
        <ele>232.80000305176</ele>
        <time>2021-10-21T13:47:51.000Z</time>
      </trkpt>
      <trkpt lat="46.34194" lon="5.25993">
        <ele>234.19999694824</ele>
        <time>2021-10-21T13:47:55.000Z</time>
      </trkpt>
      <trkpt lat="46.34189" lon="5.26005">
        <ele>234.60000610352</ele>
        <time>2021-10-21T13:47:57.000Z</time>
      </trkpt>
      <trkpt lat="46.34178" lon="5.26029">
        <ele>235.19999694824</ele>
        <time>2021-10-21T13:48:01.000Z</time>
      </trkpt>
      <trkpt lat="46.3417" lon="5.26046">
        <ele>236.19999694824</ele>
        <time>2021-10-21T13:48:04.000Z</time>
      </trkpt>
      <trkpt lat="46.34168" lon="5.26051">
        <ele>236.60000610352</ele>
        <time>2021-10-21T13:48:05.000Z</time>
      </trkpt>
      <trkpt lat="46.34163" lon="5.2607">
        <ele>237.19999694824</ele>
        <time>2021-10-21T13:48:08.000Z</time>
      </trkpt>
      <trkpt lat="46.34161" lon="5.26076">
        <ele>237.39999389648</ele>
        <time>2021-10-21T13:48:09.000Z</time>
      </trkpt>
      <trkpt lat="46.3416" lon="5.26082">
        <ele>237.39999389648</ele>
        <time>2021-10-21T13:48:10.000Z</time>
      </trkpt>
      <trkpt lat="46.34159" lon="5.26088">
        <ele>237.39999389648</ele>
        <time>2021-10-21T13:48:11.000Z</time>
      </trkpt>
      <trkpt lat="46.34156" lon="5.261">
        <ele>237.60000610352</ele>
        <time>2021-10-21T13:48:14.000Z</time>
      </trkpt>
      <trkpt lat="46.34151" lon="5.2611">
        <ele>237.60000610352</ele>
        <time>2021-10-21T13:48:18.000Z</time>
      </trkpt>
      <trkpt lat="46.34151" lon="5.26114">
        <ele>237.60000610352</ele>
        <time>2021-10-21T13:48:19.000Z</time>
      </trkpt>
      <trkpt lat="46.3415" lon="5.26121">
        <ele>237.60000610352</ele>
        <time>2021-10-21T13:48:22.000Z</time>
      </trkpt>
      <trkpt lat="46.3415" lon="5.26121">
        <ele>237.60000610352</ele>
        <time>2021-10-21T13:48:23.000Z</time>
      </trkpt>
      <trkpt lat="46.3415" lon="5.26121">
        <ele>237.60000610352</ele>
        <time>2021-10-21T13:48:24.000Z</time>
      </trkpt>
      <trkpt lat="46.3415" lon="5.26125">
        <ele>237.39999389648</ele>
        <time>2021-10-21T13:49:22.000Z</time>
      </trkpt>
      <trkpt lat="46.34149" lon="5.26135">
        <ele>237.19999694824</ele>
        <time>2021-10-21T13:49:24.000Z</time>
      </trkpt>
      <trkpt lat="46.34146" lon="5.26158">
        <ele>237.19999694824</ele>
        <time>2021-10-21T13:49:27.000Z</time>
      </trkpt>
      <trkpt lat="46.34146" lon="5.26168">
        <ele>237.19999694824</ele>
        <time>2021-10-21T13:49:28.000Z</time>
      </trkpt>
      <trkpt lat="46.34139" lon="5.26242">
        <ele>236.80000305176</ele>
        <time>2021-10-21T13:49:35.000Z</time>
      </trkpt>
      <trkpt lat="46.34137" lon="5.26264">
        <ele>236.60000610352</ele>
        <time>2021-10-21T13:49:37.000Z</time>
      </trkpt>
      <trkpt lat="46.34135" lon="5.26285">
        <ele>236.19999694824</ele>
        <time>2021-10-21T13:49:39.000Z</time>
      </trkpt>
      <trkpt lat="46.34132" lon="5.26323">
        <ele>235.39999389648</ele>
        <time>2021-10-21T13:49:42.000Z</time>
      </trkpt>
      <trkpt lat="46.3413" lon="5.26335">
        <ele>235.19999694824</ele>
        <time>2021-10-21T13:49:43.000Z</time>
      </trkpt>
      <trkpt lat="46.34125" lon="5.26388">
        <ele>233.80000305176</ele>
        <time>2021-10-21T13:49:47.000Z</time>
      </trkpt>
      <trkpt lat="46.34124" lon="5.26399">
        <ele>233.39999389648</ele>
        <time>2021-10-21T13:49:48.000Z</time>
      </trkpt>
      <trkpt lat="46.3412" lon="5.26429">
        <ele>232.80000305176</ele>
        <time>2021-10-21T13:49:50.000Z</time>
      </trkpt>
      <trkpt lat="46.34115" lon="5.26472">
        <ele>231</ele>
        <time>2021-10-21T13:49:53.000Z</time>
      </trkpt>
      <trkpt lat="46.34111" lon="5.26499">
        <ele>229.80000305176</ele>
        <time>2021-10-21T13:49:55.000Z</time>
      </trkpt>
      <trkpt lat="46.34103" lon="5.26545">
        <ele>228.80000305176</ele>
        <time>2021-10-21T13:49:58.000Z</time>
      </trkpt>
      <trkpt lat="46.34092" lon="5.26592">
        <ele>227.19999694824</ele>
        <time>2021-10-21T13:50:01.000Z</time>
      </trkpt>
      <trkpt lat="46.34086" lon="5.26611">
        <ele>226.19999694824</ele>
        <time>2021-10-21T13:50:02.000Z</time>
      </trkpt>
      <trkpt lat="46.34081" lon="5.26623">
        <ele>225.60000610352</ele>
        <time>2021-10-21T13:50:03.000Z</time>
      </trkpt>
      <trkpt lat="46.34069" lon="5.26653">
        <ele>224.19999694824</ele>
        <time>2021-10-21T13:50:05.000Z</time>
      </trkpt>
      <trkpt lat="46.34061" lon="5.26671">
        <ele>223</ele>
        <time>2021-10-21T13:50:06.000Z</time>
      </trkpt>
      <trkpt lat="46.34048" lon="5.267">
        <ele>221.80000305176</ele>
        <time>2021-10-21T13:50:08.000Z</time>
      </trkpt>
      <trkpt lat="46.34043" lon="5.26712">
        <ele>220.39999389648</ele>
        <time>2021-10-21T13:50:09.000Z</time>
      </trkpt>
      <trkpt lat="46.34029" lon="5.26745">
        <ele>219.19999694824</ele>
        <time>2021-10-21T13:50:11.000Z</time>
      </trkpt>
      <trkpt lat="46.34018" lon="5.26772">
        <ele>217.80000305176</ele>
        <time>2021-10-21T13:50:13.000Z</time>
      </trkpt>
      <trkpt lat="46.34006" lon="5.26801">
        <ele>216.60000610352</ele>
        <time>2021-10-21T13:50:15.000Z</time>
      </trkpt>
      <trkpt lat="46.33992" lon="5.26832">
        <ele>215.19999694824</ele>
        <time>2021-10-21T13:50:17.000Z</time>
      </trkpt>
      <trkpt lat="46.33987" lon="5.26845">
        <ele>214.19999694824</ele>
        <time>2021-10-21T13:50:18.000Z</time>
      </trkpt>
      <trkpt lat="46.33981" lon="5.26859">
        <ele>213.80000305176</ele>
        <time>2021-10-21T13:50:19.000Z</time>
      </trkpt>
      <trkpt lat="46.3397" lon="5.26884">
        <ele>212.80000305176</ele>
        <time>2021-10-21T13:50:21.000Z</time>
      </trkpt>
      <trkpt lat="46.33954" lon="5.26921">
        <ele>211.80000305176</ele>
        <time>2021-10-21T13:50:24.000Z</time>
      </trkpt>
      <trkpt lat="46.33949" lon="5.26933">
        <ele>211.60000610352</ele>
        <time>2021-10-21T13:50:25.000Z</time>
      </trkpt>
      <trkpt lat="46.3392" lon="5.27001">
        <ele>211.19999694824</ele>
        <time>2021-10-21T13:50:31.000Z</time>
      </trkpt>
      <trkpt lat="46.33897" lon="5.27064">
        <ele>211.39999389648</ele>
        <time>2021-10-21T13:50:37.000Z</time>
      </trkpt>
      <trkpt lat="46.33894" lon="5.27087">
        <ele>211.39999389648</ele>
        <time>2021-10-21T13:50:39.000Z</time>
      </trkpt>
      <trkpt lat="46.33894" lon="5.2711">
        <ele>211.39999389648</ele>
        <time>2021-10-21T13:50:41.000Z</time>
      </trkpt>
      <trkpt lat="46.339" lon="5.27191">
        <ele>211</ele>
        <time>2021-10-21T13:50:48.000Z</time>
      </trkpt>
      <trkpt lat="46.33901" lon="5.27202">
        <ele>211</ele>
        <time>2021-10-21T13:50:49.000Z</time>
      </trkpt>
      <trkpt lat="46.33906" lon="5.2728">
        <ele>211</ele>
        <time>2021-10-21T13:50:56.000Z</time>
      </trkpt>
      <trkpt lat="46.33907" lon="5.27292">
        <ele>211</ele>
        <time>2021-10-21T13:50:57.000Z</time>
      </trkpt>
      <trkpt lat="46.3391" lon="5.27378">
        <ele>211.39999389648</ele>
        <time>2021-10-21T13:51:05.000Z</time>
      </trkpt>
      <trkpt lat="46.3391" lon="5.27388">
        <ele>211.39999389648</ele>
        <time>2021-10-21T13:51:06.000Z</time>
      </trkpt>
      <trkpt lat="46.33906" lon="5.27434">
        <ele>211.60000610352</ele>
        <time>2021-10-21T13:51:11.000Z</time>
      </trkpt>
      <trkpt lat="46.33896" lon="5.27479">
        <ele>212.60000610352</ele>
        <time>2021-10-21T13:51:17.000Z</time>
      </trkpt>
      <trkpt lat="46.33894" lon="5.27486">
        <ele>212.80000305176</ele>
        <time>2021-10-21T13:51:18.000Z</time>
      </trkpt>
      <trkpt lat="46.33886" lon="5.27527">
        <ele>214</ele>
        <time>2021-10-21T13:51:24.000Z</time>
      </trkpt>
      <trkpt lat="46.33883" lon="5.2754">
        <ele>214.60000610352</ele>
        <time>2021-10-21T13:51:26.000Z</time>
      </trkpt>
      <trkpt lat="46.33882" lon="5.27546">
        <ele>215</ele>
        <time>2021-10-21T13:51:27.000Z</time>
      </trkpt>
      <trkpt lat="46.33876" lon="5.27571">
        <ele>216.19999694824</ele>
        <time>2021-10-21T13:51:31.000Z</time>
      </trkpt>
      <trkpt lat="46.33871" lon="5.27595">
        <ele>217.39999389648</ele>
        <time>2021-10-21T13:51:35.000Z</time>
      </trkpt>
      <trkpt lat="46.33866" lon="5.27618">
        <ele>218.60000610352</ele>
        <time>2021-10-21T13:51:39.000Z</time>
      </trkpt>
      <trkpt lat="46.3386" lon="5.27647">
        <ele>219.39999389648</ele>
        <time>2021-10-21T13:51:44.000Z</time>
      </trkpt>
      <trkpt lat="46.33858" lon="5.27652">
        <ele>219.80000305176</ele>
        <time>2021-10-21T13:51:45.000Z</time>
      </trkpt>
      <trkpt lat="46.33852" lon="5.27679">
        <ele>221.19999694824</ele>
        <time>2021-10-21T13:51:50.000Z</time>
      </trkpt>
      <trkpt lat="46.33851" lon="5.27685">
        <ele>221.39999389648</ele>
        <time>2021-10-21T13:51:51.000Z</time>
      </trkpt>
      <trkpt lat="46.33847" lon="5.27702">
        <ele>222.39999389648</ele>
        <time>2021-10-21T13:51:54.000Z</time>
      </trkpt>
      <trkpt lat="46.33841" lon="5.27719">
        <ele>223.39999389648</ele>
        <time>2021-10-21T13:51:57.000Z</time>
      </trkpt>
      <trkpt lat="46.33838" lon="5.27725">
        <ele>223.60000610352</ele>
        <time>2021-10-21T13:51:58.000Z</time>
      </trkpt>
      <trkpt lat="46.3383" lon="5.2774">
        <ele>224.39999389648</ele>
        <time>2021-10-21T13:52:01.000Z</time>
      </trkpt>
      <trkpt lat="46.33813" lon="5.27768">
        <ele>225.19999694824</ele>
        <time>2021-10-21T13:52:07.000Z</time>
      </trkpt>
      <trkpt lat="46.33807" lon="5.27778">
        <ele>225.39999389648</ele>
        <time>2021-10-21T13:52:09.000Z</time>
      </trkpt>
      <trkpt lat="46.33789" lon="5.27806">
        <ele>226.60000610352</ele>
        <time>2021-10-21T13:52:15.000Z</time>
      </trkpt>
      <trkpt lat="46.33777" lon="5.27825">
        <ele>227</ele>
        <time>2021-10-21T13:52:19.000Z</time>
      </trkpt>
      <trkpt lat="46.33769" lon="5.27839">
        <ele>227.80000305176</ele>
        <time>2021-10-21T13:52:22.000Z</time>
      </trkpt>
      <trkpt lat="46.33744" lon="5.27876">
        <ele>228.60000610352</ele>
        <time>2021-10-21T13:52:30.000Z</time>
      </trkpt>
      <trkpt lat="46.33738" lon="5.27885">
        <ele>229.19999694824</ele>
        <time>2021-10-21T13:52:32.000Z</time>
      </trkpt>
      <trkpt lat="46.3372" lon="5.27915">
        <ele>230.19999694824</ele>
        <time>2021-10-21T13:52:38.000Z</time>
      </trkpt>
      <trkpt lat="46.33716" lon="5.2792">
        <ele>230.39999389648</ele>
        <time>2021-10-21T13:52:39.000Z</time>
      </trkpt>
      <trkpt lat="46.33704" lon="5.2794">
        <ele>231.39999389648</ele>
        <time>2021-10-21T13:52:43.000Z</time>
      </trkpt>
      <trkpt lat="46.33691" lon="5.2796">
        <ele>232.39999389648</ele>
        <time>2021-10-21T13:52:47.000Z</time>
      </trkpt>
      <trkpt lat="46.33682" lon="5.27974">
        <ele>233</ele>
        <time>2021-10-21T13:52:50.000Z</time>
      </trkpt>
      <trkpt lat="46.33663" lon="5.28004">
        <ele>233.80000305176</ele>
        <time>2021-10-21T13:52:56.000Z</time>
      </trkpt>
      <trkpt lat="46.33643" lon="5.28036">
        <ele>234.80000305176</ele>
        <time>2021-10-21T13:53:02.000Z</time>
      </trkpt>
      <trkpt lat="46.33607" lon="5.28095">
        <ele>235.39999389648</ele>
        <time>2021-10-21T13:53:12.000Z</time>
      </trkpt>
      <trkpt lat="46.33585" lon="5.2814">
        <ele>235.39999389648</ele>
        <time>2021-10-21T13:53:18.000Z</time>
      </trkpt>
      <trkpt lat="46.33565" lon="5.282">
        <ele>234.60000610352</ele>
        <time>2021-10-21T13:53:24.000Z</time>
      </trkpt>
      <trkpt lat="46.33554" lon="5.28246">
        <ele>233.80000305176</ele>
        <time>2021-10-21T13:53:28.000Z</time>
      </trkpt>
      <trkpt lat="46.33552" lon="5.28257">
        <ele>233.60000610352</ele>
        <time>2021-10-21T13:53:29.000Z</time>
      </trkpt>
      <trkpt lat="46.33544" lon="5.28324">
        <ele>233.19999694824</ele>
        <time>2021-10-21T13:53:35.000Z</time>
      </trkpt>
      <trkpt lat="46.33542" lon="5.28374">
        <ele>233.39999389648</ele>
        <time>2021-10-21T13:53:40.000Z</time>
      </trkpt>
      <trkpt lat="46.33543" lon="5.28435">
        <ele>234.60000610352</ele>
        <time>2021-10-21T13:53:47.000Z</time>
      </trkpt>
      <trkpt lat="46.33543" lon="5.28459">
        <ele>235.19999694824</ele>
        <time>2021-10-21T13:53:50.000Z</time>
      </trkpt>
      <trkpt lat="46.33542" lon="5.2849">
        <ele>236.19999694824</ele>
        <time>2021-10-21T13:53:54.000Z</time>
      </trkpt>
      <trkpt lat="46.33542" lon="5.28498">
        <ele>236.39999389648</ele>
        <time>2021-10-21T13:53:55.000Z</time>
      </trkpt>
      <trkpt lat="46.33547" lon="5.28545">
        <ele>237.19999694824</ele>
        <time>2021-10-21T13:54:01.000Z</time>
      </trkpt>
      <trkpt lat="46.33551" lon="5.28569">
        <ele>237.39999389648</ele>
        <time>2021-10-21T13:54:04.000Z</time>
      </trkpt>
      <trkpt lat="46.33556" lon="5.28609">
        <ele>238.39999389648</ele>
        <time>2021-10-21T13:54:09.000Z</time>
      </trkpt>
      <trkpt lat="46.33557" lon="5.28626">
        <ele>238.80000305176</ele>
        <time>2021-10-21T13:54:11.000Z</time>
      </trkpt>
      <trkpt lat="46.3356" lon="5.28672">
        <ele>239.39999389648</ele>
        <time>2021-10-21T13:54:16.000Z</time>
      </trkpt>
      <trkpt lat="46.33564" lon="5.28719">
        <ele>240</ele>
        <time>2021-10-21T13:54:21.000Z</time>
      </trkpt>
      <trkpt lat="46.33568" lon="5.28782">
        <ele>240.39999389648</ele>
        <time>2021-10-21T13:54:28.000Z</time>
      </trkpt>
      <trkpt lat="46.33568" lon="5.28792">
        <ele>240.60000610352</ele>
        <time>2021-10-21T13:54:29.000Z</time>
      </trkpt>
      <trkpt lat="46.33561" lon="5.28839">
        <ele>240.80000305176</ele>
        <time>2021-10-21T13:54:34.000Z</time>
      </trkpt>
      <trkpt lat="46.33545" lon="5.28903">
        <ele>241</ele>
        <time>2021-10-21T13:54:40.000Z</time>
      </trkpt>
      <trkpt lat="46.33524" lon="5.28979">
        <ele>239.80000305176</ele>
        <time>2021-10-21T13:54:47.000Z</time>
      </trkpt>
      <trkpt lat="46.33521" lon="5.2899">
        <ele>239.80000305176</ele>
        <time>2021-10-21T13:54:48.000Z</time>
      </trkpt>
      <trkpt lat="46.33508" lon="5.29037">
        <ele>239.80000305176</ele>
        <time>2021-10-21T13:54:53.000Z</time>
      </trkpt>
      <trkpt lat="46.33492" lon="5.29086">
        <ele>240.39999389648</ele>
        <time>2021-10-21T13:54:59.000Z</time>
      </trkpt>
      <trkpt lat="46.33481" lon="5.29115">
        <ele>241.80000305176</ele>
        <time>2021-10-21T13:55:03.000Z</time>
      </trkpt>
      <trkpt lat="46.33472" lon="5.29138">
        <ele>242.39999389648</ele>
        <time>2021-10-21T13:55:06.000Z</time>
      </trkpt>
      <trkpt lat="46.33465" lon="5.29153">
        <ele>242.80000305176</ele>
        <time>2021-10-21T13:55:08.000Z</time>
      </trkpt>
      <trkpt lat="46.33444" lon="5.29208">
        <ele>243.60000610352</ele>
        <time>2021-10-21T13:55:15.000Z</time>
      </trkpt>
      <trkpt lat="46.33428" lon="5.29251">
        <ele>243.80000305176</ele>
        <time>2021-10-21T13:55:20.000Z</time>
      </trkpt>
      <trkpt lat="46.33422" lon="5.29268">
        <ele>244</ele>
        <time>2021-10-21T13:55:22.000Z</time>
      </trkpt>
      <trkpt lat="46.33421" lon="5.29287">
        <ele>244</ele>
        <time>2021-10-21T13:55:24.000Z</time>
      </trkpt>
      <trkpt lat="46.33429" lon="5.29302">
        <ele>244</ele>
        <time>2021-10-21T13:55:26.000Z</time>
      </trkpt>
      <trkpt lat="46.33435" lon="5.29308">
        <ele>243.80000305176</ele>
        <time>2021-10-21T13:55:27.000Z</time>
      </trkpt>
      <trkpt lat="46.33442" lon="5.29313">
        <ele>243.60000610352</ele>
        <time>2021-10-21T13:55:28.000Z</time>
      </trkpt>
      <trkpt lat="46.33468" lon="5.2933">
        <ele>243.39999389648</ele>
        <time>2021-10-21T13:55:32.000Z</time>
      </trkpt>
      <trkpt lat="46.3351" lon="5.29349">
        <ele>243.80000305176</ele>
        <time>2021-10-21T13:55:38.000Z</time>
      </trkpt>
      <trkpt lat="46.33567" lon="5.29368">
        <ele>244.80000305176</ele>
        <time>2021-10-21T13:55:46.000Z</time>
      </trkpt>
      <trkpt lat="46.33574" lon="5.2937">
        <ele>244.80000305176</ele>
        <time>2021-10-21T13:55:47.000Z</time>
      </trkpt>
      <trkpt lat="46.33581" lon="5.29372">
        <ele>245</ele>
        <time>2021-10-21T13:55:48.000Z</time>
      </trkpt>
      <trkpt lat="46.33603" lon="5.29376">
        <ele>245</ele>
        <time>2021-10-21T13:55:51.000Z</time>
      </trkpt>
      <trkpt lat="46.3361" lon="5.29376">
        <ele>245</ele>
        <time>2021-10-21T13:55:52.000Z</time>
      </trkpt>
      <trkpt lat="46.3365" lon="5.29369">
        <ele>244.60000610352</ele>
        <time>2021-10-21T13:55:57.000Z</time>
      </trkpt>
      <trkpt lat="46.33666" lon="5.29371">
        <ele>244.39999389648</ele>
        <time>2021-10-21T13:55:59.000Z</time>
      </trkpt>
      <trkpt lat="46.33673" lon="5.29375">
        <ele>244.19999694824</ele>
        <time>2021-10-21T13:56:00.000Z</time>
      </trkpt>
      <trkpt lat="46.3368" lon="5.29381">
        <ele>244.19999694824</ele>
        <time>2021-10-21T13:56:01.000Z</time>
      </trkpt>
      <trkpt lat="46.33693" lon="5.29396">
        <ele>244</ele>
        <time>2021-10-21T13:56:03.000Z</time>
      </trkpt>
      <trkpt lat="46.33717" lon="5.2943">
        <ele>243.80000305176</ele>
        <time>2021-10-21T13:56:07.000Z</time>
      </trkpt>
      <trkpt lat="46.33736" lon="5.29456">
        <ele>243.60000610352</ele>
        <time>2021-10-21T13:56:10.000Z</time>
      </trkpt>
      <trkpt lat="46.33778" lon="5.295">
        <ele>243.19999694824</ele>
        <time>2021-10-21T13:56:16.000Z</time>
      </trkpt>
      <trkpt lat="46.33802" lon="5.29514">
        <ele>243.19999694824</ele>
        <time>2021-10-21T13:56:19.000Z</time>
      </trkpt>
      <trkpt lat="46.3381" lon="5.29517">
        <ele>243.19999694824</ele>
        <time>2021-10-21T13:56:20.000Z</time>
      </trkpt>
      <trkpt lat="46.33845" lon="5.29519">
        <ele>243.60000610352</ele>
        <time>2021-10-21T13:56:24.000Z</time>
      </trkpt>
      <trkpt lat="46.33905" lon="5.29518">
        <ele>243.60000610352</ele>
        <time>2021-10-21T13:56:31.000Z</time>
      </trkpt>
      <trkpt lat="46.33922" lon="5.29517">
        <ele>243.60000610352</ele>
        <time>2021-10-21T13:56:33.000Z</time>
      </trkpt>
      <trkpt lat="46.33931" lon="5.29515">
        <ele>243.60000610352</ele>
        <time>2021-10-21T13:56:34.000Z</time>
      </trkpt>
      <trkpt lat="46.33946" lon="5.29506">
        <ele>243.60000610352</ele>
        <time>2021-10-21T13:56:36.000Z</time>
      </trkpt>
      <trkpt lat="46.33956" lon="5.2949">
        <ele>243.60000610352</ele>
        <time>2021-10-21T13:56:38.000Z</time>
      </trkpt>
      <trkpt lat="46.33968" lon="5.2945">
        <ele>243.80000305176</ele>
        <time>2021-10-21T13:56:42.000Z</time>
      </trkpt>
      <trkpt lat="46.33977" lon="5.2943">
        <ele>243.80000305176</ele>
        <time>2021-10-21T13:56:44.000Z</time>
      </trkpt>
      <trkpt lat="46.33988" lon="5.29412">
        <ele>243.80000305176</ele>
        <time>2021-10-21T13:56:46.000Z</time>
      </trkpt>
      <trkpt lat="46.34" lon="5.29396">
        <ele>243.60000610352</ele>
        <time>2021-10-21T13:56:48.000Z</time>
      </trkpt>
      <trkpt lat="46.34016" lon="5.29384">
        <ele>243.39999389648</ele>
        <time>2021-10-21T13:56:50.000Z</time>
      </trkpt>
      <trkpt lat="46.34033" lon="5.29376">
        <ele>243</ele>
        <time>2021-10-21T13:56:52.000Z</time>
      </trkpt>
      <trkpt lat="46.34059" lon="5.29363">
        <ele>242.39999389648</ele>
        <time>2021-10-21T13:56:55.000Z</time>
      </trkpt>
      <trkpt lat="46.34066" lon="5.29356">
        <ele>242</ele>
        <time>2021-10-21T13:56:56.000Z</time>
      </trkpt>
      <trkpt lat="46.34073" lon="5.29347">
        <ele>241.80000305176</ele>
        <time>2021-10-21T13:56:57.000Z</time>
      </trkpt>
      <trkpt lat="46.34079" lon="5.29337">
        <ele>241.39999389648</ele>
        <time>2021-10-21T13:56:58.000Z</time>
      </trkpt>
      <trkpt lat="46.34089" lon="5.29316">
        <ele>240.80000305176</ele>
        <time>2021-10-21T13:57:00.000Z</time>
      </trkpt>
      <trkpt lat="46.34099" lon="5.29295">
        <ele>240.39999389648</ele>
        <time>2021-10-21T13:57:02.000Z</time>
      </trkpt>
      <trkpt lat="46.34105" lon="5.29286">
        <ele>240.39999389648</ele>
        <time>2021-10-21T13:57:03.000Z</time>
      </trkpt>
      <trkpt lat="46.34112" lon="5.29278">
        <ele>240.39999389648</ele>
        <time>2021-10-21T13:57:04.000Z</time>
      </trkpt>
      <trkpt lat="46.34127" lon="5.2927">
        <ele>240.19999694824</ele>
        <time>2021-10-21T13:57:06.000Z</time>
      </trkpt>
      <trkpt lat="46.34169" lon="5.29264">
        <ele>240.19999694824</ele>
        <time>2021-10-21T13:57:11.000Z</time>
      </trkpt>
      <trkpt lat="46.34201" lon="5.29264">
        <ele>240</ele>
        <time>2021-10-21T13:57:15.000Z</time>
      </trkpt>
      <trkpt lat="46.34209" lon="5.29267">
        <ele>240</ele>
        <time>2021-10-21T13:57:16.000Z</time>
      </trkpt>
      <trkpt lat="46.34264" lon="5.29289">
        <ele>240.39999389648</ele>
        <time>2021-10-21T13:57:23.000Z</time>
      </trkpt>
      <trkpt lat="46.34311" lon="5.29304">
        <ele>240.80000305176</ele>
        <time>2021-10-21T13:57:29.000Z</time>
      </trkpt>
      <trkpt lat="46.34346" lon="5.29326">
        <ele>241</ele>
        <time>2021-10-21T13:57:34.000Z</time>
      </trkpt>
      <trkpt lat="46.34365" lon="5.29338">
        <ele>241.19999694824</ele>
        <time>2021-10-21T13:57:37.000Z</time>
      </trkpt>
      <trkpt lat="46.34372" lon="5.2934">
        <ele>241.39999389648</ele>
        <time>2021-10-21T13:57:38.000Z</time>
      </trkpt>
      <trkpt lat="46.34386" lon="5.29344">
        <ele>241.60000610352</ele>
        <time>2021-10-21T13:57:40.000Z</time>
      </trkpt>
      <trkpt lat="46.34399" lon="5.29351">
        <ele>242</ele>
        <time>2021-10-21T13:57:42.000Z</time>
      </trkpt>
      <trkpt lat="46.34407" lon="5.29357">
        <ele>242</ele>
        <time>2021-10-21T13:57:43.000Z</time>
      </trkpt>
      <trkpt lat="46.34417" lon="5.29371">
        <ele>242.39999389648</ele>
        <time>2021-10-21T13:57:45.000Z</time>
      </trkpt>
      <trkpt lat="46.34433" lon="5.29405">
        <ele>243</ele>
        <time>2021-10-21T13:57:49.000Z</time>
      </trkpt>
      <trkpt lat="46.34442" lon="5.29422">
        <ele>243.19999694824</ele>
        <time>2021-10-21T13:57:51.000Z</time>
      </trkpt>
      <trkpt lat="46.34452" lon="5.29437">
        <ele>243.39999389648</ele>
        <time>2021-10-21T13:57:53.000Z</time>
      </trkpt>
      <trkpt lat="46.34462" lon="5.29451">
        <ele>243.39999389648</ele>
        <time>2021-10-21T13:57:55.000Z</time>
      </trkpt>
      <trkpt lat="46.34469" lon="5.29472">
        <ele>243.39999389648</ele>
        <time>2021-10-21T13:57:57.000Z</time>
      </trkpt>
      <trkpt lat="46.34469" lon="5.29484">
        <ele>243.39999389648</ele>
        <time>2021-10-21T13:57:58.000Z</time>
      </trkpt>
      <trkpt lat="46.34468" lon="5.29495">
        <ele>243.39999389648</ele>
        <time>2021-10-21T13:57:59.000Z</time>
      </trkpt>
      <trkpt lat="46.34459" lon="5.29553">
        <ele>243.19999694824</ele>
        <time>2021-10-21T13:58:04.000Z</time>
      </trkpt>
      <trkpt lat="46.34457" lon="5.29566">
        <ele>243</ele>
        <time>2021-10-21T13:58:05.000Z</time>
      </trkpt>
      <trkpt lat="46.3446" lon="5.2959">
        <ele>242.80000305176</ele>
        <time>2021-10-21T13:58:07.000Z</time>
      </trkpt>
      <trkpt lat="46.34474" lon="5.29605">
        <ele>242.60000610352</ele>
        <time>2021-10-21T13:58:09.000Z</time>
      </trkpt>
      <trkpt lat="46.34492" lon="5.2961">
        <ele>241.60000610352</ele>
        <time>2021-10-21T13:58:11.000Z</time>
      </trkpt>
      <trkpt lat="46.34502" lon="5.29611">
        <ele>241.19999694824</ele>
        <time>2021-10-21T13:58:12.000Z</time>
      </trkpt>
      <trkpt lat="46.34521" lon="5.29614">
        <ele>240.39999389648</ele>
        <time>2021-10-21T13:58:14.000Z</time>
      </trkpt>
      <trkpt lat="46.34558" lon="5.2962">
        <ele>239.39999389648</ele>
        <time>2021-10-21T13:58:18.000Z</time>
      </trkpt>
      <trkpt lat="46.34585" lon="5.29624">
        <ele>239</ele>
        <time>2021-10-21T13:58:21.000Z</time>
      </trkpt>
      <trkpt lat="46.34637" lon="5.29636">
        <ele>238.80000305176</ele>
        <time>2021-10-21T13:58:27.000Z</time>
      </trkpt>
      <trkpt lat="46.34698" lon="5.29648">
        <ele>239</ele>
        <time>2021-10-21T13:58:34.000Z</time>
      </trkpt>
      <trkpt lat="46.34706" lon="5.29649">
        <ele>239.19999694824</ele>
        <time>2021-10-21T13:58:35.000Z</time>
      </trkpt>
      <trkpt lat="46.34722" lon="5.29645">
        <ele>239.39999389648</ele>
        <time>2021-10-21T13:58:37.000Z</time>
      </trkpt>
      <trkpt lat="46.34753" lon="5.29625">
        <ele>239.80000305176</ele>
        <time>2021-10-21T13:58:41.000Z</time>
      </trkpt>
      <trkpt lat="46.34761" lon="5.29622">
        <ele>240</ele>
        <time>2021-10-21T13:58:42.000Z</time>
      </trkpt>
      <trkpt lat="46.34792" lon="5.29616">
        <ele>240.39999389648</ele>
        <time>2021-10-21T13:58:46.000Z</time>
      </trkpt>
      <trkpt lat="46.348" lon="5.29616">
        <ele>240.60000610352</ele>
        <time>2021-10-21T13:58:47.000Z</time>
      </trkpt>
      <trkpt lat="46.34831" lon="5.29618">
        <ele>241</ele>
        <time>2021-10-21T13:58:51.000Z</time>
      </trkpt>
      <trkpt lat="46.34839" lon="5.2962">
        <ele>241.19999694824</ele>
        <time>2021-10-21T13:58:52.000Z</time>
      </trkpt>
      <trkpt lat="46.34855" lon="5.29625">
        <ele>241.39999389648</ele>
        <time>2021-10-21T13:58:54.000Z</time>
      </trkpt>
      <trkpt lat="46.34863" lon="5.29629">
        <ele>241.60000610352</ele>
        <time>2021-10-21T13:58:55.000Z</time>
      </trkpt>
      <trkpt lat="46.34878" lon="5.29639">
        <ele>241.60000610352</ele>
        <time>2021-10-21T13:58:57.000Z</time>
      </trkpt>
      <trkpt lat="46.34914" lon="5.29664">
        <ele>241.80000305176</ele>
        <time>2021-10-21T13:59:02.000Z</time>
      </trkpt>
      <trkpt lat="46.3493" lon="5.29667">
        <ele>241.80000305176</ele>
        <time>2021-10-21T13:59:04.000Z</time>
      </trkpt>
      <trkpt lat="46.34946" lon="5.2966">
        <ele>241.60000610352</ele>
        <time>2021-10-21T13:59:06.000Z</time>
      </trkpt>
      <trkpt lat="46.34953" lon="5.29654">
        <ele>241.60000610352</ele>
        <time>2021-10-21T13:59:07.000Z</time>
      </trkpt>
      <trkpt lat="46.34966" lon="5.29643">
        <ele>241.60000610352</ele>
        <time>2021-10-21T13:59:09.000Z</time>
      </trkpt>
      <trkpt lat="46.3498" lon="5.29637">
        <ele>241.60000610352</ele>
        <time>2021-10-21T13:59:11.000Z</time>
      </trkpt>
      <trkpt lat="46.35011" lon="5.29639">
        <ele>241.39999389648</ele>
        <time>2021-10-21T13:59:15.000Z</time>
      </trkpt>
      <trkpt lat="46.35036" lon="5.29645">
        <ele>241.39999389648</ele>
        <time>2021-10-21T13:59:18.000Z</time>
      </trkpt>
      <trkpt lat="46.35053" lon="5.29654">
        <ele>241.39999389648</ele>
        <time>2021-10-21T13:59:20.000Z</time>
      </trkpt>
      <trkpt lat="46.35071" lon="5.29662">
        <ele>241</ele>
        <time>2021-10-21T13:59:22.000Z</time>
      </trkpt>
      <trkpt lat="46.3509" lon="5.29665">
        <ele>240.60000610352</ele>
        <time>2021-10-21T13:59:24.000Z</time>
      </trkpt>
      <trkpt lat="46.35099" lon="5.29665">
        <ele>240</ele>
        <time>2021-10-21T13:59:25.000Z</time>
      </trkpt>
      <trkpt lat="46.35134" lon="5.29662">
        <ele>239.19999694824</ele>
        <time>2021-10-21T13:59:29.000Z</time>
      </trkpt>
      <trkpt lat="46.35142" lon="5.29661">
        <ele>239</ele>
        <time>2021-10-21T13:59:30.000Z</time>
      </trkpt>
      <trkpt lat="46.35187" lon="5.29656">
        <ele>239.19999694824</ele>
        <time>2021-10-21T13:59:36.000Z</time>
      </trkpt>
      <trkpt lat="46.35222" lon="5.29648">
        <ele>240.19999694824</ele>
        <time>2021-10-21T13:59:41.000Z</time>
      </trkpt>
      <trkpt lat="46.35237" lon="5.29647">
        <ele>240.39999389648</ele>
        <time>2021-10-21T13:59:43.000Z</time>
      </trkpt>
      <trkpt lat="46.35272" lon="5.29647">
        <ele>241.60000610352</ele>
        <time>2021-10-21T13:59:48.000Z</time>
      </trkpt>
      <trkpt lat="46.35294" lon="5.29649">
        <ele>242.39999389648</ele>
        <time>2021-10-21T13:59:51.000Z</time>
      </trkpt>
      <trkpt lat="46.35322" lon="5.29654">
        <ele>242.60000610352</ele>
        <time>2021-10-21T13:59:55.000Z</time>
      </trkpt>
      <trkpt lat="46.35359" lon="5.29664">
        <ele>242.80000305176</ele>
        <time>2021-10-21T14:00:00.000Z</time>
      </trkpt>
      <trkpt lat="46.35409" lon="5.29682">
        <ele>242.80000305176</ele>
        <time>2021-10-21T14:00:07.000Z</time>
      </trkpt>
      <trkpt lat="46.35459" lon="5.29696">
        <ele>243</ele>
        <time>2021-10-21T14:00:14.000Z</time>
      </trkpt>
      <trkpt lat="46.35467" lon="5.29697">
        <ele>243</ele>
        <time>2021-10-21T14:00:15.000Z</time>
      </trkpt>
      <trkpt lat="46.35481" lon="5.2969">
        <ele>242.80000305176</ele>
        <time>2021-10-21T14:00:17.000Z</time>
      </trkpt>
      <trkpt lat="46.35491" lon="5.29676">
        <ele>242.39999389648</ele>
        <time>2021-10-21T14:00:19.000Z</time>
      </trkpt>
      <trkpt lat="46.35495" lon="5.29668">
        <ele>242</ele>
        <time>2021-10-21T14:00:20.000Z</time>
      </trkpt>
      <trkpt lat="46.35501" lon="5.2966">
        <ele>241.60000610352</ele>
        <time>2021-10-21T14:00:21.000Z</time>
      </trkpt>
      <trkpt lat="46.35514" lon="5.29651">
        <ele>241.39999389648</ele>
        <time>2021-10-21T14:00:23.000Z</time>
      </trkpt>
      <trkpt lat="46.35559" lon="5.29644">
        <ele>241.19999694824</ele>
        <time>2021-10-21T14:00:29.000Z</time>
      </trkpt>
      <trkpt lat="46.35605" lon="5.29625">
        <ele>241.60000610352</ele>
        <time>2021-10-21T14:00:35.000Z</time>
      </trkpt>
      <trkpt lat="46.35657" lon="5.29596">
        <ele>242</ele>
        <time>2021-10-21T14:00:42.000Z</time>
      </trkpt>
      <trkpt lat="46.35664" lon="5.29591">
        <ele>242</ele>
        <time>2021-10-21T14:00:43.000Z</time>
      </trkpt>
      <trkpt lat="46.357" lon="5.29561">
        <ele>242</ele>
        <time>2021-10-21T14:00:48.000Z</time>
      </trkpt>
      <trkpt lat="46.35707" lon="5.29556">
        <ele>242</ele>
        <time>2021-10-21T14:00:49.000Z</time>
      </trkpt>
      <trkpt lat="46.35731" lon="5.29547">
        <ele>241.80000305176</ele>
        <time>2021-10-21T14:00:52.000Z</time>
      </trkpt>
      <trkpt lat="46.35783" lon="5.29545">
        <ele>241.80000305176</ele>
        <time>2021-10-21T14:00:58.000Z</time>
      </trkpt>
      <trkpt lat="46.35838" lon="5.29549">
        <ele>240.80000305176</ele>
        <time>2021-10-21T14:01:04.000Z</time>
      </trkpt>
      <trkpt lat="46.35848" lon="5.29549">
        <ele>240.60000610352</ele>
        <time>2021-10-21T14:01:05.000Z</time>
      </trkpt>
      <trkpt lat="46.35896" lon="5.29556">
        <ele>239.80000305176</ele>
        <time>2021-10-21T14:01:10.000Z</time>
      </trkpt>
      <trkpt lat="46.35904" lon="5.29557">
        <ele>239.19999694824</ele>
        <time>2021-10-21T14:01:11.000Z</time>
      </trkpt>
      <trkpt lat="46.35935" lon="5.29558">
        <ele>238.19999694824</ele>
        <time>2021-10-21T14:01:14.000Z</time>
      </trkpt>
      <trkpt lat="46.35955" lon="5.29556">
        <ele>237.60000610352</ele>
        <time>2021-10-21T14:01:16.000Z</time>
      </trkpt>
      <trkpt lat="46.35993" lon="5.29552">
        <ele>237</ele>
        <time>2021-10-21T14:01:20.000Z</time>
      </trkpt>
      <trkpt lat="46.36019" lon="5.29548">
        <ele>236.60000610352</ele>
        <time>2021-10-21T14:01:23.000Z</time>
      </trkpt>
      <trkpt lat="46.36079" lon="5.2954">
        <ele>236.39999389648</ele>
        <time>2021-10-21T14:01:30.000Z</time>
      </trkpt>
      <trkpt lat="46.36094" lon="5.29538">
        <ele>236.39999389648</ele>
        <time>2021-10-21T14:01:32.000Z</time>
      </trkpt>
      <trkpt lat="46.36152" lon="5.2953">
        <ele>236.80000305176</ele>
        <time>2021-10-21T14:01:40.000Z</time>
      </trkpt>
      <trkpt lat="46.36159" lon="5.29528">
        <ele>237</ele>
        <time>2021-10-21T14:01:41.000Z</time>
      </trkpt>
      <trkpt lat="46.36171" lon="5.29523">
        <ele>237.19999694824</ele>
        <time>2021-10-21T14:01:43.000Z</time>
      </trkpt>
      <trkpt lat="46.36177" lon="5.29519">
        <ele>237.19999694824</ele>
        <time>2021-10-21T14:01:44.000Z</time>
      </trkpt>
      <trkpt lat="46.36213" lon="5.29488">
        <ele>238</ele>
        <time>2021-10-21T14:01:50.000Z</time>
      </trkpt>
      <trkpt lat="46.36226" lon="5.29476">
        <ele>238</ele>
        <time>2021-10-21T14:01:52.000Z</time>
      </trkpt>
      <trkpt lat="46.36242" lon="5.29469">
        <ele>238</ele>
        <time>2021-10-21T14:01:54.000Z</time>
      </trkpt>
      <trkpt lat="46.36259" lon="5.29469">
        <ele>237.80000305176</ele>
        <time>2021-10-21T14:01:56.000Z</time>
      </trkpt>
      <trkpt lat="46.36268" lon="5.29471">
        <ele>237.39999389648</ele>
        <time>2021-10-21T14:01:57.000Z</time>
      </trkpt>
      <trkpt lat="46.36284" lon="5.29476">
        <ele>236.80000305176</ele>
        <time>2021-10-21T14:01:59.000Z</time>
      </trkpt>
      <trkpt lat="46.36298" lon="5.29484">
        <ele>236.39999389648</ele>
        <time>2021-10-21T14:02:01.000Z</time>
      </trkpt>
      <trkpt lat="46.36337" lon="5.29516">
        <ele>236.39999389648</ele>
        <time>2021-10-21T14:02:07.000Z</time>
      </trkpt>
      <trkpt lat="46.36361" lon="5.29552">
        <ele>237.80000305176</ele>
        <time>2021-10-21T14:02:12.000Z</time>
      </trkpt>
      <trkpt lat="46.36366" lon="5.29561">
        <ele>238</ele>
        <time>2021-10-21T14:02:13.000Z</time>
      </trkpt>
      <trkpt lat="46.36379" lon="5.29588">
        <ele>238.60000610352</ele>
        <time>2021-10-21T14:02:16.000Z</time>
      </trkpt>
      <trkpt lat="46.36391" lon="5.29603">
        <ele>238.80000305176</ele>
        <time>2021-10-21T14:02:18.000Z</time>
      </trkpt>
      <trkpt lat="46.36432" lon="5.29636">
        <ele>238.80000305176</ele>
        <time>2021-10-21T14:02:24.000Z</time>
      </trkpt>
      <trkpt lat="46.36485" lon="5.29672">
        <ele>238.19999694824</ele>
        <time>2021-10-21T14:02:31.000Z</time>
      </trkpt>
      <trkpt lat="46.36516" lon="5.29685">
        <ele>237.80000305176</ele>
        <time>2021-10-21T14:02:35.000Z</time>
      </trkpt>
      <trkpt lat="46.36548" lon="5.29697">
        <ele>237.60000610352</ele>
        <time>2021-10-21T14:02:39.000Z</time>
      </trkpt>
      <trkpt lat="46.36603" lon="5.29722">
        <ele>237.60000610352</ele>
        <time>2021-10-21T14:02:46.000Z</time>
      </trkpt>
      <trkpt lat="46.36611" lon="5.29726">
        <ele>237.60000610352</ele>
        <time>2021-10-21T14:02:47.000Z</time>
      </trkpt>
      <trkpt lat="46.3667" lon="5.29756">
        <ele>237</ele>
        <time>2021-10-21T14:02:54.000Z</time>
      </trkpt>
      <trkpt lat="46.36687" lon="5.29766">
        <ele>236.80000305176</ele>
        <time>2021-10-21T14:02:56.000Z</time>
      </trkpt>
      <trkpt lat="46.36725" lon="5.29797">
        <ele>236.60000610352</ele>
        <time>2021-10-21T14:03:01.000Z</time>
      </trkpt>
      <trkpt lat="46.36768" lon="5.2983">
        <ele>236.60000610352</ele>
        <time>2021-10-21T14:03:07.000Z</time>
      </trkpt>
      <trkpt lat="46.36805" lon="5.29846">
        <ele>237.19999694824</ele>
        <time>2021-10-21T14:03:12.000Z</time>
      </trkpt>
      <trkpt lat="46.3682" lon="5.29847">
        <ele>237.60000610352</ele>
        <time>2021-10-21T14:03:14.000Z</time>
      </trkpt>
      <trkpt lat="46.36834" lon="5.29843">
        <ele>237.60000610352</ele>
        <time>2021-10-21T14:03:16.000Z</time>
      </trkpt>
      <trkpt lat="46.36857" lon="5.29836">
        <ele>238.19999694824</ele>
        <time>2021-10-21T14:03:19.000Z</time>
      </trkpt>
      <trkpt lat="46.36912" lon="5.29819">
        <ele>238.60000610352</ele>
        <time>2021-10-21T14:03:26.000Z</time>
      </trkpt>
      <trkpt lat="46.36939" lon="5.29815">
        <ele>238.19999694824</ele>
        <time>2021-10-21T14:03:29.000Z</time>
      </trkpt>
      <trkpt lat="46.36949" lon="5.29816">
        <ele>238</ele>
        <time>2021-10-21T14:03:30.000Z</time>
      </trkpt>
      <trkpt lat="46.36979" lon="5.29822">
        <ele>237</ele>
        <time>2021-10-21T14:03:33.000Z</time>
      </trkpt>
      <trkpt lat="46.3699" lon="5.29822">
        <ele>236</ele>
        <time>2021-10-21T14:03:34.000Z</time>
      </trkpt>
      <trkpt lat="46.37" lon="5.29823">
        <ele>235.80000305176</ele>
        <time>2021-10-21T14:03:35.000Z</time>
      </trkpt>
      <trkpt lat="46.37011" lon="5.29824">
        <ele>234.80000305176</ele>
        <time>2021-10-21T14:03:36.000Z</time>
      </trkpt>
      <trkpt lat="46.37021" lon="5.29827">
        <ele>234</ele>
        <time>2021-10-21T14:03:37.000Z</time>
      </trkpt>
      <trkpt lat="46.3703" lon="5.29832">
        <ele>232.80000305176</ele>
        <time>2021-10-21T14:03:38.000Z</time>
      </trkpt>
      <trkpt lat="46.37056" lon="5.29851">
        <ele>231.60000610352</ele>
        <time>2021-10-21T14:03:41.000Z</time>
      </trkpt>
      <trkpt lat="46.37073" lon="5.29862">
        <ele>231.39999389648</ele>
        <time>2021-10-21T14:03:43.000Z</time>
      </trkpt>
      <trkpt lat="46.3711" lon="5.29891">
        <ele>231.39999389648</ele>
        <time>2021-10-21T14:03:48.000Z</time>
      </trkpt>
      <trkpt lat="46.37146" lon="5.29917">
        <ele>232.80000305176</ele>
        <time>2021-10-21T14:03:53.000Z</time>
      </trkpt>
      <trkpt lat="46.3716" lon="5.29926">
        <ele>233.39999389648</ele>
        <time>2021-10-21T14:03:55.000Z</time>
      </trkpt>
      <trkpt lat="46.37167" lon="5.2993">
        <ele>234</ele>
        <time>2021-10-21T14:03:56.000Z</time>
      </trkpt>
      <trkpt lat="46.37174" lon="5.29933">
        <ele>234.60000610352</ele>
        <time>2021-10-21T14:03:57.000Z</time>
      </trkpt>
      <trkpt lat="46.37189" lon="5.29935">
        <ele>235.19999694824</ele>
        <time>2021-10-21T14:03:59.000Z</time>
      </trkpt>
      <trkpt lat="46.37205" lon="5.29931">
        <ele>235.39999389648</ele>
        <time>2021-10-21T14:04:01.000Z</time>
      </trkpt>
      <trkpt lat="46.37221" lon="5.29924">
        <ele>235.60000610352</ele>
        <time>2021-10-21T14:04:03.000Z</time>
      </trkpt>
      <trkpt lat="46.37269" lon="5.2991">
        <ele>235.39999389648</ele>
        <time>2021-10-21T14:04:09.000Z</time>
      </trkpt>
      <trkpt lat="46.37287" lon="5.29911">
        <ele>235.19999694824</ele>
        <time>2021-10-21T14:04:11.000Z</time>
      </trkpt>
      <trkpt lat="46.37296" lon="5.29915">
        <ele>235</ele>
        <time>2021-10-21T14:04:12.000Z</time>
      </trkpt>
      <trkpt lat="46.37303" lon="5.29921">
        <ele>234.80000305176</ele>
        <time>2021-10-21T14:04:13.000Z</time>
      </trkpt>
      <trkpt lat="46.37308" lon="5.29929">
        <ele>234.60000610352</ele>
        <time>2021-10-21T14:04:14.000Z</time>
      </trkpt>
      <trkpt lat="46.37312" lon="5.2994">
        <ele>233.80000305176</ele>
        <time>2021-10-21T14:04:15.000Z</time>
      </trkpt>
      <trkpt lat="46.37312" lon="5.29951">
        <ele>233.39999389648</ele>
        <time>2021-10-21T14:04:16.000Z</time>
      </trkpt>
      <trkpt lat="46.37308" lon="5.29961">
        <ele>232.39999389648</ele>
        <time>2021-10-21T14:04:17.000Z</time>
      </trkpt>
      <trkpt lat="46.373" lon="5.29967">
        <ele>232</ele>
        <time>2021-10-21T14:04:18.000Z</time>
      </trkpt>
      <trkpt lat="46.37292" lon="5.29972">
        <ele>231.19999694824</ele>
        <time>2021-10-21T14:04:19.000Z</time>
      </trkpt>
      <trkpt lat="46.37275" lon="5.29983">
        <ele>230</ele>
        <time>2021-10-21T14:04:21.000Z</time>
      </trkpt>
      <trkpt lat="46.3726" lon="5.3">
        <ele>229.19999694824</ele>
        <time>2021-10-21T14:04:23.000Z</time>
      </trkpt>
      <trkpt lat="46.37256" lon="5.30012">
        <ele>229</ele>
        <time>2021-10-21T14:04:24.000Z</time>
      </trkpt>
      <trkpt lat="46.37253" lon="5.30025">
        <ele>228.60000610352</ele>
        <time>2021-10-21T14:04:25.000Z</time>
      </trkpt>
      <trkpt lat="46.37252" lon="5.30039">
        <ele>228.19999694824</ele>
        <time>2021-10-21T14:04:26.000Z</time>
      </trkpt>
      <trkpt lat="46.37252" lon="5.30053">
        <ele>227.80000305176</ele>
        <time>2021-10-21T14:04:27.000Z</time>
      </trkpt>
      <trkpt lat="46.37254" lon="5.30083">
        <ele>226.80000305176</ele>
        <time>2021-10-21T14:04:29.000Z</time>
      </trkpt>
      <trkpt lat="46.37255" lon="5.30114">
        <ele>225.19999694824</ele>
        <time>2021-10-21T14:04:31.000Z</time>
      </trkpt>
      <trkpt lat="46.37254" lon="5.30144">
        <ele>224</ele>
        <time>2021-10-21T14:04:33.000Z</time>
      </trkpt>
      <trkpt lat="46.37251" lon="5.30159">
        <ele>223.80000305176</ele>
        <time>2021-10-21T14:04:34.000Z</time>
      </trkpt>
      <trkpt lat="46.37245" lon="5.30172">
        <ele>223.19999694824</ele>
        <time>2021-10-21T14:04:35.000Z</time>
      </trkpt>
      <trkpt lat="46.37237" lon="5.30183">
        <ele>222.60000610352</ele>
        <time>2021-10-21T14:04:36.000Z</time>
      </trkpt>
      <trkpt lat="46.37227" lon="5.30191">
        <ele>222</ele>
        <time>2021-10-21T14:04:37.000Z</time>
      </trkpt>
      <trkpt lat="46.37206" lon="5.30202">
        <ele>221.39999389648</ele>
        <time>2021-10-21T14:04:39.000Z</time>
      </trkpt>
      <trkpt lat="46.37185" lon="5.30214">
        <ele>220.19999694824</ele>
        <time>2021-10-21T14:04:41.000Z</time>
      </trkpt>
      <trkpt lat="46.37174" lon="5.3022">
        <ele>219</ele>
        <time>2021-10-21T14:04:42.000Z</time>
      </trkpt>
      <trkpt lat="46.37164" lon="5.30227">
        <ele>218.60000610352</ele>
        <time>2021-10-21T14:04:43.000Z</time>
      </trkpt>
      <trkpt lat="46.37154" lon="5.30235">
        <ele>218</ele>
        <time>2021-10-21T14:04:44.000Z</time>
      </trkpt>
      <trkpt lat="46.37146" lon="5.30245">
        <ele>217.19999694824</ele>
        <time>2021-10-21T14:04:45.000Z</time>
      </trkpt>
      <trkpt lat="46.3714" lon="5.30257">
        <ele>216.80000305176</ele>
        <time>2021-10-21T14:04:46.000Z</time>
      </trkpt>
      <trkpt lat="46.37136" lon="5.30272">
        <ele>216</ele>
        <time>2021-10-21T14:04:47.000Z</time>
      </trkpt>
      <trkpt lat="46.37131" lon="5.30304">
        <ele>215.39999389648</ele>
        <time>2021-10-21T14:04:49.000Z</time>
      </trkpt>
      <trkpt lat="46.3713" lon="5.3032">
        <ele>215.19999694824</ele>
        <time>2021-10-21T14:04:50.000Z</time>
      </trkpt>
      <trkpt lat="46.37128" lon="5.30351">
        <ele>213.80000305176</ele>
        <time>2021-10-21T14:04:52.000Z</time>
      </trkpt>
      <trkpt lat="46.37123" lon="5.3041">
        <ele>212.39999389648</ele>
        <time>2021-10-21T14:04:56.000Z</time>
      </trkpt>
      <trkpt lat="46.37122" lon="5.30424">
        <ele>212</ele>
        <time>2021-10-21T14:04:57.000Z</time>
      </trkpt>
      <trkpt lat="46.3712" lon="5.30452">
        <ele>211.39999389648</ele>
        <time>2021-10-21T14:04:59.000Z</time>
      </trkpt>
      <trkpt lat="46.37117" lon="5.30493">
        <ele>211</ele>
        <time>2021-10-21T14:05:02.000Z</time>
      </trkpt>
      <trkpt lat="46.37113" lon="5.30546">
        <ele>210.19999694824</ele>
        <time>2021-10-21T14:05:06.000Z</time>
      </trkpt>
      <trkpt lat="46.37111" lon="5.30597">
        <ele>210</ele>
        <time>2021-10-21T14:05:10.000Z</time>
      </trkpt>
      <trkpt lat="46.37114" lon="5.30622">
        <ele>209.80000305176</ele>
        <time>2021-10-21T14:05:12.000Z</time>
      </trkpt>
      <trkpt lat="46.37118" lon="5.30646">
        <ele>209.80000305176</ele>
        <time>2021-10-21T14:05:14.000Z</time>
      </trkpt>
      <trkpt lat="46.37139" lon="5.30724">
        <ele>209.80000305176</ele>
        <time>2021-10-21T14:05:21.000Z</time>
      </trkpt>
      <trkpt lat="46.37162" lon="5.30785">
        <ele>209.80000305176</ele>
        <time>2021-10-21T14:05:27.000Z</time>
      </trkpt>
      <trkpt lat="46.37192" lon="5.30837">
        <ele>210</ele>
        <time>2021-10-21T14:05:33.000Z</time>
      </trkpt>
      <trkpt lat="46.3723" lon="5.30894">
        <ele>209.60000610352</ele>
        <time>2021-10-21T14:05:40.000Z</time>
      </trkpt>
      <trkpt lat="46.37241" lon="5.3091">
        <ele>209.60000610352</ele>
        <time>2021-10-21T14:05:42.000Z</time>
      </trkpt>
      <trkpt lat="46.37279" lon="5.30965">
        <ele>210</ele>
        <time>2021-10-21T14:05:49.000Z</time>
      </trkpt>
      <trkpt lat="46.37301" lon="5.30997">
        <ele>209.80000305176</ele>
        <time>2021-10-21T14:05:53.000Z</time>
      </trkpt>
      <trkpt lat="46.37341" lon="5.31054">
        <ele>210.19999694824</ele>
        <time>2021-10-21T14:06:00.000Z</time>
      </trkpt>
      <trkpt lat="46.37363" lon="5.31086">
        <ele>210.19999694824</ele>
        <time>2021-10-21T14:06:04.000Z</time>
      </trkpt>
      <trkpt lat="46.37406" lon="5.31149">
        <ele>210.60000610352</ele>
        <time>2021-10-21T14:06:12.000Z</time>
      </trkpt>
      <trkpt lat="46.37447" lon="5.31211">
        <ele>211.39999389648</ele>
        <time>2021-10-21T14:06:20.000Z</time>
      </trkpt>
      <trkpt lat="46.37458" lon="5.31227">
        <ele>211.39999389648</ele>
        <time>2021-10-21T14:06:22.000Z</time>
      </trkpt>
      <trkpt lat="46.37464" lon="5.31235">
        <ele>211.60000610352</ele>
        <time>2021-10-21T14:06:23.000Z</time>
      </trkpt>
      <trkpt lat="46.37504" lon="5.31294">
        <ele>211.60000610352</ele>
        <time>2021-10-21T14:06:30.000Z</time>
      </trkpt>
      <trkpt lat="46.37515" lon="5.3131">
        <ele>211.39999389648</ele>
        <time>2021-10-21T14:06:32.000Z</time>
      </trkpt>
      <trkpt lat="46.37558" lon="5.31375">
        <ele>212</ele>
        <time>2021-10-21T14:06:40.000Z</time>
      </trkpt>
      <trkpt lat="46.37564" lon="5.31383">
        <ele>212</ele>
        <time>2021-10-21T14:06:41.000Z</time>
      </trkpt>
      <trkpt lat="46.37602" lon="5.31437">
        <ele>211.80000305176</ele>
        <time>2021-10-21T14:06:48.000Z</time>
      </trkpt>
      <trkpt lat="46.37615" lon="5.31454">
        <ele>211.60000610352</ele>
        <time>2021-10-21T14:06:50.000Z</time>
      </trkpt>
      <trkpt lat="46.37658" lon="5.31517">
        <ele>211.60000610352</ele>
        <time>2021-10-21T14:06:58.000Z</time>
      </trkpt>
      <trkpt lat="46.37668" lon="5.31533">
        <ele>211.60000610352</ele>
        <time>2021-10-21T14:07:00.000Z</time>
      </trkpt>
      <trkpt lat="46.37701" lon="5.31579">
        <ele>211.60000610352</ele>
        <time>2021-10-21T14:07:06.000Z</time>
      </trkpt>
      <trkpt lat="46.3774" lon="5.31635">
        <ele>212</ele>
        <time>2021-10-21T14:07:13.000Z</time>
      </trkpt>
      <trkpt lat="46.37751" lon="5.31651">
        <ele>212</ele>
        <time>2021-10-21T14:07:15.000Z</time>
      </trkpt>
      <trkpt lat="46.37777" lon="5.31681">
        <ele>212.19999694824</ele>
        <time>2021-10-21T14:07:19.000Z</time>
      </trkpt>
      <trkpt lat="46.37796" lon="5.31714">
        <ele>212.39999389648</ele>
        <time>2021-10-21T14:07:23.000Z</time>
      </trkpt>
      <trkpt lat="46.37801" lon="5.31722">
        <ele>212.60000610352</ele>
        <time>2021-10-21T14:07:24.000Z</time>
      </trkpt>
      <trkpt lat="46.37818" lon="5.31745">
        <ele>213</ele>
        <time>2021-10-21T14:07:27.000Z</time>
      </trkpt>
      <trkpt lat="46.37838" lon="5.31776">
        <ele>213.60000610352</ele>
        <time>2021-10-21T14:07:31.000Z</time>
      </trkpt>
      <trkpt lat="46.37859" lon="5.31809">
        <ele>213.39999389648</ele>
        <time>2021-10-21T14:07:35.000Z</time>
      </trkpt>
      <trkpt lat="46.37886" lon="5.31849">
        <ele>213.60000610352</ele>
        <time>2021-10-21T14:07:40.000Z</time>
      </trkpt>
      <trkpt lat="46.37892" lon="5.31856">
        <ele>213.80000305176</ele>
        <time>2021-10-21T14:07:41.000Z</time>
      </trkpt>
      <trkpt lat="46.37907" lon="5.3188">
        <ele>214</ele>
        <time>2021-10-21T14:07:44.000Z</time>
      </trkpt>
      <trkpt lat="46.37916" lon="5.31897">
        <ele>214.19999694824</ele>
        <time>2021-10-21T14:07:46.000Z</time>
      </trkpt>
      <trkpt lat="46.37923" lon="5.31915">
        <ele>214.19999694824</ele>
        <time>2021-10-21T14:07:48.000Z</time>
      </trkpt>
      <trkpt lat="46.37938" lon="5.31968">
        <ele>214.19999694824</ele>
        <time>2021-10-21T14:07:53.000Z</time>
      </trkpt>
      <trkpt lat="46.37953" lon="5.32024">
        <ele>214</ele>
        <time>2021-10-21T14:07:58.000Z</time>
      </trkpt>
      <trkpt lat="46.37958" lon="5.32036">
        <ele>214</ele>
        <time>2021-10-21T14:07:59.000Z</time>
      </trkpt>
      <trkpt lat="46.37972" lon="5.32063">
        <ele>214</ele>
        <time>2021-10-21T14:08:02.000Z</time>
      </trkpt>
      <trkpt lat="46.38002" lon="5.32115">
        <ele>214</ele>
        <time>2021-10-21T14:08:08.000Z</time>
      </trkpt>
      <trkpt lat="46.38011" lon="5.32129">
        <ele>214.19999694824</ele>
        <time>2021-10-21T14:08:10.000Z</time>
      </trkpt>
      <trkpt lat="46.38019" lon="5.32146">
        <ele>214.39999389648</ele>
        <time>2021-10-21T14:08:12.000Z</time>
      </trkpt>
      <trkpt lat="46.38023" lon="5.32155">
        <ele>214.60000610352</ele>
        <time>2021-10-21T14:08:13.000Z</time>
      </trkpt>
      <trkpt lat="46.38028" lon="5.32171">
        <ele>214.80000305176</ele>
        <time>2021-10-21T14:08:15.000Z</time>
      </trkpt>
      <trkpt lat="46.38033" lon="5.32188">
        <ele>215.19999694824</ele>
        <time>2021-10-21T14:08:17.000Z</time>
      </trkpt>
      <trkpt lat="46.38034" lon="5.32198">
        <ele>215.39999389648</ele>
        <time>2021-10-21T14:08:18.000Z</time>
      </trkpt>
      <trkpt lat="46.38038" lon="5.32216">
        <ele>215.60000610352</ele>
        <time>2021-10-21T14:08:20.000Z</time>
      </trkpt>
      <trkpt lat="46.38047" lon="5.32256">
        <ele>216.19999694824</ele>
        <time>2021-10-21T14:08:25.000Z</time>
      </trkpt>
      <trkpt lat="46.3806" lon="5.32271">
        <ele>216.39999389648</ele>
        <time>2021-10-21T14:08:28.000Z</time>
      </trkpt>
      <trkpt lat="46.3808" lon="5.32289">
        <ele>216.39999389648</ele>
        <time>2021-10-21T14:08:31.000Z</time>
      </trkpt>
      <trkpt lat="46.38086" lon="5.32298">
        <ele>216.39999389648</ele>
        <time>2021-10-21T14:08:32.000Z</time>
      </trkpt>
      <trkpt lat="46.38092" lon="5.32309">
        <ele>216.39999389648</ele>
        <time>2021-10-21T14:08:33.000Z</time>
      </trkpt>
      <trkpt lat="46.38105" lon="5.32337">
        <ele>216</ele>
        <time>2021-10-21T14:08:36.000Z</time>
      </trkpt>
      <trkpt lat="46.38115" lon="5.32356">
        <ele>215.60000610352</ele>
        <time>2021-10-21T14:08:38.000Z</time>
      </trkpt>
      <trkpt lat="46.38132" lon="5.32379">
        <ele>215.39999389648</ele>
        <time>2021-10-21T14:08:41.000Z</time>
      </trkpt>
      <trkpt lat="46.38172" lon="5.32415">
        <ele>215.39999389648</ele>
        <time>2021-10-21T14:08:47.000Z</time>
      </trkpt>
      <trkpt lat="46.38222" lon="5.32463">
        <ele>215.19999694824</ele>
        <time>2021-10-21T14:08:55.000Z</time>
      </trkpt>
      <trkpt lat="46.3823" lon="5.32468">
        <ele>215.19999694824</ele>
        <time>2021-10-21T14:08:56.000Z</time>
      </trkpt>
      <trkpt lat="46.38243" lon="5.32474">
        <ele>215.19999694824</ele>
        <time>2021-10-21T14:08:58.000Z</time>
      </trkpt>
      <trkpt lat="46.38257" lon="5.32476">
        <ele>215.39999389648</ele>
        <time>2021-10-21T14:09:00.000Z</time>
      </trkpt>
      <trkpt lat="46.383" lon="5.32484">
        <ele>215.60000610352</ele>
        <time>2021-10-21T14:09:06.000Z</time>
      </trkpt>
      <trkpt lat="46.38355" lon="5.32504">
        <ele>216</ele>
        <time>2021-10-21T14:09:14.000Z</time>
      </trkpt>
      <trkpt lat="46.38369" lon="5.32507">
        <ele>216</ele>
        <time>2021-10-21T14:09:16.000Z</time>
      </trkpt>
      <trkpt lat="46.38376" lon="5.32507">
        <ele>216</ele>
        <time>2021-10-21T14:09:17.000Z</time>
      </trkpt>
      <trkpt lat="46.38391" lon="5.32502">
        <ele>216</ele>
        <time>2021-10-21T14:09:19.000Z</time>
      </trkpt>
      <trkpt lat="46.38401" lon="5.32492">
        <ele>216</ele>
        <time>2021-10-21T14:09:21.000Z</time>
      </trkpt>
      <trkpt lat="46.38406" lon="5.32484">
        <ele>216</ele>
        <time>2021-10-21T14:09:22.000Z</time>
      </trkpt>
      <trkpt lat="46.38408" lon="5.32475">
        <ele>216</ele>
        <time>2021-10-21T14:09:23.000Z</time>
      </trkpt>
      <trkpt lat="46.38411" lon="5.32456">
        <ele>216</ele>
        <time>2021-10-21T14:09:25.000Z</time>
      </trkpt>
      <trkpt lat="46.38415" lon="5.32435">
        <ele>216</ele>
        <time>2021-10-21T14:09:27.000Z</time>
      </trkpt>
      <trkpt lat="46.38421" lon="5.3242">
        <ele>216</ele>
        <time>2021-10-21T14:09:29.000Z</time>
      </trkpt>
      <trkpt lat="46.38424" lon="5.32412">
        <ele>216</ele>
        <time>2021-10-21T14:09:30.000Z</time>
      </trkpt>
      <trkpt lat="46.38439" lon="5.32388">
        <ele>216</ele>
        <time>2021-10-21T14:09:33.000Z</time>
      </trkpt>
      <trkpt lat="46.38449" lon="5.32377">
        <ele>216</ele>
        <time>2021-10-21T14:09:35.000Z</time>
      </trkpt>
      <trkpt lat="46.38462" lon="5.32372">
        <ele>216</ele>
        <time>2021-10-21T14:09:37.000Z</time>
      </trkpt>
      <trkpt lat="46.38476" lon="5.32376">
        <ele>216</ele>
        <time>2021-10-21T14:09:39.000Z</time>
      </trkpt>
      <trkpt lat="46.38482" lon="5.32379">
        <ele>216</ele>
        <time>2021-10-21T14:09:40.000Z</time>
      </trkpt>
      <trkpt lat="46.38495" lon="5.32387">
        <ele>216.39999389648</ele>
        <time>2021-10-21T14:09:42.000Z</time>
      </trkpt>
      <trkpt lat="46.38507" lon="5.32399">
        <ele>216.39999389648</ele>
        <time>2021-10-21T14:09:44.000Z</time>
      </trkpt>
      <trkpt lat="46.38512" lon="5.32406">
        <ele>216.39999389648</ele>
        <time>2021-10-21T14:09:45.000Z</time>
      </trkpt>
      <trkpt lat="46.38542" lon="5.32435">
        <ele>216.19999694824</ele>
        <time>2021-10-21T14:09:50.000Z</time>
      </trkpt>
      <trkpt lat="46.38572" lon="5.32461">
        <ele>216</ele>
        <time>2021-10-21T14:09:55.000Z</time>
      </trkpt>
      <trkpt lat="46.38582" lon="5.32473">
        <ele>216</ele>
        <time>2021-10-21T14:09:57.000Z</time>
      </trkpt>
      <trkpt lat="46.38616" lon="5.32505">
        <ele>216.19999694824</ele>
        <time>2021-10-21T14:10:03.000Z</time>
      </trkpt>
      <trkpt lat="46.38622" lon="5.32509">
        <ele>216.39999389648</ele>
        <time>2021-10-21T14:10:04.000Z</time>
      </trkpt>
      <trkpt lat="46.38657" lon="5.32535">
        <ele>217.39999389648</ele>
        <time>2021-10-21T14:10:10.000Z</time>
      </trkpt>
      <trkpt lat="46.38662" lon="5.3254">
        <ele>217.60000610352</ele>
        <time>2021-10-21T14:10:11.000Z</time>
      </trkpt>
      <trkpt lat="46.38694" lon="5.32574">
        <ele>218</ele>
        <time>2021-10-21T14:10:17.000Z</time>
      </trkpt>
      <trkpt lat="46.38741" lon="5.32614">
        <ele>218.39999389648</ele>
        <time>2021-10-21T14:10:25.000Z</time>
      </trkpt>
      <trkpt lat="46.38753" lon="5.32624">
        <ele>218.39999389648</ele>
        <time>2021-10-21T14:10:27.000Z</time>
      </trkpt>
      <trkpt lat="46.38776" lon="5.32641">
        <ele>218.60000610352</ele>
        <time>2021-10-21T14:10:31.000Z</time>
      </trkpt>
      <trkpt lat="46.38781" lon="5.32646">
        <ele>218.60000610352</ele>
        <time>2021-10-21T14:10:32.000Z</time>
      </trkpt>
      <trkpt lat="46.38785" lon="5.32653">
        <ele>218.60000610352</ele>
        <time>2021-10-21T14:10:33.000Z</time>
      </trkpt>
      <trkpt lat="46.3879" lon="5.32681">
        <ele>218.60000610352</ele>
        <time>2021-10-21T14:10:36.000Z</time>
      </trkpt>
      <trkpt lat="46.38789" lon="5.32724">
        <ele>218.60000610352</ele>
        <time>2021-10-21T14:10:40.000Z</time>
      </trkpt>
      <trkpt lat="46.38787" lon="5.32734">
        <ele>218.39999389648</ele>
        <time>2021-10-21T14:10:41.000Z</time>
      </trkpt>
      <trkpt lat="46.38771" lon="5.32793">
        <ele>218</ele>
        <time>2021-10-21T14:10:47.000Z</time>
      </trkpt>
      <trkpt lat="46.38765" lon="5.32812">
        <ele>218</ele>
        <time>2021-10-21T14:10:49.000Z</time>
      </trkpt>
      <trkpt lat="46.38761" lon="5.32842">
        <ele>218</ele>
        <time>2021-10-21T14:10:52.000Z</time>
      </trkpt>
      <trkpt lat="46.3876" lon="5.32852">
        <ele>218</ele>
        <time>2021-10-21T14:10:53.000Z</time>
      </trkpt>
      <trkpt lat="46.38761" lon="5.32872">
        <ele>218</ele>
        <time>2021-10-21T14:10:55.000Z</time>
      </trkpt>
      <trkpt lat="46.38762" lon="5.32881">
        <ele>218</ele>
        <time>2021-10-21T14:10:56.000Z</time>
      </trkpt>
      <trkpt lat="46.38764" lon="5.3289">
        <ele>218.19999694824</ele>
        <time>2021-10-21T14:10:57.000Z</time>
      </trkpt>
      <trkpt lat="46.38772" lon="5.32906">
        <ele>218.19999694824</ele>
        <time>2021-10-21T14:10:59.000Z</time>
      </trkpt>
      <trkpt lat="46.38783" lon="5.32915">
        <ele>218.39999389648</ele>
        <time>2021-10-21T14:11:01.000Z</time>
      </trkpt>
      <trkpt lat="46.3879" lon="5.32918">
        <ele>218.39999389648</ele>
        <time>2021-10-21T14:11:02.000Z</time>
      </trkpt>
      <trkpt lat="46.38832" lon="5.32934">
        <ele>219</ele>
        <time>2021-10-21T14:11:08.000Z</time>
      </trkpt>
      <trkpt lat="46.38889" lon="5.32957">
        <ele>219.39999389648</ele>
        <time>2021-10-21T14:11:16.000Z</time>
      </trkpt>
      <trkpt lat="46.38931" lon="5.32973">
        <ele>219.60000610352</ele>
        <time>2021-10-21T14:11:22.000Z</time>
      </trkpt>
      <trkpt lat="46.38951" lon="5.3298">
        <ele>219.80000305176</ele>
        <time>2021-10-21T14:11:25.000Z</time>
      </trkpt>
      <trkpt lat="46.39009" lon="5.33">
        <ele>220.19999694824</ele>
        <time>2021-10-21T14:11:34.000Z</time>
      </trkpt>
      <trkpt lat="46.39039" lon="5.3301">
        <ele>220.80000305176</ele>
        <time>2021-10-21T14:11:39.000Z</time>
      </trkpt>
      <trkpt lat="46.39069" lon="5.3302">
        <ele>221.19999694824</ele>
        <time>2021-10-21T14:11:44.000Z</time>
      </trkpt>
      <trkpt lat="46.39102" lon="5.33025">
        <ele>221.39999389648</ele>
        <time>2021-10-21T14:11:49.000Z</time>
      </trkpt>
      <trkpt lat="46.39109" lon="5.33024">
        <ele>221.39999389648</ele>
        <time>2021-10-21T14:11:50.000Z</time>
      </trkpt>
      <trkpt lat="46.3916" lon="5.3301">
        <ele>221.19999694824</ele>
        <time>2021-10-21T14:11:58.000Z</time>
      </trkpt>
      <trkpt lat="46.39213" lon="5.32991">
        <ele>221.39999389648</ele>
        <time>2021-10-21T14:12:06.000Z</time>
      </trkpt>
      <trkpt lat="46.39219" lon="5.32988">
        <ele>221.19999694824</ele>
        <time>2021-10-21T14:12:07.000Z</time>
      </trkpt>
      <trkpt lat="46.39275" lon="5.32963">
        <ele>221.19999694824</ele>
        <time>2021-10-21T14:12:16.000Z</time>
      </trkpt>
      <trkpt lat="46.3928" lon="5.32961">
        <ele>221.19999694824</ele>
        <time>2021-10-21T14:12:17.000Z</time>
      </trkpt>
      <trkpt lat="46.39316" lon="5.32943">
        <ele>221.60000610352</ele>
        <time>2021-10-21T14:12:24.000Z</time>
      </trkpt>
      <trkpt lat="46.39326" lon="5.32939">
        <ele>221.80000305176</ele>
        <time>2021-10-21T14:12:26.000Z</time>
      </trkpt>
      <trkpt lat="46.39345" lon="5.3293">
        <ele>222.19999694824</ele>
        <time>2021-10-21T14:12:30.000Z</time>
      </trkpt>
      <trkpt lat="46.39349" lon="5.32927">
        <ele>222.19999694824</ele>
        <time>2021-10-21T14:12:31.000Z</time>
      </trkpt>
      <trkpt lat="46.39352" lon="5.32923">
        <ele>222.39999389648</ele>
        <time>2021-10-21T14:12:32.000Z</time>
      </trkpt>
      <trkpt lat="46.39355" lon="5.32913">
        <ele>222.39999389648</ele>
        <time>2021-10-21T14:12:34.000Z</time>
      </trkpt>
      <trkpt lat="46.39358" lon="5.32895">
        <ele>222.60000610352</ele>
        <time>2021-10-21T14:12:37.000Z</time>
      </trkpt>
      <trkpt lat="46.3936" lon="5.3289">
        <ele>222.60000610352</ele>
        <time>2021-10-21T14:12:38.000Z</time>
      </trkpt>
      <trkpt lat="46.39363" lon="5.32887">
        <ele>222.60000610352</ele>
        <time>2021-10-21T14:12:39.000Z</time>
      </trkpt>
      <trkpt lat="46.39371" lon="5.32888">
        <ele>223.19999694824</ele>
        <time>2021-10-21T14:12:41.000Z</time>
      </trkpt>
      <trkpt lat="46.39391" lon="5.32903">
        <ele>224.39999389648</ele>
        <time>2021-10-21T14:12:45.000Z</time>
      </trkpt>
      <trkpt lat="46.39396" lon="5.32907">
        <ele>224.80000305176</ele>
        <time>2021-10-21T14:12:46.000Z</time>
      </trkpt>
      <trkpt lat="46.39407" lon="5.32911">
        <ele>225</ele>
        <time>2021-10-21T14:12:48.000Z</time>
      </trkpt>
      <trkpt lat="46.39419" lon="5.32912">
        <ele>225.19999694824</ele>
        <time>2021-10-21T14:12:50.000Z</time>
      </trkpt>
      <trkpt lat="46.39429" lon="5.32909">
        <ele>225.60000610352</ele>
        <time>2021-10-21T14:12:52.000Z</time>
      </trkpt>
      <trkpt lat="46.39439" lon="5.32906">
        <ele>225.80000305176</ele>
        <time>2021-10-21T14:12:54.000Z</time>
      </trkpt>
      <trkpt lat="46.39453" lon="5.32902">
        <ele>226.60000610352</ele>
        <time>2021-10-21T14:12:57.000Z</time>
      </trkpt>
      <trkpt lat="46.39466" lon="5.32897">
        <ele>227.80000305176</ele>
        <time>2021-10-21T14:13:00.000Z</time>
      </trkpt>
      <trkpt lat="46.39484" lon="5.32889">
        <ele>229</ele>
        <time>2021-10-21T14:13:04.000Z</time>
      </trkpt>
      <trkpt lat="46.3951" lon="5.32878">
        <ele>230.19999694824</ele>
        <time>2021-10-21T14:13:10.000Z</time>
      </trkpt>
      <trkpt lat="46.39534" lon="5.32869">
        <ele>231.19999694824</ele>
        <time>2021-10-21T14:13:15.000Z</time>
      </trkpt>
      <trkpt lat="46.39544" lon="5.32865">
        <ele>231.39999389648</ele>
        <time>2021-10-21T14:13:17.000Z</time>
      </trkpt>
      <trkpt lat="46.39572" lon="5.32849">
        <ele>232.19999694824</ele>
        <time>2021-10-21T14:13:22.000Z</time>
      </trkpt>
      <trkpt lat="46.39583" lon="5.32842">
        <ele>232.19999694824</ele>
        <time>2021-10-21T14:13:24.000Z</time>
      </trkpt>
      <trkpt lat="46.39614" lon="5.32831">
        <ele>232.19999694824</ele>
        <time>2021-10-21T14:13:29.000Z</time>
      </trkpt>
      <trkpt lat="46.39664" lon="5.32818">
        <ele>233</ele>
        <time>2021-10-21T14:13:38.000Z</time>
      </trkpt>
      <trkpt lat="46.39669" lon="5.32816">
        <ele>233.19999694824</ele>
        <time>2021-10-21T14:13:39.000Z</time>
      </trkpt>
      <trkpt lat="46.39692" lon="5.32803">
        <ele>234.39999389648</ele>
        <time>2021-10-21T14:13:44.000Z</time>
      </trkpt>
      <trkpt lat="46.39706" lon="5.32795">
        <ele>235.39999389648</ele>
        <time>2021-10-21T14:13:47.000Z</time>
      </trkpt>
      <trkpt lat="46.39723" lon="5.32784">
        <ele>236.39999389648</ele>
        <time>2021-10-21T14:13:51.000Z</time>
      </trkpt>
      <trkpt lat="46.39732" lon="5.32779">
        <ele>236.80000305176</ele>
        <time>2021-10-21T14:13:53.000Z</time>
      </trkpt>
      <trkpt lat="46.39747" lon="5.32772">
        <ele>237.39999389648</ele>
        <time>2021-10-21T14:13:56.000Z</time>
      </trkpt>
      <trkpt lat="46.3976" lon="5.32764">
        <ele>238.39999389648</ele>
        <time>2021-10-21T14:13:59.000Z</time>
      </trkpt>
      <trkpt lat="46.39764" lon="5.32761">
        <ele>238.60000610352</ele>
        <time>2021-10-21T14:14:00.000Z</time>
      </trkpt>
      <trkpt lat="46.39778" lon="5.32755">
        <ele>239.39999389648</ele>
        <time>2021-10-21T14:14:03.000Z</time>
      </trkpt>
      <trkpt lat="46.39782" lon="5.32752">
        <ele>239.60000610352</ele>
        <time>2021-10-21T14:14:04.000Z</time>
      </trkpt>
      <trkpt lat="46.398" lon="5.32743">
        <ele>241</ele>
        <time>2021-10-21T14:14:08.000Z</time>
      </trkpt>
      <trkpt lat="46.39824" lon="5.32732">
        <ele>242</ele>
        <time>2021-10-21T14:14:13.000Z</time>
      </trkpt>
      <trkpt lat="46.39849" lon="5.32722">
        <ele>243</ele>
        <time>2021-10-21T14:14:18.000Z</time>
      </trkpt>
      <trkpt lat="46.39874" lon="5.3271">
        <ele>243.80000305176</ele>
        <time>2021-10-21T14:14:23.000Z</time>
      </trkpt>
      <trkpt lat="46.39884" lon="5.32706">
        <ele>244.19999694824</ele>
        <time>2021-10-21T14:14:25.000Z</time>
      </trkpt>
      <trkpt lat="46.39913" lon="5.32693">
        <ele>245</ele>
        <time>2021-10-21T14:14:31.000Z</time>
      </trkpt>
      <trkpt lat="46.39923" lon="5.32688">
        <ele>245.39999389648</ele>
        <time>2021-10-21T14:14:33.000Z</time>
      </trkpt>
      <trkpt lat="46.39955" lon="5.32674">
        <ele>246.39999389648</ele>
        <time>2021-10-21T14:14:39.000Z</time>
      </trkpt>
      <trkpt lat="46.39998" lon="5.32654">
        <ele>247.39999389648</ele>
        <time>2021-10-21T14:14:47.000Z</time>
      </trkpt>
      <trkpt lat="46.40003" lon="5.32652">
        <ele>247.60000610352</ele>
        <time>2021-10-21T14:14:48.000Z</time>
      </trkpt>
      <trkpt lat="46.40052" lon="5.32629">
        <ele>248.39999389648</ele>
        <time>2021-10-21T14:14:57.000Z</time>
      </trkpt>
      <trkpt lat="46.40063" lon="5.32632">
        <ele>248.39999389648</ele>
        <time>2021-10-21T14:14:59.000Z</time>
      </trkpt>
      <trkpt lat="46.40067" lon="5.32637">
        <ele>248.39999389648</ele>
        <time>2021-10-21T14:15:00.000Z</time>
      </trkpt>
      <trkpt lat="46.4007" lon="5.32645">
        <ele>248.39999389648</ele>
        <time>2021-10-21T14:15:01.000Z</time>
      </trkpt>
      <trkpt lat="46.40074" lon="5.32663">
        <ele>248.39999389648</ele>
        <time>2021-10-21T14:15:03.000Z</time>
      </trkpt>
      <trkpt lat="46.4008" lon="5.3269">
        <ele>248.19999694824</ele>
        <time>2021-10-21T14:15:06.000Z</time>
      </trkpt>
      <trkpt lat="46.40089" lon="5.32717">
        <ele>248.19999694824</ele>
        <time>2021-10-21T14:15:09.000Z</time>
      </trkpt>
      <trkpt lat="46.40116" lon="5.32784">
        <ele>248.39999389648</ele>
        <time>2021-10-21T14:15:17.000Z</time>
      </trkpt>
      <trkpt lat="46.40148" lon="5.32857">
        <ele>249</ele>
        <time>2021-10-21T14:15:26.000Z</time>
      </trkpt>
      <trkpt lat="46.40176" lon="5.32917">
        <ele>249.39999389648</ele>
        <time>2021-10-21T14:15:33.000Z</time>
      </trkpt>
      <trkpt lat="46.4018" lon="5.32923">
        <ele>249.60000610352</ele>
        <time>2021-10-21T14:15:34.000Z</time>
      </trkpt>
      <trkpt lat="46.40218" lon="5.32988">
        <ele>249.60000610352</ele>
        <time>2021-10-21T14:15:42.000Z</time>
      </trkpt>
      <trkpt lat="46.4026" lon="5.33048">
        <ele>249.80000305176</ele>
        <time>2021-10-21T14:15:50.000Z</time>
      </trkpt>
      <trkpt lat="46.40269" lon="5.33063">
        <ele>249.80000305176</ele>
        <time>2021-10-21T14:15:52.000Z</time>
      </trkpt>
      <trkpt lat="46.403" lon="5.33106">
        <ele>250.39999389648</ele>
        <time>2021-10-21T14:15:58.000Z</time>
      </trkpt>
      <trkpt lat="46.4032" lon="5.33137">
        <ele>250.39999389648</ele>
        <time>2021-10-21T14:16:02.000Z</time>
      </trkpt>
      <trkpt lat="46.40354" lon="5.33185">
        <ele>250</ele>
        <time>2021-10-21T14:16:08.000Z</time>
      </trkpt>
      <trkpt lat="46.40378" lon="5.33218">
        <ele>249.39999389648</ele>
        <time>2021-10-21T14:16:12.000Z</time>
      </trkpt>
      <trkpt lat="46.40397" lon="5.33242">
        <ele>248.80000305176</ele>
        <time>2021-10-21T14:16:15.000Z</time>
      </trkpt>
      <trkpt lat="46.4041" lon="5.33257">
        <ele>248.39999389648</ele>
        <time>2021-10-21T14:16:17.000Z</time>
      </trkpt>
      <trkpt lat="46.40439" lon="5.33282">
        <ele>247.60000610352</ele>
        <time>2021-10-21T14:16:21.000Z</time>
      </trkpt>
      <trkpt lat="46.40455" lon="5.33292">
        <ele>247.19999694824</ele>
        <time>2021-10-21T14:16:23.000Z</time>
      </trkpt>
      <trkpt lat="46.40478" lon="5.33303">
        <ele>246.80000305176</ele>
        <time>2021-10-21T14:16:26.000Z</time>
      </trkpt>
      <trkpt lat="46.40493" lon="5.33311">
        <ele>246.80000305176</ele>
        <time>2021-10-21T14:16:28.000Z</time>
      </trkpt>
      <trkpt lat="46.40506" lon="5.33324">
        <ele>246.60000610352</ele>
        <time>2021-10-21T14:16:30.000Z</time>
      </trkpt>
      <trkpt lat="46.40518" lon="5.33338">
        <ele>246.80000305176</ele>
        <time>2021-10-21T14:16:32.000Z</time>
      </trkpt>
      <trkpt lat="46.40537" lon="5.33353">
        <ele>247.19999694824</ele>
        <time>2021-10-21T14:16:35.000Z</time>
      </trkpt>
      <trkpt lat="46.40568" lon="5.33371">
        <ele>248.60000610352</ele>
        <time>2021-10-21T14:16:40.000Z</time>
      </trkpt>
      <trkpt lat="46.40573" lon="5.33374">
        <ele>248.80000305176</ele>
        <time>2021-10-21T14:16:41.000Z</time>
      </trkpt>
      <trkpt lat="46.40596" lon="5.33388">
        <ele>249.60000610352</ele>
        <time>2021-10-21T14:16:45.000Z</time>
      </trkpt>
      <trkpt lat="46.40613" lon="5.33398">
        <ele>250</ele>
        <time>2021-10-21T14:16:48.000Z</time>
      </trkpt>
      <trkpt lat="46.40622" lon="5.33403">
        <ele>250.39999389648</ele>
        <time>2021-10-21T14:16:50.000Z</time>
      </trkpt>
      <trkpt lat="46.40642" lon="5.33417">
        <ele>251.80000305176</ele>
        <time>2021-10-21T14:16:54.000Z</time>
      </trkpt>
      <trkpt lat="46.40652" lon="5.33424">
        <ele>252.39999389648</ele>
        <time>2021-10-21T14:16:56.000Z</time>
      </trkpt>
      <trkpt lat="46.40662" lon="5.33431">
        <ele>253</ele>
        <time>2021-10-21T14:16:58.000Z</time>
      </trkpt>
      <trkpt lat="46.40682" lon="5.33444">
        <ele>254.19999694824</ele>
        <time>2021-10-21T14:17:02.000Z</time>
      </trkpt>
      <trkpt lat="46.40697" lon="5.33455">
        <ele>254.60000610352</ele>
        <time>2021-10-21T14:17:05.000Z</time>
      </trkpt>
      <trkpt lat="46.40707" lon="5.33461">
        <ele>255.19999694824</ele>
        <time>2021-10-21T14:17:07.000Z</time>
      </trkpt>
      <trkpt lat="46.40731" lon="5.33473">
        <ele>256.39999389648</ele>
        <time>2021-10-21T14:17:11.000Z</time>
      </trkpt>
      <trkpt lat="46.40736" lon="5.33476">
        <ele>256.60000610352</ele>
        <time>2021-10-21T14:17:12.000Z</time>
      </trkpt>
      <trkpt lat="46.40765" lon="5.3349">
        <ele>257.60000610352</ele>
        <time>2021-10-21T14:17:17.000Z</time>
      </trkpt>
      <trkpt lat="46.40787" lon="5.33499">
        <ele>258.20001220703</ele>
        <time>2021-10-21T14:17:21.000Z</time>
      </trkpt>
      <trkpt lat="46.40798" lon="5.33501">
        <ele>258.60000610352</ele>
        <time>2021-10-21T14:17:23.000Z</time>
      </trkpt>
      <trkpt lat="46.40826" lon="5.33508">
        <ele>259.79998779297</ele>
        <time>2021-10-21T14:17:28.000Z</time>
      </trkpt>
      <trkpt lat="46.40831" lon="5.3351">
        <ele>259.79998779297</ele>
        <time>2021-10-21T14:17:29.000Z</time>
      </trkpt>
      <trkpt lat="46.40852" lon="5.33516">
        <ele>260.79998779297</ele>
        <time>2021-10-21T14:17:33.000Z</time>
      </trkpt>
      <trkpt lat="46.40884" lon="5.33524">
        <ele>262</ele>
        <time>2021-10-21T14:17:39.000Z</time>
      </trkpt>
      <trkpt lat="46.4091" lon="5.33532">
        <ele>263</ele>
        <time>2021-10-21T14:17:44.000Z</time>
      </trkpt>
      <trkpt lat="46.40938" lon="5.33539">
        <ele>263.79998779297</ele>
        <time>2021-10-21T14:17:49.000Z</time>
      </trkpt>
      <trkpt lat="46.40951" lon="5.33543">
        <ele>264</ele>
        <time>2021-10-21T14:17:51.000Z</time>
      </trkpt>
      <trkpt lat="46.4098" lon="5.33551">
        <ele>264</ele>
        <time>2021-10-21T14:17:55.000Z</time>
      </trkpt>
      <trkpt lat="46.41029" lon="5.33564">
        <ele>263.60000610352</ele>
        <time>2021-10-21T14:18:01.000Z</time>
      </trkpt>
      <trkpt lat="46.41048" lon="5.3357">
        <ele>262.79998779297</ele>
        <time>2021-10-21T14:18:03.000Z</time>
      </trkpt>
      <trkpt lat="46.41086" lon="5.33587">
        <ele>262</ele>
        <time>2021-10-21T14:18:07.000Z</time>
      </trkpt>
      <trkpt lat="46.41095" lon="5.33592">
        <ele>261.79998779297</ele>
        <time>2021-10-21T14:18:08.000Z</time>
      </trkpt>
      <trkpt lat="46.41135" lon="5.33619">
        <ele>260.39999389648</ele>
        <time>2021-10-21T14:18:12.000Z</time>
      </trkpt>
      <trkpt lat="46.41184" lon="5.33663">
        <ele>259.79998779297</ele>
        <time>2021-10-21T14:18:18.000Z</time>
      </trkpt>
      <trkpt lat="46.412" lon="5.33678">
        <ele>259.39999389648</ele>
        <time>2021-10-21T14:18:20.000Z</time>
      </trkpt>
      <trkpt lat="46.41223" lon="5.33698">
        <ele>259.39999389648</ele>
        <time>2021-10-21T14:18:23.000Z</time>
      </trkpt>
      <trkpt lat="46.41273" lon="5.33747">
        <ele>260</ele>
        <time>2021-10-21T14:18:30.000Z</time>
      </trkpt>
      <trkpt lat="46.41285" lon="5.33759">
        <ele>260.20001220703</ele>
        <time>2021-10-21T14:18:32.000Z</time>
      </trkpt>
      <trkpt lat="46.41291" lon="5.33767">
        <ele>260.39999389648</ele>
        <time>2021-10-21T14:18:33.000Z</time>
      </trkpt>
      <trkpt lat="46.41303" lon="5.33781">
        <ele>260.79998779297</ele>
        <time>2021-10-21T14:18:35.000Z</time>
      </trkpt>
      <trkpt lat="46.41325" lon="5.33798">
        <ele>261.39999389648</ele>
        <time>2021-10-21T14:18:38.000Z</time>
      </trkpt>
      <trkpt lat="46.41339" lon="5.33805">
        <ele>261.60000610352</ele>
        <time>2021-10-21T14:18:40.000Z</time>
      </trkpt>
      <trkpt lat="46.41359" lon="5.3381">
        <ele>262.79998779297</ele>
        <time>2021-10-21T14:18:43.000Z</time>
      </trkpt>
      <trkpt lat="46.41388" lon="5.33817">
        <ele>264</ele>
        <time>2021-10-21T14:18:47.000Z</time>
      </trkpt>
      <trkpt lat="46.41395" lon="5.3382">
        <ele>264.39999389648</ele>
        <time>2021-10-21T14:18:48.000Z</time>
      </trkpt>
      <trkpt lat="46.41416" lon="5.33828">
        <ele>265.20001220703</ele>
        <time>2021-10-21T14:18:51.000Z</time>
      </trkpt>
      <trkpt lat="46.41438" lon="5.33833">
        <ele>266</ele>
        <time>2021-10-21T14:18:54.000Z</time>
      </trkpt>
      <trkpt lat="46.41445" lon="5.33835">
        <ele>266.39999389648</ele>
        <time>2021-10-21T14:18:55.000Z</time>
      </trkpt>
      <trkpt lat="46.41472" lon="5.33849">
        <ele>267.39999389648</ele>
        <time>2021-10-21T14:18:59.000Z</time>
      </trkpt>
      <trkpt lat="46.41477" lon="5.33853">
        <ele>267.79998779297</ele>
        <time>2021-10-21T14:19:00.000Z</time>
      </trkpt>
      <trkpt lat="46.41496" lon="5.33867">
        <ele>268.60000610352</ele>
        <time>2021-10-21T14:19:03.000Z</time>
      </trkpt>
      <trkpt lat="46.41509" lon="5.33874">
        <ele>269.60000610352</ele>
        <time>2021-10-21T14:19:05.000Z</time>
      </trkpt>
      <trkpt lat="46.41518" lon="5.33877">
        <ele>269.79998779297</ele>
        <time>2021-10-21T14:19:06.000Z</time>
      </trkpt>
      <trkpt lat="46.41538" lon="5.3388">
        <ele>270.79998779297</ele>
        <time>2021-10-21T14:19:09.000Z</time>
      </trkpt>
      <trkpt lat="46.41564" lon="5.33885">
        <ele>271.60000610352</ele>
        <time>2021-10-21T14:19:13.000Z</time>
      </trkpt>
      <trkpt lat="46.41569" lon="5.33885">
        <ele>272</ele>
        <time>2021-10-21T14:19:14.000Z</time>
      </trkpt>
      <trkpt lat="46.41594" lon="5.33888">
        <ele>273</ele>
        <time>2021-10-21T14:19:18.000Z</time>
      </trkpt>
      <trkpt lat="46.41605" lon="5.33888">
        <ele>273</ele>
        <time>2021-10-21T14:19:20.000Z</time>
      </trkpt>
      <trkpt lat="46.4164" lon="5.3388">
        <ele>273.20001220703</ele>
        <time>2021-10-21T14:19:25.000Z</time>
      </trkpt>
      <trkpt lat="46.41675" lon="5.3388">
        <ele>272.60000610352</ele>
        <time>2021-10-21T14:19:30.000Z</time>
      </trkpt>
      <trkpt lat="46.4169" lon="5.33878">
        <ele>272.20001220703</ele>
        <time>2021-10-21T14:19:32.000Z</time>
      </trkpt>
      <trkpt lat="46.41709" lon="5.33873">
        <ele>272</ele>
        <time>2021-10-21T14:19:34.000Z</time>
      </trkpt>
      <trkpt lat="46.41734" lon="5.33865">
        <ele>271.20001220703</ele>
        <time>2021-10-21T14:19:37.000Z</time>
      </trkpt>
      <trkpt lat="46.41754" lon="5.33861">
        <ele>270.60000610352</ele>
        <time>2021-10-21T14:19:39.000Z</time>
      </trkpt>
      <trkpt lat="46.41767" lon="5.33862">
        <ele>270.20001220703</ele>
        <time>2021-10-21T14:19:40.000Z</time>
      </trkpt>
      <trkpt lat="46.41786" lon="5.33869">
        <ele>268.60000610352</ele>
        <time>2021-10-21T14:19:42.000Z</time>
      </trkpt>
      <trkpt lat="46.41811" lon="5.33877">
        <ele>267.39999389648</ele>
        <time>2021-10-21T14:19:44.000Z</time>
      </trkpt>
      <trkpt lat="46.41821" lon="5.33879">
        <ele>267</ele>
        <time>2021-10-21T14:19:45.000Z</time>
      </trkpt>
      <trkpt lat="46.41833" lon="5.33881">
        <ele>265.79998779297</ele>
        <time>2021-10-21T14:19:46.000Z</time>
      </trkpt>
      <trkpt lat="46.41857" lon="5.33883">
        <ele>264.79998779297</ele>
        <time>2021-10-21T14:19:48.000Z</time>
      </trkpt>
      <trkpt lat="46.41884" lon="5.33882">
        <ele>263</ele>
        <time>2021-10-21T14:19:50.000Z</time>
      </trkpt>
      <trkpt lat="46.41894" lon="5.3388">
        <ele>261.79998779297</ele>
        <time>2021-10-21T14:19:51.000Z</time>
      </trkpt>
      <trkpt lat="46.4193" lon="5.33874">
        <ele>260.60000610352</ele>
        <time>2021-10-21T14:19:54.000Z</time>
      </trkpt>
      <trkpt lat="46.41938" lon="5.33873">
        <ele>260.20001220703</ele>
        <time>2021-10-21T14:19:55.000Z</time>
      </trkpt>
      <trkpt lat="46.4197" lon="5.3388">
        <ele>260</ele>
        <time>2021-10-21T14:19:58.000Z</time>
      </trkpt>
      <trkpt lat="46.41999" lon="5.33897">
        <ele>260.20001220703</ele>
        <time>2021-10-21T14:20:01.000Z</time>
      </trkpt>
      <trkpt lat="46.42011" lon="5.33902">
        <ele>261</ele>
        <time>2021-10-21T14:20:02.000Z</time>
      </trkpt>
      <trkpt lat="46.42019" lon="5.33904">
        <ele>261.20001220703</ele>
        <time>2021-10-21T14:20:03.000Z</time>
      </trkpt>
      <trkpt lat="46.42029" lon="5.33904">
        <ele>262.20001220703</ele>
        <time>2021-10-21T14:20:04.000Z</time>
      </trkpt>
      <trkpt lat="46.42039" lon="5.33904">
        <ele>262.60000610352</ele>
        <time>2021-10-21T14:20:05.000Z</time>
      </trkpt>
      <trkpt lat="46.42049" lon="5.33904">
        <ele>263.39999389648</ele>
        <time>2021-10-21T14:20:06.000Z</time>
      </trkpt>
      <trkpt lat="46.42072" lon="5.33903">
        <ele>264</ele>
        <time>2021-10-21T14:20:08.000Z</time>
      </trkpt>
      <trkpt lat="46.4208" lon="5.33903">
        <ele>264.60000610352</ele>
        <time>2021-10-21T14:20:09.000Z</time>
      </trkpt>
      <trkpt lat="46.4209" lon="5.33905">
        <ele>264.79998779297</ele>
        <time>2021-10-21T14:20:10.000Z</time>
      </trkpt>
      <trkpt lat="46.42111" lon="5.33915">
        <ele>265.60000610352</ele>
        <time>2021-10-21T14:20:12.000Z</time>
      </trkpt>
      <trkpt lat="46.4216" lon="5.33938">
        <ele>266.60000610352</ele>
        <time>2021-10-21T14:20:18.000Z</time>
      </trkpt>
      <trkpt lat="46.42169" lon="5.3394">
        <ele>266.60000610352</ele>
        <time>2021-10-21T14:20:19.000Z</time>
      </trkpt>
      <trkpt lat="46.4219" lon="5.33937">
        <ele>266.39999389648</ele>
        <time>2021-10-21T14:20:21.000Z</time>
      </trkpt>
      <trkpt lat="46.42205" lon="5.33924">
        <ele>266</ele>
        <time>2021-10-21T14:20:23.000Z</time>
      </trkpt>
      <trkpt lat="46.42213" lon="5.33913">
        <ele>265.79998779297</ele>
        <time>2021-10-21T14:20:24.000Z</time>
      </trkpt>
      <trkpt lat="46.42233" lon="5.33876">
        <ele>264.39999389648</ele>
        <time>2021-10-21T14:20:27.000Z</time>
      </trkpt>
      <trkpt lat="46.42244" lon="5.33854">
        <ele>263.79998779297</ele>
        <time>2021-10-21T14:20:29.000Z</time>
      </trkpt>
      <trkpt lat="46.4225" lon="5.33841">
        <ele>263.39999389648</ele>
        <time>2021-10-21T14:20:30.000Z</time>
      </trkpt>
      <trkpt lat="46.42267" lon="5.33804">
        <ele>262.20001220703</ele>
        <time>2021-10-21T14:20:33.000Z</time>
      </trkpt>
      <trkpt lat="46.42285" lon="5.3377">
        <ele>261.20001220703</ele>
        <time>2021-10-21T14:20:36.000Z</time>
      </trkpt>
      <trkpt lat="46.42291" lon="5.33759">
        <ele>260.60000610352</ele>
        <time>2021-10-21T14:20:37.000Z</time>
      </trkpt>
      <trkpt lat="46.42297" lon="5.33749">
        <ele>260.39999389648</ele>
        <time>2021-10-21T14:20:38.000Z</time>
      </trkpt>
      <trkpt lat="46.42304" lon="5.33739">
        <ele>259.79998779297</ele>
        <time>2021-10-21T14:20:39.000Z</time>
      </trkpt>
      <trkpt lat="46.42321" lon="5.33719">
        <ele>258.79998779297</ele>
        <time>2021-10-21T14:20:41.000Z</time>
      </trkpt>
      <trkpt lat="46.42349" lon="5.33698">
        <ele>257.20001220703</ele>
        <time>2021-10-21T14:20:44.000Z</time>
      </trkpt>
      <trkpt lat="46.42357" lon="5.33692">
        <ele>256.79998779297</ele>
        <time>2021-10-21T14:20:45.000Z</time>
      </trkpt>
      <trkpt lat="46.42367" lon="5.33686">
        <ele>255.80000305176</ele>
        <time>2021-10-21T14:20:46.000Z</time>
      </trkpt>
      <trkpt lat="46.42378" lon="5.33681">
        <ele>255.19999694824</ele>
        <time>2021-10-21T14:20:47.000Z</time>
      </trkpt>
      <trkpt lat="46.42391" lon="5.33679">
        <ele>254.60000610352</ele>
        <time>2021-10-21T14:20:48.000Z</time>
      </trkpt>
      <trkpt lat="46.424" lon="5.3368">
        <ele>254.39999389648</ele>
        <time>2021-10-21T14:20:49.000Z</time>
      </trkpt>
      <trkpt lat="46.42421" lon="5.33689">
        <ele>253.60000610352</ele>
        <time>2021-10-21T14:20:51.000Z</time>
      </trkpt>
      <trkpt lat="46.42432" lon="5.33695">
        <ele>253.19999694824</ele>
        <time>2021-10-21T14:20:52.000Z</time>
      </trkpt>
      <trkpt lat="46.42451" lon="5.33709">
        <ele>252</ele>
        <time>2021-10-21T14:20:54.000Z</time>
      </trkpt>
      <trkpt lat="46.42469" lon="5.33724">
        <ele>251</ele>
        <time>2021-10-21T14:20:56.000Z</time>
      </trkpt>
      <trkpt lat="46.4248" lon="5.33733">
        <ele>250.60000610352</ele>
        <time>2021-10-21T14:20:57.000Z</time>
      </trkpt>
      <trkpt lat="46.42515" lon="5.3376">
        <ele>249.60000610352</ele>
        <time>2021-10-21T14:21:01.000Z</time>
      </trkpt>
      <trkpt lat="46.42525" lon="5.33766">
        <ele>249.39999389648</ele>
        <time>2021-10-21T14:21:02.000Z</time>
      </trkpt>
      <trkpt lat="46.42568" lon="5.33793">
        <ele>248.19999694824</ele>
        <time>2021-10-21T14:21:06.000Z</time>
      </trkpt>
      <trkpt lat="46.42579" lon="5.33798">
        <ele>247.39999389648</ele>
        <time>2021-10-21T14:21:07.000Z</time>
      </trkpt>
      <trkpt lat="46.4259" lon="5.33802">
        <ele>247</ele>
        <time>2021-10-21T14:21:08.000Z</time>
      </trkpt>
      <trkpt lat="46.42604" lon="5.33804">
        <ele>246</ele>
        <time>2021-10-21T14:21:09.000Z</time>
      </trkpt>
      <trkpt lat="46.42613" lon="5.33804">
        <ele>245.60000610352</ele>
        <time>2021-10-21T14:21:10.000Z</time>
      </trkpt>
      <trkpt lat="46.42627" lon="5.33803">
        <ele>245</ele>
        <time>2021-10-21T14:21:11.000Z</time>
      </trkpt>
      <trkpt lat="46.42669" lon="5.33797">
        <ele>243.60000610352</ele>
        <time>2021-10-21T14:21:15.000Z</time>
      </trkpt>
      <trkpt lat="46.42723" lon="5.33802">
        <ele>242.60000610352</ele>
        <time>2021-10-21T14:21:20.000Z</time>
      </trkpt>
      <trkpt lat="46.42743" lon="5.33812">
        <ele>241.39999389648</ele>
        <time>2021-10-21T14:21:22.000Z</time>
      </trkpt>
      <trkpt lat="46.42763" lon="5.33824">
        <ele>240.80000305176</ele>
        <time>2021-10-21T14:21:24.000Z</time>
      </trkpt>
      <trkpt lat="46.42774" lon="5.33828">
        <ele>240.19999694824</ele>
        <time>2021-10-21T14:21:25.000Z</time>
      </trkpt>
      <trkpt lat="46.42808" lon="5.33836">
        <ele>239.80000305176</ele>
        <time>2021-10-21T14:21:28.000Z</time>
      </trkpt>
      <trkpt lat="46.42832" lon="5.33838">
        <ele>238.60000610352</ele>
        <time>2021-10-21T14:21:30.000Z</time>
      </trkpt>
      <trkpt lat="46.42865" lon="5.3384">
        <ele>237.60000610352</ele>
        <time>2021-10-21T14:21:33.000Z</time>
      </trkpt>
      <trkpt lat="46.42886" lon="5.33841">
        <ele>236.39999389648</ele>
        <time>2021-10-21T14:21:35.000Z</time>
      </trkpt>
      <trkpt lat="46.42925" lon="5.33849">
        <ele>235.60000610352</ele>
        <time>2021-10-21T14:21:39.000Z</time>
      </trkpt>
      <trkpt lat="46.42934" lon="5.33852">
        <ele>235.60000610352</ele>
        <time>2021-10-21T14:21:40.000Z</time>
      </trkpt>
      <trkpt lat="46.42985" lon="5.33885">
        <ele>236</ele>
        <time>2021-10-21T14:21:46.000Z</time>
      </trkpt>
      <trkpt lat="46.43032" lon="5.33923">
        <ele>237</ele>
        <time>2021-10-21T14:21:52.000Z</time>
      </trkpt>
      <trkpt lat="46.43046" lon="5.33937">
        <ele>237</ele>
        <time>2021-10-21T14:21:54.000Z</time>
      </trkpt>
      <trkpt lat="46.43094" lon="5.33985">
        <ele>237.19999694824</ele>
        <time>2021-10-21T14:22:01.000Z</time>
      </trkpt>
      <trkpt lat="46.43101" lon="5.33991">
        <ele>237</ele>
        <time>2021-10-21T14:22:02.000Z</time>
      </trkpt>
      <trkpt lat="46.43106" lon="5.33997">
        <ele>237</ele>
        <time>2021-10-21T14:22:03.000Z</time>
      </trkpt>
      <trkpt lat="46.43123" lon="5.34018">
        <ele>237.19999694824</ele>
        <time>2021-10-21T14:22:06.000Z</time>
      </trkpt>
      <trkpt lat="46.43151" lon="5.34065">
        <ele>237</ele>
        <time>2021-10-21T14:22:12.000Z</time>
      </trkpt>
      <trkpt lat="46.43172" lon="5.34096">
        <ele>236.39999389648</ele>
        <time>2021-10-21T14:22:16.000Z</time>
      </trkpt>
      <trkpt lat="46.43209" lon="5.34143">
        <ele>235.39999389648</ele>
        <time>2021-10-21T14:22:22.000Z</time>
      </trkpt>
      <trkpt lat="46.43242" lon="5.34173">
        <ele>235.19999694824</ele>
        <time>2021-10-21T14:22:27.000Z</time>
      </trkpt>
      <trkpt lat="46.43285" lon="5.34209">
        <ele>235.39999389648</ele>
        <time>2021-10-21T14:22:34.000Z</time>
      </trkpt>
      <trkpt lat="46.43296" lon="5.34217">
        <ele>235.60000610352</ele>
        <time>2021-10-21T14:22:36.000Z</time>
      </trkpt>
      <trkpt lat="46.43306" lon="5.34225">
        <ele>235.80000305176</ele>
        <time>2021-10-21T14:22:38.000Z</time>
      </trkpt>
      <trkpt lat="46.43316" lon="5.34232">
        <ele>236</ele>
        <time>2021-10-21T14:22:40.000Z</time>
      </trkpt>
      <trkpt lat="46.43334" lon="5.34241">
        <ele>236.60000610352</ele>
        <time>2021-10-21T14:22:43.000Z</time>
      </trkpt>
      <trkpt lat="46.4334" lon="5.34243">
        <ele>236.80000305176</ele>
        <time>2021-10-21T14:22:44.000Z</time>
      </trkpt>
      <trkpt lat="46.43357" lon="5.3425">
        <ele>238.19999694824</ele>
        <time>2021-10-21T14:22:47.000Z</time>
      </trkpt>
      <trkpt lat="46.43369" lon="5.34254">
        <ele>238.60000610352</ele>
        <time>2021-10-21T14:22:49.000Z</time>
      </trkpt>
      <trkpt lat="46.43375" lon="5.34255">
        <ele>239</ele>
        <time>2021-10-21T14:22:50.000Z</time>
      </trkpt>
      <trkpt lat="46.43378" lon="5.34256">
        <ele>239.19999694824</ele>
        <time>2021-10-21T14:22:51.000Z</time>
      </trkpt>
      <trkpt lat="46.43383" lon="5.34258">
        <ele>239.19999694824</ele>
        <time>2021-10-21T14:22:52.000Z</time>
      </trkpt>
      <trkpt lat="46.43388" lon="5.34261">
        <ele>239.39999389648</ele>
        <time>2021-10-21T14:22:53.000Z</time>
      </trkpt>
      <trkpt lat="46.43393" lon="5.34262">
        <ele>239.80000305176</ele>
        <time>2021-10-21T14:22:54.000Z</time>
      </trkpt>
      <trkpt lat="46.43397" lon="5.34264">
        <ele>240.39999389648</ele>
        <time>2021-10-21T14:22:55.000Z</time>
      </trkpt>
      <trkpt lat="46.43402" lon="5.34265">
        <ele>240.60000610352</ele>
        <time>2021-10-21T14:22:56.000Z</time>
      </trkpt>
      <trkpt lat="46.43411" lon="5.34266">
        <ele>241.60000610352</ele>
        <time>2021-10-21T14:22:58.000Z</time>
      </trkpt>
      <trkpt lat="46.43423" lon="5.34269">
        <ele>242.60000610352</ele>
        <time>2021-10-21T14:23:01.000Z</time>
      </trkpt>
      <trkpt lat="46.43435" lon="5.34272">
        <ele>244.19999694824</ele>
        <time>2021-10-21T14:23:04.000Z</time>
      </trkpt>
      <trkpt lat="46.43442" lon="5.34272">
        <ele>245.19999694824</ele>
        <time>2021-10-21T14:23:06.000Z</time>
      </trkpt>
      <trkpt lat="46.43444" lon="5.3427">
        <ele>245.39999389648</ele>
        <time>2021-10-21T14:23:07.000Z</time>
      </trkpt>
      <trkpt lat="46.43447" lon="5.3426">
        <ele>246.39999389648</ele>
        <time>2021-10-21T14:23:09.000Z</time>
      </trkpt>
      <trkpt lat="46.43447" lon="5.34249">
        <ele>247.80000305176</ele>
        <time>2021-10-21T14:23:11.000Z</time>
      </trkpt>
      <trkpt lat="46.43448" lon="5.34243">
        <ele>248</ele>
        <time>2021-10-21T14:23:12.000Z</time>
      </trkpt>
      <trkpt lat="46.43452" lon="5.34226">
        <ele>248.39999389648</ele>
        <time>2021-10-21T14:23:14.000Z</time>
      </trkpt>
      <trkpt lat="46.43453" lon="5.34219">
        <ele>248.39999389648</ele>
        <time>2021-10-21T14:23:15.000Z</time>
      </trkpt>
      <trkpt lat="46.43464" lon="5.34159">
        <ele>248.60000610352</ele>
        <time>2021-10-21T14:23:21.000Z</time>
      </trkpt>
      <trkpt lat="46.43471" lon="5.3409">
        <ele>248.39999389648</ele>
        <time>2021-10-21T14:23:27.000Z</time>
      </trkpt>
      <trkpt lat="46.4348" lon="5.34009">
        <ele>247.60000610352</ele>
        <time>2021-10-21T14:23:34.000Z</time>
      </trkpt>
      <trkpt lat="46.43486" lon="5.3395">
        <ele>246.80000305176</ele>
        <time>2021-10-21T14:23:39.000Z</time>
      </trkpt>
      <trkpt lat="46.43489" lon="5.33898">
        <ele>245.60000610352</ele>
        <time>2021-10-21T14:23:43.000Z</time>
      </trkpt>
      <trkpt lat="46.4349" lon="5.33885">
        <ele>245.39999389648</ele>
        <time>2021-10-21T14:23:44.000Z</time>
      </trkpt>
      <trkpt lat="46.43493" lon="5.33848">
        <ele>244.19999694824</ele>
        <time>2021-10-21T14:23:47.000Z</time>
      </trkpt>
      <trkpt lat="46.43497" lon="5.33823">
        <ele>243.19999694824</ele>
        <time>2021-10-21T14:23:49.000Z</time>
      </trkpt>
      <trkpt lat="46.43499" lon="5.3381">
        <ele>242.19999694824</ele>
        <time>2021-10-21T14:23:50.000Z</time>
      </trkpt>
      <trkpt lat="46.43502" lon="5.33785">
        <ele>240.80000305176</ele>
        <time>2021-10-21T14:23:52.000Z</time>
      </trkpt>
      <trkpt lat="46.43504" lon="5.33775">
        <ele>240.19999694824</ele>
        <time>2021-10-21T14:23:53.000Z</time>
      </trkpt>
      <trkpt lat="46.43507" lon="5.33768">
        <ele>239.39999389648</ele>
        <time>2021-10-21T14:23:54.000Z</time>
      </trkpt>
      <trkpt lat="46.43509" lon="5.33756">
        <ele>238.19999694824</ele>
        <time>2021-10-21T14:23:56.000Z</time>
      </trkpt>
      <trkpt lat="46.43507" lon="5.33745">
        <ele>237.39999389648</ele>
        <time>2021-10-21T14:23:58.000Z</time>
      </trkpt>
      <trkpt lat="46.43504" lon="5.33738">
        <ele>237</ele>
        <time>2021-10-21T14:23:59.000Z</time>
      </trkpt>
      <trkpt lat="46.435" lon="5.33731">
        <ele>237</ele>
        <time>2021-10-21T14:24:00.000Z</time>
      </trkpt>
      <trkpt lat="46.4349" lon="5.33714">
        <ele>236.60000610352</ele>
        <time>2021-10-21T14:24:02.000Z</time>
      </trkpt>
      <trkpt lat="46.43484" lon="5.33701">
        <ele>236.39999389648</ele>
        <time>2021-10-21T14:24:03.000Z</time>
      </trkpt>
      <trkpt lat="46.43475" lon="5.33681">
        <ele>235.80000305176</ele>
        <time>2021-10-21T14:24:05.000Z</time>
      </trkpt>
      <trkpt lat="46.43471" lon="5.3367">
        <ele>235.60000610352</ele>
        <time>2021-10-21T14:24:06.000Z</time>
      </trkpt>
      <trkpt lat="46.43467" lon="5.33659">
        <ele>235.60000610352</ele>
        <time>2021-10-21T14:24:07.000Z</time>
      </trkpt>
      <trkpt lat="46.43462" lon="5.33635">
        <ele>234.60000610352</ele>
        <time>2021-10-21T14:24:09.000Z</time>
      </trkpt>
      <trkpt lat="46.4346" lon="5.33609">
        <ele>234.19999694824</ele>
        <time>2021-10-21T14:24:11.000Z</time>
      </trkpt>
      <trkpt lat="46.43459" lon="5.33595">
        <ele>233.80000305176</ele>
        <time>2021-10-21T14:24:12.000Z</time>
      </trkpt>
      <trkpt lat="46.43461" lon="5.33567">
        <ele>233.39999389648</ele>
        <time>2021-10-21T14:24:14.000Z</time>
      </trkpt>
      <trkpt lat="46.43464" lon="5.33554">
        <ele>232.80000305176</ele>
        <time>2021-10-21T14:24:15.000Z</time>
      </trkpt>
      <trkpt lat="46.43468" lon="5.33542">
        <ele>232.80000305176</ele>
        <time>2021-10-21T14:24:16.000Z</time>
      </trkpt>
      <trkpt lat="46.4348" lon="5.33521">
        <ele>231.60000610352</ele>
        <time>2021-10-21T14:24:18.000Z</time>
      </trkpt>
      <trkpt lat="46.43501" lon="5.33491">
        <ele>230.39999389648</ele>
        <time>2021-10-21T14:24:21.000Z</time>
      </trkpt>
      <trkpt lat="46.43521" lon="5.33468">
        <ele>229.60000610352</ele>
        <time>2021-10-21T14:24:24.000Z</time>
      </trkpt>
      <trkpt lat="46.43528" lon="5.3346">
        <ele>229.39999389648</ele>
        <time>2021-10-21T14:24:25.000Z</time>
      </trkpt>
      <trkpt lat="46.43535" lon="5.33454">
        <ele>229</ele>
        <time>2021-10-21T14:24:26.000Z</time>
      </trkpt>
      <trkpt lat="46.43543" lon="5.33449">
        <ele>229</ele>
        <time>2021-10-21T14:24:27.000Z</time>
      </trkpt>
      <trkpt lat="46.4356" lon="5.33448">
        <ele>228.80000305176</ele>
        <time>2021-10-21T14:24:29.000Z</time>
      </trkpt>
      <trkpt lat="46.43568" lon="5.3345">
        <ele>228.80000305176</ele>
        <time>2021-10-21T14:24:30.000Z</time>
      </trkpt>
      <trkpt lat="46.43629" lon="5.33452">
        <ele>229</ele>
        <time>2021-10-21T14:24:37.000Z</time>
      </trkpt>
      <trkpt lat="46.43685" lon="5.33451">
        <ele>228.80000305176</ele>
        <time>2021-10-21T14:24:43.000Z</time>
      </trkpt>
      <trkpt lat="46.43694" lon="5.33451">
        <ele>228.80000305176</ele>
        <time>2021-10-21T14:24:44.000Z</time>
      </trkpt>
      <trkpt lat="46.43756" lon="5.33446">
        <ele>228.19999694824</ele>
        <time>2021-10-21T14:24:51.000Z</time>
      </trkpt>
      <trkpt lat="46.43773" lon="5.33443">
        <ele>228.19999694824</ele>
        <time>2021-10-21T14:24:53.000Z</time>
      </trkpt>
      <trkpt lat="46.43832" lon="5.33438">
        <ele>228.39999389648</ele>
        <time>2021-10-21T14:25:00.000Z</time>
      </trkpt>
      <trkpt lat="46.43881" lon="5.33444">
        <ele>228.39999389648</ele>
        <time>2021-10-21T14:25:06.000Z</time>
      </trkpt>
      <trkpt lat="46.43934" lon="5.33469">
        <ele>228.80000305176</ele>
        <time>2021-10-21T14:25:13.000Z</time>
      </trkpt>
      <trkpt lat="46.43985" lon="5.33502">
        <ele>229</ele>
        <time>2021-10-21T14:25:20.000Z</time>
      </trkpt>
      <trkpt lat="46.43993" lon="5.33506">
        <ele>229</ele>
        <time>2021-10-21T14:25:21.000Z</time>
      </trkpt>
      <trkpt lat="46.44046" lon="5.33527">
        <ele>229.60000610352</ele>
        <time>2021-10-21T14:25:28.000Z</time>
      </trkpt>
      <trkpt lat="46.44053" lon="5.3353">
        <ele>229.60000610352</ele>
        <time>2021-10-21T14:25:29.000Z</time>
      </trkpt>
      <trkpt lat="46.44065" lon="5.33545">
        <ele>229.80000305176</ele>
        <time>2021-10-21T14:25:31.000Z</time>
      </trkpt>
      <trkpt lat="46.44068" lon="5.33554">
        <ele>230</ele>
        <time>2021-10-21T14:25:32.000Z</time>
      </trkpt>
      <trkpt lat="46.44072" lon="5.33575">
        <ele>230</ele>
        <time>2021-10-21T14:25:34.000Z</time>
      </trkpt>
      <trkpt lat="46.44078" lon="5.33595">
        <ele>230.19999694824</ele>
        <time>2021-10-21T14:25:36.000Z</time>
      </trkpt>
      <trkpt lat="46.44082" lon="5.33604">
        <ele>230.19999694824</ele>
        <time>2021-10-21T14:25:37.000Z</time>
      </trkpt>
      <trkpt lat="46.44087" lon="5.33612">
        <ele>230.19999694824</ele>
        <time>2021-10-21T14:25:38.000Z</time>
      </trkpt>
      <trkpt lat="46.44105" lon="5.33635">
        <ele>230.60000610352</ele>
        <time>2021-10-21T14:25:41.000Z</time>
      </trkpt>
      <trkpt lat="46.44142" lon="5.33677">
        <ele>230.80000305176</ele>
        <time>2021-10-21T14:25:47.000Z</time>
      </trkpt>
      <trkpt lat="46.44186" lon="5.33723">
        <ele>231.39999389648</ele>
        <time>2021-10-21T14:25:54.000Z</time>
      </trkpt>
      <trkpt lat="46.44192" lon="5.33729">
        <ele>231.39999389648</ele>
        <time>2021-10-21T14:25:55.000Z</time>
      </trkpt>
      <trkpt lat="46.44239" lon="5.33763">
        <ele>231.80000305176</ele>
        <time>2021-10-21T14:26:02.000Z</time>
      </trkpt>
      <trkpt lat="46.44253" lon="5.33771">
        <ele>231.80000305176</ele>
        <time>2021-10-21T14:26:04.000Z</time>
      </trkpt>
      <trkpt lat="46.44267" lon="5.33771">
        <ele>231.80000305176</ele>
        <time>2021-10-21T14:26:06.000Z</time>
      </trkpt>
      <trkpt lat="46.44279" lon="5.33759">
        <ele>231.80000305176</ele>
        <time>2021-10-21T14:26:08.000Z</time>
      </trkpt>
      <trkpt lat="46.44283" lon="5.3375">
        <ele>231.80000305176</ele>
        <time>2021-10-21T14:26:09.000Z</time>
      </trkpt>
      <trkpt lat="46.44295" lon="5.33724">
        <ele>232</ele>
        <time>2021-10-21T14:26:12.000Z</time>
      </trkpt>
      <trkpt lat="46.44304" lon="5.33707">
        <ele>232</ele>
        <time>2021-10-21T14:26:14.000Z</time>
      </trkpt>
      <trkpt lat="46.44326" lon="5.33667">
        <ele>232.60000610352</ele>
        <time>2021-10-21T14:26:19.000Z</time>
      </trkpt>
      <trkpt lat="46.44333" lon="5.3365">
        <ele>232.80000305176</ele>
        <time>2021-10-21T14:26:21.000Z</time>
      </trkpt>
      <trkpt lat="46.44345" lon="5.33606">
        <ele>233.39999389648</ele>
        <time>2021-10-21T14:26:26.000Z</time>
      </trkpt>
      <trkpt lat="46.44347" lon="5.33588">
        <ele>233.80000305176</ele>
        <time>2021-10-21T14:26:28.000Z</time>
      </trkpt>
      <trkpt lat="46.44348" lon="5.33571">
        <ele>234</ele>
        <time>2021-10-21T14:26:30.000Z</time>
      </trkpt>
      <trkpt lat="46.44347" lon="5.33553">
        <ele>234.19999694824</ele>
        <time>2021-10-21T14:26:32.000Z</time>
      </trkpt>
      <trkpt lat="46.44337" lon="5.33504">
        <ele>234.60000610352</ele>
        <time>2021-10-21T14:26:38.000Z</time>
      </trkpt>
      <trkpt lat="46.44328" lon="5.33482">
        <ele>234.80000305176</ele>
        <time>2021-10-21T14:26:41.000Z</time>
      </trkpt>
      <trkpt lat="46.44317" lon="5.33463">
        <ele>235.19999694824</ele>
        <time>2021-10-21T14:26:44.000Z</time>
      </trkpt>
      <trkpt lat="46.44313" lon="5.33457">
        <ele>235.39999389648</ele>
        <time>2021-10-21T14:26:45.000Z</time>
      </trkpt>
      <trkpt lat="46.443" lon="5.33441">
        <ele>235.80000305176</ele>
        <time>2021-10-21T14:26:48.000Z</time>
      </trkpt>
      <trkpt lat="46.44281" lon="5.33417">
        <ele>237</ele>
        <time>2021-10-21T14:26:53.000Z</time>
      </trkpt>
      <trkpt lat="46.44273" lon="5.33407">
        <ele>237.80000305176</ele>
        <time>2021-10-21T14:26:55.000Z</time>
      </trkpt>
      <trkpt lat="46.44266" lon="5.33398">
        <ele>238.19999694824</ele>
        <time>2021-10-21T14:26:57.000Z</time>
      </trkpt>
      <trkpt lat="46.44237" lon="5.33363">
        <ele>239.39999389648</ele>
        <time>2021-10-21T14:27:05.000Z</time>
      </trkpt>
      <trkpt lat="46.44209" lon="5.33337">
        <ele>240.39999389648</ele>
        <time>2021-10-21T14:27:12.000Z</time>
      </trkpt>
      <trkpt lat="46.44184" lon="5.33315">
        <ele>241.60000610352</ele>
        <time>2021-10-21T14:27:18.000Z</time>
      </trkpt>
      <trkpt lat="46.4417" lon="5.33298">
        <ele>242</ele>
        <time>2021-10-21T14:27:22.000Z</time>
      </trkpt>
      <trkpt lat="46.44164" lon="5.33288">
        <ele>242.19999694824</ele>
        <time>2021-10-21T14:27:24.000Z</time>
      </trkpt>
      <trkpt lat="46.44155" lon="5.33271">
        <ele>242.80000305176</ele>
        <time>2021-10-21T14:27:27.000Z</time>
      </trkpt>
      <trkpt lat="46.44152" lon="5.33264">
        <ele>242.80000305176</ele>
        <time>2021-10-21T14:27:28.000Z</time>
      </trkpt>
      <trkpt lat="46.44151" lon="5.33258">
        <ele>243</ele>
        <time>2021-10-21T14:27:29.000Z</time>
      </trkpt>
      <trkpt lat="46.44151" lon="5.33251">
        <ele>243.39999389648</ele>
        <time>2021-10-21T14:27:30.000Z</time>
      </trkpt>
      <trkpt lat="46.44158" lon="5.33238">
        <ele>243.60000610352</ele>
        <time>2021-10-21T14:27:32.000Z</time>
      </trkpt>
      <trkpt lat="46.44181" lon="5.33218">
        <ele>243.60000610352</ele>
        <time>2021-10-21T14:27:36.000Z</time>
      </trkpt>
      <trkpt lat="46.44217" lon="5.33193">
        <ele>243.19999694824</ele>
        <time>2021-10-21T14:27:41.000Z</time>
      </trkpt>
      <trkpt lat="46.44225" lon="5.3319">
        <ele>243.19999694824</ele>
        <time>2021-10-21T14:27:42.000Z</time>
      </trkpt>
      <trkpt lat="46.44249" lon="5.33186">
        <ele>243</ele>
        <time>2021-10-21T14:27:45.000Z</time>
      </trkpt>
      <trkpt lat="46.44288" lon="5.33185">
        <ele>241.80000305176</ele>
        <time>2021-10-21T14:27:50.000Z</time>
      </trkpt>
      <trkpt lat="46.44303" lon="5.33187">
        <ele>241.80000305176</ele>
        <time>2021-10-21T14:27:52.000Z</time>
      </trkpt>
      <trkpt lat="46.44318" lon="5.33192">
        <ele>241.80000305176</ele>
        <time>2021-10-21T14:27:54.000Z</time>
      </trkpt>
      <trkpt lat="46.44331" lon="5.33201">
        <ele>241.80000305176</ele>
        <time>2021-10-21T14:27:56.000Z</time>
      </trkpt>
      <trkpt lat="46.44359" lon="5.33231">
        <ele>242.60000610352</ele>
        <time>2021-10-21T14:28:01.000Z</time>
      </trkpt>
      <trkpt lat="46.44369" lon="5.33242">
        <ele>243</ele>
        <time>2021-10-21T14:28:03.000Z</time>
      </trkpt>
      <trkpt lat="46.44391" lon="5.33265">
        <ele>244</ele>
        <time>2021-10-21T14:28:07.000Z</time>
      </trkpt>
      <trkpt lat="46.44402" lon="5.33278">
        <ele>244.39999389648</ele>
        <time>2021-10-21T14:28:09.000Z</time>
      </trkpt>
      <trkpt lat="46.44431" lon="5.3331">
        <ele>245.19999694824</ele>
        <time>2021-10-21T14:28:14.000Z</time>
      </trkpt>
      <trkpt lat="46.44441" lon="5.33321">
        <ele>245.60000610352</ele>
        <time>2021-10-21T14:28:16.000Z</time>
      </trkpt>
      <trkpt lat="46.44476" lon="5.33362">
        <ele>246</ele>
        <time>2021-10-21T14:28:22.000Z</time>
      </trkpt>
      <trkpt lat="46.44481" lon="5.33371">
        <ele>246</ele>
        <time>2021-10-21T14:28:23.000Z</time>
      </trkpt>
      <trkpt lat="46.44493" lon="5.334">
        <ele>246.19999694824</ele>
        <time>2021-10-21T14:28:26.000Z</time>
      </trkpt>
      <trkpt lat="46.44509" lon="5.33441">
        <ele>246.19999694824</ele>
        <time>2021-10-21T14:28:30.000Z</time>
      </trkpt>
      <trkpt lat="46.44536" lon="5.33512">
        <ele>246.19999694824</ele>
        <time>2021-10-21T14:28:37.000Z</time>
      </trkpt>
      <trkpt lat="46.44539" lon="5.33522">
        <ele>246.19999694824</ele>
        <time>2021-10-21T14:28:38.000Z</time>
      </trkpt>
      <trkpt lat="46.44566" lon="5.33595">
        <ele>246.60000610352</ele>
        <time>2021-10-21T14:28:45.000Z</time>
      </trkpt>
      <trkpt lat="46.44582" lon="5.33636">
        <ele>247</ele>
        <time>2021-10-21T14:28:49.000Z</time>
      </trkpt>
      <trkpt lat="46.44589" lon="5.33656">
        <ele>247.19999694824</ele>
        <time>2021-10-21T14:28:51.000Z</time>
      </trkpt>
      <trkpt lat="46.44602" lon="5.3369">
        <ele>248</ele>
        <time>2021-10-21T14:28:55.000Z</time>
      </trkpt>
      <trkpt lat="46.44608" lon="5.33705">
        <ele>248.60000610352</ele>
        <time>2021-10-21T14:28:57.000Z</time>
      </trkpt>
      <trkpt lat="46.44619" lon="5.33734">
        <ele>249.60000610352</ele>
        <time>2021-10-21T14:29:01.000Z</time>
      </trkpt>
      <trkpt lat="46.44622" lon="5.33741">
        <ele>250.39999389648</ele>
        <time>2021-10-21T14:29:02.000Z</time>
      </trkpt>
      <trkpt lat="46.44627" lon="5.33755">
        <ele>251.19999694824</ele>
        <time>2021-10-21T14:29:04.000Z</time>
      </trkpt>
      <trkpt lat="46.44637" lon="5.33782">
        <ele>252.39999389648</ele>
        <time>2021-10-21T14:29:08.000Z</time>
      </trkpt>
      <trkpt lat="46.44644" lon="5.33802">
        <ele>253.60000610352</ele>
        <time>2021-10-21T14:29:11.000Z</time>
      </trkpt>
      <trkpt lat="46.44654" lon="5.33821">
        <ele>254.80000305176</ele>
        <time>2021-10-21T14:29:14.000Z</time>
      </trkpt>
      <trkpt lat="46.4466" lon="5.33834">
        <ele>255.39999389648</ele>
        <time>2021-10-21T14:29:16.000Z</time>
      </trkpt>
      <trkpt lat="46.44669" lon="5.33844">
        <ele>255.80000305176</ele>
        <time>2021-10-21T14:29:18.000Z</time>
      </trkpt>
      <trkpt lat="46.44685" lon="5.33856">
        <ele>256.39999389648</ele>
        <time>2021-10-21T14:29:21.000Z</time>
      </trkpt>
      <trkpt lat="46.44691" lon="5.33858">
        <ele>256.60000610352</ele>
        <time>2021-10-21T14:29:22.000Z</time>
      </trkpt>
      <trkpt lat="46.44721" lon="5.33872">
        <ele>257</ele>
        <time>2021-10-21T14:29:27.000Z</time>
      </trkpt>
      <trkpt lat="46.44733" lon="5.33877">
        <ele>257.20001220703</ele>
        <time>2021-10-21T14:29:29.000Z</time>
      </trkpt>
      <trkpt lat="46.44756" lon="5.33887">
        <ele>257.60000610352</ele>
        <time>2021-10-21T14:29:33.000Z</time>
      </trkpt>
      <trkpt lat="46.44765" lon="5.33898">
        <ele>257.60000610352</ele>
        <time>2021-10-21T14:29:35.000Z</time>
      </trkpt>
      <trkpt lat="46.44768" lon="5.33914">
        <ele>257.79998779297</ele>
        <time>2021-10-21T14:29:37.000Z</time>
      </trkpt>
      <trkpt lat="46.44769" lon="5.33922">
        <ele>258</ele>
        <time>2021-10-21T14:29:38.000Z</time>
      </trkpt>
      <trkpt lat="46.44769" lon="5.3393">
        <ele>258</ele>
        <time>2021-10-21T14:29:39.000Z</time>
      </trkpt>
      <trkpt lat="46.44772" lon="5.33955">
        <ele>259</ele>
        <time>2021-10-21T14:29:42.000Z</time>
      </trkpt>
      <trkpt lat="46.44773" lon="5.33963">
        <ele>259.39999389648</ele>
        <time>2021-10-21T14:29:43.000Z</time>
      </trkpt>
      <trkpt lat="46.44781" lon="5.34021">
        <ele>259.79998779297</ele>
        <time>2021-10-21T14:29:49.000Z</time>
      </trkpt>
      <trkpt lat="46.44792" lon="5.34095">
        <ele>257.79998779297</ele>
        <time>2021-10-21T14:29:55.000Z</time>
      </trkpt>
      <trkpt lat="46.44797" lon="5.34128">
        <ele>256.60000610352</ele>
        <time>2021-10-21T14:29:58.000Z</time>
      </trkpt>
      <trkpt lat="46.448" lon="5.34134">
        <ele>255.80000305176</ele>
        <time>2021-10-21T14:29:59.000Z</time>
      </trkpt>
      <trkpt lat="46.44806" lon="5.34136">
        <ele>255.60000610352</ele>
        <time>2021-10-21T14:30:00.000Z</time>
      </trkpt>
      <trkpt lat="46.44811" lon="5.34135">
        <ele>254.60000610352</ele>
        <time>2021-10-21T14:30:01.000Z</time>
      </trkpt>
      <trkpt lat="46.44817" lon="5.34131">
        <ele>254</ele>
        <time>2021-10-21T14:30:02.000Z</time>
      </trkpt>
      <trkpt lat="46.44838" lon="5.34109">
        <ele>253</ele>
        <time>2021-10-21T14:30:06.000Z</time>
      </trkpt>
      <trkpt lat="46.44843" lon="5.34104">
        <ele>253</ele>
        <time>2021-10-21T14:30:07.000Z</time>
      </trkpt>
      <trkpt lat="46.44849" lon="5.34101">
        <ele>253</ele>
        <time>2021-10-21T14:30:08.000Z</time>
      </trkpt>
      <trkpt lat="46.44868" lon="5.34096">
        <ele>253</ele>
        <time>2021-10-21T14:30:11.000Z</time>
      </trkpt>
      <trkpt lat="46.44881" lon="5.34094">
        <ele>253.19999694824</ele>
        <time>2021-10-21T14:30:13.000Z</time>
      </trkpt>
      <trkpt lat="46.44899" lon="5.34095">
        <ele>254.19999694824</ele>
        <time>2021-10-21T14:30:16.000Z</time>
      </trkpt>
      <trkpt lat="46.44904" lon="5.34097">
        <ele>254.60000610352</ele>
        <time>2021-10-21T14:30:17.000Z</time>
      </trkpt>
      <trkpt lat="46.44921" lon="5.34101">
        <ele>255.60000610352</ele>
        <time>2021-10-21T14:30:20.000Z</time>
      </trkpt>
      <trkpt lat="46.44943" lon="5.34107">
        <ele>256.79998779297</ele>
        <time>2021-10-21T14:30:24.000Z</time>
      </trkpt>
      <trkpt lat="46.44959" lon="5.34112">
        <ele>257.20001220703</ele>
        <time>2021-10-21T14:30:27.000Z</time>
      </trkpt>
      <trkpt lat="46.4499" lon="5.3412">
        <ele>258.20001220703</ele>
        <time>2021-10-21T14:30:33.000Z</time>
      </trkpt>
      <trkpt lat="46.44995" lon="5.34121">
        <ele>258.60000610352</ele>
        <time>2021-10-21T14:30:34.000Z</time>
      </trkpt>
      <trkpt lat="46.45011" lon="5.34124">
        <ele>259.39999389648</ele>
        <time>2021-10-21T14:30:37.000Z</time>
      </trkpt>
      <trkpt lat="46.45038" lon="5.34123">
        <ele>260.20001220703</ele>
        <time>2021-10-21T14:30:42.000Z</time>
      </trkpt>
      <trkpt lat="46.45043" lon="5.34123">
        <ele>260.39999389648</ele>
        <time>2021-10-21T14:30:43.000Z</time>
      </trkpt>
      <trkpt lat="46.45065" lon="5.34121">
        <ele>261.60000610352</ele>
        <time>2021-10-21T14:30:47.000Z</time>
      </trkpt>
      <trkpt lat="46.45087" lon="5.34117">
        <ele>262.79998779297</ele>
        <time>2021-10-21T14:30:51.000Z</time>
      </trkpt>
      <trkpt lat="46.45098" lon="5.34115">
        <ele>263</ele>
        <time>2021-10-21T14:30:53.000Z</time>
      </trkpt>
      <trkpt lat="46.45116" lon="5.34111">
        <ele>263.79998779297</ele>
        <time>2021-10-21T14:30:56.000Z</time>
      </trkpt>
      <trkpt lat="46.45154" lon="5.34104">
        <ele>264.60000610352</ele>
        <time>2021-10-21T14:31:02.000Z</time>
      </trkpt>
      <trkpt lat="46.45174" lon="5.34099">
        <ele>264.79998779297</ele>
        <time>2021-10-21T14:31:05.000Z</time>
      </trkpt>
      <trkpt lat="46.45203" lon="5.34092">
        <ele>264.79998779297</ele>
        <time>2021-10-21T14:31:09.000Z</time>
      </trkpt>
      <trkpt lat="46.45259" lon="5.34081">
        <ele>264.20001220703</ele>
        <time>2021-10-21T14:31:16.000Z</time>
      </trkpt>
      <trkpt lat="46.45276" lon="5.34077">
        <ele>263.79998779297</ele>
        <time>2021-10-21T14:31:18.000Z</time>
      </trkpt>
      <trkpt lat="46.45319" lon="5.34068">
        <ele>263</ele>
        <time>2021-10-21T14:31:23.000Z</time>
      </trkpt>
      <trkpt lat="46.45344" lon="5.34063">
        <ele>262.60000610352</ele>
        <time>2021-10-21T14:31:26.000Z</time>
      </trkpt>
      <trkpt lat="46.45395" lon="5.34053">
        <ele>261.60000610352</ele>
        <time>2021-10-21T14:31:32.000Z</time>
      </trkpt>
      <trkpt lat="46.45413" lon="5.34048">
        <ele>261.20001220703</ele>
        <time>2021-10-21T14:31:34.000Z</time>
      </trkpt>
      <trkpt lat="46.4545" lon="5.3404">
        <ele>260.39999389648</ele>
        <time>2021-10-21T14:31:38.000Z</time>
      </trkpt>
      <trkpt lat="46.45469" lon="5.34032">
        <ele>260</ele>
        <time>2021-10-21T14:31:40.000Z</time>
      </trkpt>
      <trkpt lat="46.45497" lon="5.34014">
        <ele>259</ele>
        <time>2021-10-21T14:31:43.000Z</time>
      </trkpt>
      <trkpt lat="46.45507" lon="5.34006">
        <ele>258.60000610352</ele>
        <time>2021-10-21T14:31:44.000Z</time>
      </trkpt>
      <trkpt lat="46.45524" lon="5.33989">
        <ele>257.60000610352</ele>
        <time>2021-10-21T14:31:46.000Z</time>
      </trkpt>
      <trkpt lat="46.45549" lon="5.33958">
        <ele>256.79998779297</ele>
        <time>2021-10-21T14:31:49.000Z</time>
      </trkpt>
      <trkpt lat="46.45555" lon="5.33946">
        <ele>256.60000610352</ele>
        <time>2021-10-21T14:31:50.000Z</time>
      </trkpt>
      <trkpt lat="46.45574" lon="5.33908">
        <ele>255.39999389648</ele>
        <time>2021-10-21T14:31:53.000Z</time>
      </trkpt>
      <trkpt lat="46.4558" lon="5.33895">
        <ele>254.80000305176</ele>
        <time>2021-10-21T14:31:54.000Z</time>
      </trkpt>
      <trkpt lat="46.45591" lon="5.33868">
        <ele>254.19999694824</ele>
        <time>2021-10-21T14:31:56.000Z</time>
      </trkpt>
      <trkpt lat="46.45608" lon="5.33828">
        <ele>253</ele>
        <time>2021-10-21T14:31:59.000Z</time>
      </trkpt>
      <trkpt lat="46.45613" lon="5.33815">
        <ele>252.60000610352</ele>
        <time>2021-10-21T14:32:00.000Z</time>
      </trkpt>
      <trkpt lat="46.45624" lon="5.3379">
        <ele>252</ele>
        <time>2021-10-21T14:32:02.000Z</time>
      </trkpt>
      <trkpt lat="46.45639" lon="5.33752">
        <ele>250.39999389648</ele>
        <time>2021-10-21T14:32:05.000Z</time>
      </trkpt>
      <trkpt lat="46.45655" lon="5.33714">
        <ele>249</ele>
        <time>2021-10-21T14:32:08.000Z</time>
      </trkpt>
      <trkpt lat="46.4566" lon="5.33702">
        <ele>248.80000305176</ele>
        <time>2021-10-21T14:32:09.000Z</time>
      </trkpt>
      <trkpt lat="46.45676" lon="5.33667">
        <ele>247.80000305176</ele>
        <time>2021-10-21T14:32:12.000Z</time>
      </trkpt>
      <trkpt lat="46.45699" lon="5.33606">
        <ele>246.60000610352</ele>
        <time>2021-10-21T14:32:17.000Z</time>
      </trkpt>
      <trkpt lat="46.4573" lon="5.33533">
        <ele>245.60000610352</ele>
        <time>2021-10-21T14:32:24.000Z</time>
      </trkpt>
      <trkpt lat="46.45736" lon="5.3352">
        <ele>245.39999389648</ele>
        <time>2021-10-21T14:32:25.000Z</time>
      </trkpt>
      <trkpt lat="46.45751" lon="5.33482">
        <ele>244.19999694824</ele>
        <time>2021-10-21T14:32:28.000Z</time>
      </trkpt>
      <trkpt lat="46.45771" lon="5.33434">
        <ele>243.19999694824</ele>
        <time>2021-10-21T14:32:32.000Z</time>
      </trkpt>
      <trkpt lat="46.45802" lon="5.33369">
        <ele>242</ele>
        <time>2021-10-21T14:32:38.000Z</time>
      </trkpt>
      <trkpt lat="46.45832" lon="5.33309">
        <ele>241</ele>
        <time>2021-10-21T14:32:44.000Z</time>
      </trkpt>
      <trkpt lat="46.45843" lon="5.33289">
        <ele>240.80000305176</ele>
        <time>2021-10-21T14:32:46.000Z</time>
      </trkpt>
      <trkpt lat="46.45878" lon="5.33234">
        <ele>240.80000305176</ele>
        <time>2021-10-21T14:32:52.000Z</time>
      </trkpt>
      <trkpt lat="46.45914" lon="5.33197">
        <ele>240.60000610352</ele>
        <time>2021-10-21T14:32:57.000Z</time>
      </trkpt>
      <trkpt lat="46.45949" lon="5.33159">
        <ele>240.39999389648</ele>
        <time>2021-10-21T14:33:02.000Z</time>
      </trkpt>
      <trkpt lat="46.45986" lon="5.33121">
        <ele>240.19999694824</ele>
        <time>2021-10-21T14:33:07.000Z</time>
      </trkpt>
      <trkpt lat="46.45993" lon="5.33113">
        <ele>240.19999694824</ele>
        <time>2021-10-21T14:33:08.000Z</time>
      </trkpt>
      <trkpt lat="46.46044" lon="5.33064">
        <ele>239.60000610352</ele>
        <time>2021-10-21T14:33:15.000Z</time>
      </trkpt>
      <trkpt lat="46.46065" lon="5.33044">
        <ele>239.19999694824</ele>
        <time>2021-10-21T14:33:18.000Z</time>
      </trkpt>
      <trkpt lat="46.4611" lon="5.33012">
        <ele>238.80000305176</ele>
        <time>2021-10-21T14:33:24.000Z</time>
      </trkpt>
      <trkpt lat="46.46167" lon="5.32976">
        <ele>238.60000610352</ele>
        <time>2021-10-21T14:33:31.000Z</time>
      </trkpt>
      <trkpt lat="46.46191" lon="5.32959">
        <ele>238.39999389648</ele>
        <time>2021-10-21T14:33:34.000Z</time>
      </trkpt>
      <trkpt lat="46.46206" lon="5.32945">
        <ele>238</ele>
        <time>2021-10-21T14:33:36.000Z</time>
      </trkpt>
      <trkpt lat="46.46213" lon="5.32937">
        <ele>237.80000305176</ele>
        <time>2021-10-21T14:33:37.000Z</time>
      </trkpt>
      <trkpt lat="46.4622" lon="5.32928">
        <ele>237.80000305176</ele>
        <time>2021-10-21T14:33:38.000Z</time>
      </trkpt>
      <trkpt lat="46.46259" lon="5.32866">
        <ele>237.60000610352</ele>
        <time>2021-10-21T14:33:45.000Z</time>
      </trkpt>
      <trkpt lat="46.46265" lon="5.32857">
        <ele>237.60000610352</ele>
        <time>2021-10-21T14:33:46.000Z</time>
      </trkpt>
      <trkpt lat="46.46304" lon="5.32804">
        <ele>237.80000305176</ele>
        <time>2021-10-21T14:33:53.000Z</time>
      </trkpt>
      <trkpt lat="46.46308" lon="5.32795">
        <ele>237.80000305176</ele>
        <time>2021-10-21T14:33:54.000Z</time>
      </trkpt>
      <trkpt lat="46.46316" lon="5.32776">
        <ele>237.80000305176</ele>
        <time>2021-10-21T14:33:56.000Z</time>
      </trkpt>
      <trkpt lat="46.46319" lon="5.32765">
        <ele>237.80000305176</ele>
        <time>2021-10-21T14:33:57.000Z</time>
      </trkpt>
      <trkpt lat="46.46321" lon="5.32754">
        <ele>237.80000305176</ele>
        <time>2021-10-21T14:33:58.000Z</time>
      </trkpt>
      <trkpt lat="46.46322" lon="5.32719">
        <ele>237.60000610352</ele>
        <time>2021-10-21T14:34:01.000Z</time>
      </trkpt>
      <trkpt lat="46.46321" lon="5.3264">
        <ele>236.80000305176</ele>
        <time>2021-10-21T14:34:08.000Z</time>
      </trkpt>
      <trkpt lat="46.46322" lon="5.32606">
        <ele>236.60000610352</ele>
        <time>2021-10-21T14:34:11.000Z</time>
      </trkpt>
      <trkpt lat="46.4633" lon="5.32564">
        <ele>236.39999389648</ele>
        <time>2021-10-21T14:34:15.000Z</time>
      </trkpt>
      <trkpt lat="46.46333" lon="5.32553">
        <ele>236.39999389648</ele>
        <time>2021-10-21T14:34:16.000Z</time>
      </trkpt>
      <trkpt lat="46.46358" lon="5.32487">
        <ele>236.60000610352</ele>
        <time>2021-10-21T14:34:23.000Z</time>
      </trkpt>
      <trkpt lat="46.46386" lon="5.32412">
        <ele>237</ele>
        <time>2021-10-21T14:34:31.000Z</time>
      </trkpt>
      <trkpt lat="46.46417" lon="5.32351">
        <ele>237.19999694824</ele>
        <time>2021-10-21T14:34:38.000Z</time>
      </trkpt>
      <trkpt lat="46.46451" lon="5.3229">
        <ele>237.39999389648</ele>
        <time>2021-10-21T14:34:45.000Z</time>
      </trkpt>
      <trkpt lat="46.46456" lon="5.32281">
        <ele>237.60000610352</ele>
        <time>2021-10-21T14:34:46.000Z</time>
      </trkpt>
      <trkpt lat="46.46489" lon="5.32219">
        <ele>237.60000610352</ele>
        <time>2021-10-21T14:34:53.000Z</time>
      </trkpt>
      <trkpt lat="46.46504" lon="5.32193">
        <ele>237.60000610352</ele>
        <time>2021-10-21T14:34:56.000Z</time>
      </trkpt>
      <trkpt lat="46.46539" lon="5.3213">
        <ele>237.39999389648</ele>
        <time>2021-10-21T14:35:03.000Z</time>
      </trkpt>
      <trkpt lat="46.46559" lon="5.32093">
        <ele>237.19999694824</ele>
        <time>2021-10-21T14:35:07.000Z</time>
      </trkpt>
      <trkpt lat="46.46594" lon="5.32032">
        <ele>236.80000305176</ele>
        <time>2021-10-21T14:35:14.000Z</time>
      </trkpt>
      <trkpt lat="46.46604" lon="5.32014">
        <ele>236.80000305176</ele>
        <time>2021-10-21T14:35:16.000Z</time>
      </trkpt>
      <trkpt lat="46.46644" lon="5.31947">
        <ele>236.60000610352</ele>
        <time>2021-10-21T14:35:24.000Z</time>
      </trkpt>
      <trkpt lat="46.46651" lon="5.31939">
        <ele>236.60000610352</ele>
        <time>2021-10-21T14:35:25.000Z</time>
      </trkpt>
      <trkpt lat="46.46693" lon="5.31901">
        <ele>236.60000610352</ele>
        <time>2021-10-21T14:35:31.000Z</time>
      </trkpt>
      <trkpt lat="46.4673" lon="5.31871">
        <ele>235.80000305176</ele>
        <time>2021-10-21T14:35:36.000Z</time>
      </trkpt>
      <trkpt lat="46.46757" lon="5.31844">
        <ele>235.19999694824</ele>
        <time>2021-10-21T14:35:40.000Z</time>
      </trkpt>
      <trkpt lat="46.46775" lon="5.31823">
        <ele>234.80000305176</ele>
        <time>2021-10-21T14:35:43.000Z</time>
      </trkpt>
      <trkpt lat="46.46794" lon="5.31801">
        <ele>234.80000305176</ele>
        <time>2021-10-21T14:35:46.000Z</time>
      </trkpt>
      <trkpt lat="46.46841" lon="5.31744">
        <ele>234.80000305176</ele>
        <time>2021-10-21T14:35:54.000Z</time>
      </trkpt>
      <trkpt lat="46.46869" lon="5.31707">
        <ele>235.19999694824</ele>
        <time>2021-10-21T14:35:59.000Z</time>
      </trkpt>
      <trkpt lat="46.46888" lon="5.31681">
        <ele>235.60000610352</ele>
        <time>2021-10-21T14:36:03.000Z</time>
      </trkpt>
      <trkpt lat="46.46893" lon="5.31674">
        <ele>235.80000305176</ele>
        <time>2021-10-21T14:36:04.000Z</time>
      </trkpt>
      <trkpt lat="46.46904" lon="5.31659">
        <ele>235.80000305176</ele>
        <time>2021-10-21T14:36:06.000Z</time>
      </trkpt>
      <trkpt lat="46.4691" lon="5.31652">
        <ele>236</ele>
        <time>2021-10-21T14:36:07.000Z</time>
      </trkpt>
      <trkpt lat="46.46936" lon="5.31621">
        <ele>236.39999389648</ele>
        <time>2021-10-21T14:36:11.000Z</time>
      </trkpt>
      <trkpt lat="46.46951" lon="5.31605">
        <ele>236.60000610352</ele>
        <time>2021-10-21T14:36:13.000Z</time>
      </trkpt>
      <trkpt lat="46.46965" lon="5.31587">
        <ele>236.80000305176</ele>
        <time>2021-10-21T14:36:15.000Z</time>
      </trkpt>
      <trkpt lat="46.47004" lon="5.31538">
        <ele>236.80000305176</ele>
        <time>2021-10-21T14:36:21.000Z</time>
      </trkpt>
      <trkpt lat="46.47046" lon="5.31487">
        <ele>236</ele>
        <time>2021-10-21T14:36:27.000Z</time>
      </trkpt>
      <trkpt lat="46.47061" lon="5.3147">
        <ele>235.60000610352</ele>
        <time>2021-10-21T14:36:29.000Z</time>
      </trkpt>
      <trkpt lat="46.47093" lon="5.3143">
        <ele>235.39999389648</ele>
        <time>2021-10-21T14:36:34.000Z</time>
      </trkpt>
      <trkpt lat="46.47125" lon="5.31386">
        <ele>235.19999694824</ele>
        <time>2021-10-21T14:36:39.000Z</time>
      </trkpt>
      <trkpt lat="46.47166" lon="5.31329">
        <ele>235.39999389648</ele>
        <time>2021-10-21T14:36:46.000Z</time>
      </trkpt>
      <trkpt lat="46.47171" lon="5.3132">
        <ele>235.39999389648</ele>
        <time>2021-10-21T14:36:47.000Z</time>
      </trkpt>
      <trkpt lat="46.47187" lon="5.31294">
        <ele>235.19999694824</ele>
        <time>2021-10-21T14:36:50.000Z</time>
      </trkpt>
      <trkpt lat="46.47217" lon="5.31253">
        <ele>235</ele>
        <time>2021-10-21T14:36:55.000Z</time>
      </trkpt>
      <trkpt lat="46.47253" lon="5.31202">
        <ele>234.80000305176</ele>
        <time>2021-10-21T14:37:01.000Z</time>
      </trkpt>
      <trkpt lat="46.47258" lon="5.31194">
        <ele>234.60000610352</ele>
        <time>2021-10-21T14:37:02.000Z</time>
      </trkpt>
      <trkpt lat="46.47299" lon="5.31135">
        <ele>234</ele>
        <time>2021-10-21T14:37:09.000Z</time>
      </trkpt>
      <trkpt lat="46.47335" lon="5.31085">
        <ele>233.60000610352</ele>
        <time>2021-10-21T14:37:15.000Z</time>
      </trkpt>
      <trkpt lat="46.47348" lon="5.31071">
        <ele>233.39999389648</ele>
        <time>2021-10-21T14:37:17.000Z</time>
      </trkpt>
      <trkpt lat="46.47371" lon="5.31053">
        <ele>233</ele>
        <time>2021-10-21T14:37:20.000Z</time>
      </trkpt>
      <trkpt lat="46.47414" lon="5.31025">
        <ele>232.39999389648</ele>
        <time>2021-10-21T14:37:25.000Z</time>
      </trkpt>
      <trkpt lat="46.47422" lon="5.3102">
        <ele>232</ele>
        <time>2021-10-21T14:37:26.000Z</time>
      </trkpt>
      <trkpt lat="46.4745" lon="5.31002">
        <ele>231</ele>
        <time>2021-10-21T14:37:29.000Z</time>
      </trkpt>
      <trkpt lat="46.47478" lon="5.30983">
        <ele>230</ele>
        <time>2021-10-21T14:37:32.000Z</time>
      </trkpt>
      <trkpt lat="46.47487" lon="5.30977">
        <ele>229.60000610352</ele>
        <time>2021-10-21T14:37:33.000Z</time>
      </trkpt>
      <trkpt lat="46.47505" lon="5.30966">
        <ele>228.80000305176</ele>
        <time>2021-10-21T14:37:35.000Z</time>
      </trkpt>
      <trkpt lat="46.47555" lon="5.30934">
        <ele>228</ele>
        <time>2021-10-21T14:37:41.000Z</time>
      </trkpt>
      <trkpt lat="46.47603" lon="5.30912">
        <ele>228</ele>
        <time>2021-10-21T14:37:47.000Z</time>
      </trkpt>
      <trkpt lat="46.47649" lon="5.30893">
        <ele>228.80000305176</ele>
        <time>2021-10-21T14:37:53.000Z</time>
      </trkpt>
      <trkpt lat="46.47657" lon="5.30892">
        <ele>229</ele>
        <time>2021-10-21T14:37:54.000Z</time>
      </trkpt>
      <trkpt lat="46.47665" lon="5.30892">
        <ele>229.19999694824</ele>
        <time>2021-10-21T14:37:55.000Z</time>
      </trkpt>
      <trkpt lat="46.47688" lon="5.30897">
        <ele>229.80000305176</ele>
        <time>2021-10-21T14:37:58.000Z</time>
      </trkpt>
      <trkpt lat="46.47725" lon="5.30909">
        <ele>231</ele>
        <time>2021-10-21T14:38:03.000Z</time>
      </trkpt>
      <trkpt lat="46.47739" lon="5.30909">
        <ele>231.39999389648</ele>
        <time>2021-10-21T14:38:05.000Z</time>
      </trkpt>
      <trkpt lat="46.47753" lon="5.30907">
        <ele>232</ele>
        <time>2021-10-21T14:38:07.000Z</time>
      </trkpt>
      <trkpt lat="46.47759" lon="5.30905">
        <ele>232.39999389648</ele>
        <time>2021-10-21T14:38:08.000Z</time>
      </trkpt>
      <trkpt lat="46.47765" lon="5.30901">
        <ele>232.39999389648</ele>
        <time>2021-10-21T14:38:09.000Z</time>
      </trkpt>
      <trkpt lat="46.47771" lon="5.30897">
        <ele>233.19999694824</ele>
        <time>2021-10-21T14:38:10.000Z</time>
      </trkpt>
      <trkpt lat="46.47776" lon="5.30892">
        <ele>233.60000610352</ele>
        <time>2021-10-21T14:38:11.000Z</time>
      </trkpt>
      <trkpt lat="46.47786" lon="5.3088">
        <ele>234.60000610352</ele>
        <time>2021-10-21T14:38:13.000Z</time>
      </trkpt>
      <trkpt lat="46.4779" lon="5.30873">
        <ele>235.19999694824</ele>
        <time>2021-10-21T14:38:14.000Z</time>
      </trkpt>
      <trkpt lat="46.47803" lon="5.30854">
        <ele>236.39999389648</ele>
        <time>2021-10-21T14:38:17.000Z</time>
      </trkpt>
      <trkpt lat="46.47806" lon="5.30848">
        <ele>236.80000305176</ele>
        <time>2021-10-21T14:38:18.000Z</time>
      </trkpt>
      <trkpt lat="46.47819" lon="5.30829">
        <ele>237.60000610352</ele>
        <time>2021-10-21T14:38:21.000Z</time>
      </trkpt>
      <trkpt lat="46.47829" lon="5.30818">
        <ele>237.80000305176</ele>
        <time>2021-10-21T14:38:23.000Z</time>
      </trkpt>
      <trkpt lat="46.47835" lon="5.30813">
        <ele>237.80000305176</ele>
        <time>2021-10-21T14:38:24.000Z</time>
      </trkpt>
      <trkpt lat="46.47848" lon="5.30805">
        <ele>237.60000610352</ele>
        <time>2021-10-21T14:38:26.000Z</time>
      </trkpt>
      <trkpt lat="46.47863" lon="5.30801">
        <ele>237.39999389648</ele>
        <time>2021-10-21T14:38:28.000Z</time>
      </trkpt>
      <trkpt lat="46.47888" lon="5.30805">
        <ele>236.39999389648</ele>
        <time>2021-10-21T14:38:31.000Z</time>
      </trkpt>
      <trkpt lat="46.47897" lon="5.30808">
        <ele>236.19999694824</ele>
        <time>2021-10-21T14:38:32.000Z</time>
      </trkpt>
      <trkpt lat="46.47915" lon="5.30814">
        <ele>235.19999694824</ele>
        <time>2021-10-21T14:38:34.000Z</time>
      </trkpt>
      <trkpt lat="46.47935" lon="5.30819">
        <ele>233.60000610352</ele>
        <time>2021-10-21T14:38:36.000Z</time>
      </trkpt>
      <trkpt lat="46.47946" lon="5.3082">
        <ele>232.80000305176</ele>
        <time>2021-10-21T14:38:37.000Z</time>
      </trkpt>
      <trkpt lat="46.47956" lon="5.30818">
        <ele>231.80000305176</ele>
        <time>2021-10-21T14:38:38.000Z</time>
      </trkpt>
      <trkpt lat="46.47977" lon="5.30812">
        <ele>230.80000305176</ele>
        <time>2021-10-21T14:38:40.000Z</time>
      </trkpt>
      <trkpt lat="46.48014" lon="5.30793">
        <ele>229.60000610352</ele>
        <time>2021-10-21T14:38:44.000Z</time>
      </trkpt>
      <trkpt lat="46.48022" lon="5.30789">
        <ele>229.39999389648</ele>
        <time>2021-10-21T14:38:45.000Z</time>
      </trkpt>
      <trkpt lat="46.4807" lon="5.30763">
        <ele>230</ele>
        <time>2021-10-21T14:38:51.000Z</time>
      </trkpt>
      <trkpt lat="46.48124" lon="5.30733">
        <ele>230.60000610352</ele>
        <time>2021-10-21T14:38:58.000Z</time>
      </trkpt>
      <trkpt lat="46.48139" lon="5.30725">
        <ele>231</ele>
        <time>2021-10-21T14:39:00.000Z</time>
      </trkpt>
      <trkpt lat="46.48198" lon="5.30693">
        <ele>230.19999694824</ele>
        <time>2021-10-21T14:39:07.000Z</time>
      </trkpt>
      <trkpt lat="46.48207" lon="5.30689">
        <ele>230.19999694824</ele>
        <time>2021-10-21T14:39:08.000Z</time>
      </trkpt>
      <trkpt lat="46.48216" lon="5.30687">
        <ele>230</ele>
        <time>2021-10-21T14:39:09.000Z</time>
      </trkpt>
      <trkpt lat="46.48226" lon="5.30686">
        <ele>229.60000610352</ele>
        <time>2021-10-21T14:39:10.000Z</time>
      </trkpt>
      <trkpt lat="46.48236" lon="5.30686">
        <ele>229.60000610352</ele>
        <time>2021-10-21T14:39:11.000Z</time>
      </trkpt>
      <trkpt lat="46.48276" lon="5.30696">
        <ele>228.39999389648</ele>
        <time>2021-10-21T14:39:15.000Z</time>
      </trkpt>
      <trkpt lat="46.48286" lon="5.30698">
        <ele>228.19999694824</ele>
        <time>2021-10-21T14:39:16.000Z</time>
      </trkpt>
      <trkpt lat="46.48306" lon="5.307">
        <ele>227.39999389648</ele>
        <time>2021-10-21T14:39:18.000Z</time>
      </trkpt>
      <trkpt lat="46.48316" lon="5.30698">
        <ele>227.19999694824</ele>
        <time>2021-10-21T14:39:19.000Z</time>
      </trkpt>
      <trkpt lat="46.48325" lon="5.30694">
        <ele>227</ele>
        <time>2021-10-21T14:39:20.000Z</time>
      </trkpt>
      <trkpt lat="46.48358" lon="5.30671">
        <ele>226.60000610352</ele>
        <time>2021-10-21T14:39:24.000Z</time>
      </trkpt>
      <trkpt lat="46.48409" lon="5.30622">
        <ele>227</ele>
        <time>2021-10-21T14:39:31.000Z</time>
      </trkpt>
      <trkpt lat="46.48416" lon="5.30615">
        <ele>227</ele>
        <time>2021-10-21T14:39:32.000Z</time>
      </trkpt>
      <trkpt lat="46.48463" lon="5.3057">
        <ele>227.19999694824</ele>
        <time>2021-10-21T14:39:39.000Z</time>
      </trkpt>
      <trkpt lat="46.48514" lon="5.30521">
        <ele>227.80000305176</ele>
        <time>2021-10-21T14:39:47.000Z</time>
      </trkpt>
      <trkpt lat="46.48548" lon="5.30498">
        <ele>228.19999694824</ele>
        <time>2021-10-21T14:39:52.000Z</time>
      </trkpt>
      <trkpt lat="46.48555" lon="5.30494">
        <ele>228.39999389648</ele>
        <time>2021-10-21T14:39:53.000Z</time>
      </trkpt>
      <trkpt lat="46.48578" lon="5.30489">
        <ele>228.39999389648</ele>
        <time>2021-10-21T14:39:56.000Z</time>
      </trkpt>
      <trkpt lat="46.48586" lon="5.30489">
        <ele>228.19999694824</ele>
        <time>2021-10-21T14:39:57.000Z</time>
      </trkpt>
      <trkpt lat="46.48642" lon="5.30499">
        <ele>228</ele>
        <time>2021-10-21T14:40:04.000Z</time>
      </trkpt>
      <trkpt lat="46.4865" lon="5.305">
        <ele>227.80000305176</ele>
        <time>2021-10-21T14:40:05.000Z</time>
      </trkpt>
      <trkpt lat="46.48684" lon="5.30498">
        <ele>227.60000610352</ele>
        <time>2021-10-21T14:40:09.000Z</time>
      </trkpt>
      <trkpt lat="46.48724" lon="5.30502">
        <ele>227.60000610352</ele>
        <time>2021-10-21T14:40:14.000Z</time>
      </trkpt>
      <trkpt lat="46.48775" lon="5.30526">
        <ele>227.80000305176</ele>
        <time>2021-10-21T14:40:21.000Z</time>
      </trkpt>
      <trkpt lat="46.4883" lon="5.30541">
        <ele>227.80000305176</ele>
        <time>2021-10-21T14:40:28.000Z</time>
      </trkpt>
      <trkpt lat="46.48878" lon="5.30539">
        <ele>227.39999389648</ele>
        <time>2021-10-21T14:40:34.000Z</time>
      </trkpt>
      <trkpt lat="46.48925" lon="5.30521">
        <ele>227.80000305176</ele>
        <time>2021-10-21T14:40:40.000Z</time>
      </trkpt>
      <trkpt lat="46.48981" lon="5.30498">
        <ele>228</ele>
        <time>2021-10-21T14:40:47.000Z</time>
      </trkpt>
      <trkpt lat="46.49005" lon="5.30488">
        <ele>227.80000305176</ele>
        <time>2021-10-21T14:40:50.000Z</time>
      </trkpt>
      <trkpt lat="46.49059" lon="5.30466">
        <ele>227.80000305176</ele>
        <time>2021-10-21T14:40:57.000Z</time>
      </trkpt>
      <trkpt lat="46.49075" lon="5.3046">
        <ele>227.60000610352</ele>
        <time>2021-10-21T14:40:59.000Z</time>
      </trkpt>
      <trkpt lat="46.49131" lon="5.30437">
        <ele>227.19999694824</ele>
        <time>2021-10-21T14:41:06.000Z</time>
      </trkpt>
      <trkpt lat="46.49163" lon="5.30424">
        <ele>227</ele>
        <time>2021-10-21T14:41:10.000Z</time>
      </trkpt>
      <trkpt lat="46.49221" lon="5.30401">
        <ele>227</ele>
        <time>2021-10-21T14:41:17.000Z</time>
      </trkpt>
      <trkpt lat="46.49237" lon="5.30394">
        <ele>227</ele>
        <time>2021-10-21T14:41:19.000Z</time>
      </trkpt>
      <trkpt lat="46.49294" lon="5.30371">
        <ele>226.60000610352</ele>
        <time>2021-10-21T14:41:26.000Z</time>
      </trkpt>
      <trkpt lat="46.4931" lon="5.30365">
        <ele>226.39999389648</ele>
        <time>2021-10-21T14:41:28.000Z</time>
      </trkpt>
      <trkpt lat="46.49326" lon="5.30358">
        <ele>226.19999694824</ele>
        <time>2021-10-21T14:41:30.000Z</time>
      </trkpt>
      <trkpt lat="46.49382" lon="5.30336">
        <ele>225.60000610352</ele>
        <time>2021-10-21T14:41:37.000Z</time>
      </trkpt>
      <trkpt lat="46.49399" lon="5.30329">
        <ele>225.60000610352</ele>
        <time>2021-10-21T14:41:39.000Z</time>
      </trkpt>
      <trkpt lat="46.49452" lon="5.30303">
        <ele>225.60000610352</ele>
        <time>2021-10-21T14:41:46.000Z</time>
      </trkpt>
      <trkpt lat="46.49461" lon="5.30296">
        <ele>225.39999389648</ele>
        <time>2021-10-21T14:41:47.000Z</time>
      </trkpt>
      <trkpt lat="46.49474" lon="5.3028">
        <ele>225.39999389648</ele>
        <time>2021-10-21T14:41:49.000Z</time>
      </trkpt>
      <trkpt lat="46.4948" lon="5.30271">
        <ele>225.19999694824</ele>
        <time>2021-10-21T14:41:50.000Z</time>
      </trkpt>
      <trkpt lat="46.49502" lon="5.30227">
        <ele>224.80000305176</ele>
        <time>2021-10-21T14:41:54.000Z</time>
      </trkpt>
      <trkpt lat="46.49513" lon="5.30204">
        <ele>224.39999389648</ele>
        <time>2021-10-21T14:41:56.000Z</time>
      </trkpt>
      <trkpt lat="46.4952" lon="5.30194">
        <ele>224</ele>
        <time>2021-10-21T14:41:57.000Z</time>
      </trkpt>
      <trkpt lat="46.49527" lon="5.30185">
        <ele>223.60000610352</ele>
        <time>2021-10-21T14:41:58.000Z</time>
      </trkpt>
      <trkpt lat="46.4956" lon="5.30159">
        <ele>222.80000305176</ele>
        <time>2021-10-21T14:42:02.000Z</time>
      </trkpt>
      <trkpt lat="46.4959" lon="5.30137">
        <ele>222.19999694824</ele>
        <time>2021-10-21T14:42:06.000Z</time>
      </trkpt>
      <trkpt lat="46.49597" lon="5.30131">
        <ele>222</ele>
        <time>2021-10-21T14:42:07.000Z</time>
      </trkpt>
      <trkpt lat="46.49609" lon="5.30117">
        <ele>221.80000305176</ele>
        <time>2021-10-21T14:42:09.000Z</time>
      </trkpt>
      <trkpt lat="46.49629" lon="5.30094">
        <ele>221.80000305176</ele>
        <time>2021-10-21T14:42:12.000Z</time>
      </trkpt>
      <trkpt lat="46.49636" lon="5.30085">
        <ele>221.80000305176</ele>
        <time>2021-10-21T14:42:13.000Z</time>
      </trkpt>
      <trkpt lat="46.49647" lon="5.30065">
        <ele>221.80000305176</ele>
        <time>2021-10-21T14:42:15.000Z</time>
      </trkpt>
      <trkpt lat="46.49652" lon="5.30053">
        <ele>221.80000305176</ele>
        <time>2021-10-21T14:42:16.000Z</time>
      </trkpt>
      <trkpt lat="46.49667" lon="5.29999">
        <ele>221.19999694824</ele>
        <time>2021-10-21T14:42:20.000Z</time>
      </trkpt>
      <trkpt lat="46.4967" lon="5.29985">
        <ele>220.60000610352</ele>
        <time>2021-10-21T14:42:21.000Z</time>
      </trkpt>
      <trkpt lat="46.49679" lon="5.29945">
        <ele>219.60000610352</ele>
        <time>2021-10-21T14:42:24.000Z</time>
      </trkpt>
      <trkpt lat="46.49685" lon="5.2992">
        <ele>219.19999694824</ele>
        <time>2021-10-21T14:42:26.000Z</time>
      </trkpt>
      <trkpt lat="46.49693" lon="5.29885">
        <ele>218.39999389648</ele>
        <time>2021-10-21T14:42:29.000Z</time>
      </trkpt>
      <trkpt lat="46.49699" lon="5.29864">
        <ele>218.19999694824</ele>
        <time>2021-10-21T14:42:31.000Z</time>
      </trkpt>
      <trkpt lat="46.49703" lon="5.29855">
        <ele>218.19999694824</ele>
        <time>2021-10-21T14:42:32.000Z</time>
      </trkpt>
      <trkpt lat="46.49717" lon="5.2983">
        <ele>218.80000305176</ele>
        <time>2021-10-21T14:42:35.000Z</time>
      </trkpt>
      <trkpt lat="46.49744" lon="5.29796">
        <ele>219.39999389648</ele>
        <time>2021-10-21T14:42:40.000Z</time>
      </trkpt>
      <trkpt lat="46.49751" lon="5.29792">
        <ele>219.60000610352</ele>
        <time>2021-10-21T14:42:41.000Z</time>
      </trkpt>
      <trkpt lat="46.49758" lon="5.2979">
        <ele>219.60000610352</ele>
        <time>2021-10-21T14:42:42.000Z</time>
      </trkpt>
      <trkpt lat="46.49773" lon="5.2979">
        <ele>219.80000305176</ele>
        <time>2021-10-21T14:42:44.000Z</time>
      </trkpt>
      <trkpt lat="46.49817" lon="5.29801">
        <ele>220</ele>
        <time>2021-10-21T14:42:50.000Z</time>
      </trkpt>
      <trkpt lat="46.49872" lon="5.29821">
        <ele>219.80000305176</ele>
        <time>2021-10-21T14:42:57.000Z</time>
      </trkpt>
      <trkpt lat="46.4988" lon="5.29825">
        <ele>219.80000305176</ele>
        <time>2021-10-21T14:42:58.000Z</time>
      </trkpt>
      <trkpt lat="46.49938" lon="5.29848">
        <ele>218.80000305176</ele>
        <time>2021-10-21T14:43:05.000Z</time>
      </trkpt>
      <trkpt lat="46.49947" lon="5.29851">
        <ele>218.60000610352</ele>
        <time>2021-10-21T14:43:06.000Z</time>
      </trkpt>
      <trkpt lat="46.49956" lon="5.29853">
        <ele>218.39999389648</ele>
        <time>2021-10-21T14:43:07.000Z</time>
      </trkpt>
      <trkpt lat="46.50001" lon="5.29862">
        <ele>217.60000610352</ele>
        <time>2021-10-21T14:43:12.000Z</time>
      </trkpt>
      <trkpt lat="46.5001" lon="5.29866">
        <ele>217.19999694824</ele>
        <time>2021-10-21T14:43:13.000Z</time>
      </trkpt>
      <trkpt lat="46.50025" lon="5.29879">
        <ele>216.60000610352</ele>
        <time>2021-10-21T14:43:15.000Z</time>
      </trkpt>
      <trkpt lat="46.50051" lon="5.29911">
        <ele>216.19999694824</ele>
        <time>2021-10-21T14:43:19.000Z</time>
      </trkpt>
      <trkpt lat="46.50057" lon="5.2992">
        <ele>216.19999694824</ele>
        <time>2021-10-21T14:43:20.000Z</time>
      </trkpt>
      <trkpt lat="46.5007" lon="5.29949">
        <ele>216.39999389648</ele>
        <time>2021-10-21T14:43:23.000Z</time>
      </trkpt>
      <trkpt lat="46.50077" lon="5.29969">
        <ele>216.60000610352</ele>
        <time>2021-10-21T14:43:25.000Z</time>
      </trkpt>
      <trkpt lat="46.50084" lon="5.30011">
        <ele>217.19999694824</ele>
        <time>2021-10-21T14:43:29.000Z</time>
      </trkpt>
      <trkpt lat="46.50085" lon="5.30022">
        <ele>217.39999389648</ele>
        <time>2021-10-21T14:43:30.000Z</time>
      </trkpt>
      <trkpt lat="46.50086" lon="5.30108">
        <ele>218</ele>
        <time>2021-10-21T14:43:38.000Z</time>
      </trkpt>
      <trkpt lat="46.50086" lon="5.30188">
        <ele>217.80000305176</ele>
        <time>2021-10-21T14:43:45.000Z</time>
      </trkpt>
      <trkpt lat="46.50087" lon="5.30232">
        <ele>217.60000610352</ele>
        <time>2021-10-21T14:43:49.000Z</time>
      </trkpt>
      <trkpt lat="46.50083" lon="5.30289">
        <ele>216.80000305176</ele>
        <time>2021-10-21T14:43:54.000Z</time>
      </trkpt>
      <trkpt lat="46.50075" lon="5.30325">
        <ele>216.19999694824</ele>
        <time>2021-10-21T14:43:57.000Z</time>
      </trkpt>
      <trkpt lat="46.50072" lon="5.30336">
        <ele>216.19999694824</ele>
        <time>2021-10-21T14:43:58.000Z</time>
      </trkpt>
      <trkpt lat="46.50067" lon="5.30348">
        <ele>216</ele>
        <time>2021-10-21T14:43:59.000Z</time>
      </trkpt>
      <trkpt lat="46.50061" lon="5.30359">
        <ele>216</ele>
        <time>2021-10-21T14:44:00.000Z</time>
      </trkpt>
      <trkpt lat="46.50042" lon="5.30386">
        <ele>215.60000610352</ele>
        <time>2021-10-21T14:44:03.000Z</time>
      </trkpt>
      <trkpt lat="46.50028" lon="5.304">
        <ele>215</ele>
        <time>2021-10-21T14:44:05.000Z</time>
      </trkpt>
      <trkpt lat="46.50006" lon="5.30417">
        <ele>214.60000610352</ele>
        <time>2021-10-21T14:44:08.000Z</time>
      </trkpt>
      <trkpt lat="46.49971" lon="5.30447">
        <ele>214.19999694824</ele>
        <time>2021-10-21T14:44:14.000Z</time>
      </trkpt>
      <trkpt lat="46.4995" lon="5.30479">
        <ele>215</ele>
        <time>2021-10-21T14:44:19.000Z</time>
      </trkpt>
      <trkpt lat="46.4994" lon="5.30502">
        <ele>215.60000610352</ele>
        <time>2021-10-21T14:44:22.000Z</time>
      </trkpt>
      <trkpt lat="46.49936" lon="5.30519">
        <ele>215.80000305176</ele>
        <time>2021-10-21T14:44:24.000Z</time>
      </trkpt>
      <trkpt lat="46.49931" lon="5.30543">
        <ele>216.19999694824</ele>
        <time>2021-10-21T14:44:27.000Z</time>
      </trkpt>
      <trkpt lat="46.4993" lon="5.30569">
        <ele>217</ele>
        <time>2021-10-21T14:44:30.000Z</time>
      </trkpt>
      <trkpt lat="46.4993" lon="5.30578">
        <ele>217.19999694824</ele>
        <time>2021-10-21T14:44:31.000Z</time>
      </trkpt>
      <trkpt lat="46.4993" lon="5.30586">
        <ele>217.39999389648</ele>
        <time>2021-10-21T14:44:32.000Z</time>
      </trkpt>
      <trkpt lat="46.4993" lon="5.30601">
        <ele>218.19999694824</ele>
        <time>2021-10-21T14:44:34.000Z</time>
      </trkpt>
      <trkpt lat="46.49932" lon="5.30616">
        <ele>218.39999389648</ele>
        <time>2021-10-21T14:44:36.000Z</time>
      </trkpt>
      <trkpt lat="46.49941" lon="5.30665">
        <ele>219.39999389648</ele>
        <time>2021-10-21T14:44:42.000Z</time>
      </trkpt>
      <trkpt lat="46.49945" lon="5.3069">
        <ele>220.80000305176</ele>
        <time>2021-10-21T14:44:45.000Z</time>
      </trkpt>
      <trkpt lat="46.49953" lon="5.3073">
        <ele>221.39999389648</ele>
        <time>2021-10-21T14:44:50.000Z</time>
      </trkpt>
      <trkpt lat="46.49954" lon="5.30739">
        <ele>221.60000610352</ele>
        <time>2021-10-21T14:44:51.000Z</time>
      </trkpt>
      <trkpt lat="46.49957" lon="5.30757">
        <ele>221.80000305176</ele>
        <time>2021-10-21T14:44:53.000Z</time>
      </trkpt>
      <trkpt lat="46.49961" lon="5.30776">
        <ele>222.19999694824</ele>
        <time>2021-10-21T14:44:55.000Z</time>
      </trkpt>
      <trkpt lat="46.49967" lon="5.30805">
        <ele>222.60000610352</ele>
        <time>2021-10-21T14:44:58.000Z</time>
      </trkpt>
      <trkpt lat="46.49979" lon="5.30844">
        <ele>222.60000610352</ele>
        <time>2021-10-21T14:45:02.000Z</time>
      </trkpt>
      <trkpt lat="46.50003" lon="5.30908">
        <ele>221.80000305176</ele>
        <time>2021-10-21T14:45:08.000Z</time>
      </trkpt>
      <trkpt lat="46.50017" lon="5.30945">
        <ele>220.80000305176</ele>
        <time>2021-10-21T14:45:11.000Z</time>
      </trkpt>
      <trkpt lat="46.50026" lon="5.30971">
        <ele>219.60000610352</ele>
        <time>2021-10-21T14:45:13.000Z</time>
      </trkpt>
      <trkpt lat="46.5004" lon="5.31011">
        <ele>218.60000610352</ele>
        <time>2021-10-21T14:45:16.000Z</time>
      </trkpt>
      <trkpt lat="46.50056" lon="5.31054">
        <ele>217.19999694824</ele>
        <time>2021-10-21T14:45:19.000Z</time>
      </trkpt>
      <trkpt lat="46.5006" lon="5.31069">
        <ele>216.80000305176</ele>
        <time>2021-10-21T14:45:20.000Z</time>
      </trkpt>
      <trkpt lat="46.5007" lon="5.311">
        <ele>215.19999694824</ele>
        <time>2021-10-21T14:45:22.000Z</time>
      </trkpt>
      <trkpt lat="46.50081" lon="5.31131">
        <ele>213.60000610352</ele>
        <time>2021-10-21T14:45:24.000Z</time>
      </trkpt>
      <trkpt lat="46.5009" lon="5.3116">
        <ele>212.80000305176</ele>
        <time>2021-10-21T14:45:26.000Z</time>
      </trkpt>
      <trkpt lat="46.50095" lon="5.31175">
        <ele>212.39999389648</ele>
        <time>2021-10-21T14:45:27.000Z</time>
      </trkpt>
      <trkpt lat="46.50109" lon="5.31216">
        <ele>211.39999389648</ele>
        <time>2021-10-21T14:45:30.000Z</time>
      </trkpt>
      <trkpt lat="46.50117" lon="5.31242">
        <ele>211.19999694824</ele>
        <time>2021-10-21T14:45:32.000Z</time>
      </trkpt>
      <trkpt lat="46.50143" lon="5.31316">
        <ele>211.80000305176</ele>
        <time>2021-10-21T14:45:38.000Z</time>
      </trkpt>
      <trkpt lat="46.50152" lon="5.31342">
        <ele>212.19999694824</ele>
        <time>2021-10-21T14:45:40.000Z</time>
      </trkpt>
      <trkpt lat="46.50179" lon="5.3142">
        <ele>212.39999389648</ele>
        <time>2021-10-21T14:45:46.000Z</time>
      </trkpt>
      <trkpt lat="46.50188" lon="5.31446">
        <ele>212.19999694824</ele>
        <time>2021-10-21T14:45:48.000Z</time>
      </trkpt>
      <trkpt lat="46.50218" lon="5.3153">
        <ele>210</ele>
        <time>2021-10-21T14:45:54.000Z</time>
      </trkpt>
      <trkpt lat="46.5024" lon="5.31566">
        <ele>208.60000610352</ele>
        <time>2021-10-21T14:45:57.000Z</time>
      </trkpt>
      <trkpt lat="46.50248" lon="5.31576">
        <ele>208</ele>
        <time>2021-10-21T14:45:58.000Z</time>
      </trkpt>
      <trkpt lat="46.50257" lon="5.31585">
        <ele>207.39999389648</ele>
        <time>2021-10-21T14:45:59.000Z</time>
      </trkpt>
      <trkpt lat="46.50292" lon="5.31617">
        <ele>206.19999694824</ele>
        <time>2021-10-21T14:46:03.000Z</time>
      </trkpt>
      <trkpt lat="46.50345" lon="5.31656">
        <ele>205.19999694824</ele>
        <time>2021-10-21T14:46:09.000Z</time>
      </trkpt>
      <trkpt lat="46.50353" lon="5.31663">
        <ele>205.19999694824</ele>
        <time>2021-10-21T14:46:10.000Z</time>
      </trkpt>
      <trkpt lat="46.50368" lon="5.3168">
        <ele>205</ele>
        <time>2021-10-21T14:46:12.000Z</time>
      </trkpt>
      <trkpt lat="46.50381" lon="5.31701">
        <ele>205</ele>
        <time>2021-10-21T14:46:14.000Z</time>
      </trkpt>
      <trkpt lat="46.50404" lon="5.3175">
        <ele>205.39999389648</ele>
        <time>2021-10-21T14:46:19.000Z</time>
      </trkpt>
      <trkpt lat="46.50419" lon="5.31805">
        <ele>205.80000305176</ele>
        <time>2021-10-21T14:46:24.000Z</time>
      </trkpt>
      <trkpt lat="46.50429" lon="5.31849">
        <ele>206.19999694824</ele>
        <time>2021-10-21T14:46:28.000Z</time>
      </trkpt>
      <trkpt lat="46.50434" lon="5.31884">
        <ele>206.39999389648</ele>
        <time>2021-10-21T14:46:31.000Z</time>
      </trkpt>
      <trkpt lat="46.50434" lon="5.31952">
        <ele>206.60000610352</ele>
        <time>2021-10-21T14:46:37.000Z</time>
      </trkpt>
      <trkpt lat="46.50431" lon="5.32041">
        <ele>206.60000610352</ele>
        <time>2021-10-21T14:46:45.000Z</time>
      </trkpt>
      <trkpt lat="46.50431" lon="5.32051">
        <ele>206.60000610352</ele>
        <time>2021-10-21T14:46:46.000Z</time>
      </trkpt>
      <trkpt lat="46.50429" lon="5.32133">
        <ele>207.19999694824</ele>
        <time>2021-10-21T14:46:54.000Z</time>
      </trkpt>
      <trkpt lat="46.50428" lon="5.32165">
        <ele>207.39999389648</ele>
        <time>2021-10-21T14:46:57.000Z</time>
      </trkpt>
      <trkpt lat="46.50427" lon="5.32245">
        <ele>208.39999389648</ele>
        <time>2021-10-21T14:47:05.000Z</time>
      </trkpt>
      <trkpt lat="46.50428" lon="5.32263">
        <ele>208.80000305176</ele>
        <time>2021-10-21T14:47:07.000Z</time>
      </trkpt>
      <trkpt lat="46.50437" lon="5.32322">
        <ele>209.60000610352</ele>
        <time>2021-10-21T14:47:13.000Z</time>
      </trkpt>
      <trkpt lat="46.50453" lon="5.32394">
        <ele>210</ele>
        <time>2021-10-21T14:47:20.000Z</time>
      </trkpt>
      <trkpt lat="46.50466" lon="5.32477">
        <ele>209.80000305176</ele>
        <time>2021-10-21T14:47:28.000Z</time>
      </trkpt>
      <trkpt lat="46.50471" lon="5.32556">
        <ele>210.39999389648</ele>
        <time>2021-10-21T14:47:36.000Z</time>
      </trkpt>
      <trkpt lat="46.50472" lon="5.32595">
        <ele>210.80000305176</ele>
        <time>2021-10-21T14:47:40.000Z</time>
      </trkpt>
      <trkpt lat="46.50473" lon="5.32642">
        <ele>211.19999694824</ele>
        <time>2021-10-21T14:47:45.000Z</time>
      </trkpt>
      <trkpt lat="46.50472" lon="5.32719">
        <ele>211.80000305176</ele>
        <time>2021-10-21T14:47:53.000Z</time>
      </trkpt>
      <trkpt lat="46.5047" lon="5.32796">
        <ele>212.80000305176</ele>
        <time>2021-10-21T14:48:01.000Z</time>
      </trkpt>
      <trkpt lat="46.5047" lon="5.32825">
        <ele>213</ele>
        <time>2021-10-21T14:48:04.000Z</time>
      </trkpt>
      <trkpt lat="46.5047" lon="5.32835">
        <ele>213.19999694824</ele>
        <time>2021-10-21T14:48:05.000Z</time>
      </trkpt>
      <trkpt lat="46.50468" lon="5.32894">
        <ele>213.80000305176</ele>
        <time>2021-10-21T14:48:12.000Z</time>
      </trkpt>
      <trkpt lat="46.50468" lon="5.32932">
        <ele>215</ele>
        <time>2021-10-21T14:48:17.000Z</time>
      </trkpt>
      <trkpt lat="46.50467" lon="5.32946">
        <ele>215.60000610352</ele>
        <time>2021-10-21T14:48:19.000Z</time>
      </trkpt>
      <trkpt lat="46.50467" lon="5.32961">
        <ele>216.19999694824</ele>
        <time>2021-10-21T14:48:21.000Z</time>
      </trkpt>
      <trkpt lat="46.50467" lon="5.32997">
        <ele>217.39999389648</ele>
        <time>2021-10-21T14:48:26.000Z</time>
      </trkpt>
      <trkpt lat="46.50467" lon="5.33013">
        <ele>217.80000305176</ele>
        <time>2021-10-21T14:48:28.000Z</time>
      </trkpt>
      <trkpt lat="46.50467" lon="5.3304">
        <ele>218.60000610352</ele>
        <time>2021-10-21T14:48:32.000Z</time>
      </trkpt>
      <trkpt lat="46.50467" lon="5.3306">
        <ele>219.60000610352</ele>
        <time>2021-10-21T14:48:35.000Z</time>
      </trkpt>
      <trkpt lat="46.50466" lon="5.33088">
        <ele>221</ele>
        <time>2021-10-21T14:48:39.000Z</time>
      </trkpt>
      <trkpt lat="46.50465" lon="5.33123">
        <ele>222.19999694824</ele>
        <time>2021-10-21T14:48:44.000Z</time>
      </trkpt>
      <trkpt lat="46.50466" lon="5.33136">
        <ele>222.80000305176</ele>
        <time>2021-10-21T14:48:46.000Z</time>
      </trkpt>
      <trkpt lat="46.50466" lon="5.33158">
        <ele>223.39999389648</ele>
        <time>2021-10-21T14:48:49.000Z</time>
      </trkpt>
      <trkpt lat="46.50466" lon="5.33173">
        <ele>224.39999389648</ele>
        <time>2021-10-21T14:48:51.000Z</time>
      </trkpt>
      <trkpt lat="46.50465" lon="5.33181">
        <ele>224.60000610352</ele>
        <time>2021-10-21T14:48:52.000Z</time>
      </trkpt>
      <trkpt lat="46.50465" lon="5.33188">
        <ele>224.80000305176</ele>
        <time>2021-10-21T14:48:53.000Z</time>
      </trkpt>
      <trkpt lat="46.50465" lon="5.33193">
        <ele>225</ele>
        <time>2021-10-21T14:48:54.000Z</time>
      </trkpt>
      <trkpt lat="46.50465" lon="5.3321">
        <ele>225.39999389648</ele>
        <time>2021-10-21T14:48:56.000Z</time>
      </trkpt>
      <trkpt lat="46.50466" lon="5.33242">
        <ele>225.80000305176</ele>
        <time>2021-10-21T14:49:00.000Z</time>
      </trkpt>
      <trkpt lat="46.50466" lon="5.33296">
        <ele>226</ele>
        <time>2021-10-21T14:49:06.000Z</time>
      </trkpt>
      <trkpt lat="46.50463" lon="5.33346">
        <ele>226</ele>
        <time>2021-10-21T14:49:11.000Z</time>
      </trkpt>
      <trkpt lat="46.50454" lon="5.33394">
        <ele>225.80000305176</ele>
        <time>2021-10-21T14:49:16.000Z</time>
      </trkpt>
      <trkpt lat="46.50447" lon="5.33412">
        <ele>225.80000305176</ele>
        <time>2021-10-21T14:49:18.000Z</time>
      </trkpt>
      <trkpt lat="46.50438" lon="5.33427">
        <ele>225.80000305176</ele>
        <time>2021-10-21T14:49:20.000Z</time>
      </trkpt>
      <trkpt lat="46.50428" lon="5.33441">
        <ele>225.80000305176</ele>
        <time>2021-10-21T14:49:22.000Z</time>
      </trkpt>
      <trkpt lat="46.50407" lon="5.33465">
        <ele>226</ele>
        <time>2021-10-21T14:49:26.000Z</time>
      </trkpt>
      <trkpt lat="46.50387" lon="5.33486">
        <ele>226.39999389648</ele>
        <time>2021-10-21T14:49:30.000Z</time>
      </trkpt>
      <trkpt lat="46.50376" lon="5.33497">
        <ele>226.60000610352</ele>
        <time>2021-10-21T14:49:32.000Z</time>
      </trkpt>
      <trkpt lat="46.50344" lon="5.33532">
        <ele>227.39999389648</ele>
        <time>2021-10-21T14:49:38.000Z</time>
      </trkpt>
      <trkpt lat="46.50339" lon="5.33538">
        <ele>227.60000610352</ele>
        <time>2021-10-21T14:49:39.000Z</time>
      </trkpt>
      <trkpt lat="46.503" lon="5.33578">
        <ele>228</ele>
        <time>2021-10-21T14:49:46.000Z</time>
      </trkpt>
      <trkpt lat="46.50285" lon="5.33595">
        <ele>228.60000610352</ele>
        <time>2021-10-21T14:49:49.000Z</time>
      </trkpt>
      <trkpt lat="46.50253" lon="5.3363">
        <ele>229.19999694824</ele>
        <time>2021-10-21T14:49:55.000Z</time>
      </trkpt>
      <trkpt lat="46.50244" lon="5.33639">
        <ele>229.19999694824</ele>
        <time>2021-10-21T14:49:57.000Z</time>
      </trkpt>
      <trkpt lat="46.50227" lon="5.33654">
        <ele>229.39999389648</ele>
        <time>2021-10-21T14:50:00.000Z</time>
      </trkpt>
      <trkpt lat="46.50218" lon="5.33662">
        <ele>229.60000610352</ele>
        <time>2021-10-21T14:50:02.000Z</time>
      </trkpt>
      <trkpt lat="46.50212" lon="5.33668">
        <ele>229.60000610352</ele>
        <time>2021-10-21T14:50:03.000Z</time>
      </trkpt>
      <trkpt lat="46.50207" lon="5.33672">
        <ele>229.80000305176</ele>
        <time>2021-10-21T14:50:04.000Z</time>
      </trkpt>
      <trkpt lat="46.50172" lon="5.3371">
        <ele>230</ele>
        <time>2021-10-21T14:50:10.000Z</time>
      </trkpt>
      <trkpt lat="46.50141" lon="5.33742">
        <ele>230.19999694824</ele>
        <time>2021-10-21T14:50:15.000Z</time>
      </trkpt>
      <trkpt lat="46.50103" lon="5.33784">
        <ele>229.80000305176</ele>
        <time>2021-10-21T14:50:21.000Z</time>
      </trkpt>
      <trkpt lat="46.5006" lon="5.33833">
        <ele>229.80000305176</ele>
        <time>2021-10-21T14:50:28.000Z</time>
      </trkpt>
      <trkpt lat="46.50049" lon="5.33845">
        <ele>229.80000305176</ele>
        <time>2021-10-21T14:50:30.000Z</time>
      </trkpt>
      <trkpt lat="46.50028" lon="5.33869">
        <ele>230.19999694824</ele>
        <time>2021-10-21T14:50:34.000Z</time>
      </trkpt>
      <trkpt lat="46.50023" lon="5.33873">
        <ele>230.19999694824</ele>
        <time>2021-10-21T14:50:35.000Z</time>
      </trkpt>
      <trkpt lat="46.50008" lon="5.33889">
        <ele>230.80000305176</ele>
        <time>2021-10-21T14:50:38.000Z</time>
      </trkpt>
      <trkpt lat="46.49983" lon="5.33914">
        <ele>231.39999389648</ele>
        <time>2021-10-21T14:50:42.000Z</time>
      </trkpt>
      <trkpt lat="46.49967" lon="5.33931">
        <ele>231.80000305176</ele>
        <time>2021-10-21T14:50:45.000Z</time>
      </trkpt>
      <trkpt lat="46.49962" lon="5.33937">
        <ele>232</ele>
        <time>2021-10-21T14:50:46.000Z</time>
      </trkpt>
      <trkpt lat="46.49954" lon="5.33945">
        <ele>232</ele>
        <time>2021-10-21T14:50:47.000Z</time>
      </trkpt>
      <trkpt lat="46.49936" lon="5.33967">
        <ele>232</ele>
        <time>2021-10-21T14:50:50.000Z</time>
      </trkpt>
      <trkpt lat="46.49897" lon="5.3401">
        <ele>231.80000305176</ele>
        <time>2021-10-21T14:50:56.000Z</time>
      </trkpt>
      <trkpt lat="46.49872" lon="5.34038">
        <ele>230.80000305176</ele>
        <time>2021-10-21T14:51:00.000Z</time>
      </trkpt>
      <trkpt lat="46.49864" lon="5.34046">
        <ele>230.60000610352</ele>
        <time>2021-10-21T14:51:01.000Z</time>
      </trkpt>
      <trkpt lat="46.49836" lon="5.34086">
        <ele>229.60000610352</ele>
        <time>2021-10-21T14:51:06.000Z</time>
      </trkpt>
      <trkpt lat="46.498" lon="5.34145">
        <ele>229.60000610352</ele>
        <time>2021-10-21T14:51:13.000Z</time>
      </trkpt>
      <trkpt lat="46.49794" lon="5.34154">
        <ele>229.60000610352</ele>
        <time>2021-10-21T14:51:14.000Z</time>
      </trkpt>
      <trkpt lat="46.49769" lon="5.34195">
        <ele>229.80000305176</ele>
        <time>2021-10-21T14:51:19.000Z</time>
      </trkpt>
      <trkpt lat="46.49742" lon="5.34238">
        <ele>229.60000610352</ele>
        <time>2021-10-21T14:51:24.000Z</time>
      </trkpt>
      <trkpt lat="46.49732" lon="5.34256">
        <ele>229.39999389648</ele>
        <time>2021-10-21T14:51:26.000Z</time>
      </trkpt>
      <trkpt lat="46.49712" lon="5.34296">
        <ele>229.19999694824</ele>
        <time>2021-10-21T14:51:30.000Z</time>
      </trkpt>
      <trkpt lat="46.49695" lon="5.34348">
        <ele>229.19999694824</ele>
        <time>2021-10-21T14:51:35.000Z</time>
      </trkpt>
      <trkpt lat="46.49679" lon="5.34409">
        <ele>228.80000305176</ele>
        <time>2021-10-21T14:51:40.000Z</time>
      </trkpt>
      <trkpt lat="46.49673" lon="5.34432">
        <ele>228.39999389648</ele>
        <time>2021-10-21T14:51:42.000Z</time>
      </trkpt>
      <trkpt lat="46.49656" lon="5.34492">
        <ele>227.39999389648</ele>
        <time>2021-10-21T14:51:47.000Z</time>
      </trkpt>
      <trkpt lat="46.49652" lon="5.34506">
        <ele>227.19999694824</ele>
        <time>2021-10-21T14:51:48.000Z</time>
      </trkpt>
      <trkpt lat="46.49644" lon="5.34526">
        <ele>226.60000610352</ele>
        <time>2021-10-21T14:51:50.000Z</time>
      </trkpt>
      <trkpt lat="46.49639" lon="5.34534">
        <ele>226.39999389648</ele>
        <time>2021-10-21T14:51:51.000Z</time>
      </trkpt>
      <trkpt lat="46.49633" lon="5.34539">
        <ele>226</ele>
        <time>2021-10-21T14:51:52.000Z</time>
      </trkpt>
      <trkpt lat="46.49618" lon="5.34553">
        <ele>225.60000610352</ele>
        <time>2021-10-21T14:51:54.000Z</time>
      </trkpt>
      <trkpt lat="46.49613" lon="5.34561">
        <ele>225.39999389648</ele>
        <time>2021-10-21T14:51:55.000Z</time>
      </trkpt>
      <trkpt lat="46.49603" lon="5.34576">
        <ele>224.60000610352</ele>
        <time>2021-10-21T14:51:57.000Z</time>
      </trkpt>
      <trkpt lat="46.49588" lon="5.34599">
        <ele>224</ele>
        <time>2021-10-21T14:52:00.000Z</time>
      </trkpt>
      <trkpt lat="46.49583" lon="5.34605">
        <ele>224</ele>
        <time>2021-10-21T14:52:01.000Z</time>
      </trkpt>
      <trkpt lat="46.49566" lon="5.34626">
        <ele>223.80000305176</ele>
        <time>2021-10-21T14:52:04.000Z</time>
      </trkpt>
      <trkpt lat="46.49542" lon="5.34656">
        <ele>224.39999389648</ele>
        <time>2021-10-21T14:52:09.000Z</time>
      </trkpt>
      <trkpt lat="46.49519" lon="5.34679">
        <ele>225.60000610352</ele>
        <time>2021-10-21T14:52:14.000Z</time>
      </trkpt>
      <trkpt lat="46.49505" lon="5.34696">
        <ele>226.80000305176</ele>
        <time>2021-10-21T14:52:18.000Z</time>
      </trkpt>
      <trkpt lat="46.495" lon="5.34701">
        <ele>226.80000305176</ele>
        <time>2021-10-21T14:52:19.000Z</time>
      </trkpt>
      <trkpt lat="46.49497" lon="5.34704">
        <ele>227.19999694824</ele>
        <time>2021-10-21T14:52:20.000Z</time>
      </trkpt>
      <trkpt lat="46.49488" lon="5.34714">
        <ele>227.80000305176</ele>
        <time>2021-10-21T14:52:22.000Z</time>
      </trkpt>
      <trkpt lat="46.49482" lon="5.34719">
        <ele>228.19999694824</ele>
        <time>2021-10-21T14:52:23.000Z</time>
      </trkpt>
      <trkpt lat="46.49477" lon="5.34729">
        <ele>228.80000305176</ele>
        <time>2021-10-21T14:52:25.000Z</time>
      </trkpt>
      <trkpt lat="46.4947" lon="5.34737">
        <ele>229.19999694824</ele>
        <time>2021-10-21T14:52:27.000Z</time>
      </trkpt>
      <trkpt lat="46.49465" lon="5.34744">
        <ele>229.80000305176</ele>
        <time>2021-10-21T14:52:29.000Z</time>
      </trkpt>
      <trkpt lat="46.4945" lon="5.34759">
        <ele>230.80000305176</ele>
        <time>2021-10-21T14:52:33.000Z</time>
      </trkpt>
      <trkpt lat="46.49447" lon="5.34761">
        <ele>231.19999694824</ele>
        <time>2021-10-21T14:52:34.000Z</time>
      </trkpt>
      <trkpt lat="46.49432" lon="5.34774">
        <ele>232.39999389648</ele>
        <time>2021-10-21T14:52:38.000Z</time>
      </trkpt>
      <trkpt lat="46.49421" lon="5.34783">
        <ele>233.39999389648</ele>
        <time>2021-10-21T14:52:41.000Z</time>
      </trkpt>
      <trkpt lat="46.49414" lon="5.34788">
        <ele>233.80000305176</ele>
        <time>2021-10-21T14:52:43.000Z</time>
      </trkpt>
      <trkpt lat="46.49395" lon="5.34804">
        <ele>234.60000610352</ele>
        <time>2021-10-21T14:52:47.000Z</time>
      </trkpt>
      <trkpt lat="46.4939" lon="5.34807">
        <ele>234.60000610352</ele>
        <time>2021-10-21T14:52:48.000Z</time>
      </trkpt>
      <trkpt lat="46.4937" lon="5.34818">
        <ele>235.39999389648</ele>
        <time>2021-10-21T14:52:52.000Z</time>
      </trkpt>
      <trkpt lat="46.4936" lon="5.3482">
        <ele>235.60000610352</ele>
        <time>2021-10-21T14:52:54.000Z</time>
      </trkpt>
      <trkpt lat="46.4932" lon="5.34825">
        <ele>235.80000305176</ele>
        <time>2021-10-21T14:53:01.000Z</time>
      </trkpt>
      <trkpt lat="46.49289" lon="5.34833">
        <ele>235</ele>
        <time>2021-10-21T14:53:06.000Z</time>
      </trkpt>
      <trkpt lat="46.49279" lon="5.34841">
        <ele>235</ele>
        <time>2021-10-21T14:53:08.000Z</time>
      </trkpt>
      <trkpt lat="46.49249" lon="5.34876">
        <ele>235</ele>
        <time>2021-10-21T14:53:14.000Z</time>
      </trkpt>
      <trkpt lat="46.49244" lon="5.34882">
        <ele>235</ele>
        <time>2021-10-21T14:53:15.000Z</time>
      </trkpt>
      <trkpt lat="46.49225" lon="5.3491">
        <ele>235</ele>
        <time>2021-10-21T14:53:19.000Z</time>
      </trkpt>
      <trkpt lat="46.4922" lon="5.34919">
        <ele>235</ele>
        <time>2021-10-21T14:53:20.000Z</time>
      </trkpt>
      <trkpt lat="46.49185" lon="5.34971">
        <ele>235.39999389648</ele>
        <time>2021-10-21T14:53:27.000Z</time>
      </trkpt>
      <trkpt lat="46.49151" lon="5.3501">
        <ele>235.80000305176</ele>
        <time>2021-10-21T14:53:33.000Z</time>
      </trkpt>
      <trkpt lat="46.49145" lon="5.35016">
        <ele>235.80000305176</ele>
        <time>2021-10-21T14:53:34.000Z</time>
      </trkpt>
      <trkpt lat="46.49129" lon="5.35033">
        <ele>236.19999694824</ele>
        <time>2021-10-21T14:53:37.000Z</time>
      </trkpt>
      <trkpt lat="46.4911" lon="5.3505">
        <ele>236.39999389648</ele>
        <time>2021-10-21T14:53:40.000Z</time>
      </trkpt>
      <trkpt lat="46.49088" lon="5.35068">
        <ele>236.60000610352</ele>
        <time>2021-10-21T14:53:44.000Z</time>
      </trkpt>
      <trkpt lat="46.49079" lon="5.35077">
        <ele>236.80000305176</ele>
        <time>2021-10-21T14:53:46.000Z</time>
      </trkpt>
      <trkpt lat="46.4907" lon="5.35085">
        <ele>237.19999694824</ele>
        <time>2021-10-21T14:53:48.000Z</time>
      </trkpt>
      <trkpt lat="46.49054" lon="5.35098">
        <ele>237.60000610352</ele>
        <time>2021-10-21T14:53:51.000Z</time>
      </trkpt>
      <trkpt lat="46.49051" lon="5.35101">
        <ele>237.80000305176</ele>
        <time>2021-10-21T14:53:52.000Z</time>
      </trkpt>
      <trkpt lat="46.49029" lon="5.35129">
        <ele>238.39999389648</ele>
        <time>2021-10-21T14:53:57.000Z</time>
      </trkpt>
      <trkpt lat="46.49003" lon="5.35183">
        <ele>238.39999389648</ele>
        <time>2021-10-21T14:54:04.000Z</time>
      </trkpt>
      <trkpt lat="46.48981" lon="5.35231">
        <ele>238.19999694824</ele>
        <time>2021-10-21T14:54:09.000Z</time>
      </trkpt>
      <trkpt lat="46.48951" lon="5.35297">
        <ele>236.80000305176</ele>
        <time>2021-10-21T14:54:16.000Z</time>
      </trkpt>
      <trkpt lat="46.48946" lon="5.35308">
        <ele>236.60000610352</ele>
        <time>2021-10-21T14:54:17.000Z</time>
      </trkpt>
      <trkpt lat="46.48921" lon="5.35365">
        <ele>236.19999694824</ele>
        <time>2021-10-21T14:54:23.000Z</time>
      </trkpt>
      <trkpt lat="46.48889" lon="5.35438">
        <ele>236.39999389648</ele>
        <time>2021-10-21T14:54:31.000Z</time>
      </trkpt>
      <trkpt lat="46.48866" lon="5.35492">
        <ele>237</ele>
        <time>2021-10-21T14:54:37.000Z</time>
      </trkpt>
      <trkpt lat="46.48837" lon="5.35559">
        <ele>237.19999694824</ele>
        <time>2021-10-21T14:54:45.000Z</time>
      </trkpt>
      <trkpt lat="46.48812" lon="5.35615">
        <ele>237.60000610352</ele>
        <time>2021-10-21T14:54:52.000Z</time>
      </trkpt>
      <trkpt lat="46.48786" lon="5.35672">
        <ele>237.60000610352</ele>
        <time>2021-10-21T14:54:59.000Z</time>
      </trkpt>
      <trkpt lat="46.48755" lon="5.35739">
        <ele>237.60000610352</ele>
        <time>2021-10-21T14:55:07.000Z</time>
      </trkpt>
      <trkpt lat="46.48728" lon="5.358">
        <ele>237.39999389648</ele>
        <time>2021-10-21T14:55:14.000Z</time>
      </trkpt>
      <trkpt lat="46.48724" lon="5.3581">
        <ele>237.39999389648</ele>
        <time>2021-10-21T14:55:15.000Z</time>
      </trkpt>
      <trkpt lat="46.48708" lon="5.35852">
        <ele>237.80000305176</ele>
        <time>2021-10-21T14:55:20.000Z</time>
      </trkpt>
      <trkpt lat="46.48685" lon="5.35914">
        <ele>238.39999389648</ele>
        <time>2021-10-21T14:55:27.000Z</time>
      </trkpt>
      <trkpt lat="46.48683" lon="5.35923">
        <ele>238.60000610352</ele>
        <time>2021-10-21T14:55:28.000Z</time>
      </trkpt>
      <trkpt lat="46.48682" lon="5.35931">
        <ele>238.80000305176</ele>
        <time>2021-10-21T14:55:29.000Z</time>
      </trkpt>
      <trkpt lat="46.48679" lon="5.35959">
        <ele>239.39999389648</ele>
        <time>2021-10-21T14:55:32.000Z</time>
      </trkpt>
      <trkpt lat="46.48678" lon="5.35968">
        <ele>239.80000305176</ele>
        <time>2021-10-21T14:55:33.000Z</time>
      </trkpt>
      <trkpt lat="46.48671" lon="5.36016">
        <ele>240.19999694824</ele>
        <time>2021-10-21T14:55:38.000Z</time>
      </trkpt>
      <trkpt lat="46.48668" lon="5.36026">
        <ele>240.19999694824</ele>
        <time>2021-10-21T14:55:39.000Z</time>
      </trkpt>
      <trkpt lat="46.48656" lon="5.36083">
        <ele>240</ele>
        <time>2021-10-21T14:55:44.000Z</time>
      </trkpt>
      <trkpt lat="46.48644" lon="5.3614">
        <ele>238.60000610352</ele>
        <time>2021-10-21T14:55:49.000Z</time>
      </trkpt>
      <trkpt lat="46.48642" lon="5.36151">
        <ele>238.60000610352</ele>
        <time>2021-10-21T14:55:50.000Z</time>
      </trkpt>
      <trkpt lat="46.48637" lon="5.36215">
        <ele>238.39999389648</ele>
        <time>2021-10-21T14:55:56.000Z</time>
      </trkpt>
      <trkpt lat="46.48627" lon="5.3629">
        <ele>239.39999389648</ele>
        <time>2021-10-21T14:56:04.000Z</time>
      </trkpt>
      <trkpt lat="46.48625" lon="5.36298">
        <ele>239.60000610352</ele>
        <time>2021-10-21T14:56:05.000Z</time>
      </trkpt>
      <trkpt lat="46.48617" lon="5.3631">
        <ele>240</ele>
        <time>2021-10-21T14:56:07.000Z</time>
      </trkpt>
      <trkpt lat="46.48608" lon="5.36317">
        <ele>240</ele>
        <time>2021-10-21T14:56:09.000Z</time>
      </trkpt>
      <trkpt lat="46.48602" lon="5.36319">
        <ele>240</ele>
        <time>2021-10-21T14:56:10.000Z</time>
      </trkpt>
      <trkpt lat="46.48592" lon="5.36322">
        <ele>240.80000305176</ele>
        <time>2021-10-21T14:56:12.000Z</time>
      </trkpt>
      <trkpt lat="46.48567" lon="5.36326">
        <ele>241.60000610352</ele>
        <time>2021-10-21T14:56:17.000Z</time>
      </trkpt>
      <trkpt lat="46.48563" lon="5.36327">
        <ele>242</ele>
        <time>2021-10-21T14:56:18.000Z</time>
      </trkpt>
      <trkpt lat="46.48543" lon="5.36331">
        <ele>243</ele>
        <time>2021-10-21T14:56:22.000Z</time>
      </trkpt>
      <trkpt lat="46.4851" lon="5.36337">
        <ele>244.19999694824</ele>
        <time>2021-10-21T14:56:28.000Z</time>
      </trkpt>
      <trkpt lat="46.48504" lon="5.36337">
        <ele>244.39999389648</ele>
        <time>2021-10-21T14:56:29.000Z</time>
      </trkpt>
      <trkpt lat="46.48452" lon="5.36345">
        <ele>245.19999694824</ele>
        <time>2021-10-21T14:56:38.000Z</time>
      </trkpt>
      <trkpt lat="46.48417" lon="5.36354">
        <ele>245.80000305176</ele>
        <time>2021-10-21T14:56:44.000Z</time>
      </trkpt>
      <trkpt lat="46.48411" lon="5.36358">
        <ele>245.80000305176</ele>
        <time>2021-10-21T14:56:45.000Z</time>
      </trkpt>
      <trkpt lat="46.48375" lon="5.36391">
        <ele>245.80000305176</ele>
        <time>2021-10-21T14:56:52.000Z</time>
      </trkpt>
      <trkpt lat="46.48352" lon="5.36416">
        <ele>246.39999389648</ele>
        <time>2021-10-21T14:56:57.000Z</time>
      </trkpt>
      <trkpt lat="46.48335" lon="5.36435">
        <ele>246.60000610352</ele>
        <time>2021-10-21T14:57:01.000Z</time>
      </trkpt>
      <trkpt lat="46.48317" lon="5.36455">
        <ele>247.39999389648</ele>
        <time>2021-10-21T14:57:05.000Z</time>
      </trkpt>
      <trkpt lat="46.48302" lon="5.36471">
        <ele>248.39999389648</ele>
        <time>2021-10-21T14:57:09.000Z</time>
      </trkpt>
      <trkpt lat="46.48271" lon="5.36505">
        <ele>249.39999389648</ele>
        <time>2021-10-21T14:57:17.000Z</time>
      </trkpt>
      <trkpt lat="46.48267" lon="5.36509">
        <ele>249.39999389648</ele>
        <time>2021-10-21T14:57:18.000Z</time>
      </trkpt>
      <trkpt lat="46.48232" lon="5.36548">
        <ele>250.39999389648</ele>
        <time>2021-10-21T14:57:27.000Z</time>
      </trkpt>
      <trkpt lat="46.48228" lon="5.36552">
        <ele>250.39999389648</ele>
        <time>2021-10-21T14:57:28.000Z</time>
      </trkpt>
      <trkpt lat="46.4822" lon="5.36558">
        <ele>251</ele>
        <time>2021-10-21T14:57:30.000Z</time>
      </trkpt>
      <trkpt lat="46.48215" lon="5.36559">
        <ele>251.19999694824</ele>
        <time>2021-10-21T14:57:31.000Z</time>
      </trkpt>
      <trkpt lat="46.48201" lon="5.36559">
        <ele>251.60000610352</ele>
        <time>2021-10-21T14:57:34.000Z</time>
      </trkpt>
      <trkpt lat="46.48192" lon="5.36565">
        <ele>251.80000305176</ele>
        <time>2021-10-21T14:57:36.000Z</time>
      </trkpt>
      <trkpt lat="46.48187" lon="5.36576">
        <ele>252</ele>
        <time>2021-10-21T14:57:38.000Z</time>
      </trkpt>
      <trkpt lat="46.48185" lon="5.36583">
        <ele>252</ele>
        <time>2021-10-21T14:57:39.000Z</time>
      </trkpt>
      <trkpt lat="46.4818" lon="5.36597">
        <ele>252.19999694824</ele>
        <time>2021-10-21T14:57:41.000Z</time>
      </trkpt>
      <trkpt lat="46.48174" lon="5.36609">
        <ele>252.19999694824</ele>
        <time>2021-10-21T14:57:43.000Z</time>
      </trkpt>
      <trkpt lat="46.4817" lon="5.36614">
        <ele>252.19999694824</ele>
        <time>2021-10-21T14:57:44.000Z</time>
      </trkpt>
      <trkpt lat="46.48156" lon="5.36628">
        <ele>252.39999389648</ele>
        <time>2021-10-21T14:57:47.000Z</time>
      </trkpt>
      <trkpt lat="46.48139" lon="5.36649">
        <ele>252.39999389648</ele>
        <time>2021-10-21T14:57:51.000Z</time>
      </trkpt>
      <trkpt lat="46.48122" lon="5.36666">
        <ele>252.60000610352</ele>
        <time>2021-10-21T14:57:55.000Z</time>
      </trkpt>
      <trkpt lat="46.48114" lon="5.36675">
        <ele>252.80000305176</ele>
        <time>2021-10-21T14:57:57.000Z</time>
      </trkpt>
      <trkpt lat="46.48107" lon="5.36683">
        <ele>253</ele>
        <time>2021-10-21T14:57:59.000Z</time>
      </trkpt>
      <trkpt lat="46.48105" lon="5.36688">
        <ele>253</ele>
        <time>2021-10-21T14:58:00.000Z</time>
      </trkpt>
      <trkpt lat="46.48103" lon="5.367">
        <ele>253.60000610352</ele>
        <time>2021-10-21T14:58:02.000Z</time>
      </trkpt>
      <trkpt lat="46.48106" lon="5.36705">
        <ele>253.60000610352</ele>
        <time>2021-10-21T14:58:03.000Z</time>
      </trkpt>
      <trkpt lat="46.4811" lon="5.3671">
        <ele>254</ele>
        <time>2021-10-21T14:58:04.000Z</time>
      </trkpt>
      <trkpt lat="46.48114" lon="5.36713">
        <ele>254</ele>
        <time>2021-10-21T14:58:05.000Z</time>
      </trkpt>
      <trkpt lat="46.48127" lon="5.36722">
        <ele>254.60000610352</ele>
        <time>2021-10-21T14:58:08.000Z</time>
      </trkpt>
      <trkpt lat="46.48148" lon="5.36741">
        <ele>255.60000610352</ele>
        <time>2021-10-21T14:58:13.000Z</time>
      </trkpt>
      <trkpt lat="46.48178" lon="5.36765">
        <ele>256.79998779297</ele>
        <time>2021-10-21T14:58:20.000Z</time>
      </trkpt>
      <trkpt lat="46.4819" lon="5.36775">
        <ele>257.60000610352</ele>
        <time>2021-10-21T14:58:23.000Z</time>
      </trkpt>
      <trkpt lat="46.48194" lon="5.36778">
        <ele>258</ele>
        <time>2021-10-21T14:58:24.000Z</time>
      </trkpt>
      <trkpt lat="46.48212" lon="5.36794">
        <ele>259</ele>
        <time>2021-10-21T14:58:29.000Z</time>
      </trkpt>
      <trkpt lat="46.48223" lon="5.36804">
        <ele>259.79998779297</ele>
        <time>2021-10-21T14:58:32.000Z</time>
      </trkpt>
      <trkpt lat="46.4823" lon="5.3681">
        <ele>260.39999389648</ele>
        <time>2021-10-21T14:58:34.000Z</time>
      </trkpt>
      <trkpt lat="46.48234" lon="5.36813">
        <ele>260.60000610352</ele>
        <time>2021-10-21T14:58:35.000Z</time>
      </trkpt>
      <trkpt lat="46.48243" lon="5.36823">
        <ele>261.60000610352</ele>
        <time>2021-10-21T14:58:38.000Z</time>
      </trkpt>
      <trkpt lat="46.48247" lon="5.36827">
        <ele>261.60000610352</ele>
        <time>2021-10-21T14:58:39.000Z</time>
      </trkpt>
    </trkseg>
  </trk>
</gpx>